<?xml version="1.0" encoding="UTF-8" standalone="no" ?>
<gpx xmlns="http://www.topografix.com/GPX/1/1" xmlns:xsi="http://www.w3.org/2001/XMLSchema-instance" xsi:schemaLocation="http://www.topografix.com/GPX/1/1 http://www.topografix.com/GPX/1/1/gpx.xsd" version="1.1" creator="VisuGPX - https://www.visugpx.com">
  <metadata>
    <name>2021 05 23 Vosne Romanée</name>
  </metadata>
  <trk>
    <name><![CDATA[2021 05 23 Vosne Romanée_1]]></name>
    <trkseg>
      <trkpt lat="47.15794" lon="4.95488">
        <ele>274.2</ele>
        <time>2021-05-23T06:42:01Z</time>
      </trkpt>
      <trkpt lat="47.15797" lon="4.95493">
        <ele>258</ele>
        <time>2021-05-23T06:42:23Z</time>
      </trkpt>
      <trkpt lat="47.15797" lon="4.95486">
        <ele>250</ele>
        <time>2021-05-23T06:43:40Z</time>
      </trkpt>
      <trkpt lat="47.15799" lon="4.95492">
        <ele>249.4</ele>
        <time>2021-05-23T06:43:52Z</time>
      </trkpt>
      <trkpt lat="47.15803" lon="4.95487">
        <ele>246.2</ele>
        <time>2021-05-23T06:45:29Z</time>
      </trkpt>
      <trkpt lat="47.15808" lon="4.95487">
        <ele>248.4</ele>
        <time>2021-05-23T06:45:33Z</time>
      </trkpt>
      <trkpt lat="47.15813" lon="4.95487">
        <ele>246.1</ele>
        <time>2021-05-23T06:45:38Z</time>
      </trkpt>
      <trkpt lat="47.15818" lon="4.95485">
        <ele>248.9</ele>
        <time>2021-05-23T06:45:43Z</time>
      </trkpt>
      <trkpt lat="47.15824" lon="4.95483">
        <ele>248.5</ele>
        <time>2021-05-23T06:45:48Z</time>
      </trkpt>
      <trkpt lat="47.15828" lon="4.95478">
        <ele>247</ele>
        <time>2021-05-23T06:45:53Z</time>
      </trkpt>
      <trkpt lat="47.15831" lon="4.95473">
        <ele>245.9</ele>
        <time>2021-05-23T06:45:58Z</time>
      </trkpt>
      <trkpt lat="47.15834" lon="4.95468">
        <ele>245.2</ele>
        <time>2021-05-23T06:46:03Z</time>
      </trkpt>
      <trkpt lat="47.15839" lon="4.95463">
        <ele>242.8</ele>
        <time>2021-05-23T06:46:10Z</time>
      </trkpt>
      <trkpt lat="47.15843" lon="4.95456">
        <ele>239.4</ele>
        <time>2021-05-23T06:46:18Z</time>
      </trkpt>
      <trkpt lat="47.15849" lon="4.95452">
        <ele>238.4</ele>
        <time>2021-05-23T06:46:22Z</time>
      </trkpt>
      <trkpt lat="47.15854" lon="4.95446">
        <ele>237.3</ele>
        <time>2021-05-23T06:46:27Z</time>
      </trkpt>
      <trkpt lat="47.15859" lon="4.95443">
        <ele>240.4</ele>
        <time>2021-05-23T06:46:31Z</time>
      </trkpt>
      <trkpt lat="47.15864" lon="4.95442">
        <ele>241.2</ele>
        <time>2021-05-23T06:46:37Z</time>
      </trkpt>
      <trkpt lat="47.15869" lon="4.95437">
        <ele>236.9</ele>
        <time>2021-05-23T06:46:47Z</time>
      </trkpt>
      <trkpt lat="47.15873" lon="4.95432">
        <ele>238.1</ele>
        <time>2021-05-23T06:46:51Z</time>
      </trkpt>
      <trkpt lat="47.15876" lon="4.95426">
        <ele>238.4</ele>
        <time>2021-05-23T06:46:56Z</time>
      </trkpt>
      <trkpt lat="47.15876" lon="4.95419">
        <ele>238.5</ele>
        <time>2021-05-23T06:47:00Z</time>
      </trkpt>
      <trkpt lat="47.15878" lon="4.95412">
        <ele>239.8</ele>
        <time>2021-05-23T06:47:05Z</time>
      </trkpt>
      <trkpt lat="47.1588" lon="4.95407">
        <ele>239.8</ele>
        <time>2021-05-23T06:47:08Z</time>
      </trkpt>
      <trkpt lat="47.15886" lon="4.95407">
        <ele>245.3</ele>
        <time>2021-05-23T06:47:11Z</time>
      </trkpt>
      <trkpt lat="47.15888" lon="4.95394">
        <ele>244.4</ele>
        <time>2021-05-23T06:47:20Z</time>
      </trkpt>
      <trkpt lat="47.15889" lon="4.95387">
        <ele>243.4</ele>
        <time>2021-05-23T06:47:24Z</time>
      </trkpt>
      <trkpt lat="47.15889" lon="4.9538">
        <ele>241.4</ele>
        <time>2021-05-23T06:47:28Z</time>
      </trkpt>
      <trkpt lat="47.15892" lon="4.95373">
        <ele>238.4</ele>
        <time>2021-05-23T06:47:35Z</time>
      </trkpt>
      <trkpt lat="47.15895" lon="4.95368">
        <ele>238.8</ele>
        <time>2021-05-23T06:47:37Z</time>
      </trkpt>
      <trkpt lat="47.15898" lon="4.95363">
        <ele>236.9</ele>
        <time>2021-05-23T06:47:41Z</time>
      </trkpt>
      <trkpt lat="47.15902" lon="4.95358">
        <ele>238.5</ele>
        <time>2021-05-23T06:47:45Z</time>
      </trkpt>
      <trkpt lat="47.15908" lon="4.95353">
        <ele>239.1</ele>
        <time>2021-05-23T06:47:48Z</time>
      </trkpt>
      <trkpt lat="47.15914" lon="4.95351">
        <ele>239.6</ele>
        <time>2021-05-23T06:47:51Z</time>
      </trkpt>
      <trkpt lat="47.15918" lon="4.95352">
        <ele>240.8</ele>
        <time>2021-05-23T06:47:56Z</time>
      </trkpt>
      <trkpt lat="47.15925" lon="4.95354">
        <ele>243.9</ele>
        <time>2021-05-23T06:48:00Z</time>
      </trkpt>
      <trkpt lat="47.1593" lon="4.95358">
        <ele>243.5</ele>
        <time>2021-05-23T06:48:03Z</time>
      </trkpt>
      <trkpt lat="47.15935" lon="4.95362">
        <ele>240.6</ele>
        <time>2021-05-23T06:48:09Z</time>
      </trkpt>
      <trkpt lat="47.15942" lon="4.9536">
        <ele>241.5</ele>
        <time>2021-05-23T06:48:14Z</time>
      </trkpt>
      <trkpt lat="47.15947" lon="4.95361">
        <ele>242.9</ele>
        <time>2021-05-23T06:48:18Z</time>
      </trkpt>
      <trkpt lat="47.15951" lon="4.95366">
        <ele>243.7</ele>
        <time>2021-05-23T06:48:22Z</time>
      </trkpt>
      <trkpt lat="47.15955" lon="4.9537">
        <ele>244</ele>
        <time>2021-05-23T06:48:26Z</time>
      </trkpt>
      <trkpt lat="47.15962" lon="4.95372">
        <ele>245.3</ele>
        <time>2021-05-23T06:48:35Z</time>
      </trkpt>
      <trkpt lat="47.15966" lon="4.95375">
        <ele>241.4</ele>
        <time>2021-05-23T06:48:39Z</time>
      </trkpt>
      <trkpt lat="47.15973" lon="4.95377">
        <ele>241.1</ele>
        <time>2021-05-23T06:48:43Z</time>
      </trkpt>
      <trkpt lat="47.15978" lon="4.95378">
        <ele>243.7</ele>
        <time>2021-05-23T06:48:47Z</time>
      </trkpt>
      <trkpt lat="47.15983" lon="4.95381">
        <ele>243.4</ele>
        <time>2021-05-23T06:48:52Z</time>
      </trkpt>
      <trkpt lat="47.15988" lon="4.95386">
        <ele>246.4</ele>
        <time>2021-05-23T06:48:59Z</time>
      </trkpt>
      <trkpt lat="47.15992" lon="4.95391">
        <ele>245.5</ele>
        <time>2021-05-23T06:49:05Z</time>
      </trkpt>
      <trkpt lat="47.15997" lon="4.95393">
        <ele>244.5</ele>
        <time>2021-05-23T06:49:08Z</time>
      </trkpt>
      <trkpt lat="47.16002" lon="4.95396">
        <ele>246.6</ele>
        <time>2021-05-23T06:49:13Z</time>
      </trkpt>
      <trkpt lat="47.16006" lon="4.95401">
        <ele>250.5</ele>
        <time>2021-05-23T06:49:18Z</time>
      </trkpt>
      <trkpt lat="47.16011" lon="4.95405">
        <ele>249.6</ele>
        <time>2021-05-23T06:49:22Z</time>
      </trkpt>
      <trkpt lat="47.16016" lon="4.95406">
        <ele>245.8</ele>
        <time>2021-05-23T06:49:27Z</time>
      </trkpt>
      <trkpt lat="47.1602" lon="4.9541">
        <ele>245.5</ele>
        <time>2021-05-23T06:49:31Z</time>
      </trkpt>
      <trkpt lat="47.16026" lon="4.95414">
        <ele>245.7</ele>
        <time>2021-05-23T06:49:36Z</time>
      </trkpt>
      <trkpt lat="47.1603" lon="4.95417">
        <ele>244.4</ele>
        <time>2021-05-23T06:49:39Z</time>
      </trkpt>
      <trkpt lat="47.16035" lon="4.95424">
        <ele>246.7</ele>
        <time>2021-05-23T06:49:44Z</time>
      </trkpt>
      <trkpt lat="47.16039" lon="4.9543">
        <ele>247.2</ele>
        <time>2021-05-23T06:49:50Z</time>
      </trkpt>
      <trkpt lat="47.16043" lon="4.95435">
        <ele>249.7</ele>
        <time>2021-05-23T06:49:54Z</time>
      </trkpt>
      <trkpt lat="47.16048" lon="4.95438">
        <ele>247.9</ele>
        <time>2021-05-23T06:49:58Z</time>
      </trkpt>
      <trkpt lat="47.16052" lon="4.95442">
        <ele>245.2</ele>
        <time>2021-05-23T06:50:02Z</time>
      </trkpt>
      <trkpt lat="47.16057" lon="4.95446">
        <ele>244.2</ele>
        <time>2021-05-23T06:50:06Z</time>
      </trkpt>
      <trkpt lat="47.16062" lon="4.9545">
        <ele>245.9</ele>
        <time>2021-05-23T06:50:11Z</time>
      </trkpt>
      <trkpt lat="47.16068" lon="4.95454">
        <ele>245.7</ele>
        <time>2021-05-23T06:50:18Z</time>
      </trkpt>
      <trkpt lat="47.16072" lon="4.95457">
        <ele>245.4</ele>
        <time>2021-05-23T06:50:22Z</time>
      </trkpt>
      <trkpt lat="47.16077" lon="4.95463">
        <ele>244.6</ele>
        <time>2021-05-23T06:50:28Z</time>
      </trkpt>
      <trkpt lat="47.16081" lon="4.95466">
        <ele>244</ele>
        <time>2021-05-23T06:50:32Z</time>
      </trkpt>
      <trkpt lat="47.16087" lon="4.95466">
        <ele>241.9</ele>
        <time>2021-05-23T06:50:37Z</time>
      </trkpt>
      <trkpt lat="47.16091" lon="4.9547">
        <ele>246.2</ele>
        <time>2021-05-23T06:50:58Z</time>
      </trkpt>
      <trkpt lat="47.16096" lon="4.95476">
        <ele>244</ele>
        <time>2021-05-23T06:51:12Z</time>
      </trkpt>
      <trkpt lat="47.16101" lon="4.9548">
        <ele>246.8</ele>
        <time>2021-05-23T06:51:17Z</time>
      </trkpt>
      <trkpt lat="47.16109" lon="4.9548">
        <ele>247.9</ele>
        <time>2021-05-23T06:51:21Z</time>
      </trkpt>
      <trkpt lat="47.16113" lon="4.95481">
        <ele>248.2</ele>
        <time>2021-05-23T06:51:23Z</time>
      </trkpt>
      <trkpt lat="47.16118" lon="4.95483">
        <ele>247.3</ele>
        <time>2021-05-23T06:51:28Z</time>
      </trkpt>
      <trkpt lat="47.16119" lon="4.95491">
        <ele>248.2</ele>
        <time>2021-05-23T06:51:34Z</time>
      </trkpt>
      <trkpt lat="47.16121" lon="4.95498">
        <ele>247.1</ele>
        <time>2021-05-23T06:51:38Z</time>
      </trkpt>
      <trkpt lat="47.1612" lon="4.95506">
        <ele>247.4</ele>
        <time>2021-05-23T06:51:42Z</time>
      </trkpt>
      <trkpt lat="47.16119" lon="4.95515">
        <ele>246.4</ele>
        <time>2021-05-23T06:51:47Z</time>
      </trkpt>
      <trkpt lat="47.16122" lon="4.95521">
        <ele>244.7</ele>
        <time>2021-05-23T06:51:50Z</time>
      </trkpt>
      <trkpt lat="47.16125" lon="4.95527">
        <ele>246.7</ele>
        <time>2021-05-23T06:51:55Z</time>
      </trkpt>
      <trkpt lat="47.16128" lon="4.95532">
        <ele>247.5</ele>
        <time>2021-05-23T06:51:58Z</time>
      </trkpt>
      <trkpt lat="47.16132" lon="4.95536">
        <ele>248.2</ele>
        <time>2021-05-23T06:52:02Z</time>
      </trkpt>
      <trkpt lat="47.16135" lon="4.95544">
        <ele>246.8</ele>
        <time>2021-05-23T06:52:07Z</time>
      </trkpt>
      <trkpt lat="47.16131" lon="4.95548">
        <ele>246.6</ele>
        <time>2021-05-23T06:52:32Z</time>
      </trkpt>
      <trkpt lat="47.16135" lon="4.95544">
        <ele>247</ele>
        <time>2021-05-23T06:52:42Z</time>
      </trkpt>
      <trkpt lat="47.16139" lon="4.95539">
        <ele>247.3</ele>
        <time>2021-05-23T06:52:47Z</time>
      </trkpt>
      <trkpt lat="47.16143" lon="4.95534">
        <ele>248.5</ele>
        <time>2021-05-23T06:52:51Z</time>
      </trkpt>
      <trkpt lat="47.16148" lon="4.95531">
        <ele>248.5</ele>
        <time>2021-05-23T06:52:55Z</time>
      </trkpt>
      <trkpt lat="47.16153" lon="4.95531">
        <ele>247.7</ele>
        <time>2021-05-23T06:52:58Z</time>
      </trkpt>
      <trkpt lat="47.16157" lon="4.95528">
        <ele>247.3</ele>
        <time>2021-05-23T06:53:02Z</time>
      </trkpt>
      <trkpt lat="47.16158" lon="4.9552">
        <ele>248</ele>
        <time>2021-05-23T06:53:08Z</time>
      </trkpt>
      <trkpt lat="47.1616" lon="4.95513">
        <ele>249.1</ele>
        <time>2021-05-23T06:53:13Z</time>
      </trkpt>
      <trkpt lat="47.16161" lon="4.95503">
        <ele>251.7</ele>
        <time>2021-05-23T06:53:17Z</time>
      </trkpt>
      <trkpt lat="47.16159" lon="4.95492">
        <ele>249.8</ele>
        <time>2021-05-23T06:53:21Z</time>
      </trkpt>
      <trkpt lat="47.16155" lon="4.95484">
        <ele>248.9</ele>
        <time>2021-05-23T06:53:23Z</time>
      </trkpt>
      <trkpt lat="47.16156" lon="4.95477">
        <ele>245.4</ele>
        <time>2021-05-23T06:53:29Z</time>
      </trkpt>
      <trkpt lat="47.16159" lon="4.95471">
        <ele>245.2</ele>
        <time>2021-05-23T06:53:34Z</time>
      </trkpt>
      <trkpt lat="47.16163" lon="4.95463">
        <ele>247.8</ele>
        <time>2021-05-23T06:53:40Z</time>
      </trkpt>
      <trkpt lat="47.16167" lon="4.95459">
        <ele>248.9</ele>
        <time>2021-05-23T06:53:44Z</time>
      </trkpt>
      <trkpt lat="47.1617" lon="4.95452">
        <ele>247.1</ele>
        <time>2021-05-23T06:53:48Z</time>
      </trkpt>
      <trkpt lat="47.16172" lon="4.95445">
        <ele>246.4</ele>
        <time>2021-05-23T06:53:51Z</time>
      </trkpt>
      <trkpt lat="47.16172" lon="4.95437">
        <ele>244.7</ele>
        <time>2021-05-23T06:53:55Z</time>
      </trkpt>
      <trkpt lat="47.16176" lon="4.95431">
        <ele>249.8</ele>
        <time>2021-05-23T06:54:09Z</time>
      </trkpt>
      <trkpt lat="47.16178" lon="4.95421">
        <ele>248.6</ele>
        <time>2021-05-23T06:54:13Z</time>
      </trkpt>
      <trkpt lat="47.16176" lon="4.95413">
        <ele>251.3</ele>
        <time>2021-05-23T06:54:17Z</time>
      </trkpt>
      <trkpt lat="47.16174" lon="4.95405">
        <ele>247.5</ele>
        <time>2021-05-23T06:54:20Z</time>
      </trkpt>
      <trkpt lat="47.1617" lon="4.954">
        <ele>247.8</ele>
        <time>2021-05-23T06:54:25Z</time>
      </trkpt>
      <trkpt lat="47.16167" lon="4.95393">
        <ele>247.6</ele>
        <time>2021-05-23T06:54:29Z</time>
      </trkpt>
      <trkpt lat="47.16167" lon="4.95384">
        <ele>247.8</ele>
        <time>2021-05-23T06:54:33Z</time>
      </trkpt>
      <trkpt lat="47.16169" lon="4.95377">
        <ele>246.3</ele>
        <time>2021-05-23T06:54:41Z</time>
      </trkpt>
      <trkpt lat="47.1617" lon="4.95369">
        <ele>245.3</ele>
        <time>2021-05-23T06:54:44Z</time>
      </trkpt>
      <trkpt lat="47.16172" lon="4.95362">
        <ele>245.3</ele>
        <time>2021-05-23T06:54:47Z</time>
      </trkpt>
      <trkpt lat="47.16173" lon="4.95355">
        <ele>245.3</ele>
        <time>2021-05-23T06:54:50Z</time>
      </trkpt>
      <trkpt lat="47.16174" lon="4.95346">
        <ele>245.6</ele>
        <time>2021-05-23T06:54:56Z</time>
      </trkpt>
      <trkpt lat="47.16175" lon="4.95339">
        <ele>246.7</ele>
        <time>2021-05-23T06:55:01Z</time>
      </trkpt>
      <trkpt lat="47.16175" lon="4.95332">
        <ele>245.5</ele>
        <time>2021-05-23T06:55:03Z</time>
      </trkpt>
      <trkpt lat="47.16176" lon="4.95325">
        <ele>241.5</ele>
        <time>2021-05-23T06:55:07Z</time>
      </trkpt>
      <trkpt lat="47.16175" lon="4.95318">
        <ele>244.7</ele>
        <time>2021-05-23T06:55:12Z</time>
      </trkpt>
      <trkpt lat="47.16173" lon="4.9531">
        <ele>244.8</ele>
        <time>2021-05-23T06:55:16Z</time>
      </trkpt>
      <trkpt lat="47.16175" lon="4.95301">
        <ele>244.1</ele>
        <time>2021-05-23T06:55:19Z</time>
      </trkpt>
      <trkpt lat="47.16175" lon="4.95293">
        <ele>246</ele>
        <time>2021-05-23T06:55:25Z</time>
      </trkpt>
      <trkpt lat="47.16177" lon="4.95287">
        <ele>245.1</ele>
        <time>2021-05-23T06:55:29Z</time>
      </trkpt>
      <trkpt lat="47.16179" lon="4.95279">
        <ele>245</ele>
        <time>2021-05-23T06:55:32Z</time>
      </trkpt>
      <trkpt lat="47.16182" lon="4.95272">
        <ele>246.3</ele>
        <time>2021-05-23T06:55:35Z</time>
      </trkpt>
      <trkpt lat="47.16184" lon="4.95264">
        <ele>248.2</ele>
        <time>2021-05-23T06:55:41Z</time>
      </trkpt>
      <trkpt lat="47.16183" lon="4.95255">
        <ele>246.9</ele>
        <time>2021-05-23T06:55:46Z</time>
      </trkpt>
      <trkpt lat="47.16186" lon="4.95249">
        <ele>247.9</ele>
        <time>2021-05-23T06:55:50Z</time>
      </trkpt>
      <trkpt lat="47.16188" lon="4.95242">
        <ele>247.5</ele>
        <time>2021-05-23T06:55:53Z</time>
      </trkpt>
      <trkpt lat="47.1619" lon="4.95237">
        <ele>247.4</ele>
        <time>2021-05-23T06:55:56Z</time>
      </trkpt>
      <trkpt lat="47.1619" lon="4.95229">
        <ele>247.7</ele>
        <time>2021-05-23T06:56:00Z</time>
      </trkpt>
      <trkpt lat="47.16191" lon="4.95221">
        <ele>248.6</ele>
        <time>2021-05-23T06:56:03Z</time>
      </trkpt>
      <trkpt lat="47.16194" lon="4.95215">
        <ele>251.9</ele>
        <time>2021-05-23T06:56:10Z</time>
      </trkpt>
      <trkpt lat="47.16194" lon="4.95208">
        <ele>250</ele>
        <time>2021-05-23T06:56:13Z</time>
      </trkpt>
      <trkpt lat="47.16193" lon="4.95198">
        <ele>246.6</ele>
        <time>2021-05-23T06:56:17Z</time>
      </trkpt>
      <trkpt lat="47.16193" lon="4.9519">
        <ele>245.9</ele>
        <time>2021-05-23T06:56:24Z</time>
      </trkpt>
      <trkpt lat="47.16195" lon="4.95182">
        <ele>249</ele>
        <time>2021-05-23T06:56:28Z</time>
      </trkpt>
      <trkpt lat="47.16195" lon="4.95175">
        <ele>248.7</ele>
        <time>2021-05-23T06:56:34Z</time>
      </trkpt>
      <trkpt lat="47.16195" lon="4.95167">
        <ele>247.8</ele>
        <time>2021-05-23T06:56:39Z</time>
      </trkpt>
      <trkpt lat="47.16198" lon="4.95161">
        <ele>249.9</ele>
        <time>2021-05-23T06:56:45Z</time>
      </trkpt>
      <trkpt lat="47.162" lon="4.95154">
        <ele>249.8</ele>
        <time>2021-05-23T06:56:48Z</time>
      </trkpt>
      <trkpt lat="47.16201" lon="4.95148">
        <ele>251.6</ele>
        <time>2021-05-23T06:56:51Z</time>
      </trkpt>
      <trkpt lat="47.16204" lon="4.95141">
        <ele>251.2</ele>
        <time>2021-05-23T06:56:55Z</time>
      </trkpt>
      <trkpt lat="47.16205" lon="4.95133">
        <ele>249.9</ele>
        <time>2021-05-23T06:57:01Z</time>
      </trkpt>
      <trkpt lat="47.16203" lon="4.95125">
        <ele>251.5</ele>
        <time>2021-05-23T06:57:04Z</time>
      </trkpt>
      <trkpt lat="47.16202" lon="4.95118">
        <ele>250.2</ele>
        <time>2021-05-23T06:57:07Z</time>
      </trkpt>
      <trkpt lat="47.16202" lon="4.9511">
        <ele>251.9</ele>
        <time>2021-05-23T06:57:12Z</time>
      </trkpt>
      <trkpt lat="47.16203" lon="4.95103">
        <ele>253.1</ele>
        <time>2021-05-23T06:57:17Z</time>
      </trkpt>
      <trkpt lat="47.16205" lon="4.95096">
        <ele>257.9</ele>
        <time>2021-05-23T06:57:21Z</time>
      </trkpt>
      <trkpt lat="47.16208" lon="4.95088">
        <ele>256.8</ele>
        <time>2021-05-23T06:57:29Z</time>
      </trkpt>
      <trkpt lat="47.16209" lon="4.9508">
        <ele>254.9</ele>
        <time>2021-05-23T06:57:32Z</time>
      </trkpt>
      <trkpt lat="47.1621" lon="4.95073">
        <ele>254.4</ele>
        <time>2021-05-23T06:57:37Z</time>
      </trkpt>
      <trkpt lat="47.16215" lon="4.95074">
        <ele>256.9</ele>
        <time>2021-05-23T06:57:58Z</time>
      </trkpt>
      <trkpt lat="47.16222" lon="4.95071">
        <ele>259</ele>
        <time>2021-05-23T06:58:02Z</time>
      </trkpt>
      <trkpt lat="47.16227" lon="4.9507">
        <ele>257.3</ele>
        <time>2021-05-23T06:58:09Z</time>
      </trkpt>
      <trkpt lat="47.16234" lon="4.95069">
        <ele>256.8</ele>
        <time>2021-05-23T06:58:13Z</time>
      </trkpt>
      <trkpt lat="47.16239" lon="4.95072">
        <ele>256.2</ele>
        <time>2021-05-23T06:58:18Z</time>
      </trkpt>
      <trkpt lat="47.16244" lon="4.95069">
        <ele>256.3</ele>
        <time>2021-05-23T06:58:24Z</time>
      </trkpt>
      <trkpt lat="47.16251" lon="4.95069">
        <ele>256.6</ele>
        <time>2021-05-23T06:58:30Z</time>
      </trkpt>
      <trkpt lat="47.16258" lon="4.95068">
        <ele>257.1</ele>
        <time>2021-05-23T06:58:35Z</time>
      </trkpt>
      <trkpt lat="47.16261" lon="4.95062">
        <ele>257.3</ele>
        <time>2021-05-23T06:58:40Z</time>
      </trkpt>
      <trkpt lat="47.16262" lon="4.95054">
        <ele>255.5</ele>
        <time>2021-05-23T06:58:43Z</time>
      </trkpt>
      <trkpt lat="47.16263" lon="4.95048">
        <ele>256.3</ele>
        <time>2021-05-23T06:58:47Z</time>
      </trkpt>
      <trkpt lat="47.16263" lon="4.95039">
        <ele>258</ele>
        <time>2021-05-23T06:58:51Z</time>
      </trkpt>
      <trkpt lat="47.16263" lon="4.95031">
        <ele>258.5</ele>
        <time>2021-05-23T06:58:55Z</time>
      </trkpt>
      <trkpt lat="47.16262" lon="4.95023">
        <ele>259.7</ele>
        <time>2021-05-23T06:59:00Z</time>
      </trkpt>
      <trkpt lat="47.16264" lon="4.95014">
        <ele>259.3</ele>
        <time>2021-05-23T06:59:06Z</time>
      </trkpt>
      <trkpt lat="47.16266" lon="4.95007">
        <ele>258.1</ele>
        <time>2021-05-23T06:59:12Z</time>
      </trkpt>
      <trkpt lat="47.16268" lon="4.95">
        <ele>258.1</ele>
        <time>2021-05-23T06:59:15Z</time>
      </trkpt>
      <trkpt lat="47.16271" lon="4.94994">
        <ele>260.7</ele>
        <time>2021-05-23T06:59:20Z</time>
      </trkpt>
      <trkpt lat="47.16275" lon="4.94991">
        <ele>261.5</ele>
        <time>2021-05-23T06:59:23Z</time>
      </trkpt>
      <trkpt lat="47.1628" lon="4.94987">
        <ele>260.1</ele>
        <time>2021-05-23T06:59:27Z</time>
      </trkpt>
      <trkpt lat="47.16285" lon="4.94982">
        <ele>264.9</ele>
        <time>2021-05-23T06:59:32Z</time>
      </trkpt>
      <trkpt lat="47.1629" lon="4.9498">
        <ele>262.3</ele>
        <time>2021-05-23T06:59:39Z</time>
      </trkpt>
      <trkpt lat="47.16295" lon="4.9498">
        <ele>262.8</ele>
        <time>2021-05-23T06:59:42Z</time>
      </trkpt>
      <trkpt lat="47.16299" lon="4.94976">
        <ele>263.9</ele>
        <time>2021-05-23T06:59:46Z</time>
      </trkpt>
      <trkpt lat="47.16304" lon="4.94974">
        <ele>264.2</ele>
        <time>2021-05-23T06:59:50Z</time>
      </trkpt>
      <trkpt lat="47.16308" lon="4.9497">
        <ele>261</ele>
        <time>2021-05-23T06:59:53Z</time>
      </trkpt>
      <trkpt lat="47.16311" lon="4.94963">
        <ele>262.7</ele>
        <time>2021-05-23T06:59:57Z</time>
      </trkpt>
      <trkpt lat="47.16315" lon="4.9496">
        <ele>264.1</ele>
        <time>2021-05-23T07:00:02Z</time>
      </trkpt>
      <trkpt lat="47.1632" lon="4.94958">
        <ele>264.6</ele>
        <time>2021-05-23T07:00:05Z</time>
      </trkpt>
      <trkpt lat="47.16325" lon="4.94956">
        <ele>265.1</ele>
        <time>2021-05-23T07:00:10Z</time>
      </trkpt>
      <trkpt lat="47.16329" lon="4.94953">
        <ele>266.1</ele>
        <time>2021-05-23T07:00:14Z</time>
      </trkpt>
      <trkpt lat="47.16334" lon="4.9495">
        <ele>268.5</ele>
        <time>2021-05-23T07:00:17Z</time>
      </trkpt>
      <trkpt lat="47.16339" lon="4.94944">
        <ele>269</ele>
        <time>2021-05-23T07:00:23Z</time>
      </trkpt>
      <trkpt lat="47.16345" lon="4.94938">
        <ele>266.7</ele>
        <time>2021-05-23T07:00:27Z</time>
      </trkpt>
      <trkpt lat="47.16347" lon="4.94932">
        <ele>268.5</ele>
        <time>2021-05-23T07:00:33Z</time>
      </trkpt>
      <trkpt lat="47.1635" lon="4.94926">
        <ele>266.6</ele>
        <time>2021-05-23T07:00:37Z</time>
      </trkpt>
      <trkpt lat="47.16354" lon="4.94922">
        <ele>268.9</ele>
        <time>2021-05-23T07:00:42Z</time>
      </trkpt>
      <trkpt lat="47.16358" lon="4.94918">
        <ele>273.2</ele>
        <time>2021-05-23T07:00:45Z</time>
      </trkpt>
      <trkpt lat="47.16362" lon="4.94915">
        <ele>272.6</ele>
        <time>2021-05-23T07:00:50Z</time>
      </trkpt>
      <trkpt lat="47.16365" lon="4.9491">
        <ele>270.7</ele>
        <time>2021-05-23T07:00:55Z</time>
      </trkpt>
      <trkpt lat="47.16368" lon="4.94903">
        <ele>270.9</ele>
        <time>2021-05-23T07:01:01Z</time>
      </trkpt>
      <trkpt lat="47.16371" lon="4.94896">
        <ele>273.6</ele>
        <time>2021-05-23T07:01:06Z</time>
      </trkpt>
      <trkpt lat="47.16374" lon="4.94889">
        <ele>272.8</ele>
        <time>2021-05-23T07:01:10Z</time>
      </trkpt>
      <trkpt lat="47.16377" lon="4.94882">
        <ele>272.3</ele>
        <time>2021-05-23T07:01:15Z</time>
      </trkpt>
      <trkpt lat="47.16381" lon="4.94877">
        <ele>271.1</ele>
        <time>2021-05-23T07:01:20Z</time>
      </trkpt>
      <trkpt lat="47.16384" lon="4.94871">
        <ele>272</ele>
        <time>2021-05-23T07:01:25Z</time>
      </trkpt>
      <trkpt lat="47.16387" lon="4.94865">
        <ele>272.9</ele>
        <time>2021-05-23T07:01:30Z</time>
      </trkpt>
      <trkpt lat="47.16391" lon="4.94859">
        <ele>275.2</ele>
        <time>2021-05-23T07:01:37Z</time>
      </trkpt>
      <trkpt lat="47.16394" lon="4.94853">
        <ele>277.3</ele>
        <time>2021-05-23T07:01:42Z</time>
      </trkpt>
      <trkpt lat="47.16396" lon="4.94845">
        <ele>273.1</ele>
        <time>2021-05-23T07:01:46Z</time>
      </trkpt>
      <trkpt lat="47.16396" lon="4.94838">
        <ele>273.3</ele>
        <time>2021-05-23T07:01:50Z</time>
      </trkpt>
      <trkpt lat="47.16398" lon="4.94831">
        <ele>273.4</ele>
        <time>2021-05-23T07:01:54Z</time>
      </trkpt>
      <trkpt lat="47.16401" lon="4.94825">
        <ele>274</ele>
        <time>2021-05-23T07:02:00Z</time>
      </trkpt>
      <trkpt lat="47.16404" lon="4.94819">
        <ele>274.4</ele>
        <time>2021-05-23T07:02:03Z</time>
      </trkpt>
      <trkpt lat="47.16409" lon="4.94817">
        <ele>272.3</ele>
        <time>2021-05-23T07:02:08Z</time>
      </trkpt>
      <trkpt lat="47.16415" lon="4.94817">
        <ele>273</ele>
        <time>2021-05-23T07:02:12Z</time>
      </trkpt>
      <trkpt lat="47.1642" lon="4.94818">
        <ele>272.6</ele>
        <time>2021-05-23T07:02:18Z</time>
      </trkpt>
      <trkpt lat="47.16425" lon="4.94819">
        <ele>272.2</ele>
        <time>2021-05-23T07:02:21Z</time>
      </trkpt>
      <trkpt lat="47.1643" lon="4.9482">
        <ele>271.2</ele>
        <time>2021-05-23T07:02:27Z</time>
      </trkpt>
      <trkpt lat="47.16436" lon="4.94821">
        <ele>265.8</ele>
        <time>2021-05-23T07:02:32Z</time>
      </trkpt>
      <trkpt lat="47.1644" lon="4.94817">
        <ele>267</ele>
        <time>2021-05-23T07:02:35Z</time>
      </trkpt>
      <trkpt lat="47.16444" lon="4.94815">
        <ele>266.1</ele>
        <time>2021-05-23T07:02:39Z</time>
      </trkpt>
      <trkpt lat="47.16449" lon="4.94816">
        <ele>267</ele>
        <time>2021-05-23T07:02:43Z</time>
      </trkpt>
      <trkpt lat="47.16456" lon="4.94813">
        <ele>267.5</ele>
        <time>2021-05-23T07:02:48Z</time>
      </trkpt>
      <trkpt lat="47.16462" lon="4.94814">
        <ele>268.9</ele>
        <time>2021-05-23T07:02:54Z</time>
      </trkpt>
      <trkpt lat="47.16466" lon="4.94813">
        <ele>269.1</ele>
        <time>2021-05-23T07:02:58Z</time>
      </trkpt>
      <trkpt lat="47.16473" lon="4.94813">
        <ele>268.2</ele>
        <time>2021-05-23T07:03:01Z</time>
      </trkpt>
      <trkpt lat="47.16478" lon="4.94812">
        <ele>266.6</ele>
        <time>2021-05-23T07:03:04Z</time>
      </trkpt>
      <trkpt lat="47.16483" lon="4.94808">
        <ele>267.4</ele>
        <time>2021-05-23T07:03:12Z</time>
      </trkpt>
      <trkpt lat="47.16487" lon="4.94806">
        <ele>266.4</ele>
        <time>2021-05-23T07:03:16Z</time>
      </trkpt>
      <trkpt lat="47.16492" lon="4.94807">
        <ele>269.2</ele>
        <time>2021-05-23T07:03:20Z</time>
      </trkpt>
      <trkpt lat="47.16497" lon="4.94807">
        <ele>272</ele>
        <time>2021-05-23T07:03:25Z</time>
      </trkpt>
      <trkpt lat="47.16502" lon="4.94807">
        <ele>272</ele>
        <time>2021-05-23T07:03:28Z</time>
      </trkpt>
      <trkpt lat="47.16507" lon="4.94811">
        <ele>273.4</ele>
        <time>2021-05-23T07:03:33Z</time>
      </trkpt>
      <trkpt lat="47.16512" lon="4.94811">
        <ele>274.3</ele>
        <time>2021-05-23T07:03:42Z</time>
      </trkpt>
      <trkpt lat="47.16517" lon="4.94811">
        <ele>274</ele>
        <time>2021-05-23T07:03:48Z</time>
      </trkpt>
      <trkpt lat="47.16522" lon="4.94807">
        <ele>273.1</ele>
        <time>2021-05-23T07:03:54Z</time>
      </trkpt>
      <trkpt lat="47.16525" lon="4.94798">
        <ele>274.2</ele>
        <time>2021-05-23T07:03:59Z</time>
      </trkpt>
      <trkpt lat="47.16523" lon="4.94791">
        <ele>273.6</ele>
        <time>2021-05-23T07:04:03Z</time>
      </trkpt>
      <trkpt lat="47.16521" lon="4.94784">
        <ele>273.4</ele>
        <time>2021-05-23T07:04:07Z</time>
      </trkpt>
      <trkpt lat="47.1652" lon="4.94778">
        <ele>272.9</ele>
        <time>2021-05-23T07:04:12Z</time>
      </trkpt>
      <trkpt lat="47.16519" lon="4.94771">
        <ele>272.6</ele>
        <time>2021-05-23T07:04:16Z</time>
      </trkpt>
      <trkpt lat="47.16517" lon="4.94765">
        <ele>273.8</ele>
        <time>2021-05-23T07:04:20Z</time>
      </trkpt>
      <trkpt lat="47.16515" lon="4.94758">
        <ele>273.5</ele>
        <time>2021-05-23T07:04:24Z</time>
      </trkpt>
      <trkpt lat="47.16513" lon="4.94751">
        <ele>275.5</ele>
        <time>2021-05-23T07:04:29Z</time>
      </trkpt>
      <trkpt lat="47.16512" lon="4.94744">
        <ele>276.8</ele>
        <time>2021-05-23T07:04:33Z</time>
      </trkpt>
      <trkpt lat="47.16512" lon="4.94737">
        <ele>275.5</ele>
        <time>2021-05-23T07:04:37Z</time>
      </trkpt>
      <trkpt lat="47.16512" lon="4.94729">
        <ele>276.6</ele>
        <time>2021-05-23T07:04:42Z</time>
      </trkpt>
      <trkpt lat="47.16514" lon="4.9472">
        <ele>278.1</ele>
        <time>2021-05-23T07:04:47Z</time>
      </trkpt>
      <trkpt lat="47.16514" lon="4.94713">
        <ele>276</ele>
        <time>2021-05-23T07:04:53Z</time>
      </trkpt>
      <trkpt lat="47.16514" lon="4.94706">
        <ele>276.2</ele>
        <time>2021-05-23T07:04:56Z</time>
      </trkpt>
      <trkpt lat="47.16514" lon="4.94699">
        <ele>277.7</ele>
        <time>2021-05-23T07:05:01Z</time>
      </trkpt>
      <trkpt lat="47.16511" lon="4.94693">
        <ele>279.1</ele>
        <time>2021-05-23T07:05:06Z</time>
      </trkpt>
      <trkpt lat="47.1651" lon="4.94683">
        <ele>278.8</ele>
        <time>2021-05-23T07:05:12Z</time>
      </trkpt>
      <trkpt lat="47.16511" lon="4.94677">
        <ele>278.4</ele>
        <time>2021-05-23T07:05:16Z</time>
      </trkpt>
      <trkpt lat="47.16514" lon="4.94668">
        <ele>277</ele>
        <time>2021-05-23T07:05:20Z</time>
      </trkpt>
      <trkpt lat="47.16513" lon="4.9466">
        <ele>278.7</ele>
        <time>2021-05-23T07:05:26Z</time>
      </trkpt>
      <trkpt lat="47.1651" lon="4.94654">
        <ele>277.9</ele>
        <time>2021-05-23T07:05:30Z</time>
      </trkpt>
      <trkpt lat="47.16509" lon="4.94647">
        <ele>277.2</ele>
        <time>2021-05-23T07:05:35Z</time>
      </trkpt>
      <trkpt lat="47.16508" lon="4.9464">
        <ele>277.1</ele>
        <time>2021-05-23T07:05:40Z</time>
      </trkpt>
      <trkpt lat="47.16508" lon="4.94633">
        <ele>278.9</ele>
        <time>2021-05-23T07:05:45Z</time>
      </trkpt>
      <trkpt lat="47.16509" lon="4.94625">
        <ele>277.8</ele>
        <time>2021-05-23T07:05:53Z</time>
      </trkpt>
      <trkpt lat="47.16509" lon="4.94616">
        <ele>279.1</ele>
        <time>2021-05-23T07:05:59Z</time>
      </trkpt>
      <trkpt lat="47.16509" lon="4.94609">
        <ele>278.8</ele>
        <time>2021-05-23T07:06:02Z</time>
      </trkpt>
      <trkpt lat="47.16509" lon="4.94602">
        <ele>279.9</ele>
        <time>2021-05-23T07:06:06Z</time>
      </trkpt>
      <trkpt lat="47.16508" lon="4.94593">
        <ele>281.9</ele>
        <time>2021-05-23T07:06:12Z</time>
      </trkpt>
      <trkpt lat="47.16507" lon="4.94586">
        <ele>282.7</ele>
        <time>2021-05-23T07:06:17Z</time>
      </trkpt>
      <trkpt lat="47.16508" lon="4.94577">
        <ele>284.6</ele>
        <time>2021-05-23T07:06:24Z</time>
      </trkpt>
      <trkpt lat="47.16511" lon="4.94571">
        <ele>285.1</ele>
        <time>2021-05-23T07:06:28Z</time>
      </trkpt>
      <trkpt lat="47.16515" lon="4.94565">
        <ele>287.2</ele>
        <time>2021-05-23T07:06:33Z</time>
      </trkpt>
      <trkpt lat="47.16519" lon="4.9456">
        <ele>288</ele>
        <time>2021-05-23T07:06:38Z</time>
      </trkpt>
      <trkpt lat="47.16522" lon="4.94553">
        <ele>288.3</ele>
        <time>2021-05-23T07:06:43Z</time>
      </trkpt>
      <trkpt lat="47.16524" lon="4.94546">
        <ele>289.6</ele>
        <time>2021-05-23T07:06:48Z</time>
      </trkpt>
      <trkpt lat="47.16526" lon="4.94539">
        <ele>286.1</ele>
        <time>2021-05-23T07:06:52Z</time>
      </trkpt>
      <trkpt lat="47.16528" lon="4.94531">
        <ele>287.4</ele>
        <time>2021-05-23T07:06:57Z</time>
      </trkpt>
      <trkpt lat="47.16531" lon="4.94524">
        <ele>288.8</ele>
        <time>2021-05-23T07:07:02Z</time>
      </trkpt>
      <trkpt lat="47.16532" lon="4.94518">
        <ele>286.5</ele>
        <time>2021-05-23T07:07:06Z</time>
      </trkpt>
      <trkpt lat="47.16534" lon="4.94511">
        <ele>286.5</ele>
        <time>2021-05-23T07:07:09Z</time>
      </trkpt>
      <trkpt lat="47.16534" lon="4.94502">
        <ele>286</ele>
        <time>2021-05-23T07:07:14Z</time>
      </trkpt>
      <trkpt lat="47.16535" lon="4.94494">
        <ele>287.6</ele>
        <time>2021-05-23T07:07:19Z</time>
      </trkpt>
      <trkpt lat="47.16534" lon="4.94485">
        <ele>280.2</ele>
        <time>2021-05-23T07:07:23Z</time>
      </trkpt>
      <trkpt lat="47.16533" lon="4.94478">
        <ele>283.8</ele>
        <time>2021-05-23T07:07:27Z</time>
      </trkpt>
      <trkpt lat="47.16532" lon="4.9447">
        <ele>285</ele>
        <time>2021-05-23T07:07:31Z</time>
      </trkpt>
      <trkpt lat="47.16532" lon="4.94463">
        <ele>286.5</ele>
        <time>2021-05-23T07:07:37Z</time>
      </trkpt>
      <trkpt lat="47.16531" lon="4.94455">
        <ele>284.4</ele>
        <time>2021-05-23T07:07:40Z</time>
      </trkpt>
      <trkpt lat="47.16529" lon="4.94448">
        <ele>283.3</ele>
        <time>2021-05-23T07:07:44Z</time>
      </trkpt>
      <trkpt lat="47.1653" lon="4.94439">
        <ele>283.3</ele>
        <time>2021-05-23T07:07:50Z</time>
      </trkpt>
      <trkpt lat="47.16529" lon="4.94432">
        <ele>281.6</ele>
        <time>2021-05-23T07:07:54Z</time>
      </trkpt>
      <trkpt lat="47.16528" lon="4.94425">
        <ele>283.1</ele>
        <time>2021-05-23T07:07:59Z</time>
      </trkpt>
      <trkpt lat="47.16529" lon="4.94417">
        <ele>282.4</ele>
        <time>2021-05-23T07:08:05Z</time>
      </trkpt>
      <trkpt lat="47.16529" lon="4.94408">
        <ele>282.1</ele>
        <time>2021-05-23T07:08:09Z</time>
      </trkpt>
      <trkpt lat="47.16532" lon="4.94402">
        <ele>283.9</ele>
        <time>2021-05-23T07:08:13Z</time>
      </trkpt>
      <trkpt lat="47.16536" lon="4.94394">
        <ele>287.6</ele>
        <time>2021-05-23T07:08:17Z</time>
      </trkpt>
      <trkpt lat="47.16538" lon="4.94387">
        <ele>285.1</ele>
        <time>2021-05-23T07:08:20Z</time>
      </trkpt>
      <trkpt lat="47.16538" lon="4.9438">
        <ele>284.6</ele>
        <time>2021-05-23T07:08:25Z</time>
      </trkpt>
      <trkpt lat="47.1654" lon="4.94371">
        <ele>285.3</ele>
        <time>2021-05-23T07:08:29Z</time>
      </trkpt>
      <trkpt lat="47.1654" lon="4.94365">
        <ele>287</ele>
        <time>2021-05-23T07:08:34Z</time>
      </trkpt>
      <trkpt lat="47.1654" lon="4.94358">
        <ele>289</ele>
        <time>2021-05-23T07:08:38Z</time>
      </trkpt>
      <trkpt lat="47.16539" lon="4.9435">
        <ele>289.6</ele>
        <time>2021-05-23T07:08:41Z</time>
      </trkpt>
      <trkpt lat="47.16535" lon="4.94347">
        <ele>289.9</ele>
        <time>2021-05-23T07:08:46Z</time>
      </trkpt>
      <trkpt lat="47.16533" lon="4.9434">
        <ele>289.7</ele>
        <time>2021-05-23T07:08:49Z</time>
      </trkpt>
      <trkpt lat="47.16532" lon="4.94333">
        <ele>351.6</ele>
        <time>2021-05-23T07:08:54Z</time>
      </trkpt>
      <trkpt lat="47.16532" lon="4.94326">
        <ele>309</ele>
        <time>2021-05-23T07:08:58Z</time>
      </trkpt>
      <trkpt lat="47.16531" lon="4.94318">
        <ele>285</ele>
        <time>2021-05-23T07:09:04Z</time>
      </trkpt>
      <trkpt lat="47.1653" lon="4.94311">
        <ele>301.2</ele>
        <time>2021-05-23T07:09:11Z</time>
      </trkpt>
      <trkpt lat="47.16527" lon="4.94303">
        <ele>291.1</ele>
        <time>2021-05-23T07:09:16Z</time>
      </trkpt>
      <trkpt lat="47.16527" lon="4.94295">
        <ele>290.7</ele>
        <time>2021-05-23T07:09:20Z</time>
      </trkpt>
      <trkpt lat="47.16528" lon="4.94288">
        <ele>287.8</ele>
        <time>2021-05-23T07:09:26Z</time>
      </trkpt>
      <trkpt lat="47.16527" lon="4.94281">
        <ele>286.1</ele>
        <time>2021-05-23T07:09:31Z</time>
      </trkpt>
      <trkpt lat="47.16526" lon="4.94274">
        <ele>289.4</ele>
        <time>2021-05-23T07:09:34Z</time>
      </trkpt>
      <trkpt lat="47.16523" lon="4.94267">
        <ele>290.5</ele>
        <time>2021-05-23T07:09:39Z</time>
      </trkpt>
      <trkpt lat="47.16521" lon="4.9426">
        <ele>288.9</ele>
        <time>2021-05-23T07:09:44Z</time>
      </trkpt>
      <trkpt lat="47.16517" lon="4.94255">
        <ele>287</ele>
        <time>2021-05-23T07:09:50Z</time>
      </trkpt>
      <trkpt lat="47.16512" lon="4.94259">
        <ele>272.7</ele>
        <time>2021-05-23T07:10:01Z</time>
      </trkpt>
      <trkpt lat="47.16506" lon="4.94259">
        <ele>283.5</ele>
        <time>2021-05-23T07:10:07Z</time>
      </trkpt>
      <trkpt lat="47.16503" lon="4.94254">
        <ele>292.2</ele>
        <time>2021-05-23T07:10:14Z</time>
      </trkpt>
      <trkpt lat="47.16498" lon="4.94252">
        <ele>298.8</ele>
        <time>2021-05-23T07:10:29Z</time>
      </trkpt>
      <trkpt lat="47.16494" lon="4.94255">
        <ele>300.6</ele>
        <time>2021-05-23T07:10:39Z</time>
      </trkpt>
      <trkpt lat="47.1649" lon="4.94257">
        <ele>303.9</ele>
        <time>2021-05-23T07:10:46Z</time>
      </trkpt>
      <trkpt lat="47.16485" lon="4.94257">
        <ele>302.6</ele>
        <time>2021-05-23T07:10:55Z</time>
      </trkpt>
      <trkpt lat="47.1648" lon="4.94259">
        <ele>306</ele>
        <time>2021-05-23T07:11:01Z</time>
      </trkpt>
      <trkpt lat="47.16476" lon="4.94261">
        <ele>305.4</ele>
        <time>2021-05-23T07:11:07Z</time>
      </trkpt>
      <trkpt lat="47.16471" lon="4.94262">
        <ele>296.8</ele>
        <time>2021-05-23T07:11:13Z</time>
      </trkpt>
      <trkpt lat="47.16467" lon="4.94264">
        <ele>311</ele>
        <time>2021-05-23T07:11:26Z</time>
      </trkpt>
      <trkpt lat="47.16462" lon="4.94267">
        <ele>314</ele>
        <time>2021-05-23T07:11:33Z</time>
      </trkpt>
      <trkpt lat="47.16457" lon="4.94269">
        <ele>314.6</ele>
        <time>2021-05-23T07:11:39Z</time>
      </trkpt>
      <trkpt lat="47.16452" lon="4.9427">
        <ele>318.2</ele>
        <time>2021-05-23T07:11:44Z</time>
      </trkpt>
      <trkpt lat="47.16447" lon="4.94268">
        <ele>319.3</ele>
        <time>2021-05-23T07:11:54Z</time>
      </trkpt>
      <trkpt lat="47.16444" lon="4.94262">
        <ele>317.9</ele>
        <time>2021-05-23T07:12:00Z</time>
      </trkpt>
      <trkpt lat="47.16441" lon="4.94257">
        <ele>317</ele>
        <time>2021-05-23T07:12:06Z</time>
      </trkpt>
      <trkpt lat="47.16437" lon="4.9426">
        <ele>321.2</ele>
        <time>2021-05-23T07:12:18Z</time>
      </trkpt>
      <trkpt lat="47.16432" lon="4.94263">
        <ele>321.6</ele>
        <time>2021-05-23T07:12:21Z</time>
      </trkpt>
      <trkpt lat="47.16427" lon="4.94266">
        <ele>323.4</ele>
        <time>2021-05-23T07:12:28Z</time>
      </trkpt>
      <trkpt lat="47.16422" lon="4.9427">
        <ele>325.1</ele>
        <time>2021-05-23T07:12:33Z</time>
      </trkpt>
      <trkpt lat="47.16419" lon="4.94275">
        <ele>326.9</ele>
        <time>2021-05-23T07:12:38Z</time>
      </trkpt>
      <trkpt lat="47.16415" lon="4.94279">
        <ele>327.3</ele>
        <time>2021-05-23T07:12:42Z</time>
      </trkpt>
      <trkpt lat="47.16409" lon="4.94281">
        <ele>317.5</ele>
        <time>2021-05-23T07:12:52Z</time>
      </trkpt>
      <trkpt lat="47.16404" lon="4.94285">
        <ele>320.5</ele>
        <time>2021-05-23T07:12:57Z</time>
      </trkpt>
      <trkpt lat="47.164" lon="4.9429">
        <ele>321.1</ele>
        <time>2021-05-23T07:13:03Z</time>
      </trkpt>
      <trkpt lat="47.16398" lon="4.94296">
        <ele>323</ele>
        <time>2021-05-23T07:13:10Z</time>
      </trkpt>
      <trkpt lat="47.16396" lon="4.94304">
        <ele>323.8</ele>
        <time>2021-05-23T07:13:15Z</time>
      </trkpt>
      <trkpt lat="47.16394" lon="4.94311">
        <ele>325.3</ele>
        <time>2021-05-23T07:13:19Z</time>
      </trkpt>
      <trkpt lat="47.16391" lon="4.94318">
        <ele>326.8</ele>
        <time>2021-05-23T07:13:23Z</time>
      </trkpt>
      <trkpt lat="47.16388" lon="4.94325">
        <ele>324.9</ele>
        <time>2021-05-23T07:13:28Z</time>
      </trkpt>
      <trkpt lat="47.16384" lon="4.9433">
        <ele>324.1</ele>
        <time>2021-05-23T07:13:31Z</time>
      </trkpt>
      <trkpt lat="47.1638" lon="4.94336">
        <ele>323.2</ele>
        <time>2021-05-23T07:13:35Z</time>
      </trkpt>
      <trkpt lat="47.16377" lon="4.94341">
        <ele>325.4</ele>
        <time>2021-05-23T07:13:39Z</time>
      </trkpt>
      <trkpt lat="47.16374" lon="4.94349">
        <ele>326.4</ele>
        <time>2021-05-23T07:13:45Z</time>
      </trkpt>
      <trkpt lat="47.16373" lon="4.94355">
        <ele>326.3</ele>
        <time>2021-05-23T07:13:48Z</time>
      </trkpt>
      <trkpt lat="47.16371" lon="4.94362">
        <ele>329.1</ele>
        <time>2021-05-23T07:13:52Z</time>
      </trkpt>
      <trkpt lat="47.16371" lon="4.94369">
        <ele>331.7</ele>
        <time>2021-05-23T07:13:56Z</time>
      </trkpt>
      <trkpt lat="47.16373" lon="4.94377">
        <ele>330.6</ele>
        <time>2021-05-23T07:14:04Z</time>
      </trkpt>
      <trkpt lat="47.16377" lon="4.94383">
        <ele>325.1</ele>
        <time>2021-05-23T07:14:31Z</time>
      </trkpt>
      <trkpt lat="47.16372" lon="4.94384">
        <ele>325.8</ele>
        <time>2021-05-23T07:14:45Z</time>
      </trkpt>
      <trkpt lat="47.16367" lon="4.94385">
        <ele>324.6</ele>
        <time>2021-05-23T07:14:49Z</time>
      </trkpt>
      <trkpt lat="47.16363" lon="4.94389">
        <ele>327.1</ele>
        <time>2021-05-23T07:14:55Z</time>
      </trkpt>
      <trkpt lat="47.16358" lon="4.94392">
        <ele>327.1</ele>
        <time>2021-05-23T07:14:59Z</time>
      </trkpt>
      <trkpt lat="47.16353" lon="4.94395">
        <ele>327</ele>
        <time>2021-05-23T07:15:03Z</time>
      </trkpt>
      <trkpt lat="47.16348" lon="4.94394">
        <ele>325.8</ele>
        <time>2021-05-23T07:15:10Z</time>
      </trkpt>
      <trkpt lat="47.16343" lon="4.94393">
        <ele>325.4</ele>
        <time>2021-05-23T07:15:14Z</time>
      </trkpt>
      <trkpt lat="47.16339" lon="4.94398">
        <ele>325.9</ele>
        <time>2021-05-23T07:15:32Z</time>
      </trkpt>
      <trkpt lat="47.16333" lon="4.94399">
        <ele>326.4</ele>
        <time>2021-05-23T07:15:36Z</time>
      </trkpt>
      <trkpt lat="47.16328" lon="4.94398">
        <ele>329.5</ele>
        <time>2021-05-23T07:15:37Z</time>
      </trkpt>
      <trkpt lat="47.16322" lon="4.94399">
        <ele>330.7</ele>
        <time>2021-05-23T07:15:41Z</time>
      </trkpt>
      <trkpt lat="47.16318" lon="4.94403">
        <ele>330.5</ele>
        <time>2021-05-23T07:15:45Z</time>
      </trkpt>
      <trkpt lat="47.16312" lon="4.94402">
        <ele>326</ele>
        <time>2021-05-23T07:15:57Z</time>
      </trkpt>
      <trkpt lat="47.16306" lon="4.94402">
        <ele>326</ele>
        <time>2021-05-23T07:16:00Z</time>
      </trkpt>
      <trkpt lat="47.16301" lon="4.94403">
        <ele>319.7</ele>
        <time>2021-05-23T07:16:19Z</time>
      </trkpt>
      <trkpt lat="47.16296" lon="4.94402">
        <ele>315.9</ele>
        <time>2021-05-23T07:16:23Z</time>
      </trkpt>
      <trkpt lat="47.16289" lon="4.944">
        <ele>319.2</ele>
        <time>2021-05-23T07:16:27Z</time>
      </trkpt>
      <trkpt lat="47.16281" lon="4.94398">
        <ele>317.2</ele>
        <time>2021-05-23T07:16:29Z</time>
      </trkpt>
      <trkpt lat="47.16276" lon="4.94398">
        <ele>320.6</ele>
        <time>2021-05-23T07:16:33Z</time>
      </trkpt>
      <trkpt lat="47.16272" lon="4.94401">
        <ele>324.3</ele>
        <time>2021-05-23T07:16:38Z</time>
      </trkpt>
      <trkpt lat="47.16267" lon="4.94404">
        <ele>325.4</ele>
        <time>2021-05-23T07:16:42Z</time>
      </trkpt>
      <trkpt lat="47.16263" lon="4.94407">
        <ele>326.8</ele>
        <time>2021-05-23T07:16:45Z</time>
      </trkpt>
      <trkpt lat="47.16259" lon="4.9441">
        <ele>331.1</ele>
        <time>2021-05-23T07:16:50Z</time>
      </trkpt>
      <trkpt lat="47.16253" lon="4.94411">
        <ele>334.1</ele>
        <time>2021-05-23T07:16:54Z</time>
      </trkpt>
      <trkpt lat="47.16246" lon="4.94413">
        <ele>335.4</ele>
        <time>2021-05-23T07:16:58Z</time>
      </trkpt>
      <trkpt lat="47.16241" lon="4.94415">
        <ele>335.6</ele>
        <time>2021-05-23T07:17:03Z</time>
      </trkpt>
      <trkpt lat="47.16235" lon="4.94415">
        <ele>338.9</ele>
        <time>2021-05-23T07:17:07Z</time>
      </trkpt>
      <trkpt lat="47.16229" lon="4.94415">
        <ele>340.2</ele>
        <time>2021-05-23T07:17:10Z</time>
      </trkpt>
      <trkpt lat="47.16224" lon="4.94416">
        <ele>340.8</ele>
        <time>2021-05-23T07:17:15Z</time>
      </trkpt>
      <trkpt lat="47.16219" lon="4.94418">
        <ele>341.2</ele>
        <time>2021-05-23T07:17:21Z</time>
      </trkpt>
      <trkpt lat="47.16214" lon="4.94419">
        <ele>342.2</ele>
        <time>2021-05-23T07:17:25Z</time>
      </trkpt>
      <trkpt lat="47.16209" lon="4.94419">
        <ele>340.1</ele>
        <time>2021-05-23T07:17:29Z</time>
      </trkpt>
      <trkpt lat="47.16204" lon="4.9442">
        <ele>339.5</ele>
        <time>2021-05-23T07:17:33Z</time>
      </trkpt>
      <trkpt lat="47.16199" lon="4.94422">
        <ele>340.2</ele>
        <time>2021-05-23T07:17:38Z</time>
      </trkpt>
      <trkpt lat="47.16193" lon="4.94421">
        <ele>340.2</ele>
        <time>2021-05-23T07:17:42Z</time>
      </trkpt>
      <trkpt lat="47.16188" lon="4.94421">
        <ele>339</ele>
        <time>2021-05-23T07:17:46Z</time>
      </trkpt>
      <trkpt lat="47.16181" lon="4.94424">
        <ele>341.9</ele>
        <time>2021-05-23T07:17:50Z</time>
      </trkpt>
      <trkpt lat="47.16176" lon="4.94425">
        <ele>342.9</ele>
        <time>2021-05-23T07:17:53Z</time>
      </trkpt>
      <trkpt lat="47.16171" lon="4.94428">
        <ele>333.5</ele>
        <time>2021-05-23T07:17:57Z</time>
      </trkpt>
      <trkpt lat="47.16166" lon="4.94428">
        <ele>339.6</ele>
        <time>2021-05-23T07:18:02Z</time>
      </trkpt>
      <trkpt lat="47.16161" lon="4.94427">
        <ele>338.3</ele>
        <time>2021-05-23T07:18:08Z</time>
      </trkpt>
      <trkpt lat="47.16157" lon="4.94431">
        <ele>341.2</ele>
        <time>2021-05-23T07:18:13Z</time>
      </trkpt>
      <trkpt lat="47.16152" lon="4.94435">
        <ele>338.7</ele>
        <time>2021-05-23T07:18:17Z</time>
      </trkpt>
      <trkpt lat="47.16147" lon="4.94432">
        <ele>340</ele>
        <time>2021-05-23T07:18:22Z</time>
      </trkpt>
      <trkpt lat="47.16142" lon="4.9443">
        <ele>338.6</ele>
        <time>2021-05-23T07:18:26Z</time>
      </trkpt>
      <trkpt lat="47.16137" lon="4.9443">
        <ele>335.4</ele>
        <time>2021-05-23T07:18:30Z</time>
      </trkpt>
      <trkpt lat="47.16131" lon="4.94429">
        <ele>338.7</ele>
        <time>2021-05-23T07:18:35Z</time>
      </trkpt>
      <trkpt lat="47.16133" lon="4.94424">
        <ele>340.7</ele>
        <time>2021-05-23T07:18:41Z</time>
      </trkpt>
      <trkpt lat="47.16139" lon="4.94422">
        <ele>340.7</ele>
        <time>2021-05-23T07:18:45Z</time>
      </trkpt>
      <trkpt lat="47.16145" lon="4.9442">
        <ele>342.2</ele>
        <time>2021-05-23T07:18:50Z</time>
      </trkpt>
      <trkpt lat="47.16151" lon="4.94417">
        <ele>347.9</ele>
        <time>2021-05-23T07:18:54Z</time>
      </trkpt>
      <trkpt lat="47.16157" lon="4.94415">
        <ele>355.1</ele>
        <time>2021-05-23T07:18:59Z</time>
      </trkpt>
      <trkpt lat="47.16161" lon="4.94412">
        <ele>346.6</ele>
        <time>2021-05-23T07:19:03Z</time>
      </trkpt>
      <trkpt lat="47.16166" lon="4.94409">
        <ele>346.4</ele>
        <time>2021-05-23T07:19:07Z</time>
      </trkpt>
      <trkpt lat="47.16169" lon="4.94403">
        <ele>343</ele>
        <time>2021-05-23T07:19:11Z</time>
      </trkpt>
      <trkpt lat="47.16174" lon="4.94397">
        <ele>341.3</ele>
        <time>2021-05-23T07:19:19Z</time>
      </trkpt>
      <trkpt lat="47.16179" lon="4.94393">
        <ele>354.3</ele>
        <time>2021-05-23T07:19:25Z</time>
      </trkpt>
      <trkpt lat="47.16184" lon="4.9439">
        <ele>344.4</ele>
        <time>2021-05-23T07:19:29Z</time>
      </trkpt>
      <trkpt lat="47.16188" lon="4.94388">
        <ele>343.2</ele>
        <time>2021-05-23T07:19:33Z</time>
      </trkpt>
      <trkpt lat="47.16184" lon="4.94387">
        <ele>336.1</ele>
        <time>2021-05-23T07:19:48Z</time>
      </trkpt>
      <trkpt lat="47.16189" lon="4.94385">
        <ele>339</ele>
        <time>2021-05-23T07:21:12Z</time>
      </trkpt>
      <trkpt lat="47.16193" lon="4.94382">
        <ele>341.7</ele>
        <time>2021-05-23T07:21:17Z</time>
      </trkpt>
      <trkpt lat="47.16197" lon="4.94376">
        <ele>344.7</ele>
        <time>2021-05-23T07:21:20Z</time>
      </trkpt>
      <trkpt lat="47.16201" lon="4.94371">
        <ele>345</ele>
        <time>2021-05-23T07:21:24Z</time>
      </trkpt>
      <trkpt lat="47.16203" lon="4.94365">
        <ele>344</ele>
        <time>2021-05-23T07:21:29Z</time>
      </trkpt>
      <trkpt lat="47.16207" lon="4.94359">
        <ele>321.2</ele>
        <time>2021-05-23T07:21:34Z</time>
      </trkpt>
      <trkpt lat="47.16209" lon="4.9435">
        <ele>341.8</ele>
        <time>2021-05-23T07:21:41Z</time>
      </trkpt>
      <trkpt lat="47.1621" lon="4.94343">
        <ele>341.5</ele>
        <time>2021-05-23T07:21:46Z</time>
      </trkpt>
      <trkpt lat="47.1621" lon="4.94336">
        <ele>338</ele>
        <time>2021-05-23T07:21:51Z</time>
      </trkpt>
      <trkpt lat="47.16212" lon="4.94329">
        <ele>343</ele>
        <time>2021-05-23T07:21:56Z</time>
      </trkpt>
      <trkpt lat="47.16212" lon="4.9432">
        <ele>330.8</ele>
        <time>2021-05-23T07:22:02Z</time>
      </trkpt>
      <trkpt lat="47.16209" lon="4.94316">
        <ele>347.7</ele>
        <time>2021-05-23T07:22:10Z</time>
      </trkpt>
      <trkpt lat="47.16206" lon="4.94309">
        <ele>296.7</ele>
        <time>2021-05-23T07:22:15Z</time>
      </trkpt>
      <trkpt lat="47.16205" lon="4.94302">
        <ele>347.5</ele>
        <time>2021-05-23T07:22:20Z</time>
      </trkpt>
      <trkpt lat="47.16206" lon="4.94293">
        <ele>352.3</ele>
        <time>2021-05-23T07:22:27Z</time>
      </trkpt>
      <trkpt lat="47.16206" lon="4.94286">
        <ele>354.8</ele>
        <time>2021-05-23T07:22:34Z</time>
      </trkpt>
      <trkpt lat="47.16203" lon="4.94281">
        <ele>355.9</ele>
        <time>2021-05-23T07:22:38Z</time>
      </trkpt>
      <trkpt lat="47.16202" lon="4.94275">
        <ele>356.5</ele>
        <time>2021-05-23T07:22:44Z</time>
      </trkpt>
      <trkpt lat="47.16199" lon="4.94269">
        <ele>360.9</ele>
        <time>2021-05-23T07:22:50Z</time>
      </trkpt>
      <trkpt lat="47.16196" lon="4.94263">
        <ele>358</ele>
        <time>2021-05-23T07:22:58Z</time>
      </trkpt>
      <trkpt lat="47.16195" lon="4.94256">
        <ele>313</ele>
        <time>2021-05-23T07:23:03Z</time>
      </trkpt>
      <trkpt lat="47.16197" lon="4.94249">
        <ele>351.3</ele>
        <time>2021-05-23T07:23:07Z</time>
      </trkpt>
      <trkpt lat="47.16193" lon="4.94241">
        <ele>356.8</ele>
        <time>2021-05-23T07:23:13Z</time>
      </trkpt>
      <trkpt lat="47.16189" lon="4.94238">
        <ele>362.4</ele>
        <time>2021-05-23T07:23:17Z</time>
      </trkpt>
      <trkpt lat="47.16188" lon="4.9423">
        <ele>365.2</ele>
        <time>2021-05-23T07:23:26Z</time>
      </trkpt>
      <trkpt lat="47.1619" lon="4.94223">
        <ele>366.2</ele>
        <time>2021-05-23T07:23:30Z</time>
      </trkpt>
      <trkpt lat="47.1619" lon="4.94214">
        <ele>367.2</ele>
        <time>2021-05-23T07:23:34Z</time>
      </trkpt>
      <trkpt lat="47.16189" lon="4.94207">
        <ele>368.3</ele>
        <time>2021-05-23T07:23:38Z</time>
      </trkpt>
      <trkpt lat="47.16186" lon="4.94201">
        <ele>369.2</ele>
        <time>2021-05-23T07:23:42Z</time>
      </trkpt>
      <trkpt lat="47.16182" lon="4.94196">
        <ele>368.6</ele>
        <time>2021-05-23T07:23:48Z</time>
      </trkpt>
      <trkpt lat="47.16182" lon="4.94188">
        <ele>369.9</ele>
        <time>2021-05-23T07:23:52Z</time>
      </trkpt>
      <trkpt lat="47.16182" lon="4.94181">
        <ele>370.4</ele>
        <time>2021-05-23T07:23:59Z</time>
      </trkpt>
      <trkpt lat="47.16184" lon="4.94174">
        <ele>344.6</ele>
        <time>2021-05-23T07:24:04Z</time>
      </trkpt>
      <trkpt lat="47.16187" lon="4.94169">
        <ele>350.5</ele>
        <time>2021-05-23T07:24:08Z</time>
      </trkpt>
      <trkpt lat="47.16191" lon="4.94163">
        <ele>370.2</ele>
        <time>2021-05-23T07:24:23Z</time>
      </trkpt>
      <trkpt lat="47.16195" lon="4.94158">
        <ele>372.3</ele>
        <time>2021-05-23T07:24:28Z</time>
      </trkpt>
      <trkpt lat="47.16197" lon="4.94151">
        <ele>371.7</ele>
        <time>2021-05-23T07:24:33Z</time>
      </trkpt>
      <trkpt lat="47.16198" lon="4.94144">
        <ele>370.9</ele>
        <time>2021-05-23T07:24:36Z</time>
      </trkpt>
      <trkpt lat="47.16198" lon="4.94136">
        <ele>372.2</ele>
        <time>2021-05-23T07:24:39Z</time>
      </trkpt>
      <trkpt lat="47.16196" lon="4.94127">
        <ele>373.4</ele>
        <time>2021-05-23T07:24:43Z</time>
      </trkpt>
      <trkpt lat="47.16195" lon="4.94119">
        <ele>374.1</ele>
        <time>2021-05-23T07:24:48Z</time>
      </trkpt>
      <trkpt lat="47.16198" lon="4.94114">
        <ele>371.4</ele>
        <time>2021-05-23T07:24:53Z</time>
      </trkpt>
      <trkpt lat="47.16202" lon="4.94109">
        <ele>374.3</ele>
        <time>2021-05-23T07:24:58Z</time>
      </trkpt>
      <trkpt lat="47.16206" lon="4.94104">
        <ele>374.8</ele>
        <time>2021-05-23T07:25:03Z</time>
      </trkpt>
      <trkpt lat="47.16209" lon="4.94098">
        <ele>374.5</ele>
        <time>2021-05-23T07:25:08Z</time>
      </trkpt>
      <trkpt lat="47.16214" lon="4.94095">
        <ele>374</ele>
        <time>2021-05-23T07:25:14Z</time>
      </trkpt>
      <trkpt lat="47.16219" lon="4.94094">
        <ele>375.1</ele>
        <time>2021-05-23T07:25:18Z</time>
      </trkpt>
      <trkpt lat="47.16224" lon="4.94092">
        <ele>376.6</ele>
        <time>2021-05-23T07:25:23Z</time>
      </trkpt>
      <trkpt lat="47.16229" lon="4.94089">
        <ele>371.7</ele>
        <time>2021-05-23T07:25:28Z</time>
      </trkpt>
      <trkpt lat="47.16234" lon="4.94087">
        <ele>373.7</ele>
        <time>2021-05-23T07:25:32Z</time>
      </trkpt>
      <trkpt lat="47.16238" lon="4.94082">
        <ele>371.2</ele>
        <time>2021-05-23T07:25:38Z</time>
      </trkpt>
      <trkpt lat="47.16243" lon="4.94076">
        <ele>363.5</ele>
        <time>2021-05-23T07:25:44Z</time>
      </trkpt>
      <trkpt lat="47.16248" lon="4.94072">
        <ele>369.9</ele>
        <time>2021-05-23T07:25:47Z</time>
      </trkpt>
      <trkpt lat="47.1625" lon="4.94067">
        <ele>371.2</ele>
        <time>2021-05-23T07:25:52Z</time>
      </trkpt>
      <trkpt lat="47.16253" lon="4.9406">
        <ele>373.2</ele>
        <time>2021-05-23T07:25:57Z</time>
      </trkpt>
      <trkpt lat="47.16256" lon="4.94053">
        <ele>373.2</ele>
        <time>2021-05-23T07:26:01Z</time>
      </trkpt>
      <trkpt lat="47.1626" lon="4.94048">
        <ele>374.9</ele>
        <time>2021-05-23T07:26:05Z</time>
      </trkpt>
      <trkpt lat="47.16264" lon="4.94043">
        <ele>376.3</ele>
        <time>2021-05-23T07:26:09Z</time>
      </trkpt>
      <trkpt lat="47.16266" lon="4.94036">
        <ele>372.9</ele>
        <time>2021-05-23T07:26:12Z</time>
      </trkpt>
      <trkpt lat="47.16269" lon="4.94028">
        <ele>374</ele>
        <time>2021-05-23T07:26:18Z</time>
      </trkpt>
      <trkpt lat="47.16271" lon="4.94021">
        <ele>374.1</ele>
        <time>2021-05-23T07:26:23Z</time>
      </trkpt>
      <trkpt lat="47.16274" lon="4.94014">
        <ele>371.8</ele>
        <time>2021-05-23T07:26:27Z</time>
      </trkpt>
      <trkpt lat="47.16273" lon="4.94006">
        <ele>372.7</ele>
        <time>2021-05-23T07:26:33Z</time>
      </trkpt>
      <trkpt lat="47.16269" lon="4.94003">
        <ele>371.6</ele>
        <time>2021-05-23T07:26:36Z</time>
      </trkpt>
      <trkpt lat="47.16261" lon="4.94001">
        <ele>371.1</ele>
        <time>2021-05-23T07:26:40Z</time>
      </trkpt>
      <trkpt lat="47.16256" lon="4.94002">
        <ele>370.4</ele>
        <time>2021-05-23T07:26:43Z</time>
      </trkpt>
      <trkpt lat="47.16251" lon="4.94">
        <ele>371.6</ele>
        <time>2021-05-23T07:26:51Z</time>
      </trkpt>
      <trkpt lat="47.16246" lon="4.93998">
        <ele>371.1</ele>
        <time>2021-05-23T07:26:56Z</time>
      </trkpt>
      <trkpt lat="47.16241" lon="4.93996">
        <ele>372.5</ele>
        <time>2021-05-23T07:27:01Z</time>
      </trkpt>
      <trkpt lat="47.16237" lon="4.93993">
        <ele>372.2</ele>
        <time>2021-05-23T07:27:14Z</time>
      </trkpt>
      <trkpt lat="47.16232" lon="4.9399">
        <ele>374.3</ele>
        <time>2021-05-23T07:27:20Z</time>
      </trkpt>
      <trkpt lat="47.16227" lon="4.93989">
        <ele>375.6</ele>
        <time>2021-05-23T07:27:30Z</time>
      </trkpt>
      <trkpt lat="47.16222" lon="4.93987">
        <ele>378.1</ele>
        <time>2021-05-23T07:27:35Z</time>
      </trkpt>
      <trkpt lat="47.16216" lon="4.93987">
        <ele>378.4</ele>
        <time>2021-05-23T07:27:40Z</time>
      </trkpt>
      <trkpt lat="47.16212" lon="4.93985">
        <ele>381.4</ele>
        <time>2021-05-23T07:27:44Z</time>
      </trkpt>
      <trkpt lat="47.16207" lon="4.93984">
        <ele>381.8</ele>
        <time>2021-05-23T07:27:51Z</time>
      </trkpt>
      <trkpt lat="47.16203" lon="4.9398">
        <ele>381.2</ele>
        <time>2021-05-23T07:27:58Z</time>
      </trkpt>
      <trkpt lat="47.16201" lon="4.93973">
        <ele>379</ele>
        <time>2021-05-23T07:28:03Z</time>
      </trkpt>
      <trkpt lat="47.162" lon="4.93964">
        <ele>378.9</ele>
        <time>2021-05-23T07:28:08Z</time>
      </trkpt>
      <trkpt lat="47.162" lon="4.93957">
        <ele>380.1</ele>
        <time>2021-05-23T07:28:14Z</time>
      </trkpt>
      <trkpt lat="47.16201" lon="4.93951">
        <ele>382.6</ele>
        <time>2021-05-23T07:28:19Z</time>
      </trkpt>
      <trkpt lat="47.16203" lon="4.93942">
        <ele>384.6</ele>
        <time>2021-05-23T07:28:26Z</time>
      </trkpt>
      <trkpt lat="47.16205" lon="4.93934">
        <ele>385.7</ele>
        <time>2021-05-23T07:28:32Z</time>
      </trkpt>
      <trkpt lat="47.16206" lon="4.93927">
        <ele>386.5</ele>
        <time>2021-05-23T07:28:37Z</time>
      </trkpt>
      <trkpt lat="47.16207" lon="4.93918">
        <ele>386.4</ele>
        <time>2021-05-23T07:28:41Z</time>
      </trkpt>
      <trkpt lat="47.16209" lon="4.93912">
        <ele>380.5</ele>
        <time>2021-05-23T07:28:47Z</time>
      </trkpt>
      <trkpt lat="47.16209" lon="4.93903">
        <ele>383</ele>
        <time>2021-05-23T07:28:53Z</time>
      </trkpt>
      <trkpt lat="47.1621" lon="4.93896">
        <ele>386</ele>
        <time>2021-05-23T07:29:00Z</time>
      </trkpt>
      <trkpt lat="47.16211" lon="4.93888">
        <ele>385</ele>
        <time>2021-05-23T07:29:05Z</time>
      </trkpt>
      <trkpt lat="47.16215" lon="4.93887">
        <ele>386.4</ele>
        <time>2021-05-23T07:30:14Z</time>
      </trkpt>
      <trkpt lat="47.16214" lon="4.9388">
        <ele>387.4</ele>
        <time>2021-05-23T07:30:49Z</time>
      </trkpt>
      <trkpt lat="47.16219" lon="4.93881">
        <ele>385.2</ele>
        <time>2021-05-23T07:31:10Z</time>
      </trkpt>
      <trkpt lat="47.16224" lon="4.93885">
        <ele>386.4</ele>
        <time>2021-05-23T07:31:17Z</time>
      </trkpt>
      <trkpt lat="47.16219" lon="4.93882">
        <ele>386.4</ele>
        <time>2021-05-23T07:32:15Z</time>
      </trkpt>
      <trkpt lat="47.16222" lon="4.93888">
        <ele>387.2</ele>
        <time>2021-05-23T07:32:54Z</time>
      </trkpt>
      <trkpt lat="47.16225" lon="4.93882">
        <ele>385.1</ele>
        <time>2021-05-23T07:33:07Z</time>
      </trkpt>
      <trkpt lat="47.1622" lon="4.93884">
        <ele>379.9</ele>
        <time>2021-05-23T07:33:39Z</time>
      </trkpt>
      <trkpt lat="47.16225" lon="4.93887">
        <ele>383.7</ele>
        <time>2021-05-23T07:33:47Z</time>
      </trkpt>
      <trkpt lat="47.1623" lon="4.93885">
        <ele>382.7</ele>
        <time>2021-05-23T07:33:50Z</time>
      </trkpt>
      <trkpt lat="47.16234" lon="4.93887">
        <ele>383.2</ele>
        <time>2021-05-23T07:33:55Z</time>
      </trkpt>
      <trkpt lat="47.16238" lon="4.93891">
        <ele>382.2</ele>
        <time>2021-05-23T07:33:59Z</time>
      </trkpt>
      <trkpt lat="47.16244" lon="4.93892">
        <ele>376.9</ele>
        <time>2021-05-23T07:34:05Z</time>
      </trkpt>
      <trkpt lat="47.16245" lon="4.93885">
        <ele>374.3</ele>
        <time>2021-05-23T07:34:09Z</time>
      </trkpt>
      <trkpt lat="47.16246" lon="4.93877">
        <ele>372.3</ele>
        <time>2021-05-23T07:34:16Z</time>
      </trkpt>
      <trkpt lat="47.16243" lon="4.93872">
        <ele>376.8</ele>
        <time>2021-05-23T07:35:34Z</time>
      </trkpt>
      <trkpt lat="47.16239" lon="4.9387">
        <ele>375.7</ele>
        <time>2021-05-23T07:36:15Z</time>
      </trkpt>
      <trkpt lat="47.16234" lon="4.93867">
        <ele>376.2</ele>
        <time>2021-05-23T07:36:26Z</time>
      </trkpt>
      <trkpt lat="47.16234" lon="4.93861">
        <ele>379.3</ele>
        <time>2021-05-23T07:36:40Z</time>
      </trkpt>
      <trkpt lat="47.1623" lon="4.93862">
        <ele>375.5</ele>
        <time>2021-05-23T07:37:31Z</time>
      </trkpt>
      <trkpt lat="47.16234" lon="4.93864">
        <ele>386.3</ele>
        <time>2021-05-23T07:37:48Z</time>
      </trkpt>
      <trkpt lat="47.1623" lon="4.93869">
        <ele>380.8</ele>
        <time>2021-05-23T07:38:05Z</time>
      </trkpt>
      <trkpt lat="47.16234" lon="4.93874">
        <ele>380.4</ele>
        <time>2021-05-23T07:38:48Z</time>
      </trkpt>
      <trkpt lat="47.1624" lon="4.93875">
        <ele>377.6</ele>
        <time>2021-05-23T07:38:51Z</time>
      </trkpt>
      <trkpt lat="47.16245" lon="4.93877">
        <ele>379.9</ele>
        <time>2021-05-23T07:38:55Z</time>
      </trkpt>
      <trkpt lat="47.16249" lon="4.93871">
        <ele>375.4</ele>
        <time>2021-05-23T07:38:59Z</time>
      </trkpt>
      <trkpt lat="47.16252" lon="4.93864">
        <ele>369</ele>
        <time>2021-05-23T07:39:05Z</time>
      </trkpt>
      <trkpt lat="47.16254" lon="4.93857">
        <ele>373.6</ele>
        <time>2021-05-23T07:39:12Z</time>
      </trkpt>
      <trkpt lat="47.16255" lon="4.93849">
        <ele>371.7</ele>
        <time>2021-05-23T07:39:17Z</time>
      </trkpt>
      <trkpt lat="47.16254" lon="4.93841">
        <ele>370</ele>
        <time>2021-05-23T07:39:21Z</time>
      </trkpt>
      <trkpt lat="47.16254" lon="4.93832">
        <ele>370</ele>
        <time>2021-05-23T07:39:27Z</time>
      </trkpt>
      <trkpt lat="47.16255" lon="4.93823">
        <ele>369.3</ele>
        <time>2021-05-23T07:39:34Z</time>
      </trkpt>
      <trkpt lat="47.16251" lon="4.93827">
        <ele>370.6</ele>
        <time>2021-05-23T07:40:05Z</time>
      </trkpt>
      <trkpt lat="47.16249" lon="4.9382">
        <ele>372.2</ele>
        <time>2021-05-23T07:40:17Z</time>
      </trkpt>
      <trkpt lat="47.16251" lon="4.93814">
        <ele>372.7</ele>
        <time>2021-05-23T07:40:24Z</time>
      </trkpt>
      <trkpt lat="47.1625" lon="4.93808">
        <ele>374.5</ele>
        <time>2021-05-23T07:40:30Z</time>
      </trkpt>
      <trkpt lat="47.16248" lon="4.93801">
        <ele>376.8</ele>
        <time>2021-05-23T07:40:37Z</time>
      </trkpt>
      <trkpt lat="47.16245" lon="4.93794">
        <ele>380</ele>
        <time>2021-05-23T07:40:42Z</time>
      </trkpt>
      <trkpt lat="47.16245" lon="4.93788">
        <ele>379.8</ele>
        <time>2021-05-23T07:40:48Z</time>
      </trkpt>
      <trkpt lat="47.16247" lon="4.93782">
        <ele>381.9</ele>
        <time>2021-05-23T07:40:53Z</time>
      </trkpt>
      <trkpt lat="47.16248" lon="4.93774">
        <ele>378.7</ele>
        <time>2021-05-23T07:41:26Z</time>
      </trkpt>
      <trkpt lat="47.16245" lon="4.93765">
        <ele>379.8</ele>
        <time>2021-05-23T07:41:30Z</time>
      </trkpt>
      <trkpt lat="47.16242" lon="4.9376">
        <ele>379.4</ele>
        <time>2021-05-23T07:41:33Z</time>
      </trkpt>
      <trkpt lat="47.16238" lon="4.93756">
        <ele>369</ele>
        <time>2021-05-23T07:41:40Z</time>
      </trkpt>
      <trkpt lat="47.16233" lon="4.93753">
        <ele>383.8</ele>
        <time>2021-05-23T07:42:00Z</time>
      </trkpt>
      <trkpt lat="47.16232" lon="4.93746">
        <ele>384.2</ele>
        <time>2021-05-23T07:42:08Z</time>
      </trkpt>
      <trkpt lat="47.16229" lon="4.93739">
        <ele>386.8</ele>
        <time>2021-05-23T07:42:13Z</time>
      </trkpt>
      <trkpt lat="47.16226" lon="4.93732">
        <ele>389.5</ele>
        <time>2021-05-23T07:42:18Z</time>
      </trkpt>
      <trkpt lat="47.16223" lon="4.93726">
        <ele>390</ele>
        <time>2021-05-23T07:42:23Z</time>
      </trkpt>
      <trkpt lat="47.16223" lon="4.93719">
        <ele>388.9</ele>
        <time>2021-05-23T07:42:27Z</time>
      </trkpt>
      <trkpt lat="47.16222" lon="4.93711">
        <ele>389.1</ele>
        <time>2021-05-23T07:42:32Z</time>
      </trkpt>
      <trkpt lat="47.1622" lon="4.93704">
        <ele>390.1</ele>
        <time>2021-05-23T07:42:49Z</time>
      </trkpt>
      <trkpt lat="47.16217" lon="4.93697">
        <ele>388.8</ele>
        <time>2021-05-23T07:42:53Z</time>
      </trkpt>
      <trkpt lat="47.16219" lon="4.93688">
        <ele>392.2</ele>
        <time>2021-05-23T07:43:00Z</time>
      </trkpt>
      <trkpt lat="47.16224" lon="4.93686">
        <ele>392.7</ele>
        <time>2021-05-23T07:43:03Z</time>
      </trkpt>
      <trkpt lat="47.16227" lon="4.9368">
        <ele>392.9</ele>
        <time>2021-05-23T07:43:11Z</time>
      </trkpt>
      <trkpt lat="47.16226" lon="4.93672">
        <ele>390.7</ele>
        <time>2021-05-23T07:43:16Z</time>
      </trkpt>
      <trkpt lat="47.16226" lon="4.93665">
        <ele>392.6</ele>
        <time>2021-05-23T07:43:20Z</time>
      </trkpt>
      <trkpt lat="47.16228" lon="4.93658">
        <ele>391.6</ele>
        <time>2021-05-23T07:43:24Z</time>
      </trkpt>
      <trkpt lat="47.1623" lon="4.93651">
        <ele>392.1</ele>
        <time>2021-05-23T07:43:27Z</time>
      </trkpt>
      <trkpt lat="47.16231" lon="4.93644">
        <ele>392.1</ele>
        <time>2021-05-23T07:43:31Z</time>
      </trkpt>
      <trkpt lat="47.16233" lon="4.93638">
        <ele>393.9</ele>
        <time>2021-05-23T07:43:36Z</time>
      </trkpt>
      <trkpt lat="47.16234" lon="4.9363">
        <ele>389.7</ele>
        <time>2021-05-23T07:43:41Z</time>
      </trkpt>
      <trkpt lat="47.16232" lon="4.93622">
        <ele>389</ele>
        <time>2021-05-23T07:43:47Z</time>
      </trkpt>
      <trkpt lat="47.1623" lon="4.93615">
        <ele>390.4</ele>
        <time>2021-05-23T07:43:54Z</time>
      </trkpt>
      <trkpt lat="47.16228" lon="4.93609">
        <ele>389.6</ele>
        <time>2021-05-23T07:44:00Z</time>
      </trkpt>
      <trkpt lat="47.16225" lon="4.93603">
        <ele>390.4</ele>
        <time>2021-05-23T07:44:10Z</time>
      </trkpt>
      <trkpt lat="47.16222" lon="4.93596">
        <ele>391.9</ele>
        <time>2021-05-23T07:44:15Z</time>
      </trkpt>
      <trkpt lat="47.1622" lon="4.93589">
        <ele>395.5</ele>
        <time>2021-05-23T07:44:21Z</time>
      </trkpt>
      <trkpt lat="47.16218" lon="4.93582">
        <ele>394</ele>
        <time>2021-05-23T07:44:26Z</time>
      </trkpt>
      <trkpt lat="47.16214" lon="4.93574">
        <ele>396.1</ele>
        <time>2021-05-23T07:44:31Z</time>
      </trkpt>
      <trkpt lat="47.16213" lon="4.93567">
        <ele>396.5</ele>
        <time>2021-05-23T07:44:35Z</time>
      </trkpt>
      <trkpt lat="47.16213" lon="4.9356">
        <ele>395.5</ele>
        <time>2021-05-23T07:44:39Z</time>
      </trkpt>
      <trkpt lat="47.16218" lon="4.93557">
        <ele>396.8</ele>
        <time>2021-05-23T07:44:46Z</time>
      </trkpt>
      <trkpt lat="47.16219" lon="4.9355">
        <ele>394.9</ele>
        <time>2021-05-23T07:44:57Z</time>
      </trkpt>
      <trkpt lat="47.16219" lon="4.93544">
        <ele>398.6</ele>
        <time>2021-05-23T07:45:02Z</time>
      </trkpt>
      <trkpt lat="47.16219" lon="4.93534">
        <ele>398.4</ele>
        <time>2021-05-23T07:45:09Z</time>
      </trkpt>
      <trkpt lat="47.16219" lon="4.93527">
        <ele>397.7</ele>
        <time>2021-05-23T07:45:12Z</time>
      </trkpt>
      <trkpt lat="47.16218" lon="4.9352">
        <ele>381.9</ele>
        <time>2021-05-23T07:45:16Z</time>
      </trkpt>
      <trkpt lat="47.16216" lon="4.93512">
        <ele>393.2</ele>
        <time>2021-05-23T07:45:21Z</time>
      </trkpt>
      <trkpt lat="47.16214" lon="4.93505">
        <ele>394.1</ele>
        <time>2021-05-23T07:45:25Z</time>
      </trkpt>
      <trkpt lat="47.16211" lon="4.93499">
        <ele>394.5</ele>
        <time>2021-05-23T07:45:29Z</time>
      </trkpt>
      <trkpt lat="47.16208" lon="4.93493">
        <ele>393.3</ele>
        <time>2021-05-23T07:45:32Z</time>
      </trkpt>
      <trkpt lat="47.16208" lon="4.93484">
        <ele>393.5</ele>
        <time>2021-05-23T07:45:37Z</time>
      </trkpt>
      <trkpt lat="47.16209" lon="4.93476">
        <ele>393.4</ele>
        <time>2021-05-23T07:45:42Z</time>
      </trkpt>
      <trkpt lat="47.1621" lon="4.93469">
        <ele>394.9</ele>
        <time>2021-05-23T07:45:47Z</time>
      </trkpt>
      <trkpt lat="47.1621" lon="4.9346">
        <ele>396.3</ele>
        <time>2021-05-23T07:45:52Z</time>
      </trkpt>
      <trkpt lat="47.16211" lon="4.93453">
        <ele>395.5</ele>
        <time>2021-05-23T07:45:56Z</time>
      </trkpt>
      <trkpt lat="47.1621" lon="4.93446">
        <ele>396</ele>
        <time>2021-05-23T07:46:01Z</time>
      </trkpt>
      <trkpt lat="47.16205" lon="4.93443">
        <ele>381.2</ele>
        <time>2021-05-23T07:46:08Z</time>
      </trkpt>
      <trkpt lat="47.16202" lon="4.93438">
        <ele>389.4</ele>
        <time>2021-05-23T07:46:14Z</time>
      </trkpt>
      <trkpt lat="47.16201" lon="4.93431">
        <ele>392.2</ele>
        <time>2021-05-23T07:46:17Z</time>
      </trkpt>
      <trkpt lat="47.162" lon="4.93422">
        <ele>395.2</ele>
        <time>2021-05-23T07:46:21Z</time>
      </trkpt>
      <trkpt lat="47.16201" lon="4.93415">
        <ele>399.1</ele>
        <time>2021-05-23T07:46:25Z</time>
      </trkpt>
      <trkpt lat="47.162" lon="4.93408">
        <ele>400.1</ele>
        <time>2021-05-23T07:46:30Z</time>
      </trkpt>
      <trkpt lat="47.16201" lon="4.93401">
        <ele>400.1</ele>
        <time>2021-05-23T07:46:36Z</time>
      </trkpt>
      <trkpt lat="47.16199" lon="4.93395">
        <ele>395.2</ele>
        <time>2021-05-23T07:46:47Z</time>
      </trkpt>
      <trkpt lat="47.16195" lon="4.93391">
        <ele>393.5</ele>
        <time>2021-05-23T07:46:54Z</time>
      </trkpt>
      <trkpt lat="47.16193" lon="4.93385">
        <ele>391</ele>
        <time>2021-05-23T07:46:57Z</time>
      </trkpt>
      <trkpt lat="47.16191" lon="4.93369">
        <ele>390.9</ele>
        <time>2021-05-23T07:47:06Z</time>
      </trkpt>
      <trkpt lat="47.16186" lon="4.93365">
        <ele>392.9</ele>
        <time>2021-05-23T07:47:11Z</time>
      </trkpt>
      <trkpt lat="47.16184" lon="4.93358">
        <ele>392.8</ele>
        <time>2021-05-23T07:47:17Z</time>
      </trkpt>
      <trkpt lat="47.16184" lon="4.93349">
        <ele>392.4</ele>
        <time>2021-05-23T07:47:21Z</time>
      </trkpt>
      <trkpt lat="47.16185" lon="4.93341">
        <ele>393.5</ele>
        <time>2021-05-23T07:47:24Z</time>
      </trkpt>
      <trkpt lat="47.16186" lon="4.93334">
        <ele>392.6</ele>
        <time>2021-05-23T07:47:28Z</time>
      </trkpt>
      <trkpt lat="47.16189" lon="4.93329">
        <ele>391.5</ele>
        <time>2021-05-23T07:47:33Z</time>
      </trkpt>
      <trkpt lat="47.16189" lon="4.93322">
        <ele>393.6</ele>
        <time>2021-05-23T07:47:44Z</time>
      </trkpt>
      <trkpt lat="47.16193" lon="4.93317">
        <ele>393.6</ele>
        <time>2021-05-23T07:47:50Z</time>
      </trkpt>
      <trkpt lat="47.16197" lon="4.93313">
        <ele>394.3</ele>
        <time>2021-05-23T07:47:54Z</time>
      </trkpt>
      <trkpt lat="47.16201" lon="4.93308">
        <ele>393.4</ele>
        <time>2021-05-23T07:48:01Z</time>
      </trkpt>
      <trkpt lat="47.16204" lon="4.93296">
        <ele>393.5</ele>
        <time>2021-05-23T07:48:08Z</time>
      </trkpt>
      <trkpt lat="47.16209" lon="4.93293">
        <ele>396</ele>
        <time>2021-05-23T07:48:14Z</time>
      </trkpt>
      <trkpt lat="47.16214" lon="4.93293">
        <ele>396.4</ele>
        <time>2021-05-23T07:48:21Z</time>
      </trkpt>
      <trkpt lat="47.16219" lon="4.9329">
        <ele>378.2</ele>
        <time>2021-05-23T07:48:28Z</time>
      </trkpt>
      <trkpt lat="47.16224" lon="4.93282">
        <ele>390.9</ele>
        <time>2021-05-23T07:48:34Z</time>
      </trkpt>
      <trkpt lat="47.16228" lon="4.93279">
        <ele>392.7</ele>
        <time>2021-05-23T07:48:40Z</time>
      </trkpt>
      <trkpt lat="47.16232" lon="4.93274">
        <ele>378.9</ele>
        <time>2021-05-23T07:48:45Z</time>
      </trkpt>
      <trkpt lat="47.16236" lon="4.9327">
        <ele>388.2</ele>
        <time>2021-05-23T07:48:49Z</time>
      </trkpt>
      <trkpt lat="47.16239" lon="4.93266">
        <ele>392.2</ele>
        <time>2021-05-23T07:48:54Z</time>
      </trkpt>
      <trkpt lat="47.16244" lon="4.9326">
        <ele>392.6</ele>
        <time>2021-05-23T07:48:59Z</time>
      </trkpt>
      <trkpt lat="47.16249" lon="4.93254">
        <ele>393.1</ele>
        <time>2021-05-23T07:49:03Z</time>
      </trkpt>
      <trkpt lat="47.16252" lon="4.93246">
        <ele>396.4</ele>
        <time>2021-05-23T07:49:11Z</time>
      </trkpt>
      <trkpt lat="47.16256" lon="4.93239">
        <ele>397.8</ele>
        <time>2021-05-23T07:49:16Z</time>
      </trkpt>
      <trkpt lat="47.1626" lon="4.93232">
        <ele>398.4</ele>
        <time>2021-05-23T07:49:21Z</time>
      </trkpt>
      <trkpt lat="47.16264" lon="4.93226">
        <ele>399.6</ele>
        <time>2021-05-23T07:49:26Z</time>
      </trkpt>
      <trkpt lat="47.16268" lon="4.93225">
        <ele>398.8</ele>
        <time>2021-05-23T07:49:32Z</time>
      </trkpt>
      <trkpt lat="47.16273" lon="4.93227">
        <ele>397.4</ele>
        <time>2021-05-23T07:49:36Z</time>
      </trkpt>
      <trkpt lat="47.16277" lon="4.9323">
        <ele>399.5</ele>
        <time>2021-05-23T07:49:43Z</time>
      </trkpt>
      <trkpt lat="47.16283" lon="4.93234">
        <ele>395.4</ele>
        <time>2021-05-23T07:49:49Z</time>
      </trkpt>
      <trkpt lat="47.16286" lon="4.93239">
        <ele>395.6</ele>
        <time>2021-05-23T07:49:54Z</time>
      </trkpt>
      <trkpt lat="47.16292" lon="4.9324">
        <ele>395.1</ele>
        <time>2021-05-23T07:50:07Z</time>
      </trkpt>
      <trkpt lat="47.16297" lon="4.93244">
        <ele>396.8</ele>
        <time>2021-05-23T07:50:12Z</time>
      </trkpt>
      <trkpt lat="47.16302" lon="4.93247">
        <ele>397.9</ele>
        <time>2021-05-23T07:50:17Z</time>
      </trkpt>
      <trkpt lat="47.16307" lon="4.93249">
        <ele>396</ele>
        <time>2021-05-23T07:50:22Z</time>
      </trkpt>
      <trkpt lat="47.16312" lon="4.93252">
        <ele>397.5</ele>
        <time>2021-05-23T07:50:27Z</time>
      </trkpt>
      <trkpt lat="47.16316" lon="4.93258">
        <ele>396.3</ele>
        <time>2021-05-23T07:50:33Z</time>
      </trkpt>
      <trkpt lat="47.16321" lon="4.93261">
        <ele>394.3</ele>
        <time>2021-05-23T07:50:38Z</time>
      </trkpt>
      <trkpt lat="47.16327" lon="4.93263">
        <ele>393.9</ele>
        <time>2021-05-23T07:50:43Z</time>
      </trkpt>
      <trkpt lat="47.16333" lon="4.93263">
        <ele>392.3</ele>
        <time>2021-05-23T07:50:49Z</time>
      </trkpt>
      <trkpt lat="47.16338" lon="4.93264">
        <ele>392.8</ele>
        <time>2021-05-23T07:50:53Z</time>
      </trkpt>
      <trkpt lat="47.16342" lon="4.93267">
        <ele>393.4</ele>
        <time>2021-05-23T07:50:58Z</time>
      </trkpt>
      <trkpt lat="47.16346" lon="4.93271">
        <ele>396.9</ele>
        <time>2021-05-23T07:51:03Z</time>
      </trkpt>
      <trkpt lat="47.16352" lon="4.93275">
        <ele>394.5</ele>
        <time>2021-05-23T07:51:08Z</time>
      </trkpt>
      <trkpt lat="47.16356" lon="4.93276">
        <ele>396.3</ele>
        <time>2021-05-23T07:51:12Z</time>
      </trkpt>
      <trkpt lat="47.16362" lon="4.93277">
        <ele>394.9</ele>
        <time>2021-05-23T07:51:16Z</time>
      </trkpt>
      <trkpt lat="47.16366" lon="4.9328">
        <ele>396.1</ele>
        <time>2021-05-23T07:51:20Z</time>
      </trkpt>
      <trkpt lat="47.16371" lon="4.93284">
        <ele>395</ele>
        <time>2021-05-23T07:51:25Z</time>
      </trkpt>
      <trkpt lat="47.16375" lon="4.93288">
        <ele>394.7</ele>
        <time>2021-05-23T07:51:30Z</time>
      </trkpt>
      <trkpt lat="47.1638" lon="4.9329">
        <ele>394.7</ele>
        <time>2021-05-23T07:51:36Z</time>
      </trkpt>
      <trkpt lat="47.16385" lon="4.93293">
        <ele>392.6</ele>
        <time>2021-05-23T07:51:40Z</time>
      </trkpt>
      <trkpt lat="47.16389" lon="4.93293">
        <ele>393.9</ele>
        <time>2021-05-23T07:51:43Z</time>
      </trkpt>
      <trkpt lat="47.16394" lon="4.93295">
        <ele>396.3</ele>
        <time>2021-05-23T07:51:47Z</time>
      </trkpt>
      <trkpt lat="47.16398" lon="4.93298">
        <ele>394.8</ele>
        <time>2021-05-23T07:51:53Z</time>
      </trkpt>
      <trkpt lat="47.16403" lon="4.93301">
        <ele>392.6</ele>
        <time>2021-05-23T07:51:58Z</time>
      </trkpt>
      <trkpt lat="47.16407" lon="4.93306">
        <ele>393</ele>
        <time>2021-05-23T07:52:02Z</time>
      </trkpt>
      <trkpt lat="47.16411" lon="4.93313">
        <ele>392.5</ele>
        <time>2021-05-23T07:52:07Z</time>
      </trkpt>
      <trkpt lat="47.16416" lon="4.93313">
        <ele>389.8</ele>
        <time>2021-05-23T07:52:12Z</time>
      </trkpt>
      <trkpt lat="47.16421" lon="4.93311">
        <ele>388.9</ele>
        <time>2021-05-23T07:52:16Z</time>
      </trkpt>
      <trkpt lat="47.16426" lon="4.93311">
        <ele>388.8</ele>
        <time>2021-05-23T07:52:19Z</time>
      </trkpt>
      <trkpt lat="47.1643" lon="4.93312">
        <ele>388.8</ele>
        <time>2021-05-23T07:52:23Z</time>
      </trkpt>
      <trkpt lat="47.16435" lon="4.93319">
        <ele>392.2</ele>
        <time>2021-05-23T07:52:28Z</time>
      </trkpt>
      <trkpt lat="47.16439" lon="4.93316">
        <ele>391</ele>
        <time>2021-05-23T07:52:47Z</time>
      </trkpt>
      <trkpt lat="47.16443" lon="4.93309">
        <ele>389.1</ele>
        <time>2021-05-23T07:52:51Z</time>
      </trkpt>
      <trkpt lat="47.16446" lon="4.93301">
        <ele>388.4</ele>
        <time>2021-05-23T07:52:55Z</time>
      </trkpt>
      <trkpt lat="47.16449" lon="4.93296">
        <ele>388</ele>
        <time>2021-05-23T07:52:59Z</time>
      </trkpt>
      <trkpt lat="47.16451" lon="4.9329">
        <ele>388.9</ele>
        <time>2021-05-23T07:53:03Z</time>
      </trkpt>
      <trkpt lat="47.16453" lon="4.93283">
        <ele>390.1</ele>
        <time>2021-05-23T07:53:08Z</time>
      </trkpt>
      <trkpt lat="47.16455" lon="4.93276">
        <ele>389.9</ele>
        <time>2021-05-23T07:53:11Z</time>
      </trkpt>
      <trkpt lat="47.16459" lon="4.9327">
        <ele>389.7</ele>
        <time>2021-05-23T07:53:14Z</time>
      </trkpt>
      <trkpt lat="47.16463" lon="4.93266">
        <ele>392.3</ele>
        <time>2021-05-23T07:53:17Z</time>
      </trkpt>
      <trkpt lat="47.16466" lon="4.93259">
        <ele>392.8</ele>
        <time>2021-05-23T07:53:22Z</time>
      </trkpt>
      <trkpt lat="47.1647" lon="4.93252">
        <ele>392.4</ele>
        <time>2021-05-23T07:53:27Z</time>
      </trkpt>
      <trkpt lat="47.16472" lon="4.93244">
        <ele>391.2</ele>
        <time>2021-05-23T07:53:32Z</time>
      </trkpt>
      <trkpt lat="47.16474" lon="4.93236">
        <ele>393.9</ele>
        <time>2021-05-23T07:53:36Z</time>
      </trkpt>
      <trkpt lat="47.16475" lon="4.93229">
        <ele>389.9</ele>
        <time>2021-05-23T07:53:41Z</time>
      </trkpt>
      <trkpt lat="47.16476" lon="4.93222">
        <ele>390.7</ele>
        <time>2021-05-23T07:53:45Z</time>
      </trkpt>
      <trkpt lat="47.16478" lon="4.93214">
        <ele>390.8</ele>
        <time>2021-05-23T07:53:49Z</time>
      </trkpt>
      <trkpt lat="47.16481" lon="4.93208">
        <ele>392</ele>
        <time>2021-05-23T07:53:52Z</time>
      </trkpt>
      <trkpt lat="47.16485" lon="4.93203">
        <ele>393.2</ele>
        <time>2021-05-23T07:53:57Z</time>
      </trkpt>
      <trkpt lat="47.16488" lon="4.93197">
        <ele>391.2</ele>
        <time>2021-05-23T07:54:03Z</time>
      </trkpt>
      <trkpt lat="47.1649" lon="4.93189">
        <ele>389.6</ele>
        <time>2021-05-23T07:54:08Z</time>
      </trkpt>
      <trkpt lat="47.16492" lon="4.93182">
        <ele>392.6</ele>
        <time>2021-05-23T07:54:13Z</time>
      </trkpt>
      <trkpt lat="47.16494" lon="4.93175">
        <ele>391.5</ele>
        <time>2021-05-23T07:54:18Z</time>
      </trkpt>
      <trkpt lat="47.16495" lon="4.93168">
        <ele>394.9</ele>
        <time>2021-05-23T07:54:23Z</time>
      </trkpt>
      <trkpt lat="47.16499" lon="4.93161">
        <ele>395.7</ele>
        <time>2021-05-23T07:54:29Z</time>
      </trkpt>
      <trkpt lat="47.16502" lon="4.93155">
        <ele>395.3</ele>
        <time>2021-05-23T07:54:37Z</time>
      </trkpt>
      <trkpt lat="47.16503" lon="4.93147">
        <ele>394.5</ele>
        <time>2021-05-23T07:54:41Z</time>
      </trkpt>
      <trkpt lat="47.16505" lon="4.9314">
        <ele>395.8</ele>
        <time>2021-05-23T07:54:46Z</time>
      </trkpt>
      <trkpt lat="47.16508" lon="4.93134">
        <ele>395.1</ele>
        <time>2021-05-23T07:54:52Z</time>
      </trkpt>
      <trkpt lat="47.16512" lon="4.93126">
        <ele>394.4</ele>
        <time>2021-05-23T07:54:56Z</time>
      </trkpt>
      <trkpt lat="47.16515" lon="4.93121">
        <ele>392.6</ele>
        <time>2021-05-23T07:54:59Z</time>
      </trkpt>
      <trkpt lat="47.16517" lon="4.93114">
        <ele>392.7</ele>
        <time>2021-05-23T07:55:03Z</time>
      </trkpt>
      <trkpt lat="47.16518" lon="4.93106">
        <ele>395</ele>
        <time>2021-05-23T07:55:06Z</time>
      </trkpt>
      <trkpt lat="47.1652" lon="4.93098">
        <ele>395.2</ele>
        <time>2021-05-23T07:55:12Z</time>
      </trkpt>
      <trkpt lat="47.16523" lon="4.93091">
        <ele>396</ele>
        <time>2021-05-23T07:55:15Z</time>
      </trkpt>
      <trkpt lat="47.16525" lon="4.93085">
        <ele>394.9</ele>
        <time>2021-05-23T07:55:20Z</time>
      </trkpt>
      <trkpt lat="47.16528" lon="4.93077">
        <ele>394.3</ele>
        <time>2021-05-23T07:55:28Z</time>
      </trkpt>
      <trkpt lat="47.1653" lon="4.93069">
        <ele>394.1</ele>
        <time>2021-05-23T07:55:33Z</time>
      </trkpt>
      <trkpt lat="47.1653" lon="4.93062">
        <ele>394.3</ele>
        <time>2021-05-23T07:55:38Z</time>
      </trkpt>
      <trkpt lat="47.16531" lon="4.93055">
        <ele>392.2</ele>
        <time>2021-05-23T07:55:42Z</time>
      </trkpt>
      <trkpt lat="47.16533" lon="4.93046">
        <ele>396.2</ele>
        <time>2021-05-23T07:55:47Z</time>
      </trkpt>
      <trkpt lat="47.16537" lon="4.93041">
        <ele>395.2</ele>
        <time>2021-05-23T07:55:51Z</time>
      </trkpt>
      <trkpt lat="47.16542" lon="4.93042">
        <ele>393.4</ele>
        <time>2021-05-23T07:55:57Z</time>
      </trkpt>
      <trkpt lat="47.16544" lon="4.93048">
        <ele>393</ele>
        <time>2021-05-23T07:56:05Z</time>
      </trkpt>
      <trkpt lat="47.16549" lon="4.93049">
        <ele>392.3</ele>
        <time>2021-05-23T07:56:12Z</time>
      </trkpt>
      <trkpt lat="47.16555" lon="4.93049">
        <ele>390.7</ele>
        <time>2021-05-23T07:56:17Z</time>
      </trkpt>
      <trkpt lat="47.1656" lon="4.93051">
        <ele>390.4</ele>
        <time>2021-05-23T07:56:22Z</time>
      </trkpt>
      <trkpt lat="47.16565" lon="4.93054">
        <ele>391</ele>
        <time>2021-05-23T07:56:27Z</time>
      </trkpt>
      <trkpt lat="47.16569" lon="4.93059">
        <ele>387.1</ele>
        <time>2021-05-23T07:56:33Z</time>
      </trkpt>
      <trkpt lat="47.16572" lon="4.93065">
        <ele>385.7</ele>
        <time>2021-05-23T07:56:39Z</time>
      </trkpt>
      <trkpt lat="47.16574" lon="4.93071">
        <ele>385.3</ele>
        <time>2021-05-23T07:56:44Z</time>
      </trkpt>
      <trkpt lat="47.16579" lon="4.93074">
        <ele>387.6</ele>
        <time>2021-05-23T07:56:49Z</time>
      </trkpt>
      <trkpt lat="47.16583" lon="4.93076">
        <ele>383.9</ele>
        <time>2021-05-23T07:56:53Z</time>
      </trkpt>
      <trkpt lat="47.16588" lon="4.93078">
        <ele>383.7</ele>
        <time>2021-05-23T07:56:58Z</time>
      </trkpt>
      <trkpt lat="47.16592" lon="4.93081">
        <ele>385.5</ele>
        <time>2021-05-23T07:57:03Z</time>
      </trkpt>
      <trkpt lat="47.16596" lon="4.93085">
        <ele>385.6</ele>
        <time>2021-05-23T07:57:08Z</time>
      </trkpt>
      <trkpt lat="47.166" lon="4.93089">
        <ele>385.2</ele>
        <time>2021-05-23T07:57:14Z</time>
      </trkpt>
      <trkpt lat="47.16604" lon="4.93093">
        <ele>385.9</ele>
        <time>2021-05-23T07:57:21Z</time>
      </trkpt>
      <trkpt lat="47.16609" lon="4.93097">
        <ele>388.5</ele>
        <time>2021-05-23T07:57:28Z</time>
      </trkpt>
      <trkpt lat="47.16612" lon="4.93102">
        <ele>384.7</ele>
        <time>2021-05-23T07:57:35Z</time>
      </trkpt>
      <trkpt lat="47.16618" lon="4.93107">
        <ele>382.2</ele>
        <time>2021-05-23T07:57:45Z</time>
      </trkpt>
      <trkpt lat="47.16623" lon="4.93113">
        <ele>379.1</ele>
        <time>2021-05-23T07:57:51Z</time>
      </trkpt>
      <trkpt lat="47.16626" lon="4.93118">
        <ele>376.9</ele>
        <time>2021-05-23T07:57:55Z</time>
      </trkpt>
      <trkpt lat="47.16629" lon="4.93125">
        <ele>374.6</ele>
        <time>2021-05-23T07:58:01Z</time>
      </trkpt>
      <trkpt lat="47.16632" lon="4.93132">
        <ele>372.9</ele>
        <time>2021-05-23T07:58:06Z</time>
      </trkpt>
      <trkpt lat="47.16637" lon="4.93138">
        <ele>372.3</ele>
        <time>2021-05-23T07:58:11Z</time>
      </trkpt>
      <trkpt lat="47.16641" lon="4.93143">
        <ele>366.6</ele>
        <time>2021-05-23T07:58:17Z</time>
      </trkpt>
      <trkpt lat="47.16645" lon="4.93149">
        <ele>364.3</ele>
        <time>2021-05-23T07:58:24Z</time>
      </trkpt>
      <trkpt lat="47.16649" lon="4.93152">
        <ele>361.6</ele>
        <time>2021-05-23T07:58:36Z</time>
      </trkpt>
      <trkpt lat="47.16651" lon="4.93159">
        <ele>358.1</ele>
        <time>2021-05-23T07:58:42Z</time>
      </trkpt>
      <trkpt lat="47.16647" lon="4.93163">
        <ele>359.8</ele>
        <time>2021-05-23T07:58:50Z</time>
      </trkpt>
      <trkpt lat="47.16648" lon="4.93156">
        <ele>357.1</ele>
        <time>2021-05-23T07:58:59Z</time>
      </trkpt>
      <trkpt lat="47.16653" lon="4.93158">
        <ele>358.1</ele>
        <time>2021-05-23T07:59:28Z</time>
      </trkpt>
      <trkpt lat="47.1666" lon="4.93158">
        <ele>359.2</ele>
        <time>2021-05-23T07:59:33Z</time>
      </trkpt>
      <trkpt lat="47.16665" lon="4.93161">
        <ele>350.6</ele>
        <time>2021-05-23T07:59:37Z</time>
      </trkpt>
      <trkpt lat="47.1667" lon="4.93165">
        <ele>354.7</ele>
        <time>2021-05-23T07:59:45Z</time>
      </trkpt>
      <trkpt lat="47.16675" lon="4.93168">
        <ele>350</ele>
        <time>2021-05-23T07:59:49Z</time>
      </trkpt>
      <trkpt lat="47.16678" lon="4.93173">
        <ele>350.8</ele>
        <time>2021-05-23T07:59:55Z</time>
      </trkpt>
      <trkpt lat="47.16683" lon="4.93178">
        <ele>348.8</ele>
        <time>2021-05-23T08:00:00Z</time>
      </trkpt>
      <trkpt lat="47.16688" lon="4.93182">
        <ele>346.6</ele>
        <time>2021-05-23T08:00:03Z</time>
      </trkpt>
      <trkpt lat="47.16693" lon="4.93185">
        <ele>348.6</ele>
        <time>2021-05-23T08:00:07Z</time>
      </trkpt>
      <trkpt lat="47.16696" lon="4.93177">
        <ele>352.2</ele>
        <time>2021-05-23T08:00:12Z</time>
      </trkpt>
      <trkpt lat="47.16699" lon="4.9317">
        <ele>357.3</ele>
        <time>2021-05-23T08:00:19Z</time>
      </trkpt>
      <trkpt lat="47.16701" lon="4.93163">
        <ele>359.2</ele>
        <time>2021-05-23T08:00:22Z</time>
      </trkpt>
      <trkpt lat="47.16703" lon="4.93157">
        <ele>356.1</ele>
        <time>2021-05-23T08:00:27Z</time>
      </trkpt>
      <trkpt lat="47.16709" lon="4.93153">
        <ele>354.1</ele>
        <time>2021-05-23T08:00:31Z</time>
      </trkpt>
      <trkpt lat="47.16713" lon="4.9315">
        <ele>354.8</ele>
        <time>2021-05-23T08:00:34Z</time>
      </trkpt>
      <trkpt lat="47.16717" lon="4.93143">
        <ele>358.7</ele>
        <time>2021-05-23T08:00:39Z</time>
      </trkpt>
      <trkpt lat="47.1672" lon="4.93137">
        <ele>359.1</ele>
        <time>2021-05-23T08:00:42Z</time>
      </trkpt>
      <trkpt lat="47.16725" lon="4.93139">
        <ele>357.7</ele>
        <time>2021-05-23T08:00:49Z</time>
      </trkpt>
      <trkpt lat="47.16728" lon="4.93144">
        <ele>359.2</ele>
        <time>2021-05-23T08:00:53Z</time>
      </trkpt>
      <trkpt lat="47.16731" lon="4.93152">
        <ele>361.7</ele>
        <time>2021-05-23T08:00:58Z</time>
      </trkpt>
      <trkpt lat="47.16726" lon="4.93152">
        <ele>364.7</ele>
        <time>2021-05-23T08:01:04Z</time>
      </trkpt>
      <trkpt lat="47.16722" lon="4.93156">
        <ele>362.7</ele>
        <time>2021-05-23T08:01:09Z</time>
      </trkpt>
      <trkpt lat="47.16718" lon="4.93159">
        <ele>362</ele>
        <time>2021-05-23T08:01:14Z</time>
      </trkpt>
      <trkpt lat="47.16713" lon="4.93162">
        <ele>365</ele>
        <time>2021-05-23T08:01:19Z</time>
      </trkpt>
      <trkpt lat="47.16708" lon="4.93165">
        <ele>363.9</ele>
        <time>2021-05-23T08:01:23Z</time>
      </trkpt>
      <trkpt lat="47.16709" lon="4.93172">
        <ele>365.3</ele>
        <time>2021-05-23T08:01:30Z</time>
      </trkpt>
      <trkpt lat="47.1671" lon="4.9318">
        <ele>367.6</ele>
        <time>2021-05-23T08:01:36Z</time>
      </trkpt>
      <trkpt lat="47.16709" lon="4.93188">
        <ele>366.8</ele>
        <time>2021-05-23T08:01:42Z</time>
      </trkpt>
      <trkpt lat="47.16707" lon="4.93194">
        <ele>365.2</ele>
        <time>2021-05-23T08:01:46Z</time>
      </trkpt>
      <trkpt lat="47.16705" lon="4.93202">
        <ele>366.9</ele>
        <time>2021-05-23T08:01:52Z</time>
      </trkpt>
      <trkpt lat="47.16705" lon="4.9321">
        <ele>368.7</ele>
        <time>2021-05-23T08:01:59Z</time>
      </trkpt>
      <trkpt lat="47.16704" lon="4.93216">
        <ele>371.5</ele>
        <time>2021-05-23T08:02:03Z</time>
      </trkpt>
      <trkpt lat="47.16702" lon="4.93222">
        <ele>373</ele>
        <time>2021-05-23T08:02:09Z</time>
      </trkpt>
      <trkpt lat="47.16703" lon="4.93231">
        <ele>371.5</ele>
        <time>2021-05-23T08:02:15Z</time>
      </trkpt>
      <trkpt lat="47.16702" lon="4.93238">
        <ele>370.3</ele>
        <time>2021-05-23T08:02:22Z</time>
      </trkpt>
      <trkpt lat="47.16701" lon="4.93245">
        <ele>368.3</ele>
        <time>2021-05-23T08:02:27Z</time>
      </trkpt>
      <trkpt lat="47.16704" lon="4.93251">
        <ele>366.6</ele>
        <time>2021-05-23T08:02:32Z</time>
      </trkpt>
      <trkpt lat="47.16707" lon="4.93257">
        <ele>372</ele>
        <time>2021-05-23T08:02:38Z</time>
      </trkpt>
      <trkpt lat="47.16711" lon="4.93263">
        <ele>371.2</ele>
        <time>2021-05-23T08:02:44Z</time>
      </trkpt>
      <trkpt lat="47.16711" lon="4.9327">
        <ele>371.1</ele>
        <time>2021-05-23T08:02:50Z</time>
      </trkpt>
      <trkpt lat="47.1671" lon="4.93277">
        <ele>371.6</ele>
        <time>2021-05-23T08:03:01Z</time>
      </trkpt>
      <trkpt lat="47.16712" lon="4.93283">
        <ele>376.8</ele>
        <time>2021-05-23T08:03:06Z</time>
      </trkpt>
      <trkpt lat="47.16713" lon="4.9329">
        <ele>373.2</ele>
        <time>2021-05-23T08:03:10Z</time>
      </trkpt>
      <trkpt lat="47.16714" lon="4.93297">
        <ele>372.6</ele>
        <time>2021-05-23T08:03:15Z</time>
      </trkpt>
      <trkpt lat="47.16714" lon="4.93304">
        <ele>372.9</ele>
        <time>2021-05-23T08:03:21Z</time>
      </trkpt>
      <trkpt lat="47.16709" lon="4.93306">
        <ele>372.8</ele>
        <time>2021-05-23T08:03:33Z</time>
      </trkpt>
      <trkpt lat="47.16706" lon="4.93312">
        <ele>373.3</ele>
        <time>2021-05-23T08:03:37Z</time>
      </trkpt>
      <trkpt lat="47.16703" lon="4.93317">
        <ele>372.6</ele>
        <time>2021-05-23T08:03:40Z</time>
      </trkpt>
      <trkpt lat="47.16702" lon="4.93325">
        <ele>373.3</ele>
        <time>2021-05-23T08:03:45Z</time>
      </trkpt>
      <trkpt lat="47.16699" lon="4.9333">
        <ele>373.2</ele>
        <time>2021-05-23T08:03:51Z</time>
      </trkpt>
      <trkpt lat="47.16696" lon="4.93336">
        <ele>373.9</ele>
        <time>2021-05-23T08:03:55Z</time>
      </trkpt>
      <trkpt lat="47.16696" lon="4.93343">
        <ele>371.8</ele>
        <time>2021-05-23T08:03:58Z</time>
      </trkpt>
      <trkpt lat="47.16697" lon="4.9335">
        <ele>371.9</ele>
        <time>2021-05-23T08:04:01Z</time>
      </trkpt>
      <trkpt lat="47.16698" lon="4.93357">
        <ele>371.4</ele>
        <time>2021-05-23T08:04:06Z</time>
      </trkpt>
      <trkpt lat="47.16696" lon="4.93364">
        <ele>370.1</ele>
        <time>2021-05-23T08:04:11Z</time>
      </trkpt>
      <trkpt lat="47.16693" lon="4.9337">
        <ele>372.2</ele>
        <time>2021-05-23T08:04:16Z</time>
      </trkpt>
      <trkpt lat="47.1669" lon="4.93377">
        <ele>370.9</ele>
        <time>2021-05-23T08:04:23Z</time>
      </trkpt>
      <trkpt lat="47.1669" lon="4.93385">
        <ele>370</ele>
        <time>2021-05-23T08:04:29Z</time>
      </trkpt>
      <trkpt lat="47.16692" lon="4.93393">
        <ele>369.5</ele>
        <time>2021-05-23T08:04:34Z</time>
      </trkpt>
      <trkpt lat="47.16691" lon="4.93401">
        <ele>370.5</ele>
        <time>2021-05-23T08:04:40Z</time>
      </trkpt>
      <trkpt lat="47.16689" lon="4.93408">
        <ele>369.2</ele>
        <time>2021-05-23T08:04:45Z</time>
      </trkpt>
      <trkpt lat="47.16688" lon="4.93415">
        <ele>373.9</ele>
        <time>2021-05-23T08:04:49Z</time>
      </trkpt>
      <trkpt lat="47.16686" lon="4.93422">
        <ele>371.5</ele>
        <time>2021-05-23T08:04:53Z</time>
      </trkpt>
      <trkpt lat="47.16685" lon="4.93429">
        <ele>372.6</ele>
        <time>2021-05-23T08:04:59Z</time>
      </trkpt>
      <trkpt lat="47.16682" lon="4.93435">
        <ele>371.9</ele>
        <time>2021-05-23T08:05:05Z</time>
      </trkpt>
      <trkpt lat="47.16683" lon="4.93443">
        <ele>374.5</ele>
        <time>2021-05-23T08:05:10Z</time>
      </trkpt>
      <trkpt lat="47.16684" lon="4.93452">
        <ele>377</ele>
        <time>2021-05-23T08:05:15Z</time>
      </trkpt>
      <trkpt lat="47.16683" lon="4.93459">
        <ele>378.4</ele>
        <time>2021-05-23T08:05:19Z</time>
      </trkpt>
      <trkpt lat="47.1668" lon="4.93465">
        <ele>379.2</ele>
        <time>2021-05-23T08:05:24Z</time>
      </trkpt>
      <trkpt lat="47.16678" lon="4.93473">
        <ele>377.8</ele>
        <time>2021-05-23T08:05:30Z</time>
      </trkpt>
      <trkpt lat="47.16677" lon="4.93481">
        <ele>377.5</ele>
        <time>2021-05-23T08:05:36Z</time>
      </trkpt>
      <trkpt lat="47.16676" lon="4.93488">
        <ele>378.4</ele>
        <time>2021-05-23T08:05:41Z</time>
      </trkpt>
      <trkpt lat="47.16674" lon="4.93495">
        <ele>379.7</ele>
        <time>2021-05-23T08:05:46Z</time>
      </trkpt>
      <trkpt lat="47.16672" lon="4.93503">
        <ele>377.5</ele>
        <time>2021-05-23T08:05:54Z</time>
      </trkpt>
      <trkpt lat="47.16671" lon="4.93509">
        <ele>381.7</ele>
        <time>2021-05-23T08:05:58Z</time>
      </trkpt>
      <trkpt lat="47.1667" lon="4.93517">
        <ele>380.6</ele>
        <time>2021-05-23T08:06:03Z</time>
      </trkpt>
      <trkpt lat="47.1667" lon="4.93525">
        <ele>379.2</ele>
        <time>2021-05-23T08:06:09Z</time>
      </trkpt>
      <trkpt lat="47.1667" lon="4.93532">
        <ele>379.2</ele>
        <time>2021-05-23T08:06:13Z</time>
      </trkpt>
      <trkpt lat="47.1667" lon="4.93539">
        <ele>379.2</ele>
        <time>2021-05-23T08:06:18Z</time>
      </trkpt>
      <trkpt lat="47.16668" lon="4.93547">
        <ele>379.3</ele>
        <time>2021-05-23T08:06:24Z</time>
      </trkpt>
      <trkpt lat="47.16667" lon="4.93556">
        <ele>380.8</ele>
        <time>2021-05-23T08:06:30Z</time>
      </trkpt>
      <trkpt lat="47.16665" lon="4.93563">
        <ele>378.1</ele>
        <time>2021-05-23T08:06:35Z</time>
      </trkpt>
      <trkpt lat="47.16664" lon="4.93571">
        <ele>378.5</ele>
        <time>2021-05-23T08:06:40Z</time>
      </trkpt>
      <trkpt lat="47.16662" lon="4.93578">
        <ele>377.9</ele>
        <time>2021-05-23T08:06:44Z</time>
      </trkpt>
      <trkpt lat="47.16661" lon="4.93585">
        <ele>375.1</ele>
        <time>2021-05-23T08:06:48Z</time>
      </trkpt>
      <trkpt lat="47.16661" lon="4.93592">
        <ele>376.3</ele>
        <time>2021-05-23T08:06:52Z</time>
      </trkpt>
      <trkpt lat="47.16659" lon="4.936">
        <ele>376.3</ele>
        <time>2021-05-23T08:06:58Z</time>
      </trkpt>
      <trkpt lat="47.16659" lon="4.93607">
        <ele>373.8</ele>
        <time>2021-05-23T08:07:03Z</time>
      </trkpt>
      <trkpt lat="47.16658" lon="4.93614">
        <ele>377.3</ele>
        <time>2021-05-23T08:07:08Z</time>
      </trkpt>
      <trkpt lat="47.16656" lon="4.93621">
        <ele>373.9</ele>
        <time>2021-05-23T08:07:14Z</time>
      </trkpt>
      <trkpt lat="47.16655" lon="4.93629">
        <ele>360.8</ele>
        <time>2021-05-23T08:07:20Z</time>
      </trkpt>
      <trkpt lat="47.16656" lon="4.93636">
        <ele>366.6</ele>
        <time>2021-05-23T08:07:28Z</time>
      </trkpt>
      <trkpt lat="47.16661" lon="4.93636">
        <ele>373.7</ele>
        <time>2021-05-23T08:07:33Z</time>
      </trkpt>
      <trkpt lat="47.16668" lon="4.93635">
        <ele>373.2</ele>
        <time>2021-05-23T08:07:38Z</time>
      </trkpt>
      <trkpt lat="47.16673" lon="4.93637">
        <ele>333.4</ele>
        <time>2021-05-23T08:07:43Z</time>
      </trkpt>
      <trkpt lat="47.16678" lon="4.93635">
        <ele>363.4</ele>
        <time>2021-05-23T08:07:50Z</time>
      </trkpt>
      <trkpt lat="47.16683" lon="4.93637">
        <ele>369</ele>
        <time>2021-05-23T08:07:57Z</time>
      </trkpt>
      <trkpt lat="47.16687" lon="4.93635">
        <ele>375.3</ele>
        <time>2021-05-23T08:08:04Z</time>
      </trkpt>
      <trkpt lat="47.16692" lon="4.93637">
        <ele>379.2</ele>
        <time>2021-05-23T08:08:10Z</time>
      </trkpt>
      <trkpt lat="47.16696" lon="4.9364">
        <ele>380</ele>
        <time>2021-05-23T08:08:15Z</time>
      </trkpt>
      <trkpt lat="47.16701" lon="4.93642">
        <ele>379.1</ele>
        <time>2021-05-23T08:08:20Z</time>
      </trkpt>
      <trkpt lat="47.16705" lon="4.93646">
        <ele>376.2</ele>
        <time>2021-05-23T08:08:25Z</time>
      </trkpt>
      <trkpt lat="47.16711" lon="4.93648">
        <ele>377</ele>
        <time>2021-05-23T08:08:31Z</time>
      </trkpt>
      <trkpt lat="47.16716" lon="4.93649">
        <ele>379.5</ele>
        <time>2021-05-23T08:08:51Z</time>
      </trkpt>
      <trkpt lat="47.16721" lon="4.93646">
        <ele>379.7</ele>
        <time>2021-05-23T08:09:01Z</time>
      </trkpt>
      <trkpt lat="47.16725" lon="4.93644">
        <ele>329.8</ele>
        <time>2021-05-23T08:09:04Z</time>
      </trkpt>
      <trkpt lat="47.1673" lon="4.93641">
        <ele>355.9</ele>
        <time>2021-05-23T08:09:09Z</time>
      </trkpt>
      <trkpt lat="47.16735" lon="4.93641">
        <ele>370.5</ele>
        <time>2021-05-23T08:09:15Z</time>
      </trkpt>
      <trkpt lat="47.1674" lon="4.93641">
        <ele>327.6</ele>
        <time>2021-05-23T08:09:20Z</time>
      </trkpt>
      <trkpt lat="47.16745" lon="4.93645">
        <ele>325.4</ele>
        <time>2021-05-23T08:09:29Z</time>
      </trkpt>
      <trkpt lat="47.16751" lon="4.93646">
        <ele>363.5</ele>
        <time>2021-05-23T08:09:35Z</time>
      </trkpt>
      <trkpt lat="47.16755" lon="4.93641">
        <ele>371.8</ele>
        <time>2021-05-23T08:09:40Z</time>
      </trkpt>
      <trkpt lat="47.16761" lon="4.93643">
        <ele>377.8</ele>
        <time>2021-05-23T08:09:45Z</time>
      </trkpt>
      <trkpt lat="47.16765" lon="4.93646">
        <ele>349.5</ele>
        <time>2021-05-23T08:09:50Z</time>
      </trkpt>
      <trkpt lat="47.1677" lon="4.93646">
        <ele>384.6</ele>
        <time>2021-05-23T08:09:55Z</time>
      </trkpt>
      <trkpt lat="47.16774" lon="4.93646">
        <ele>386.9</ele>
        <time>2021-05-23T08:09:59Z</time>
      </trkpt>
      <trkpt lat="47.16779" lon="4.93645">
        <ele>342.8</ele>
        <time>2021-05-23T08:10:05Z</time>
      </trkpt>
      <trkpt lat="47.16784" lon="4.93644">
        <ele>369.1</ele>
        <time>2021-05-23T08:10:10Z</time>
      </trkpt>
      <trkpt lat="47.16789" lon="4.93643">
        <ele>375.1</ele>
        <time>2021-05-23T08:10:15Z</time>
      </trkpt>
      <trkpt lat="47.16793" lon="4.93646">
        <ele>385</ele>
        <time>2021-05-23T08:10:25Z</time>
      </trkpt>
      <trkpt lat="47.16798" lon="4.93651">
        <ele>389</ele>
        <time>2021-05-23T08:10:31Z</time>
      </trkpt>
      <trkpt lat="47.16803" lon="4.93654">
        <ele>387.4</ele>
        <time>2021-05-23T08:10:39Z</time>
      </trkpt>
      <trkpt lat="47.16807" lon="4.93649">
        <ele>387.8</ele>
        <time>2021-05-23T08:10:44Z</time>
      </trkpt>
      <trkpt lat="47.16812" lon="4.93646">
        <ele>388.1</ele>
        <time>2021-05-23T08:10:55Z</time>
      </trkpt>
      <trkpt lat="47.16817" lon="4.93648">
        <ele>384.8</ele>
        <time>2021-05-23T08:10:58Z</time>
      </trkpt>
      <trkpt lat="47.16823" lon="4.93648">
        <ele>383</ele>
        <time>2021-05-23T08:11:02Z</time>
      </trkpt>
      <trkpt lat="47.1683" lon="4.93646">
        <ele>385.5</ele>
        <time>2021-05-23T08:11:06Z</time>
      </trkpt>
      <trkpt lat="47.16836" lon="4.93645">
        <ele>387.5</ele>
        <time>2021-05-23T08:11:10Z</time>
      </trkpt>
      <trkpt lat="47.16843" lon="4.93643">
        <ele>390.3</ele>
        <time>2021-05-23T08:11:14Z</time>
      </trkpt>
      <trkpt lat="47.16848" lon="4.93641">
        <ele>391.4</ele>
        <time>2021-05-23T08:11:18Z</time>
      </trkpt>
      <trkpt lat="47.16853" lon="4.9364">
        <ele>395.2</ele>
        <time>2021-05-23T08:11:29Z</time>
      </trkpt>
      <trkpt lat="47.1686" lon="4.93646">
        <ele>358.7</ele>
        <time>2021-05-23T08:11:53Z</time>
      </trkpt>
      <trkpt lat="47.16864" lon="4.93651">
        <ele>376.3</ele>
        <time>2021-05-23T08:11:56Z</time>
      </trkpt>
      <trkpt lat="47.16865" lon="4.93658">
        <ele>384.4</ele>
        <time>2021-05-23T08:12:00Z</time>
      </trkpt>
      <trkpt lat="47.16868" lon="4.93665">
        <ele>385.4</ele>
        <time>2021-05-23T08:12:04Z</time>
      </trkpt>
      <trkpt lat="47.16871" lon="4.93671">
        <ele>388</ele>
        <time>2021-05-23T08:12:09Z</time>
      </trkpt>
      <trkpt lat="47.16875" lon="4.93678">
        <ele>387.3</ele>
        <time>2021-05-23T08:12:15Z</time>
      </trkpt>
      <trkpt lat="47.16877" lon="4.93685">
        <ele>390.3</ele>
        <time>2021-05-23T08:12:19Z</time>
      </trkpt>
      <trkpt lat="47.16878" lon="4.93692">
        <ele>371.4</ele>
        <time>2021-05-23T08:12:23Z</time>
      </trkpt>
      <trkpt lat="47.16881" lon="4.93698">
        <ele>384.5</ele>
        <time>2021-05-23T08:12:27Z</time>
      </trkpt>
      <trkpt lat="47.16884" lon="4.93704">
        <ele>389.1</ele>
        <time>2021-05-23T08:12:31Z</time>
      </trkpt>
      <trkpt lat="47.16887" lon="4.93711">
        <ele>388.6</ele>
        <time>2021-05-23T08:12:39Z</time>
      </trkpt>
      <trkpt lat="47.16889" lon="4.93718">
        <ele>391.7</ele>
        <time>2021-05-23T08:12:42Z</time>
      </trkpt>
      <trkpt lat="47.1689" lon="4.93726">
        <ele>393.3</ele>
        <time>2021-05-23T08:12:47Z</time>
      </trkpt>
      <trkpt lat="47.16891" lon="4.93735">
        <ele>394.8</ele>
        <time>2021-05-23T08:12:51Z</time>
      </trkpt>
      <trkpt lat="47.16894" lon="4.93741">
        <ele>392.7</ele>
        <time>2021-05-23T08:12:55Z</time>
      </trkpt>
      <trkpt lat="47.16897" lon="4.93748">
        <ele>391.7</ele>
        <time>2021-05-23T08:13:01Z</time>
      </trkpt>
      <trkpt lat="47.16899" lon="4.93754">
        <ele>393.8</ele>
        <time>2021-05-23T08:13:05Z</time>
      </trkpt>
      <trkpt lat="47.16903" lon="4.9376">
        <ele>389.6</ele>
        <time>2021-05-23T08:13:09Z</time>
      </trkpt>
      <trkpt lat="47.16908" lon="4.9376">
        <ele>387.2</ele>
        <time>2021-05-23T08:13:14Z</time>
      </trkpt>
      <trkpt lat="47.16911" lon="4.93768">
        <ele>388.9</ele>
        <time>2021-05-23T08:13:18Z</time>
      </trkpt>
      <trkpt lat="47.16914" lon="4.93774">
        <ele>386.9</ele>
        <time>2021-05-23T08:13:23Z</time>
      </trkpt>
      <trkpt lat="47.16918" lon="4.9378">
        <ele>334.4</ele>
        <time>2021-05-23T08:13:28Z</time>
      </trkpt>
      <trkpt lat="47.1692" lon="4.93786">
        <ele>358.5</ele>
        <time>2021-05-23T08:13:31Z</time>
      </trkpt>
      <trkpt lat="47.16922" lon="4.93794">
        <ele>385.9</ele>
        <time>2021-05-23T08:13:36Z</time>
      </trkpt>
      <trkpt lat="47.16925" lon="4.93801">
        <ele>384.7</ele>
        <time>2021-05-23T08:13:39Z</time>
      </trkpt>
      <trkpt lat="47.1693" lon="4.93805">
        <ele>389.5</ele>
        <time>2021-05-23T08:13:44Z</time>
      </trkpt>
      <trkpt lat="47.16933" lon="4.93809">
        <ele>387.2</ele>
        <time>2021-05-23T08:13:47Z</time>
      </trkpt>
      <trkpt lat="47.16937" lon="4.93815">
        <ele>380</ele>
        <time>2021-05-23T08:13:53Z</time>
      </trkpt>
      <trkpt lat="47.16941" lon="4.93822">
        <ele>380.8</ele>
        <time>2021-05-23T08:13:56Z</time>
      </trkpt>
      <trkpt lat="47.16942" lon="4.9383">
        <ele>382.8</ele>
        <time>2021-05-23T08:14:01Z</time>
      </trkpt>
      <trkpt lat="47.16945" lon="4.93837">
        <ele>384.3</ele>
        <time>2021-05-23T08:14:06Z</time>
      </trkpt>
      <trkpt lat="47.16948" lon="4.93843">
        <ele>382.8</ele>
        <time>2021-05-23T08:14:10Z</time>
      </trkpt>
      <trkpt lat="47.16952" lon="4.93849">
        <ele>385.3</ele>
        <time>2021-05-23T08:14:15Z</time>
      </trkpt>
      <trkpt lat="47.16954" lon="4.93856">
        <ele>389.2</ele>
        <time>2021-05-23T08:14:18Z</time>
      </trkpt>
      <trkpt lat="47.16956" lon="4.93863">
        <ele>364.2</ele>
        <time>2021-05-23T08:14:23Z</time>
      </trkpt>
      <trkpt lat="47.16957" lon="4.9387">
        <ele>374.2</ele>
        <time>2021-05-23T08:14:27Z</time>
      </trkpt>
      <trkpt lat="47.16958" lon="4.93878">
        <ele>380.7</ele>
        <time>2021-05-23T08:14:32Z</time>
      </trkpt>
      <trkpt lat="47.16962" lon="4.93884">
        <ele>383.3</ele>
        <time>2021-05-23T08:14:37Z</time>
      </trkpt>
      <trkpt lat="47.16967" lon="4.93889">
        <ele>374.6</ele>
        <time>2021-05-23T08:14:44Z</time>
      </trkpt>
      <trkpt lat="47.16973" lon="4.9389">
        <ele>376.2</ele>
        <time>2021-05-23T08:14:47Z</time>
      </trkpt>
      <trkpt lat="47.16977" lon="4.93885">
        <ele>379.6</ele>
        <time>2021-05-23T08:14:50Z</time>
      </trkpt>
      <trkpt lat="47.16981" lon="4.93881">
        <ele>378.9</ele>
        <time>2021-05-23T08:14:54Z</time>
      </trkpt>
      <trkpt lat="47.16987" lon="4.93886">
        <ele>386</ele>
        <time>2021-05-23T08:15:16Z</time>
      </trkpt>
      <trkpt lat="47.1699" lon="4.93891">
        <ele>386.7</ele>
        <time>2021-05-23T08:15:19Z</time>
      </trkpt>
      <trkpt lat="47.16995" lon="4.93895">
        <ele>385.7</ele>
        <time>2021-05-23T08:15:23Z</time>
      </trkpt>
      <trkpt lat="47.17" lon="4.93899">
        <ele>387.4</ele>
        <time>2021-05-23T08:15:28Z</time>
      </trkpt>
      <trkpt lat="47.17006" lon="4.93903">
        <ele>387.8</ele>
        <time>2021-05-23T08:15:33Z</time>
      </trkpt>
      <trkpt lat="47.1701" lon="4.93906">
        <ele>387.5</ele>
        <time>2021-05-23T08:15:37Z</time>
      </trkpt>
      <trkpt lat="47.17014" lon="4.93911">
        <ele>387.2</ele>
        <time>2021-05-23T08:15:41Z</time>
      </trkpt>
      <trkpt lat="47.17018" lon="4.93915">
        <ele>383.8</ele>
        <time>2021-05-23T08:15:46Z</time>
      </trkpt>
      <trkpt lat="47.17023" lon="4.93918">
        <ele>384.1</ele>
        <time>2021-05-23T08:15:49Z</time>
      </trkpt>
      <trkpt lat="47.17028" lon="4.93921">
        <ele>320.7</ele>
        <time>2021-05-23T08:15:54Z</time>
      </trkpt>
      <trkpt lat="47.17033" lon="4.93924">
        <ele>368.7</ele>
        <time>2021-05-23T08:15:57Z</time>
      </trkpt>
      <trkpt lat="47.17038" lon="4.93925">
        <ele>383.7</ele>
        <time>2021-05-23T08:16:04Z</time>
      </trkpt>
      <trkpt lat="47.17042" lon="4.93929">
        <ele>389</ele>
        <time>2021-05-23T08:16:08Z</time>
      </trkpt>
      <trkpt lat="47.17047" lon="4.93933">
        <ele>389.2</ele>
        <time>2021-05-23T08:16:13Z</time>
      </trkpt>
      <trkpt lat="47.17051" lon="4.93938">
        <ele>389.7</ele>
        <time>2021-05-23T08:16:17Z</time>
      </trkpt>
      <trkpt lat="47.17055" lon="4.93943">
        <ele>389.9</ele>
        <time>2021-05-23T08:16:21Z</time>
      </trkpt>
      <trkpt lat="47.17059" lon="4.93946">
        <ele>389.4</ele>
        <time>2021-05-23T08:16:26Z</time>
      </trkpt>
      <trkpt lat="47.17065" lon="4.93949">
        <ele>389.4</ele>
        <time>2021-05-23T08:16:31Z</time>
      </trkpt>
      <trkpt lat="47.1707" lon="4.93951">
        <ele>390</ele>
        <time>2021-05-23T08:16:35Z</time>
      </trkpt>
      <trkpt lat="47.17075" lon="4.93956">
        <ele>389</ele>
        <time>2021-05-23T08:16:41Z</time>
      </trkpt>
      <trkpt lat="47.1708" lon="4.9396">
        <ele>390.5</ele>
        <time>2021-05-23T08:16:45Z</time>
      </trkpt>
      <trkpt lat="47.17086" lon="4.93964">
        <ele>391.4</ele>
        <time>2021-05-23T08:16:50Z</time>
      </trkpt>
      <trkpt lat="47.17091" lon="4.93965">
        <ele>389.5</ele>
        <time>2021-05-23T08:16:54Z</time>
      </trkpt>
      <trkpt lat="47.17096" lon="4.93967">
        <ele>388.9</ele>
        <time>2021-05-23T08:16:58Z</time>
      </trkpt>
      <trkpt lat="47.171" lon="4.9397">
        <ele>388.2</ele>
        <time>2021-05-23T08:17:01Z</time>
      </trkpt>
      <trkpt lat="47.17105" lon="4.93973">
        <ele>384.8</ele>
        <time>2021-05-23T08:17:06Z</time>
      </trkpt>
      <trkpt lat="47.17109" lon="4.93972">
        <ele>385.7</ele>
        <time>2021-05-23T08:17:09Z</time>
      </trkpt>
      <trkpt lat="47.17114" lon="4.93972">
        <ele>383.6</ele>
        <time>2021-05-23T08:17:15Z</time>
      </trkpt>
      <trkpt lat="47.1712" lon="4.93972">
        <ele>383.5</ele>
        <time>2021-05-23T08:17:19Z</time>
      </trkpt>
      <trkpt lat="47.17125" lon="4.93972">
        <ele>385.8</ele>
        <time>2021-05-23T08:17:24Z</time>
      </trkpt>
      <trkpt lat="47.1713" lon="4.93972">
        <ele>385.8</ele>
        <time>2021-05-23T08:17:28Z</time>
      </trkpt>
      <trkpt lat="47.17135" lon="4.93972">
        <ele>386.6</ele>
        <time>2021-05-23T08:17:33Z</time>
      </trkpt>
      <trkpt lat="47.17141" lon="4.93973">
        <ele>385.3</ele>
        <time>2021-05-23T08:17:37Z</time>
      </trkpt>
      <trkpt lat="47.17145" lon="4.93976">
        <ele>383.7</ele>
        <time>2021-05-23T08:17:42Z</time>
      </trkpt>
      <trkpt lat="47.1715" lon="4.93979">
        <ele>384</ele>
        <time>2021-05-23T08:17:46Z</time>
      </trkpt>
      <trkpt lat="47.17154" lon="4.93983">
        <ele>386</ele>
        <time>2021-05-23T08:17:50Z</time>
      </trkpt>
      <trkpt lat="47.17159" lon="4.9399">
        <ele>384.8</ele>
        <time>2021-05-23T08:17:55Z</time>
      </trkpt>
      <trkpt lat="47.17164" lon="4.93993">
        <ele>383.2</ele>
        <time>2021-05-23T08:17:59Z</time>
      </trkpt>
      <trkpt lat="47.17168" lon="4.93997">
        <ele>387</ele>
        <time>2021-05-23T08:18:05Z</time>
      </trkpt>
      <trkpt lat="47.17173" lon="4.93999">
        <ele>388.5</ele>
        <time>2021-05-23T08:18:08Z</time>
      </trkpt>
      <trkpt lat="47.17178" lon="4.93995">
        <ele>389.6</ele>
        <time>2021-05-23T08:18:14Z</time>
      </trkpt>
      <trkpt lat="47.17182" lon="4.93989">
        <ele>391.4</ele>
        <time>2021-05-23T08:18:17Z</time>
      </trkpt>
      <trkpt lat="47.17184" lon="4.93984">
        <ele>390.6</ele>
        <time>2021-05-23T08:18:20Z</time>
      </trkpt>
      <trkpt lat="47.17188" lon="4.93978">
        <ele>389</ele>
        <time>2021-05-23T08:18:25Z</time>
      </trkpt>
      <trkpt lat="47.17193" lon="4.93976">
        <ele>336.9</ele>
        <time>2021-05-23T08:18:33Z</time>
      </trkpt>
      <trkpt lat="47.17199" lon="4.93973">
        <ele>378</ele>
        <time>2021-05-23T08:18:36Z</time>
      </trkpt>
      <trkpt lat="47.17204" lon="4.93968">
        <ele>384.2</ele>
        <time>2021-05-23T08:18:42Z</time>
      </trkpt>
      <trkpt lat="47.17208" lon="4.93965">
        <ele>384.4</ele>
        <time>2021-05-23T08:18:45Z</time>
      </trkpt>
      <trkpt lat="47.17213" lon="4.93961">
        <ele>385</ele>
        <time>2021-05-23T08:18:50Z</time>
      </trkpt>
      <trkpt lat="47.17217" lon="4.93955">
        <ele>385.8</ele>
        <time>2021-05-23T08:18:54Z</time>
      </trkpt>
      <trkpt lat="47.17222" lon="4.93952">
        <ele>380.6</ele>
        <time>2021-05-23T08:18:59Z</time>
      </trkpt>
      <trkpt lat="47.17225" lon="4.93945">
        <ele>385.9</ele>
        <time>2021-05-23T08:19:02Z</time>
      </trkpt>
      <trkpt lat="47.17226" lon="4.93938">
        <ele>387.3</ele>
        <time>2021-05-23T08:19:07Z</time>
      </trkpt>
      <trkpt lat="47.17225" lon="4.93931">
        <ele>387.5</ele>
        <time>2021-05-23T08:19:10Z</time>
      </trkpt>
      <trkpt lat="47.17225" lon="4.93924">
        <ele>388.5</ele>
        <time>2021-05-23T08:19:14Z</time>
      </trkpt>
      <trkpt lat="47.17226" lon="4.93915">
        <ele>381.6</ele>
        <time>2021-05-23T08:19:20Z</time>
      </trkpt>
      <trkpt lat="47.17228" lon="4.93907">
        <ele>391.6</ele>
        <time>2021-05-23T08:19:26Z</time>
      </trkpt>
      <trkpt lat="47.17229" lon="4.939">
        <ele>378.3</ele>
        <time>2021-05-23T08:19:30Z</time>
      </trkpt>
      <trkpt lat="47.1723" lon="4.93894">
        <ele>390.4</ele>
        <time>2021-05-23T08:19:35Z</time>
      </trkpt>
      <trkpt lat="47.17234" lon="4.93889">
        <ele>394</ele>
        <time>2021-05-23T08:19:40Z</time>
      </trkpt>
      <trkpt lat="47.17237" lon="4.93883">
        <ele>379.1</ele>
        <time>2021-05-23T08:19:44Z</time>
      </trkpt>
      <trkpt lat="47.1724" lon="4.93877">
        <ele>391</ele>
        <time>2021-05-23T08:19:49Z</time>
      </trkpt>
      <trkpt lat="47.17241" lon="4.9387">
        <ele>392.3</ele>
        <time>2021-05-23T08:19:55Z</time>
      </trkpt>
      <trkpt lat="47.1724" lon="4.93863">
        <ele>388.1</ele>
        <time>2021-05-23T08:20:00Z</time>
      </trkpt>
      <trkpt lat="47.17241" lon="4.93855">
        <ele>394</ele>
        <time>2021-05-23T08:20:04Z</time>
      </trkpt>
      <trkpt lat="47.17243" lon="4.93848">
        <ele>395.7</ele>
        <time>2021-05-23T08:20:09Z</time>
      </trkpt>
      <trkpt lat="47.17243" lon="4.93841">
        <ele>396.2</ele>
        <time>2021-05-23T08:20:13Z</time>
      </trkpt>
      <trkpt lat="47.17244" lon="4.93834">
        <ele>397.5</ele>
        <time>2021-05-23T08:20:18Z</time>
      </trkpt>
      <trkpt lat="47.17244" lon="4.93827">
        <ele>397.4</ele>
        <time>2021-05-23T08:20:22Z</time>
      </trkpt>
      <trkpt lat="47.17246" lon="4.9382">
        <ele>396.8</ele>
        <time>2021-05-23T08:20:27Z</time>
      </trkpt>
      <trkpt lat="47.17248" lon="4.93813">
        <ele>396.5</ele>
        <time>2021-05-23T08:20:32Z</time>
      </trkpt>
      <trkpt lat="47.1725" lon="4.93806">
        <ele>396</ele>
        <time>2021-05-23T08:20:37Z</time>
      </trkpt>
      <trkpt lat="47.17251" lon="4.93799">
        <ele>393.7</ele>
        <time>2021-05-23T08:20:42Z</time>
      </trkpt>
      <trkpt lat="47.17252" lon="4.93791">
        <ele>397</ele>
        <time>2021-05-23T08:20:48Z</time>
      </trkpt>
      <trkpt lat="47.17254" lon="4.93784">
        <ele>398.3</ele>
        <time>2021-05-23T08:20:52Z</time>
      </trkpt>
      <trkpt lat="47.17254" lon="4.93776">
        <ele>398.5</ele>
        <time>2021-05-23T08:21:00Z</time>
      </trkpt>
      <trkpt lat="47.17256" lon="4.93769">
        <ele>400.6</ele>
        <time>2021-05-23T08:21:05Z</time>
      </trkpt>
      <trkpt lat="47.17258" lon="4.93762">
        <ele>399.5</ele>
        <time>2021-05-23T08:21:09Z</time>
      </trkpt>
      <trkpt lat="47.17259" lon="4.93754">
        <ele>399.4</ele>
        <time>2021-05-23T08:21:14Z</time>
      </trkpt>
      <trkpt lat="47.17261" lon="4.93746">
        <ele>398</ele>
        <time>2021-05-23T08:21:19Z</time>
      </trkpt>
      <trkpt lat="47.17262" lon="4.93738">
        <ele>397.7</ele>
        <time>2021-05-23T08:21:24Z</time>
      </trkpt>
      <trkpt lat="47.17262" lon="4.93731">
        <ele>397.6</ele>
        <time>2021-05-23T08:21:28Z</time>
      </trkpt>
      <trkpt lat="47.17264" lon="4.93723">
        <ele>398.7</ele>
        <time>2021-05-23T08:21:32Z</time>
      </trkpt>
      <trkpt lat="47.17265" lon="4.93715">
        <ele>399.1</ele>
        <time>2021-05-23T08:21:39Z</time>
      </trkpt>
      <trkpt lat="47.17266" lon="4.93708">
        <ele>399.3</ele>
        <time>2021-05-23T08:21:43Z</time>
      </trkpt>
      <trkpt lat="47.17267" lon="4.93701">
        <ele>399.9</ele>
        <time>2021-05-23T08:21:48Z</time>
      </trkpt>
      <trkpt lat="47.17268" lon="4.93694">
        <ele>398.7</ele>
        <time>2021-05-23T08:21:54Z</time>
      </trkpt>
      <trkpt lat="47.17269" lon="4.93686">
        <ele>399.3</ele>
        <time>2021-05-23T08:21:59Z</time>
      </trkpt>
      <trkpt lat="47.17271" lon="4.9368">
        <ele>398.6</ele>
        <time>2021-05-23T08:22:04Z</time>
      </trkpt>
      <trkpt lat="47.17272" lon="4.93672">
        <ele>400.8</ele>
        <time>2021-05-23T08:22:09Z</time>
      </trkpt>
      <trkpt lat="47.17274" lon="4.93665">
        <ele>400.6</ele>
        <time>2021-05-23T08:22:13Z</time>
      </trkpt>
      <trkpt lat="47.17277" lon="4.93658">
        <ele>402</ele>
        <time>2021-05-23T08:22:18Z</time>
      </trkpt>
      <trkpt lat="47.17281" lon="4.93652">
        <ele>403.8</ele>
        <time>2021-05-23T08:22:23Z</time>
      </trkpt>
      <trkpt lat="47.17283" lon="4.93643">
        <ele>402.4</ele>
        <time>2021-05-23T08:22:29Z</time>
      </trkpt>
      <trkpt lat="47.17282" lon="4.93636">
        <ele>402.2</ele>
        <time>2021-05-23T08:22:34Z</time>
      </trkpt>
      <trkpt lat="47.17283" lon="4.9363">
        <ele>402.7</ele>
        <time>2021-05-23T08:22:39Z</time>
      </trkpt>
      <trkpt lat="47.17285" lon="4.93622">
        <ele>404.9</ele>
        <time>2021-05-23T08:22:43Z</time>
      </trkpt>
      <trkpt lat="47.17288" lon="4.93616">
        <ele>404.8</ele>
        <time>2021-05-23T08:22:49Z</time>
      </trkpt>
      <trkpt lat="47.17286" lon="4.93609">
        <ele>399.9</ele>
        <time>2021-05-23T08:22:54Z</time>
      </trkpt>
      <trkpt lat="47.17287" lon="4.93602">
        <ele>400.8</ele>
        <time>2021-05-23T08:22:57Z</time>
      </trkpt>
      <trkpt lat="47.17287" lon="4.93593">
        <ele>396.9</ele>
        <time>2021-05-23T08:23:01Z</time>
      </trkpt>
      <trkpt lat="47.17285" lon="4.93586">
        <ele>394.3</ele>
        <time>2021-05-23T08:23:06Z</time>
      </trkpt>
      <trkpt lat="47.17286" lon="4.93579">
        <ele>394.5</ele>
        <time>2021-05-23T08:23:09Z</time>
      </trkpt>
      <trkpt lat="47.17291" lon="4.93575">
        <ele>396.9</ele>
        <time>2021-05-23T08:23:14Z</time>
      </trkpt>
      <trkpt lat="47.17297" lon="4.93576">
        <ele>395.2</ele>
        <time>2021-05-23T08:23:17Z</time>
      </trkpt>
      <trkpt lat="47.17301" lon="4.93579">
        <ele>396.5</ele>
        <time>2021-05-23T08:23:20Z</time>
      </trkpt>
      <trkpt lat="47.17306" lon="4.93582">
        <ele>396.6</ele>
        <time>2021-05-23T08:23:24Z</time>
      </trkpt>
      <trkpt lat="47.17312" lon="4.93585">
        <ele>395.3</ele>
        <time>2021-05-23T08:23:29Z</time>
      </trkpt>
      <trkpt lat="47.17317" lon="4.93584">
        <ele>398.5</ele>
        <time>2021-05-23T08:23:36Z</time>
      </trkpt>
      <trkpt lat="47.17322" lon="4.93588">
        <ele>397</ele>
        <time>2021-05-23T08:23:40Z</time>
      </trkpt>
      <trkpt lat="47.17327" lon="4.9359">
        <ele>397.5</ele>
        <time>2021-05-23T08:23:44Z</time>
      </trkpt>
      <trkpt lat="47.17332" lon="4.93588">
        <ele>398.5</ele>
        <time>2021-05-23T08:23:48Z</time>
      </trkpt>
      <trkpt lat="47.17336" lon="4.93583">
        <ele>397.5</ele>
        <time>2021-05-23T08:23:56Z</time>
      </trkpt>
      <trkpt lat="47.17337" lon="4.93576">
        <ele>396.2</ele>
        <time>2021-05-23T08:24:00Z</time>
      </trkpt>
      <trkpt lat="47.17343" lon="4.93572">
        <ele>398.2</ele>
        <time>2021-05-23T08:24:05Z</time>
      </trkpt>
      <trkpt lat="47.17341" lon="4.93566">
        <ele>398.5</ele>
        <time>2021-05-23T08:25:21Z</time>
      </trkpt>
      <trkpt lat="47.17343" lon="4.93571">
        <ele>402.6</ele>
        <time>2021-05-23T08:26:04Z</time>
      </trkpt>
      <trkpt lat="47.1735" lon="4.9357">
        <ele>402.2</ele>
        <time>2021-05-23T08:26:21Z</time>
      </trkpt>
      <trkpt lat="47.17355" lon="4.93573">
        <ele>402.7</ele>
        <time>2021-05-23T08:26:28Z</time>
      </trkpt>
      <trkpt lat="47.1736" lon="4.93574">
        <ele>401.6</ele>
        <time>2021-05-23T08:26:32Z</time>
      </trkpt>
      <trkpt lat="47.17366" lon="4.93574">
        <ele>399.9</ele>
        <time>2021-05-23T08:26:36Z</time>
      </trkpt>
      <trkpt lat="47.1737" lon="4.9358">
        <ele>400.2</ele>
        <time>2021-05-23T08:26:42Z</time>
      </trkpt>
      <trkpt lat="47.17371" lon="4.93588">
        <ele>402.5</ele>
        <time>2021-05-23T08:26:50Z</time>
      </trkpt>
      <trkpt lat="47.17372" lon="4.93596">
        <ele>402.8</ele>
        <time>2021-05-23T08:26:52Z</time>
      </trkpt>
      <trkpt lat="47.17374" lon="4.93604">
        <ele>402</ele>
        <time>2021-05-23T08:26:56Z</time>
      </trkpt>
      <trkpt lat="47.17379" lon="4.93607">
        <ele>401.9</ele>
        <time>2021-05-23T08:27:01Z</time>
      </trkpt>
      <trkpt lat="47.17384" lon="4.93609">
        <ele>403.4</ele>
        <time>2021-05-23T08:27:04Z</time>
      </trkpt>
      <trkpt lat="47.17389" lon="4.93609">
        <ele>401.5</ele>
        <time>2021-05-23T08:27:08Z</time>
      </trkpt>
      <trkpt lat="47.17393" lon="4.93607">
        <ele>401.6</ele>
        <time>2021-05-23T08:27:12Z</time>
      </trkpt>
      <trkpt lat="47.17398" lon="4.93605">
        <ele>401.3</ele>
        <time>2021-05-23T08:27:15Z</time>
      </trkpt>
      <trkpt lat="47.17403" lon="4.93604">
        <ele>402.3</ele>
        <time>2021-05-23T08:27:20Z</time>
      </trkpt>
      <trkpt lat="47.17409" lon="4.93602">
        <ele>398.4</ele>
        <time>2021-05-23T08:27:31Z</time>
      </trkpt>
      <trkpt lat="47.17413" lon="4.93601">
        <ele>397.1</ele>
        <time>2021-05-23T08:27:34Z</time>
      </trkpt>
      <trkpt lat="47.17418" lon="4.936">
        <ele>398.2</ele>
        <time>2021-05-23T08:27:36Z</time>
      </trkpt>
      <trkpt lat="47.17423" lon="4.93598">
        <ele>400</ele>
        <time>2021-05-23T08:27:39Z</time>
      </trkpt>
      <trkpt lat="47.17428" lon="4.93596">
        <ele>401.6</ele>
        <time>2021-05-23T08:27:45Z</time>
      </trkpt>
      <trkpt lat="47.17433" lon="4.93594">
        <ele>392.2</ele>
        <time>2021-05-23T08:27:48Z</time>
      </trkpt>
      <trkpt lat="47.17438" lon="4.93592">
        <ele>399.4</ele>
        <time>2021-05-23T08:27:54Z</time>
      </trkpt>
      <trkpt lat="47.17442" lon="4.9359">
        <ele>401.3</ele>
        <time>2021-05-23T08:27:58Z</time>
      </trkpt>
      <trkpt lat="47.17447" lon="4.93589">
        <ele>399.2</ele>
        <time>2021-05-23T08:28:02Z</time>
      </trkpt>
      <trkpt lat="47.1745" lon="4.93583">
        <ele>398.4</ele>
        <time>2021-05-23T08:28:08Z</time>
      </trkpt>
      <trkpt lat="47.17455" lon="4.93582">
        <ele>397.7</ele>
        <time>2021-05-23T08:28:12Z</time>
      </trkpt>
      <trkpt lat="47.1746" lon="4.93582">
        <ele>397.3</ele>
        <time>2021-05-23T08:28:17Z</time>
      </trkpt>
      <trkpt lat="47.17464" lon="4.93581">
        <ele>398.7</ele>
        <time>2021-05-23T08:28:21Z</time>
      </trkpt>
      <trkpt lat="47.1746" lon="4.93577">
        <ele>400.7</ele>
        <time>2021-05-23T08:28:47Z</time>
      </trkpt>
      <trkpt lat="47.17464" lon="4.93581">
        <ele>401.1</ele>
        <time>2021-05-23T08:29:47Z</time>
      </trkpt>
      <trkpt lat="47.1747" lon="4.93585">
        <ele>402.8</ele>
        <time>2021-05-23T08:29:53Z</time>
      </trkpt>
      <trkpt lat="47.17474" lon="4.93589">
        <ele>402.2</ele>
        <time>2021-05-23T08:29:55Z</time>
      </trkpt>
      <trkpt lat="47.17478" lon="4.93595">
        <ele>401.9</ele>
        <time>2021-05-23T08:29:59Z</time>
      </trkpt>
      <trkpt lat="47.17481" lon="4.936">
        <ele>402.3</ele>
        <time>2021-05-23T08:30:04Z</time>
      </trkpt>
      <trkpt lat="47.17484" lon="4.93607">
        <ele>399.8</ele>
        <time>2021-05-23T08:30:12Z</time>
      </trkpt>
      <trkpt lat="47.17486" lon="4.93614">
        <ele>401</ele>
        <time>2021-05-23T08:30:15Z</time>
      </trkpt>
      <trkpt lat="47.17489" lon="4.93619">
        <ele>399</ele>
        <time>2021-05-23T08:30:19Z</time>
      </trkpt>
      <trkpt lat="47.17492" lon="4.93625">
        <ele>400.5</ele>
        <time>2021-05-23T08:30:23Z</time>
      </trkpt>
      <trkpt lat="47.17495" lon="4.9363">
        <ele>402.3</ele>
        <time>2021-05-23T08:30:26Z</time>
      </trkpt>
      <trkpt lat="47.17499" lon="4.93636">
        <ele>399.9</ele>
        <time>2021-05-23T08:30:32Z</time>
      </trkpt>
      <trkpt lat="47.17504" lon="4.93637">
        <ele>398.6</ele>
        <time>2021-05-23T08:30:37Z</time>
      </trkpt>
      <trkpt lat="47.17508" lon="4.93634">
        <ele>394.2</ele>
        <time>2021-05-23T08:30:41Z</time>
      </trkpt>
      <trkpt lat="47.17512" lon="4.9363">
        <ele>395.5</ele>
        <time>2021-05-23T08:30:46Z</time>
      </trkpt>
      <trkpt lat="47.17515" lon="4.93621">
        <ele>394.1</ele>
        <time>2021-05-23T08:30:49Z</time>
      </trkpt>
      <trkpt lat="47.17518" lon="4.93614">
        <ele>394.9</ele>
        <time>2021-05-23T08:30:53Z</time>
      </trkpt>
      <trkpt lat="47.17521" lon="4.93608">
        <ele>394.6</ele>
        <time>2021-05-23T08:30:58Z</time>
      </trkpt>
      <trkpt lat="47.17523" lon="4.93601">
        <ele>391.8</ele>
        <time>2021-05-23T08:31:02Z</time>
      </trkpt>
      <trkpt lat="47.17525" lon="4.93594">
        <ele>394.9</ele>
        <time>2021-05-23T08:31:07Z</time>
      </trkpt>
      <trkpt lat="47.17529" lon="4.93588">
        <ele>399.3</ele>
        <time>2021-05-23T08:31:11Z</time>
      </trkpt>
      <trkpt lat="47.17534" lon="4.93582">
        <ele>400</ele>
        <time>2021-05-23T08:31:16Z</time>
      </trkpt>
      <trkpt lat="47.17537" lon="4.93576">
        <ele>397.7</ele>
        <time>2021-05-23T08:31:20Z</time>
      </trkpt>
      <trkpt lat="47.17539" lon="4.93569">
        <ele>400.2</ele>
        <time>2021-05-23T08:31:24Z</time>
      </trkpt>
      <trkpt lat="47.17541" lon="4.93562">
        <ele>405.2</ele>
        <time>2021-05-23T08:31:29Z</time>
      </trkpt>
      <trkpt lat="47.17542" lon="4.93555">
        <ele>405.1</ele>
        <time>2021-05-23T08:31:33Z</time>
      </trkpt>
      <trkpt lat="47.17542" lon="4.93548">
        <ele>409.1</ele>
        <time>2021-05-23T08:31:39Z</time>
      </trkpt>
      <trkpt lat="47.17544" lon="4.93542">
        <ele>408.4</ele>
        <time>2021-05-23T08:31:42Z</time>
      </trkpt>
      <trkpt lat="47.17548" lon="4.93536">
        <ele>404.2</ele>
        <time>2021-05-23T08:31:48Z</time>
      </trkpt>
      <trkpt lat="47.17548" lon="4.93528">
        <ele>408.4</ele>
        <time>2021-05-23T08:31:52Z</time>
      </trkpt>
      <trkpt lat="47.1755" lon="4.93521">
        <ele>408.2</ele>
        <time>2021-05-23T08:31:56Z</time>
      </trkpt>
      <trkpt lat="47.17551" lon="4.93513">
        <ele>406.6</ele>
        <time>2021-05-23T08:32:01Z</time>
      </trkpt>
      <trkpt lat="47.17552" lon="4.93505">
        <ele>400.7</ele>
        <time>2021-05-23T08:32:05Z</time>
      </trkpt>
      <trkpt lat="47.17551" lon="4.93497">
        <ele>401.4</ele>
        <time>2021-05-23T08:32:10Z</time>
      </trkpt>
      <trkpt lat="47.17552" lon="4.93491">
        <ele>398.4</ele>
        <time>2021-05-23T08:32:14Z</time>
      </trkpt>
      <trkpt lat="47.17555" lon="4.93483">
        <ele>401.1</ele>
        <time>2021-05-23T08:32:18Z</time>
      </trkpt>
      <trkpt lat="47.17557" lon="4.93477">
        <ele>404.1</ele>
        <time>2021-05-23T08:32:23Z</time>
      </trkpt>
      <trkpt lat="47.17559" lon="4.9347">
        <ele>403.8</ele>
        <time>2021-05-23T08:32:28Z</time>
      </trkpt>
      <trkpt lat="47.17559" lon="4.93462">
        <ele>407.2</ele>
        <time>2021-05-23T08:32:34Z</time>
      </trkpt>
      <trkpt lat="47.17562" lon="4.93456">
        <ele>406</ele>
        <time>2021-05-23T08:32:38Z</time>
      </trkpt>
      <trkpt lat="47.17565" lon="4.93449">
        <ele>402.9</ele>
        <time>2021-05-23T08:32:49Z</time>
      </trkpt>
      <trkpt lat="47.17569" lon="4.9344">
        <ele>404.9</ele>
        <time>2021-05-23T08:32:53Z</time>
      </trkpt>
      <trkpt lat="47.1757" lon="4.93434">
        <ele>403.4</ele>
        <time>2021-05-23T08:32:56Z</time>
      </trkpt>
      <trkpt lat="47.17574" lon="4.93423">
        <ele>402.2</ele>
        <time>2021-05-23T08:33:01Z</time>
      </trkpt>
      <trkpt lat="47.17575" lon="4.93414">
        <ele>402.1</ele>
        <time>2021-05-23T08:33:05Z</time>
      </trkpt>
      <trkpt lat="47.17578" lon="4.93408">
        <ele>399.7</ele>
        <time>2021-05-23T08:33:09Z</time>
      </trkpt>
      <trkpt lat="47.17581" lon="4.934">
        <ele>400.3</ele>
        <time>2021-05-23T08:33:13Z</time>
      </trkpt>
      <trkpt lat="47.17584" lon="4.93393">
        <ele>397.1</ele>
        <time>2021-05-23T08:33:19Z</time>
      </trkpt>
      <trkpt lat="47.17587" lon="4.93386">
        <ele>396</ele>
        <time>2021-05-23T08:33:23Z</time>
      </trkpt>
      <trkpt lat="47.17589" lon="4.93379">
        <ele>396.9</ele>
        <time>2021-05-23T08:33:27Z</time>
      </trkpt>
      <trkpt lat="47.17591" lon="4.93373">
        <ele>396.6</ele>
        <time>2021-05-23T08:33:30Z</time>
      </trkpt>
      <trkpt lat="47.17594" lon="4.93365">
        <ele>404</ele>
        <time>2021-05-23T08:33:34Z</time>
      </trkpt>
      <trkpt lat="47.17597" lon="4.93359">
        <ele>405.6</ele>
        <time>2021-05-23T08:33:38Z</time>
      </trkpt>
      <trkpt lat="47.17599" lon="4.93353">
        <ele>406.9</ele>
        <time>2021-05-23T08:33:42Z</time>
      </trkpt>
      <trkpt lat="47.17597" lon="4.93346">
        <ele>403.4</ele>
        <time>2021-05-23T08:34:34Z</time>
      </trkpt>
      <trkpt lat="47.17593" lon="4.93341">
        <ele>405.1</ele>
        <time>2021-05-23T08:34:39Z</time>
      </trkpt>
      <trkpt lat="47.17587" lon="4.93334">
        <ele>404.4</ele>
        <time>2021-05-23T08:34:44Z</time>
      </trkpt>
      <trkpt lat="47.17584" lon="4.93328">
        <ele>405.9</ele>
        <time>2021-05-23T08:34:50Z</time>
      </trkpt>
      <trkpt lat="47.1758" lon="4.93322">
        <ele>405.1</ele>
        <time>2021-05-23T08:34:54Z</time>
      </trkpt>
      <trkpt lat="47.17569" lon="4.9331">
        <ele>393.7</ele>
        <time>2021-05-23T08:35:05Z</time>
      </trkpt>
      <trkpt lat="47.17565" lon="4.93306">
        <ele>398.5</ele>
        <time>2021-05-23T08:35:10Z</time>
      </trkpt>
      <trkpt lat="47.17562" lon="4.93299">
        <ele>404.2</ele>
        <time>2021-05-23T08:35:15Z</time>
      </trkpt>
      <trkpt lat="47.17561" lon="4.93292">
        <ele>412.7</ele>
        <time>2021-05-23T08:35:21Z</time>
      </trkpt>
      <trkpt lat="47.1756" lon="4.93285">
        <ele>413.3</ele>
        <time>2021-05-23T08:35:24Z</time>
      </trkpt>
      <trkpt lat="47.17558" lon="4.93278">
        <ele>413.5</ele>
        <time>2021-05-23T08:35:28Z</time>
      </trkpt>
      <trkpt lat="47.17554" lon="4.9327">
        <ele>414.1</ele>
        <time>2021-05-23T08:35:33Z</time>
      </trkpt>
      <trkpt lat="47.17552" lon="4.93264">
        <ele>415.1</ele>
        <time>2021-05-23T08:35:37Z</time>
      </trkpt>
      <trkpt lat="47.17548" lon="4.93257">
        <ele>416.6</ele>
        <time>2021-05-23T08:35:43Z</time>
      </trkpt>
      <trkpt lat="47.17545" lon="4.93253">
        <ele>414.4</ele>
        <time>2021-05-23T08:35:47Z</time>
      </trkpt>
      <trkpt lat="47.17543" lon="4.93247">
        <ele>413.2</ele>
        <time>2021-05-23T08:35:53Z</time>
      </trkpt>
      <trkpt lat="47.17538" lon="4.93242">
        <ele>413.8</ele>
        <time>2021-05-23T08:35:59Z</time>
      </trkpt>
      <trkpt lat="47.17535" lon="4.93237">
        <ele>415.6</ele>
        <time>2021-05-23T08:36:02Z</time>
      </trkpt>
      <trkpt lat="47.1753" lon="4.93233">
        <ele>371.2</ele>
        <time>2021-05-23T08:36:06Z</time>
      </trkpt>
      <trkpt lat="47.17527" lon="4.93225">
        <ele>414</ele>
        <time>2021-05-23T08:36:13Z</time>
      </trkpt>
      <trkpt lat="47.17529" lon="4.93218">
        <ele>419.9</ele>
        <time>2021-05-23T08:36:18Z</time>
      </trkpt>
      <trkpt lat="47.17529" lon="4.93211">
        <ele>422.8</ele>
        <time>2021-05-23T08:36:24Z</time>
      </trkpt>
      <trkpt lat="47.17531" lon="4.93205">
        <ele>421.4</ele>
        <time>2021-05-23T08:36:37Z</time>
      </trkpt>
      <trkpt lat="47.1753" lon="4.93197">
        <ele>422.6</ele>
        <time>2021-05-23T08:36:41Z</time>
      </trkpt>
      <trkpt lat="47.17529" lon="4.93188">
        <ele>423.1</ele>
        <time>2021-05-23T08:36:44Z</time>
      </trkpt>
      <trkpt lat="47.17526" lon="4.93181">
        <ele>423.9</ele>
        <time>2021-05-23T08:36:48Z</time>
      </trkpt>
      <trkpt lat="47.17523" lon="4.93175">
        <ele>423</ele>
        <time>2021-05-23T08:36:51Z</time>
      </trkpt>
      <trkpt lat="47.1752" lon="4.93169">
        <ele>420.6</ele>
        <time>2021-05-23T08:36:54Z</time>
      </trkpt>
      <trkpt lat="47.17517" lon="4.93163">
        <ele>424</ele>
        <time>2021-05-23T08:36:58Z</time>
      </trkpt>
      <trkpt lat="47.17514" lon="4.93158">
        <ele>424</ele>
        <time>2021-05-23T08:37:01Z</time>
      </trkpt>
      <trkpt lat="47.17509" lon="4.93153">
        <ele>422.2</ele>
        <time>2021-05-23T08:37:06Z</time>
      </trkpt>
      <trkpt lat="47.17504" lon="4.93152">
        <ele>420.5</ele>
        <time>2021-05-23T08:37:09Z</time>
      </trkpt>
      <trkpt lat="47.17498" lon="4.93148">
        <ele>421.7</ele>
        <time>2021-05-23T08:37:15Z</time>
      </trkpt>
      <trkpt lat="47.17493" lon="4.93142">
        <ele>422.8</ele>
        <time>2021-05-23T08:37:19Z</time>
      </trkpt>
      <trkpt lat="47.17488" lon="4.93139">
        <ele>425.2</ele>
        <time>2021-05-23T08:37:22Z</time>
      </trkpt>
      <trkpt lat="47.17483" lon="4.93137">
        <ele>421.1</ele>
        <time>2021-05-23T08:37:27Z</time>
      </trkpt>
      <trkpt lat="47.17479" lon="4.93135">
        <ele>420.8</ele>
        <time>2021-05-23T08:37:32Z</time>
      </trkpt>
      <trkpt lat="47.17474" lon="4.93133">
        <ele>417</ele>
        <time>2021-05-23T08:37:36Z</time>
      </trkpt>
      <trkpt lat="47.17469" lon="4.93128">
        <ele>420.1</ele>
        <time>2021-05-23T08:37:41Z</time>
      </trkpt>
      <trkpt lat="47.17465" lon="4.93126">
        <ele>422.1</ele>
        <time>2021-05-23T08:37:45Z</time>
      </trkpt>
      <trkpt lat="47.17459" lon="4.93123">
        <ele>420</ele>
        <time>2021-05-23T08:37:50Z</time>
      </trkpt>
      <trkpt lat="47.17452" lon="4.93118">
        <ele>419.6</ele>
        <time>2021-05-23T08:37:54Z</time>
      </trkpt>
      <trkpt lat="47.17448" lon="4.93112">
        <ele>419</ele>
        <time>2021-05-23T08:37:58Z</time>
      </trkpt>
      <trkpt lat="47.17444" lon="4.93113">
        <ele>418.9</ele>
        <time>2021-05-23T08:38:08Z</time>
      </trkpt>
      <trkpt lat="47.17446" lon="4.93105">
        <ele>418.8</ele>
        <time>2021-05-23T08:38:16Z</time>
      </trkpt>
      <trkpt lat="47.17446" lon="4.93098">
        <ele>418.3</ele>
        <time>2021-05-23T08:38:20Z</time>
      </trkpt>
      <trkpt lat="47.17446" lon="4.93091">
        <ele>414.1</ele>
        <time>2021-05-23T08:38:24Z</time>
      </trkpt>
      <trkpt lat="47.17445" lon="4.93083">
        <ele>414.3</ele>
        <time>2021-05-23T08:38:30Z</time>
      </trkpt>
      <trkpt lat="47.17445" lon="4.93076">
        <ele>411.9</ele>
        <time>2021-05-23T08:38:34Z</time>
      </trkpt>
      <trkpt lat="47.17446" lon="4.93068">
        <ele>411.8</ele>
        <time>2021-05-23T08:38:39Z</time>
      </trkpt>
      <trkpt lat="47.17447" lon="4.93061">
        <ele>414.3</ele>
        <time>2021-05-23T08:38:45Z</time>
      </trkpt>
      <trkpt lat="47.17448" lon="4.93053">
        <ele>416</ele>
        <time>2021-05-23T08:38:50Z</time>
      </trkpt>
      <trkpt lat="47.17449" lon="4.93047">
        <ele>418</ele>
        <time>2021-05-23T08:38:53Z</time>
      </trkpt>
      <trkpt lat="47.17455" lon="4.93042">
        <ele>416.9</ele>
        <time>2021-05-23T08:38:57Z</time>
      </trkpt>
      <trkpt lat="47.17456" lon="4.93035">
        <ele>414.7</ele>
        <time>2021-05-23T08:39:02Z</time>
      </trkpt>
      <trkpt lat="47.17454" lon="4.93026">
        <ele>413</ele>
        <time>2021-05-23T08:39:06Z</time>
      </trkpt>
      <trkpt lat="47.17453" lon="4.93018">
        <ele>413.1</ele>
        <time>2021-05-23T08:39:10Z</time>
      </trkpt>
      <trkpt lat="47.17452" lon="4.93011">
        <ele>412.4</ele>
        <time>2021-05-23T08:39:14Z</time>
      </trkpt>
      <trkpt lat="47.17451" lon="4.93003">
        <ele>411.7</ele>
        <time>2021-05-23T08:39:17Z</time>
      </trkpt>
      <trkpt lat="47.17453" lon="4.92996">
        <ele>409</ele>
        <time>2021-05-23T08:39:22Z</time>
      </trkpt>
      <trkpt lat="47.17451" lon="4.92989">
        <ele>410.2</ele>
        <time>2021-05-23T08:39:26Z</time>
      </trkpt>
      <trkpt lat="47.17452" lon="4.92981">
        <ele>412.9</ele>
        <time>2021-05-23T08:39:30Z</time>
      </trkpt>
      <trkpt lat="47.17452" lon="4.92974">
        <ele>412</ele>
        <time>2021-05-23T08:39:34Z</time>
      </trkpt>
      <trkpt lat="47.17454" lon="4.92968">
        <ele>411</ele>
        <time>2021-05-23T08:39:37Z</time>
      </trkpt>
      <trkpt lat="47.17454" lon="4.9296">
        <ele>409.7</ele>
        <time>2021-05-23T08:39:45Z</time>
      </trkpt>
      <trkpt lat="47.17455" lon="4.9295">
        <ele>410.1</ele>
        <time>2021-05-23T08:39:49Z</time>
      </trkpt>
      <trkpt lat="47.17456" lon="4.92944">
        <ele>408.8</ele>
        <time>2021-05-23T08:39:53Z</time>
      </trkpt>
      <trkpt lat="47.17456" lon="4.92937">
        <ele>411.5</ele>
        <time>2021-05-23T08:39:57Z</time>
      </trkpt>
      <trkpt lat="47.17457" lon="4.92929">
        <ele>412.2</ele>
        <time>2021-05-23T08:40:02Z</time>
      </trkpt>
      <trkpt lat="47.17459" lon="4.92922">
        <ele>413.1</ele>
        <time>2021-05-23T08:40:07Z</time>
      </trkpt>
      <trkpt lat="47.1746" lon="4.92916">
        <ele>413.7</ele>
        <time>2021-05-23T08:40:11Z</time>
      </trkpt>
      <trkpt lat="47.1746" lon="4.92909">
        <ele>412.7</ele>
        <time>2021-05-23T08:40:14Z</time>
      </trkpt>
      <trkpt lat="47.17461" lon="4.929">
        <ele>410.9</ele>
        <time>2021-05-23T08:40:19Z</time>
      </trkpt>
      <trkpt lat="47.17463" lon="4.92894">
        <ele>410.3</ele>
        <time>2021-05-23T08:40:22Z</time>
      </trkpt>
      <trkpt lat="47.17464" lon="4.92888">
        <ele>412.2</ele>
        <time>2021-05-23T08:40:26Z</time>
      </trkpt>
      <trkpt lat="47.17465" lon="4.9288">
        <ele>411.7</ele>
        <time>2021-05-23T08:40:30Z</time>
      </trkpt>
      <trkpt lat="47.17469" lon="4.92874">
        <ele>415.9</ele>
        <time>2021-05-23T08:40:34Z</time>
      </trkpt>
      <trkpt lat="47.17472" lon="4.92866">
        <ele>414.8</ele>
        <time>2021-05-23T08:40:41Z</time>
      </trkpt>
      <trkpt lat="47.17473" lon="4.9286">
        <ele>416.2</ele>
        <time>2021-05-23T08:40:45Z</time>
      </trkpt>
      <trkpt lat="47.17473" lon="4.92853">
        <ele>415.8</ele>
        <time>2021-05-23T08:40:49Z</time>
      </trkpt>
      <trkpt lat="47.17473" lon="4.92843">
        <ele>415</ele>
        <time>2021-05-23T08:40:54Z</time>
      </trkpt>
      <trkpt lat="47.17471" lon="4.92836">
        <ele>414.2</ele>
        <time>2021-05-23T08:40:57Z</time>
      </trkpt>
      <trkpt lat="47.17471" lon="4.92829">
        <ele>415.9</ele>
        <time>2021-05-23T08:41:01Z</time>
      </trkpt>
      <trkpt lat="47.17472" lon="4.9282">
        <ele>416.6</ele>
        <time>2021-05-23T08:41:06Z</time>
      </trkpt>
      <trkpt lat="47.17472" lon="4.92812">
        <ele>416.8</ele>
        <time>2021-05-23T08:41:11Z</time>
      </trkpt>
      <trkpt lat="47.17472" lon="4.92805">
        <ele>416.2</ele>
        <time>2021-05-23T08:41:15Z</time>
      </trkpt>
      <trkpt lat="47.17472" lon="4.92796">
        <ele>415</ele>
        <time>2021-05-23T08:41:18Z</time>
      </trkpt>
      <trkpt lat="47.17472" lon="4.92787">
        <ele>415.6</ele>
        <time>2021-05-23T08:41:24Z</time>
      </trkpt>
      <trkpt lat="47.17473" lon="4.92781">
        <ele>410.1</ele>
        <time>2021-05-23T08:41:28Z</time>
      </trkpt>
      <trkpt lat="47.17472" lon="4.92773">
        <ele>413.9</ele>
        <time>2021-05-23T08:41:32Z</time>
      </trkpt>
      <trkpt lat="47.17472" lon="4.92765">
        <ele>414.5</ele>
        <time>2021-05-23T08:41:38Z</time>
      </trkpt>
      <trkpt lat="47.17472" lon="4.92757">
        <ele>415.1</ele>
        <time>2021-05-23T08:41:42Z</time>
      </trkpt>
      <trkpt lat="47.17473" lon="4.9275">
        <ele>414.8</ele>
        <time>2021-05-23T08:41:46Z</time>
      </trkpt>
      <trkpt lat="47.17472" lon="4.92743">
        <ele>414.6</ele>
        <time>2021-05-23T08:41:50Z</time>
      </trkpt>
      <trkpt lat="47.17472" lon="4.92736">
        <ele>413.3</ele>
        <time>2021-05-23T08:41:54Z</time>
      </trkpt>
      <trkpt lat="47.17472" lon="4.92728">
        <ele>413.5</ele>
        <time>2021-05-23T08:41:59Z</time>
      </trkpt>
      <trkpt lat="47.17473" lon="4.9272">
        <ele>413.8</ele>
        <time>2021-05-23T08:42:03Z</time>
      </trkpt>
      <trkpt lat="47.17473" lon="4.92713">
        <ele>414.1</ele>
        <time>2021-05-23T08:42:08Z</time>
      </trkpt>
      <trkpt lat="47.17473" lon="4.92703">
        <ele>413.6</ele>
        <time>2021-05-23T08:42:13Z</time>
      </trkpt>
      <trkpt lat="47.17471" lon="4.92696">
        <ele>414.4</ele>
        <time>2021-05-23T08:42:18Z</time>
      </trkpt>
      <trkpt lat="47.17469" lon="4.92688">
        <ele>413.5</ele>
        <time>2021-05-23T08:42:22Z</time>
      </trkpt>
      <trkpt lat="47.17465" lon="4.92683">
        <ele>416.9</ele>
        <time>2021-05-23T08:42:27Z</time>
      </trkpt>
      <trkpt lat="47.1746" lon="4.92681">
        <ele>419.7</ele>
        <time>2021-05-23T08:42:31Z</time>
      </trkpt>
      <trkpt lat="47.17456" lon="4.92679">
        <ele>420.6</ele>
        <time>2021-05-23T08:42:34Z</time>
      </trkpt>
      <trkpt lat="47.1745" lon="4.9268">
        <ele>421.4</ele>
        <time>2021-05-23T08:42:37Z</time>
      </trkpt>
      <trkpt lat="47.17445" lon="4.92681">
        <ele>422</ele>
        <time>2021-05-23T08:42:41Z</time>
      </trkpt>
      <trkpt lat="47.1744" lon="4.92679">
        <ele>419.9</ele>
        <time>2021-05-23T08:42:46Z</time>
      </trkpt>
      <trkpt lat="47.17435" lon="4.92677">
        <ele>423.8</ele>
        <time>2021-05-23T08:42:49Z</time>
      </trkpt>
      <trkpt lat="47.1743" lon="4.92676">
        <ele>423.9</ele>
        <time>2021-05-23T08:42:53Z</time>
      </trkpt>
      <trkpt lat="47.17424" lon="4.92673">
        <ele>421.5</ele>
        <time>2021-05-23T08:43:00Z</time>
      </trkpt>
      <trkpt lat="47.17419" lon="4.92671">
        <ele>417.3</ele>
        <time>2021-05-23T08:43:04Z</time>
      </trkpt>
      <trkpt lat="47.17414" lon="4.92671">
        <ele>418.8</ele>
        <time>2021-05-23T08:43:07Z</time>
      </trkpt>
      <trkpt lat="47.17409" lon="4.92674">
        <ele>417.9</ele>
        <time>2021-05-23T08:43:12Z</time>
      </trkpt>
      <trkpt lat="47.17403" lon="4.92674">
        <ele>417.4</ele>
        <time>2021-05-23T08:43:17Z</time>
      </trkpt>
      <trkpt lat="47.17398" lon="4.92673">
        <ele>417.4</ele>
        <time>2021-05-23T08:43:20Z</time>
      </trkpt>
      <trkpt lat="47.17393" lon="4.92671">
        <ele>418.1</ele>
        <time>2021-05-23T08:43:26Z</time>
      </trkpt>
      <trkpt lat="47.1739" lon="4.92667">
        <ele>415.4</ele>
        <time>2021-05-23T08:43:30Z</time>
      </trkpt>
      <trkpt lat="47.17389" lon="4.9266">
        <ele>416.9</ele>
        <time>2021-05-23T08:43:32Z</time>
      </trkpt>
      <trkpt lat="47.1739" lon="4.92651">
        <ele>418.2</ele>
        <time>2021-05-23T08:43:35Z</time>
      </trkpt>
      <trkpt lat="47.1739" lon="4.92642">
        <ele>415.1</ele>
        <time>2021-05-23T08:43:40Z</time>
      </trkpt>
      <trkpt lat="47.17391" lon="4.92635">
        <ele>415.1</ele>
        <time>2021-05-23T08:43:44Z</time>
      </trkpt>
      <trkpt lat="47.17391" lon="4.92628">
        <ele>415.6</ele>
        <time>2021-05-23T08:43:47Z</time>
      </trkpt>
      <trkpt lat="47.1739" lon="4.92621">
        <ele>409.3</ele>
        <time>2021-05-23T08:43:52Z</time>
      </trkpt>
      <trkpt lat="47.17388" lon="4.92613">
        <ele>409</ele>
        <time>2021-05-23T08:43:55Z</time>
      </trkpt>
      <trkpt lat="47.17387" lon="4.92605">
        <ele>407</ele>
        <time>2021-05-23T08:43:58Z</time>
      </trkpt>
      <trkpt lat="47.17387" lon="4.92597">
        <ele>409.5</ele>
        <time>2021-05-23T08:44:06Z</time>
      </trkpt>
      <trkpt lat="47.17387" lon="4.92588">
        <ele>414.4</ele>
        <time>2021-05-23T08:44:10Z</time>
      </trkpt>
      <trkpt lat="47.17389" lon="4.92579">
        <ele>414.7</ele>
        <time>2021-05-23T08:44:15Z</time>
      </trkpt>
      <trkpt lat="47.1739" lon="4.92572">
        <ele>413.1</ele>
        <time>2021-05-23T08:44:18Z</time>
      </trkpt>
      <trkpt lat="47.17391" lon="4.92565">
        <ele>412</ele>
        <time>2021-05-23T08:44:23Z</time>
      </trkpt>
      <trkpt lat="47.17391" lon="4.92558">
        <ele>410.6</ele>
        <time>2021-05-23T08:44:27Z</time>
      </trkpt>
      <trkpt lat="47.17387" lon="4.92553">
        <ele>412.3</ele>
        <time>2021-05-23T08:44:31Z</time>
      </trkpt>
      <trkpt lat="47.17388" lon="4.92545">
        <ele>413.7</ele>
        <time>2021-05-23T08:44:35Z</time>
      </trkpt>
      <trkpt lat="47.17389" lon="4.92535">
        <ele>412.3</ele>
        <time>2021-05-23T08:44:41Z</time>
      </trkpt>
      <trkpt lat="47.1739" lon="4.92528">
        <ele>411.9</ele>
        <time>2021-05-23T08:44:44Z</time>
      </trkpt>
      <trkpt lat="47.1739" lon="4.92521">
        <ele>411.1</ele>
        <time>2021-05-23T08:44:49Z</time>
      </trkpt>
      <trkpt lat="47.1739" lon="4.92513">
        <ele>411.2</ele>
        <time>2021-05-23T08:44:53Z</time>
      </trkpt>
      <trkpt lat="47.17389" lon="4.92504">
        <ele>409.7</ele>
        <time>2021-05-23T08:44:58Z</time>
      </trkpt>
      <trkpt lat="47.17389" lon="4.92496">
        <ele>409.8</ele>
        <time>2021-05-23T08:45:02Z</time>
      </trkpt>
      <trkpt lat="47.17388" lon="4.92487">
        <ele>410.4</ele>
        <time>2021-05-23T08:45:05Z</time>
      </trkpt>
      <trkpt lat="47.1739" lon="4.92479">
        <ele>412.9</ele>
        <time>2021-05-23T08:45:12Z</time>
      </trkpt>
      <trkpt lat="47.17389" lon="4.9247">
        <ele>414.5</ele>
        <time>2021-05-23T08:45:15Z</time>
      </trkpt>
      <trkpt lat="47.1739" lon="4.92463">
        <ele>413.7</ele>
        <time>2021-05-23T08:45:21Z</time>
      </trkpt>
      <trkpt lat="47.17391" lon="4.92455">
        <ele>413.2</ele>
        <time>2021-05-23T08:45:25Z</time>
      </trkpt>
      <trkpt lat="47.17392" lon="4.92448">
        <ele>413.3</ele>
        <time>2021-05-23T08:45:27Z</time>
      </trkpt>
      <trkpt lat="47.17392" lon="4.92439">
        <ele>412.5</ele>
        <time>2021-05-23T08:45:33Z</time>
      </trkpt>
      <trkpt lat="47.17393" lon="4.92432">
        <ele>413.9</ele>
        <time>2021-05-23T08:45:36Z</time>
      </trkpt>
      <trkpt lat="47.17394" lon="4.92425">
        <ele>413.1</ele>
        <time>2021-05-23T08:45:42Z</time>
      </trkpt>
      <trkpt lat="47.17395" lon="4.92418">
        <ele>411.8</ele>
        <time>2021-05-23T08:45:46Z</time>
      </trkpt>
      <trkpt lat="47.17395" lon="4.9241">
        <ele>412.1</ele>
        <time>2021-05-23T08:45:52Z</time>
      </trkpt>
      <trkpt lat="47.17397" lon="4.92403">
        <ele>414</ele>
        <time>2021-05-23T08:45:56Z</time>
      </trkpt>
      <trkpt lat="47.17397" lon="4.92395">
        <ele>414.2</ele>
        <time>2021-05-23T08:46:01Z</time>
      </trkpt>
      <trkpt lat="47.17396" lon="4.92388">
        <ele>417.1</ele>
        <time>2021-05-23T08:46:04Z</time>
      </trkpt>
      <trkpt lat="47.17397" lon="4.92381">
        <ele>418.4</ele>
        <time>2021-05-23T08:46:10Z</time>
      </trkpt>
      <trkpt lat="47.17396" lon="4.92372">
        <ele>420.4</ele>
        <time>2021-05-23T08:46:16Z</time>
      </trkpt>
      <trkpt lat="47.17396" lon="4.92365">
        <ele>420.9</ele>
        <time>2021-05-23T08:46:19Z</time>
      </trkpt>
      <trkpt lat="47.17395" lon="4.92358">
        <ele>420.3</ele>
        <time>2021-05-23T08:46:24Z</time>
      </trkpt>
      <trkpt lat="47.17395" lon="4.9235">
        <ele>415.9</ele>
        <time>2021-05-23T08:46:30Z</time>
      </trkpt>
      <trkpt lat="47.17392" lon="4.92341">
        <ele>415.4</ele>
        <time>2021-05-23T08:46:34Z</time>
      </trkpt>
      <trkpt lat="47.17391" lon="4.92334">
        <ele>413.3</ele>
        <time>2021-05-23T08:46:39Z</time>
      </trkpt>
      <trkpt lat="47.1739" lon="4.92327">
        <ele>411.8</ele>
        <time>2021-05-23T08:46:43Z</time>
      </trkpt>
      <trkpt lat="47.17391" lon="4.92316">
        <ele>413.2</ele>
        <time>2021-05-23T08:46:49Z</time>
      </trkpt>
      <trkpt lat="47.17393" lon="4.92308">
        <ele>414.3</ele>
        <time>2021-05-23T08:46:54Z</time>
      </trkpt>
      <trkpt lat="47.17393" lon="4.923">
        <ele>415.1</ele>
        <time>2021-05-23T08:46:58Z</time>
      </trkpt>
      <trkpt lat="47.17392" lon="4.92292">
        <ele>412.2</ele>
        <time>2021-05-23T08:47:04Z</time>
      </trkpt>
      <trkpt lat="47.1739" lon="4.92286">
        <ele>411.5</ele>
        <time>2021-05-23T08:47:09Z</time>
      </trkpt>
      <trkpt lat="47.17391" lon="4.92278">
        <ele>405</ele>
        <time>2021-05-23T08:47:13Z</time>
      </trkpt>
      <trkpt lat="47.17392" lon="4.92272">
        <ele>413.5</ele>
        <time>2021-05-23T08:47:18Z</time>
      </trkpt>
      <trkpt lat="47.17392" lon="4.92262">
        <ele>416.8</ele>
        <time>2021-05-23T08:47:24Z</time>
      </trkpt>
      <trkpt lat="47.17393" lon="4.92254">
        <ele>415.6</ele>
        <time>2021-05-23T08:47:30Z</time>
      </trkpt>
      <trkpt lat="47.17392" lon="4.92247">
        <ele>417.7</ele>
        <time>2021-05-23T08:47:37Z</time>
      </trkpt>
      <trkpt lat="47.17393" lon="4.92239">
        <ele>419.9</ele>
        <time>2021-05-23T08:47:42Z</time>
      </trkpt>
      <trkpt lat="47.17393" lon="4.9223">
        <ele>421.7</ele>
        <time>2021-05-23T08:47:46Z</time>
      </trkpt>
      <trkpt lat="47.17394" lon="4.92221">
        <ele>422.2</ele>
        <time>2021-05-23T08:47:51Z</time>
      </trkpt>
      <trkpt lat="47.17395" lon="4.92214">
        <ele>422.4</ele>
        <time>2021-05-23T08:47:56Z</time>
      </trkpt>
      <trkpt lat="47.17394" lon="4.92207">
        <ele>421.2</ele>
        <time>2021-05-23T08:48:01Z</time>
      </trkpt>
      <trkpt lat="47.17392" lon="4.922">
        <ele>420.6</ele>
        <time>2021-05-23T08:48:06Z</time>
      </trkpt>
      <trkpt lat="47.17391" lon="4.92192">
        <ele>418.6</ele>
        <time>2021-05-23T08:48:10Z</time>
      </trkpt>
      <trkpt lat="47.1739" lon="4.92184">
        <ele>418.4</ele>
        <time>2021-05-23T08:48:17Z</time>
      </trkpt>
      <trkpt lat="47.1739" lon="4.92191">
        <ele>420.4</ele>
        <time>2021-05-23T08:48:50Z</time>
      </trkpt>
      <trkpt lat="47.17386" lon="4.92188">
        <ele>418.9</ele>
        <time>2021-05-23T08:50:10Z</time>
      </trkpt>
      <trkpt lat="47.17392" lon="4.92193">
        <ele>420.8</ele>
        <time>2021-05-23T08:50:19Z</time>
      </trkpt>
      <trkpt lat="47.1739" lon="4.92185">
        <ele>418.4</ele>
        <time>2021-05-23T08:50:31Z</time>
      </trkpt>
      <trkpt lat="47.17387" lon="4.92174">
        <ele>409.2</ele>
        <time>2021-05-23T08:50:34Z</time>
      </trkpt>
      <trkpt lat="47.17385" lon="4.92167">
        <ele>415.5</ele>
        <time>2021-05-23T08:50:40Z</time>
      </trkpt>
      <trkpt lat="47.17385" lon="4.92159">
        <ele>416.3</ele>
        <time>2021-05-23T08:50:50Z</time>
      </trkpt>
      <trkpt lat="47.17389" lon="4.92154">
        <ele>421.1</ele>
        <time>2021-05-23T08:50:55Z</time>
      </trkpt>
      <trkpt lat="47.17393" lon="4.92149">
        <ele>420.1</ele>
        <time>2021-05-23T08:51:02Z</time>
      </trkpt>
      <trkpt lat="47.17391" lon="4.92141">
        <ele>425.5</ele>
        <time>2021-05-23T08:51:09Z</time>
      </trkpt>
      <trkpt lat="47.17393" lon="4.92132">
        <ele>426.5</ele>
        <time>2021-05-23T08:51:14Z</time>
      </trkpt>
      <trkpt lat="47.17392" lon="4.92126">
        <ele>427.4</ele>
        <time>2021-05-23T08:51:20Z</time>
      </trkpt>
      <trkpt lat="47.17391" lon="4.92118">
        <ele>427.9</ele>
        <time>2021-05-23T08:51:25Z</time>
      </trkpt>
      <trkpt lat="47.17391" lon="4.9211">
        <ele>425.3</ele>
        <time>2021-05-23T08:51:29Z</time>
      </trkpt>
      <trkpt lat="47.17393" lon="4.92104">
        <ele>425.8</ele>
        <time>2021-05-23T08:51:34Z</time>
      </trkpt>
      <trkpt lat="47.17394" lon="4.92097">
        <ele>430.8</ele>
        <time>2021-05-23T08:51:46Z</time>
      </trkpt>
      <trkpt lat="47.17394" lon="4.9209">
        <ele>434.6</ele>
        <time>2021-05-23T08:52:11Z</time>
      </trkpt>
      <trkpt lat="47.17394" lon="4.92083">
        <ele>436.9</ele>
        <time>2021-05-23T08:52:15Z</time>
      </trkpt>
      <trkpt lat="47.17396" lon="4.92076">
        <ele>436.7</ele>
        <time>2021-05-23T08:52:21Z</time>
      </trkpt>
      <trkpt lat="47.17396" lon="4.92069">
        <ele>437.1</ele>
        <time>2021-05-23T08:52:30Z</time>
      </trkpt>
      <trkpt lat="47.17396" lon="4.92062">
        <ele>440.2</ele>
        <time>2021-05-23T08:52:37Z</time>
      </trkpt>
      <trkpt lat="47.17394" lon="4.92055">
        <ele>441.8</ele>
        <time>2021-05-23T08:52:44Z</time>
      </trkpt>
      <trkpt lat="47.17393" lon="4.92047">
        <ele>441.2</ele>
        <time>2021-05-23T08:52:48Z</time>
      </trkpt>
      <trkpt lat="47.17395" lon="4.9204">
        <ele>442.1</ele>
        <time>2021-05-23T08:52:53Z</time>
      </trkpt>
      <trkpt lat="47.17399" lon="4.92036">
        <ele>445.1</ele>
        <time>2021-05-23T08:52:58Z</time>
      </trkpt>
      <trkpt lat="47.17404" lon="4.92035">
        <ele>433.1</ele>
        <time>2021-05-23T08:53:02Z</time>
      </trkpt>
      <trkpt lat="47.17409" lon="4.92035">
        <ele>439.9</ele>
        <time>2021-05-23T08:53:11Z</time>
      </trkpt>
      <trkpt lat="47.17413" lon="4.92035">
        <ele>440.8</ele>
        <time>2021-05-23T08:53:16Z</time>
      </trkpt>
      <trkpt lat="47.1742" lon="4.92037">
        <ele>437.8</ele>
        <time>2021-05-23T08:53:23Z</time>
      </trkpt>
      <trkpt lat="47.17425" lon="4.92033">
        <ele>438</ele>
        <time>2021-05-23T08:53:27Z</time>
      </trkpt>
      <trkpt lat="47.17428" lon="4.92028">
        <ele>438.8</ele>
        <time>2021-05-23T08:53:30Z</time>
      </trkpt>
      <trkpt lat="47.17432" lon="4.92022">
        <ele>440</ele>
        <time>2021-05-23T08:53:37Z</time>
      </trkpt>
      <trkpt lat="47.17436" lon="4.92018">
        <ele>443</ele>
        <time>2021-05-23T08:53:43Z</time>
      </trkpt>
      <trkpt lat="47.17441" lon="4.92019">
        <ele>449</ele>
        <time>2021-05-23T08:53:55Z</time>
      </trkpt>
      <trkpt lat="47.17446" lon="4.92017">
        <ele>450.7</ele>
        <time>2021-05-23T08:54:00Z</time>
      </trkpt>
      <trkpt lat="47.17451" lon="4.92012">
        <ele>450.7</ele>
        <time>2021-05-23T08:54:05Z</time>
      </trkpt>
      <trkpt lat="47.17454" lon="4.92008">
        <ele>450.6</ele>
        <time>2021-05-23T08:54:08Z</time>
      </trkpt>
      <trkpt lat="47.17457" lon="4.92003">
        <ele>452.6</ele>
        <time>2021-05-23T08:54:16Z</time>
      </trkpt>
      <trkpt lat="47.17461" lon="4.92002">
        <ele>437.7</ele>
        <time>2021-05-23T08:54:28Z</time>
      </trkpt>
      <trkpt lat="47.17466" lon="4.91999">
        <ele>448.9</ele>
        <time>2021-05-23T08:54:36Z</time>
      </trkpt>
      <trkpt lat="47.1747" lon="4.91996">
        <ele>446.9</ele>
        <time>2021-05-23T08:54:41Z</time>
      </trkpt>
      <trkpt lat="47.17473" lon="4.91991">
        <ele>452.8</ele>
        <time>2021-05-23T08:54:49Z</time>
      </trkpt>
      <trkpt lat="47.17478" lon="4.91988">
        <ele>449.5</ele>
        <time>2021-05-23T08:54:55Z</time>
      </trkpt>
      <trkpt lat="47.17482" lon="4.91983">
        <ele>450.9</ele>
        <time>2021-05-23T08:55:00Z</time>
      </trkpt>
      <trkpt lat="47.17487" lon="4.91977">
        <ele>450.4</ele>
        <time>2021-05-23T08:55:05Z</time>
      </trkpt>
      <trkpt lat="47.1749" lon="4.91972">
        <ele>450.1</ele>
        <time>2021-05-23T08:55:09Z</time>
      </trkpt>
      <trkpt lat="47.17493" lon="4.91966">
        <ele>451.4</ele>
        <time>2021-05-23T08:55:13Z</time>
      </trkpt>
      <trkpt lat="47.17496" lon="4.9196">
        <ele>453.9</ele>
        <time>2021-05-23T08:55:17Z</time>
      </trkpt>
      <trkpt lat="47.17499" lon="4.91954">
        <ele>406</ele>
        <time>2021-05-23T08:55:21Z</time>
      </trkpt>
      <trkpt lat="47.17503" lon="4.9195">
        <ele>443.3</ele>
        <time>2021-05-23T08:55:25Z</time>
      </trkpt>
      <trkpt lat="47.17506" lon="4.91944">
        <ele>451.3</ele>
        <time>2021-05-23T08:55:30Z</time>
      </trkpt>
      <trkpt lat="47.1751" lon="4.9194">
        <ele>454.1</ele>
        <time>2021-05-23T08:55:35Z</time>
      </trkpt>
      <trkpt lat="47.17515" lon="4.91939">
        <ele>454.7</ele>
        <time>2021-05-23T08:55:40Z</time>
      </trkpt>
      <trkpt lat="47.17518" lon="4.91932">
        <ele>454.6</ele>
        <time>2021-05-23T08:55:45Z</time>
      </trkpt>
      <trkpt lat="47.17519" lon="4.91922">
        <ele>452.3</ele>
        <time>2021-05-23T08:55:49Z</time>
      </trkpt>
      <trkpt lat="47.17519" lon="4.91915">
        <ele>453</ele>
        <time>2021-05-23T08:55:54Z</time>
      </trkpt>
      <trkpt lat="47.1752" lon="4.91908">
        <ele>453.9</ele>
        <time>2021-05-23T08:55:58Z</time>
      </trkpt>
      <trkpt lat="47.17521" lon="4.919">
        <ele>453</ele>
        <time>2021-05-23T08:56:03Z</time>
      </trkpt>
      <trkpt lat="47.17522" lon="4.91893">
        <ele>453.9</ele>
        <time>2021-05-23T08:56:08Z</time>
      </trkpt>
      <trkpt lat="47.17524" lon="4.91887">
        <ele>455.4</ele>
        <time>2021-05-23T08:56:20Z</time>
      </trkpt>
      <trkpt lat="47.17527" lon="4.91879">
        <ele>457.8</ele>
        <time>2021-05-23T08:56:24Z</time>
      </trkpt>
      <trkpt lat="47.17528" lon="4.91873">
        <ele>459.4</ele>
        <time>2021-05-23T08:56:28Z</time>
      </trkpt>
      <trkpt lat="47.17531" lon="4.91865">
        <ele>463.9</ele>
        <time>2021-05-23T08:56:36Z</time>
      </trkpt>
      <trkpt lat="47.17535" lon="4.91862">
        <ele>468.9</ele>
        <time>2021-05-23T08:56:45Z</time>
      </trkpt>
      <trkpt lat="47.17537" lon="4.91856">
        <ele>467.2</ele>
        <time>2021-05-23T08:56:51Z</time>
      </trkpt>
      <trkpt lat="47.1754" lon="4.9185">
        <ele>471.9</ele>
        <time>2021-05-23T08:56:55Z</time>
      </trkpt>
      <trkpt lat="47.17542" lon="4.91844">
        <ele>472.1</ele>
        <time>2021-05-23T08:56:59Z</time>
      </trkpt>
      <trkpt lat="47.17544" lon="4.91838">
        <ele>472.6</ele>
        <time>2021-05-23T08:57:12Z</time>
      </trkpt>
      <trkpt lat="47.17547" lon="4.91832">
        <ele>475</ele>
        <time>2021-05-23T08:57:23Z</time>
      </trkpt>
      <trkpt lat="47.1755" lon="4.91826">
        <ele>473.7</ele>
        <time>2021-05-23T08:57:31Z</time>
      </trkpt>
      <trkpt lat="47.17554" lon="4.91821">
        <ele>474.4</ele>
        <time>2021-05-23T08:57:38Z</time>
      </trkpt>
      <trkpt lat="47.17557" lon="4.91817">
        <ele>471.8</ele>
        <time>2021-05-23T08:57:45Z</time>
      </trkpt>
      <trkpt lat="47.1756" lon="4.9181">
        <ele>472.4</ele>
        <time>2021-05-23T08:57:55Z</time>
      </trkpt>
      <trkpt lat="47.17564" lon="4.91806">
        <ele>473.2</ele>
        <time>2021-05-23T08:58:05Z</time>
      </trkpt>
      <trkpt lat="47.17569" lon="4.91801">
        <ele>474.5</ele>
        <time>2021-05-23T08:58:11Z</time>
      </trkpt>
      <trkpt lat="47.17573" lon="4.91797">
        <ele>478</ele>
        <time>2021-05-23T08:58:16Z</time>
      </trkpt>
      <trkpt lat="47.17577" lon="4.91793">
        <ele>478.3</ele>
        <time>2021-05-23T08:58:20Z</time>
      </trkpt>
      <trkpt lat="47.17582" lon="4.91789">
        <ele>480.8</ele>
        <time>2021-05-23T08:58:24Z</time>
      </trkpt>
      <trkpt lat="47.17587" lon="4.91788">
        <ele>482.6</ele>
        <time>2021-05-23T08:58:29Z</time>
      </trkpt>
      <trkpt lat="47.17591" lon="4.91785">
        <ele>483.8</ele>
        <time>2021-05-23T08:58:35Z</time>
      </trkpt>
      <trkpt lat="47.17594" lon="4.9178">
        <ele>483.6</ele>
        <time>2021-05-23T08:58:41Z</time>
      </trkpt>
      <trkpt lat="47.17598" lon="4.91774">
        <ele>485.5</ele>
        <time>2021-05-23T08:58:46Z</time>
      </trkpt>
      <trkpt lat="47.17603" lon="4.91769">
        <ele>486.1</ele>
        <time>2021-05-23T08:58:52Z</time>
      </trkpt>
      <trkpt lat="47.17612" lon="4.91756">
        <ele>485.5</ele>
        <time>2021-05-23T08:59:01Z</time>
      </trkpt>
      <trkpt lat="47.17614" lon="4.9175">
        <ele>485.1</ele>
        <time>2021-05-23T08:59:10Z</time>
      </trkpt>
      <trkpt lat="47.17618" lon="4.91743">
        <ele>484.5</ele>
        <time>2021-05-23T08:59:16Z</time>
      </trkpt>
      <trkpt lat="47.17622" lon="4.91738">
        <ele>472</ele>
        <time>2021-05-23T08:59:21Z</time>
      </trkpt>
      <trkpt lat="47.17627" lon="4.91733">
        <ele>481.3</ele>
        <time>2021-05-23T08:59:28Z</time>
      </trkpt>
      <trkpt lat="47.17632" lon="4.91731">
        <ele>483.2</ele>
        <time>2021-05-23T08:59:33Z</time>
      </trkpt>
      <trkpt lat="47.17637" lon="4.91731">
        <ele>485.2</ele>
        <time>2021-05-23T08:59:39Z</time>
      </trkpt>
      <trkpt lat="47.17643" lon="4.91729">
        <ele>487.7</ele>
        <time>2021-05-23T08:59:46Z</time>
      </trkpt>
      <trkpt lat="47.17647" lon="4.91727">
        <ele>485.8</ele>
        <time>2021-05-23T08:59:51Z</time>
      </trkpt>
      <trkpt lat="47.17653" lon="4.91724">
        <ele>487.6</ele>
        <time>2021-05-23T08:59:56Z</time>
      </trkpt>
      <trkpt lat="47.17657" lon="4.91721">
        <ele>488.4</ele>
        <time>2021-05-23T09:00:01Z</time>
      </trkpt>
      <trkpt lat="47.17663" lon="4.91718">
        <ele>488.4</ele>
        <time>2021-05-23T09:00:06Z</time>
      </trkpt>
      <trkpt lat="47.17667" lon="4.91714">
        <ele>490.6</ele>
        <time>2021-05-23T09:00:11Z</time>
      </trkpt>
      <trkpt lat="47.17672" lon="4.91709">
        <ele>489.9</ele>
        <time>2021-05-23T09:00:15Z</time>
      </trkpt>
      <trkpt lat="47.17676" lon="4.91702">
        <ele>489.5</ele>
        <time>2021-05-23T09:00:19Z</time>
      </trkpt>
      <trkpt lat="47.17677" lon="4.91694">
        <ele>486.7</ele>
        <time>2021-05-23T09:00:23Z</time>
      </trkpt>
      <trkpt lat="47.17676" lon="4.91685">
        <ele>487.3</ele>
        <time>2021-05-23T09:00:28Z</time>
      </trkpt>
      <trkpt lat="47.17679" lon="4.91668">
        <ele>485.8</ele>
        <time>2021-05-23T09:00:39Z</time>
      </trkpt>
      <trkpt lat="47.1768" lon="4.91661">
        <ele>486.4</ele>
        <time>2021-05-23T09:00:44Z</time>
      </trkpt>
      <trkpt lat="47.1768" lon="4.91654">
        <ele>485.8</ele>
        <time>2021-05-23T09:00:49Z</time>
      </trkpt>
      <trkpt lat="47.17677" lon="4.91646">
        <ele>485.9</ele>
        <time>2021-05-23T09:00:55Z</time>
      </trkpt>
      <trkpt lat="47.17676" lon="4.91638">
        <ele>487.1</ele>
        <time>2021-05-23T09:01:00Z</time>
      </trkpt>
      <trkpt lat="47.17679" lon="4.91632">
        <ele>485.4</ele>
        <time>2021-05-23T09:01:06Z</time>
      </trkpt>
      <trkpt lat="47.17686" lon="4.91629">
        <ele>484.6</ele>
        <time>2021-05-23T09:01:13Z</time>
      </trkpt>
      <trkpt lat="47.17687" lon="4.91622">
        <ele>484.8</ele>
        <time>2021-05-23T09:01:17Z</time>
      </trkpt>
      <trkpt lat="47.17678" lon="4.91607">
        <ele>485.2</ele>
        <time>2021-05-23T09:01:24Z</time>
      </trkpt>
      <trkpt lat="47.17677" lon="4.91599">
        <ele>485.3</ele>
        <time>2021-05-23T09:01:27Z</time>
      </trkpt>
      <trkpt lat="47.17679" lon="4.91593">
        <ele>486.2</ele>
        <time>2021-05-23T09:01:31Z</time>
      </trkpt>
      <trkpt lat="47.17683" lon="4.91585">
        <ele>486.7</ele>
        <time>2021-05-23T09:01:36Z</time>
      </trkpt>
      <trkpt lat="47.17684" lon="4.91578">
        <ele>489.1</ele>
        <time>2021-05-23T09:01:42Z</time>
      </trkpt>
      <trkpt lat="47.17685" lon="4.9157">
        <ele>490.6</ele>
        <time>2021-05-23T09:01:47Z</time>
      </trkpt>
      <trkpt lat="47.17687" lon="4.91561">
        <ele>492.9</ele>
        <time>2021-05-23T09:01:54Z</time>
      </trkpt>
      <trkpt lat="47.17689" lon="4.91554">
        <ele>493.8</ele>
        <time>2021-05-23T09:01:59Z</time>
      </trkpt>
      <trkpt lat="47.17691" lon="4.91547">
        <ele>495.1</ele>
        <time>2021-05-23T09:02:04Z</time>
      </trkpt>
      <trkpt lat="47.17693" lon="4.9154">
        <ele>493.9</ele>
        <time>2021-05-23T09:02:09Z</time>
      </trkpt>
      <trkpt lat="47.17693" lon="4.91531">
        <ele>493.9</ele>
        <time>2021-05-23T09:02:14Z</time>
      </trkpt>
      <trkpt lat="47.17692" lon="4.91524">
        <ele>497.8</ele>
        <time>2021-05-23T09:02:19Z</time>
      </trkpt>
      <trkpt lat="47.17693" lon="4.91516">
        <ele>496.2</ele>
        <time>2021-05-23T09:02:24Z</time>
      </trkpt>
      <trkpt lat="47.17691" lon="4.9151">
        <ele>497.1</ele>
        <time>2021-05-23T09:02:27Z</time>
      </trkpt>
      <trkpt lat="47.1769" lon="4.91502">
        <ele>495.3</ele>
        <time>2021-05-23T09:02:32Z</time>
      </trkpt>
      <trkpt lat="47.17689" lon="4.91495">
        <ele>494.4</ele>
        <time>2021-05-23T09:02:37Z</time>
      </trkpt>
      <trkpt lat="47.17681" lon="4.9148">
        <ele>495.3</ele>
        <time>2021-05-23T09:02:47Z</time>
      </trkpt>
      <trkpt lat="47.1768" lon="4.91473">
        <ele>494.9</ele>
        <time>2021-05-23T09:02:50Z</time>
      </trkpt>
      <trkpt lat="47.1768" lon="4.91465">
        <ele>495.2</ele>
        <time>2021-05-23T09:02:56Z</time>
      </trkpt>
      <trkpt lat="47.17683" lon="4.91457">
        <ele>495.2</ele>
        <time>2021-05-23T09:03:01Z</time>
      </trkpt>
      <trkpt lat="47.17685" lon="4.91451">
        <ele>497.8</ele>
        <time>2021-05-23T09:03:07Z</time>
      </trkpt>
      <trkpt lat="47.17686" lon="4.91443">
        <ele>498.4</ele>
        <time>2021-05-23T09:03:14Z</time>
      </trkpt>
      <trkpt lat="47.17686" lon="4.91434">
        <ele>499.3</ele>
        <time>2021-05-23T09:03:22Z</time>
      </trkpt>
      <trkpt lat="47.17688" lon="4.91425">
        <ele>500.1</ele>
        <time>2021-05-23T09:03:27Z</time>
      </trkpt>
      <trkpt lat="47.17688" lon="4.91418">
        <ele>498.9</ele>
        <time>2021-05-23T09:03:32Z</time>
      </trkpt>
      <trkpt lat="47.17689" lon="4.91411">
        <ele>497.4</ele>
        <time>2021-05-23T09:03:37Z</time>
      </trkpt>
      <trkpt lat="47.17691" lon="4.91404">
        <ele>498.7</ele>
        <time>2021-05-23T09:03:42Z</time>
      </trkpt>
      <trkpt lat="47.17691" lon="4.91397">
        <ele>499.6</ele>
        <time>2021-05-23T09:03:48Z</time>
      </trkpt>
      <trkpt lat="47.1769" lon="4.91389">
        <ele>500.4</ele>
        <time>2021-05-23T09:03:53Z</time>
      </trkpt>
      <trkpt lat="47.17691" lon="4.91381">
        <ele>498.7</ele>
        <time>2021-05-23T09:03:59Z</time>
      </trkpt>
      <trkpt lat="47.17693" lon="4.91374">
        <ele>501.3</ele>
        <time>2021-05-23T09:04:04Z</time>
      </trkpt>
      <trkpt lat="47.17695" lon="4.91366">
        <ele>500.3</ele>
        <time>2021-05-23T09:04:09Z</time>
      </trkpt>
      <trkpt lat="47.17697" lon="4.91358">
        <ele>500.5</ele>
        <time>2021-05-23T09:04:14Z</time>
      </trkpt>
      <trkpt lat="47.17698" lon="4.9135">
        <ele>500.5</ele>
        <time>2021-05-23T09:04:19Z</time>
      </trkpt>
      <trkpt lat="47.17698" lon="4.91343">
        <ele>501.5</ele>
        <time>2021-05-23T09:04:24Z</time>
      </trkpt>
      <trkpt lat="47.17698" lon="4.91335">
        <ele>498.4</ele>
        <time>2021-05-23T09:04:30Z</time>
      </trkpt>
      <trkpt lat="47.17695" lon="4.91328">
        <ele>499.6</ele>
        <time>2021-05-23T09:04:35Z</time>
      </trkpt>
      <trkpt lat="47.17693" lon="4.9132">
        <ele>499.8</ele>
        <time>2021-05-23T09:04:39Z</time>
      </trkpt>
      <trkpt lat="47.17691" lon="4.91307">
        <ele>503.6</ele>
        <time>2021-05-23T09:04:49Z</time>
      </trkpt>
      <trkpt lat="47.1769" lon="4.91299">
        <ele>503.2</ele>
        <time>2021-05-23T09:04:54Z</time>
      </trkpt>
      <trkpt lat="47.17689" lon="4.91292">
        <ele>504.4</ele>
        <time>2021-05-23T09:04:59Z</time>
      </trkpt>
      <trkpt lat="47.1769" lon="4.91285">
        <ele>504.7</ele>
        <time>2021-05-23T09:05:04Z</time>
      </trkpt>
      <trkpt lat="47.17691" lon="4.91278">
        <ele>504.7</ele>
        <time>2021-05-23T09:05:09Z</time>
      </trkpt>
      <trkpt lat="47.17693" lon="4.91271">
        <ele>503.3</ele>
        <time>2021-05-23T09:05:14Z</time>
      </trkpt>
      <trkpt lat="47.17694" lon="4.9126">
        <ele>503</ele>
        <time>2021-05-23T09:05:23Z</time>
      </trkpt>
      <trkpt lat="47.17695" lon="4.91251">
        <ele>506.5</ele>
        <time>2021-05-23T09:05:28Z</time>
      </trkpt>
      <trkpt lat="47.17696" lon="4.91244">
        <ele>507.7</ele>
        <time>2021-05-23T09:05:32Z</time>
      </trkpt>
      <trkpt lat="47.17697" lon="4.91237">
        <ele>508.9</ele>
        <time>2021-05-23T09:05:35Z</time>
      </trkpt>
      <trkpt lat="47.17698" lon="4.91229">
        <ele>509.3</ele>
        <time>2021-05-23T09:05:41Z</time>
      </trkpt>
      <trkpt lat="47.17698" lon="4.9122">
        <ele>510.5</ele>
        <time>2021-05-23T09:05:48Z</time>
      </trkpt>
      <trkpt lat="47.17698" lon="4.91212">
        <ele>511.9</ele>
        <time>2021-05-23T09:05:53Z</time>
      </trkpt>
      <trkpt lat="47.17697" lon="4.91205">
        <ele>511.6</ele>
        <time>2021-05-23T09:05:59Z</time>
      </trkpt>
      <trkpt lat="47.17691" lon="4.91189">
        <ele>510.6</ele>
        <time>2021-05-23T09:06:10Z</time>
      </trkpt>
      <trkpt lat="47.17691" lon="4.9118">
        <ele>515.3</ele>
        <time>2021-05-23T09:06:15Z</time>
      </trkpt>
      <trkpt lat="47.17692" lon="4.91172">
        <ele>513.2</ele>
        <time>2021-05-23T09:06:20Z</time>
      </trkpt>
      <trkpt lat="47.17694" lon="4.91164">
        <ele>514.4</ele>
        <time>2021-05-23T09:06:25Z</time>
      </trkpt>
      <trkpt lat="47.17697" lon="4.91157">
        <ele>513.5</ele>
        <time>2021-05-23T09:06:30Z</time>
      </trkpt>
      <trkpt lat="47.17699" lon="4.91149">
        <ele>513.9</ele>
        <time>2021-05-23T09:06:37Z</time>
      </trkpt>
      <trkpt lat="47.17696" lon="4.91133">
        <ele>514.1</ele>
        <time>2021-05-23T09:06:47Z</time>
      </trkpt>
      <trkpt lat="47.17697" lon="4.91124">
        <ele>514.1</ele>
        <time>2021-05-23T09:06:52Z</time>
      </trkpt>
      <trkpt lat="47.17698" lon="4.91116">
        <ele>514.6</ele>
        <time>2021-05-23T09:06:57Z</time>
      </trkpt>
      <trkpt lat="47.17698" lon="4.91107">
        <ele>514.3</ele>
        <time>2021-05-23T09:07:02Z</time>
      </trkpt>
      <trkpt lat="47.17699" lon="4.91101">
        <ele>516.9</ele>
        <time>2021-05-23T09:07:07Z</time>
      </trkpt>
      <trkpt lat="47.17701" lon="4.91093">
        <ele>517.2</ele>
        <time>2021-05-23T09:07:12Z</time>
      </trkpt>
      <trkpt lat="47.17703" lon="4.91085">
        <ele>518.3</ele>
        <time>2021-05-23T09:07:17Z</time>
      </trkpt>
      <trkpt lat="47.17704" lon="4.91078">
        <ele>519.6</ele>
        <time>2021-05-23T09:07:22Z</time>
      </trkpt>
      <trkpt lat="47.17705" lon="4.91069">
        <ele>518</ele>
        <time>2021-05-23T09:07:27Z</time>
      </trkpt>
      <trkpt lat="47.17706" lon="4.9106">
        <ele>516.5</ele>
        <time>2021-05-23T09:07:32Z</time>
      </trkpt>
      <trkpt lat="47.17706" lon="4.91053">
        <ele>517.4</ele>
        <time>2021-05-23T09:07:37Z</time>
      </trkpt>
      <trkpt lat="47.17706" lon="4.91045">
        <ele>515.6</ele>
        <time>2021-05-23T09:07:42Z</time>
      </trkpt>
      <trkpt lat="47.17706" lon="4.91038">
        <ele>516.3</ele>
        <time>2021-05-23T09:07:46Z</time>
      </trkpt>
      <trkpt lat="47.17707" lon="4.91029">
        <ele>515.7</ele>
        <time>2021-05-23T09:07:50Z</time>
      </trkpt>
      <trkpt lat="47.17707" lon="4.91023">
        <ele>516.9</ele>
        <time>2021-05-23T09:07:56Z</time>
      </trkpt>
      <trkpt lat="47.17708" lon="4.91015">
        <ele>518.7</ele>
        <time>2021-05-23T09:08:01Z</time>
      </trkpt>
      <trkpt lat="47.1771" lon="4.91008">
        <ele>519.5</ele>
        <time>2021-05-23T09:08:05Z</time>
      </trkpt>
      <trkpt lat="47.17717" lon="4.91">
        <ele>515.8</ele>
        <time>2021-05-23T09:08:13Z</time>
      </trkpt>
      <trkpt lat="47.17718" lon="4.90993">
        <ele>517.1</ele>
        <time>2021-05-23T09:08:17Z</time>
      </trkpt>
      <trkpt lat="47.17714" lon="4.90985">
        <ele>519.6</ele>
        <time>2021-05-23T09:08:20Z</time>
      </trkpt>
      <trkpt lat="47.17711" lon="4.90979">
        <ele>520</ele>
        <time>2021-05-23T09:08:22Z</time>
      </trkpt>
      <trkpt lat="47.17707" lon="4.90974">
        <ele>423.7</ele>
        <time>2021-05-23T09:08:26Z</time>
      </trkpt>
      <trkpt lat="47.17703" lon="4.90971">
        <ele>520</ele>
        <time>2021-05-23T09:08:37Z</time>
      </trkpt>
      <trkpt lat="47.17708" lon="4.90974">
        <ele>530.1</ele>
        <time>2021-05-23T09:08:59Z</time>
      </trkpt>
      <trkpt lat="47.17703" lon="4.90969">
        <ele>523</ele>
        <time>2021-05-23T09:09:21Z</time>
      </trkpt>
      <trkpt lat="47.17698" lon="4.90967">
        <ele>521.8</ele>
        <time>2021-05-23T09:09:24Z</time>
      </trkpt>
      <trkpt lat="47.17693" lon="4.90967">
        <ele>520.2</ele>
        <time>2021-05-23T09:09:28Z</time>
      </trkpt>
      <trkpt lat="47.17686" lon="4.90965">
        <ele>518.8</ele>
        <time>2021-05-23T09:09:32Z</time>
      </trkpt>
      <trkpt lat="47.1768" lon="4.90966">
        <ele>518.3</ele>
        <time>2021-05-23T09:09:36Z</time>
      </trkpt>
      <trkpt lat="47.17673" lon="4.90966">
        <ele>520.1</ele>
        <time>2021-05-23T09:09:41Z</time>
      </trkpt>
      <trkpt lat="47.17667" lon="4.90964">
        <ele>520.7</ele>
        <time>2021-05-23T09:09:45Z</time>
      </trkpt>
      <trkpt lat="47.17662" lon="4.90963">
        <ele>519.6</ele>
        <time>2021-05-23T09:09:50Z</time>
      </trkpt>
      <trkpt lat="47.17656" lon="4.90961">
        <ele>519.5</ele>
        <time>2021-05-23T09:09:54Z</time>
      </trkpt>
      <trkpt lat="47.17651" lon="4.9096">
        <ele>520.1</ele>
        <time>2021-05-23T09:09:58Z</time>
      </trkpt>
      <trkpt lat="47.17645" lon="4.90959">
        <ele>519.1</ele>
        <time>2021-05-23T09:10:03Z</time>
      </trkpt>
      <trkpt lat="47.1764" lon="4.90958">
        <ele>519.3</ele>
        <time>2021-05-23T09:10:08Z</time>
      </trkpt>
      <trkpt lat="47.17634" lon="4.90959">
        <ele>519.8</ele>
        <time>2021-05-23T09:10:13Z</time>
      </trkpt>
      <trkpt lat="47.17629" lon="4.90959">
        <ele>521.3</ele>
        <time>2021-05-23T09:10:19Z</time>
      </trkpt>
      <trkpt lat="47.17624" lon="4.90959">
        <ele>518.3</ele>
        <time>2021-05-23T09:10:23Z</time>
      </trkpt>
      <trkpt lat="47.17619" lon="4.90961">
        <ele>518.6</ele>
        <time>2021-05-23T09:10:28Z</time>
      </trkpt>
      <trkpt lat="47.17615" lon="4.90965">
        <ele>517.9</ele>
        <time>2021-05-23T09:10:33Z</time>
      </trkpt>
      <trkpt lat="47.17604" lon="4.90967">
        <ele>514.4</ele>
        <time>2021-05-23T09:10:43Z</time>
      </trkpt>
      <trkpt lat="47.17597" lon="4.90964">
        <ele>514.9</ele>
        <time>2021-05-23T09:10:47Z</time>
      </trkpt>
      <trkpt lat="47.17589" lon="4.90956">
        <ele>521.4</ele>
        <time>2021-05-23T09:10:51Z</time>
      </trkpt>
      <trkpt lat="47.17584" lon="4.90951">
        <ele>521.9</ele>
        <time>2021-05-23T09:10:56Z</time>
      </trkpt>
      <trkpt lat="47.17579" lon="4.90949">
        <ele>520</ele>
        <time>2021-05-23T09:11:00Z</time>
      </trkpt>
      <trkpt lat="47.17575" lon="4.90946">
        <ele>520.1</ele>
        <time>2021-05-23T09:11:07Z</time>
      </trkpt>
      <trkpt lat="47.17576" lon="4.90939">
        <ele>518.7</ele>
        <time>2021-05-23T09:11:12Z</time>
      </trkpt>
      <trkpt lat="47.17577" lon="4.90931">
        <ele>519.3</ele>
        <time>2021-05-23T09:11:22Z</time>
      </trkpt>
      <trkpt lat="47.17575" lon="4.90925">
        <ele>518.9</ele>
        <time>2021-05-23T09:11:26Z</time>
      </trkpt>
      <trkpt lat="47.1757" lon="4.90926">
        <ele>517.3</ele>
        <time>2021-05-23T09:11:37Z</time>
      </trkpt>
      <trkpt lat="47.17575" lon="4.90922">
        <ele>517.2</ele>
        <time>2021-05-23T09:12:09Z</time>
      </trkpt>
      <trkpt lat="47.17574" lon="4.90916">
        <ele>522.3</ele>
        <time>2021-05-23T09:12:13Z</time>
      </trkpt>
      <trkpt lat="47.1757" lon="4.90912">
        <ele>519.9</ele>
        <time>2021-05-23T09:12:15Z</time>
      </trkpt>
      <trkpt lat="47.17564" lon="4.90909">
        <ele>519.8</ele>
        <time>2021-05-23T09:12:18Z</time>
      </trkpt>
      <trkpt lat="47.1756" lon="4.90908">
        <ele>520.8</ele>
        <time>2021-05-23T09:12:21Z</time>
      </trkpt>
      <trkpt lat="47.17554" lon="4.90907">
        <ele>521.4</ele>
        <time>2021-05-23T09:12:25Z</time>
      </trkpt>
      <trkpt lat="47.17542" lon="4.90898">
        <ele>521.9</ele>
        <time>2021-05-23T09:12:41Z</time>
      </trkpt>
      <trkpt lat="47.17541" lon="4.90905">
        <ele>523.6</ele>
        <time>2021-05-23T09:12:47Z</time>
      </trkpt>
      <trkpt lat="47.17537" lon="4.9091">
        <ele>523</ele>
        <time>2021-05-23T09:12:52Z</time>
      </trkpt>
      <trkpt lat="47.17534" lon="4.90915">
        <ele>522.2</ele>
        <time>2021-05-23T09:12:55Z</time>
      </trkpt>
      <trkpt lat="47.17532" lon="4.90922">
        <ele>519.8</ele>
        <time>2021-05-23T09:12:58Z</time>
      </trkpt>
      <trkpt lat="47.17533" lon="4.90929">
        <ele>517.6</ele>
        <time>2021-05-23T09:13:02Z</time>
      </trkpt>
      <trkpt lat="47.17533" lon="4.90944">
        <ele>518.5</ele>
        <time>2021-05-23T09:13:09Z</time>
      </trkpt>
      <trkpt lat="47.17531" lon="4.9095">
        <ele>518.8</ele>
        <time>2021-05-23T09:13:57Z</time>
      </trkpt>
      <trkpt lat="47.17516" lon="4.90948">
        <ele>520</ele>
        <time>2021-05-23T09:14:11Z</time>
      </trkpt>
      <trkpt lat="47.1751" lon="4.90946">
        <ele>521.9</ele>
        <time>2021-05-23T09:14:15Z</time>
      </trkpt>
      <trkpt lat="47.17504" lon="4.90945">
        <ele>522.1</ele>
        <time>2021-05-23T09:14:21Z</time>
      </trkpt>
      <trkpt lat="47.175" lon="4.90945">
        <ele>522.8</ele>
        <time>2021-05-23T09:14:32Z</time>
      </trkpt>
      <trkpt lat="47.17492" lon="4.90948">
        <ele>522.1</ele>
        <time>2021-05-23T09:14:36Z</time>
      </trkpt>
      <trkpt lat="47.17488" lon="4.90948">
        <ele>522.3</ele>
        <time>2021-05-23T09:14:39Z</time>
      </trkpt>
      <trkpt lat="47.17482" lon="4.90945">
        <ele>515.7</ele>
        <time>2021-05-23T09:14:43Z</time>
      </trkpt>
      <trkpt lat="47.17478" lon="4.90945">
        <ele>518.7</ele>
        <time>2021-05-23T09:14:47Z</time>
      </trkpt>
      <trkpt lat="47.17475" lon="4.90939">
        <ele>517.6</ele>
        <time>2021-05-23T09:14:52Z</time>
      </trkpt>
      <trkpt lat="47.17476" lon="4.90932">
        <ele>518.5</ele>
        <time>2021-05-23T09:14:57Z</time>
      </trkpt>
      <trkpt lat="47.17475" lon="4.90924">
        <ele>517.6</ele>
        <time>2021-05-23T09:15:01Z</time>
      </trkpt>
      <trkpt lat="47.17475" lon="4.90917">
        <ele>517.4</ele>
        <time>2021-05-23T09:15:05Z</time>
      </trkpt>
      <trkpt lat="47.17474" lon="4.90909">
        <ele>517.8</ele>
        <time>2021-05-23T09:15:10Z</time>
      </trkpt>
      <trkpt lat="47.17475" lon="4.90903">
        <ele>516.7</ele>
        <time>2021-05-23T09:15:14Z</time>
      </trkpt>
      <trkpt lat="47.17475" lon="4.90896">
        <ele>518.7</ele>
        <time>2021-05-23T09:15:17Z</time>
      </trkpt>
      <trkpt lat="47.17475" lon="4.90889">
        <ele>516.5</ele>
        <time>2021-05-23T09:15:27Z</time>
      </trkpt>
      <trkpt lat="47.17477" lon="4.90881">
        <ele>516.6</ele>
        <time>2021-05-23T09:15:32Z</time>
      </trkpt>
      <trkpt lat="47.17479" lon="4.90873">
        <ele>514.9</ele>
        <time>2021-05-23T09:15:35Z</time>
      </trkpt>
      <trkpt lat="47.17481" lon="4.90867">
        <ele>515.9</ele>
        <time>2021-05-23T09:15:38Z</time>
      </trkpt>
      <trkpt lat="47.17483" lon="4.9086">
        <ele>516.4</ele>
        <time>2021-05-23T09:15:41Z</time>
      </trkpt>
      <trkpt lat="47.17485" lon="4.90854">
        <ele>519.8</ele>
        <time>2021-05-23T09:15:46Z</time>
      </trkpt>
      <trkpt lat="47.17485" lon="4.90846">
        <ele>522.3</ele>
        <time>2021-05-23T09:15:51Z</time>
      </trkpt>
      <trkpt lat="47.17483" lon="4.90837">
        <ele>520.5</ele>
        <time>2021-05-23T09:15:54Z</time>
      </trkpt>
      <trkpt lat="47.17482" lon="4.9083">
        <ele>519.1</ele>
        <time>2021-05-23T09:15:58Z</time>
      </trkpt>
      <trkpt lat="47.17482" lon="4.90822">
        <ele>519</ele>
        <time>2021-05-23T09:16:03Z</time>
      </trkpt>
      <trkpt lat="47.17484" lon="4.90812">
        <ele>518.3</ele>
        <time>2021-05-23T09:16:07Z</time>
      </trkpt>
      <trkpt lat="47.17481" lon="4.90805">
        <ele>518</ele>
        <time>2021-05-23T09:16:14Z</time>
      </trkpt>
      <trkpt lat="47.17479" lon="4.90796">
        <ele>515.3</ele>
        <time>2021-05-23T09:16:17Z</time>
      </trkpt>
      <trkpt lat="47.17479" lon="4.90789">
        <ele>516.4</ele>
        <time>2021-05-23T09:16:22Z</time>
      </trkpt>
      <trkpt lat="47.17484" lon="4.90787">
        <ele>519.6</ele>
        <time>2021-05-23T09:16:34Z</time>
      </trkpt>
      <trkpt lat="47.17485" lon="4.9078">
        <ele>517.7</ele>
        <time>2021-05-23T09:16:51Z</time>
      </trkpt>
      <trkpt lat="47.17485" lon="4.90771">
        <ele>516.5</ele>
        <time>2021-05-23T09:16:56Z</time>
      </trkpt>
      <trkpt lat="47.17484" lon="4.90762">
        <ele>514.5</ele>
        <time>2021-05-23T09:17:00Z</time>
      </trkpt>
      <trkpt lat="47.17485" lon="4.90756">
        <ele>503</ele>
        <time>2021-05-23T09:17:04Z</time>
      </trkpt>
      <trkpt lat="47.17488" lon="4.9075">
        <ele>514</ele>
        <time>2021-05-23T09:17:10Z</time>
      </trkpt>
      <trkpt lat="47.17491" lon="4.90743">
        <ele>515.5</ele>
        <time>2021-05-23T09:17:14Z</time>
      </trkpt>
      <trkpt lat="47.17492" lon="4.90736">
        <ele>516.1</ele>
        <time>2021-05-23T09:17:16Z</time>
      </trkpt>
      <trkpt lat="47.1749" lon="4.90728">
        <ele>515.4</ele>
        <time>2021-05-23T09:17:18Z</time>
      </trkpt>
      <trkpt lat="47.17488" lon="4.90721">
        <ele>514.9</ele>
        <time>2021-05-23T09:17:22Z</time>
      </trkpt>
      <trkpt lat="47.17487" lon="4.90714">
        <ele>513.7</ele>
        <time>2021-05-23T09:17:26Z</time>
      </trkpt>
      <trkpt lat="47.17487" lon="4.90707">
        <ele>519</ele>
        <time>2021-05-23T09:17:29Z</time>
      </trkpt>
      <trkpt lat="47.17489" lon="4.907">
        <ele>519.7</ele>
        <time>2021-05-23T09:17:36Z</time>
      </trkpt>
      <trkpt lat="47.17489" lon="4.90693">
        <ele>517.1</ele>
        <time>2021-05-23T09:17:39Z</time>
      </trkpt>
      <trkpt lat="47.17489" lon="4.90682">
        <ele>516.9</ele>
        <time>2021-05-23T09:17:43Z</time>
      </trkpt>
      <trkpt lat="47.1749" lon="4.90673">
        <ele>515.1</ele>
        <time>2021-05-23T09:17:49Z</time>
      </trkpt>
      <trkpt lat="47.17491" lon="4.90665">
        <ele>516.5</ele>
        <time>2021-05-23T09:17:54Z</time>
      </trkpt>
      <trkpt lat="47.1749" lon="4.90658">
        <ele>514.7</ele>
        <time>2021-05-23T09:17:58Z</time>
      </trkpt>
      <trkpt lat="47.17489" lon="4.9065">
        <ele>512.5</ele>
        <time>2021-05-23T09:18:03Z</time>
      </trkpt>
      <trkpt lat="47.17489" lon="4.90643">
        <ele>514.1</ele>
        <time>2021-05-23T09:18:07Z</time>
      </trkpt>
      <trkpt lat="47.17491" lon="4.90635">
        <ele>516.1</ele>
        <time>2021-05-23T09:18:12Z</time>
      </trkpt>
      <trkpt lat="47.1749" lon="4.90627">
        <ele>513.2</ele>
        <time>2021-05-23T09:18:16Z</time>
      </trkpt>
      <trkpt lat="47.1749" lon="4.9062">
        <ele>513.3</ele>
        <time>2021-05-23T09:18:20Z</time>
      </trkpt>
      <trkpt lat="47.17491" lon="4.90613">
        <ele>511.6</ele>
        <time>2021-05-23T09:18:25Z</time>
      </trkpt>
      <trkpt lat="47.17492" lon="4.90605">
        <ele>511.6</ele>
        <time>2021-05-23T09:18:29Z</time>
      </trkpt>
      <trkpt lat="47.17492" lon="4.90597">
        <ele>508.9</ele>
        <time>2021-05-23T09:18:34Z</time>
      </trkpt>
      <trkpt lat="47.17494" lon="4.90589">
        <ele>508.4</ele>
        <time>2021-05-23T09:18:40Z</time>
      </trkpt>
      <trkpt lat="47.17492" lon="4.90581">
        <ele>507.1</ele>
        <time>2021-05-23T09:18:45Z</time>
      </trkpt>
      <trkpt lat="47.17494" lon="4.90575">
        <ele>505</ele>
        <time>2021-05-23T09:18:50Z</time>
      </trkpt>
      <trkpt lat="47.17497" lon="4.90567">
        <ele>505.8</ele>
        <time>2021-05-23T09:18:57Z</time>
      </trkpt>
      <trkpt lat="47.17496" lon="4.90559">
        <ele>502.7</ele>
        <time>2021-05-23T09:19:03Z</time>
      </trkpt>
      <trkpt lat="47.17498" lon="4.90551">
        <ele>501.9</ele>
        <time>2021-05-23T09:19:08Z</time>
      </trkpt>
      <trkpt lat="47.17497" lon="4.90544">
        <ele>500.8</ele>
        <time>2021-05-23T09:19:13Z</time>
      </trkpt>
      <trkpt lat="47.17493" lon="4.90541">
        <ele>502.8</ele>
        <time>2021-05-23T09:19:17Z</time>
      </trkpt>
      <trkpt lat="47.17488" lon="4.90539">
        <ele>502.1</ele>
        <time>2021-05-23T09:19:20Z</time>
      </trkpt>
      <trkpt lat="47.17484" lon="4.90536">
        <ele>503.5</ele>
        <time>2021-05-23T09:19:24Z</time>
      </trkpt>
      <trkpt lat="47.17479" lon="4.90534">
        <ele>504.3</ele>
        <time>2021-05-23T09:19:29Z</time>
      </trkpt>
      <trkpt lat="47.17475" lon="4.90531">
        <ele>505.5</ele>
        <time>2021-05-23T09:19:33Z</time>
      </trkpt>
      <trkpt lat="47.1747" lon="4.90529">
        <ele>504.9</ele>
        <time>2021-05-23T09:19:39Z</time>
      </trkpt>
      <trkpt lat="47.17466" lon="4.90528">
        <ele>506.2</ele>
        <time>2021-05-23T09:19:45Z</time>
      </trkpt>
      <trkpt lat="47.17461" lon="4.90525">
        <ele>508</ele>
        <time>2021-05-23T09:19:50Z</time>
      </trkpt>
      <trkpt lat="47.17454" lon="4.90522">
        <ele>505.8</ele>
        <time>2021-05-23T09:19:55Z</time>
      </trkpt>
      <trkpt lat="47.17448" lon="4.9052">
        <ele>510</ele>
        <time>2021-05-23T09:19:58Z</time>
      </trkpt>
      <trkpt lat="47.17444" lon="4.90515">
        <ele>509.8</ele>
        <time>2021-05-23T09:20:01Z</time>
      </trkpt>
      <trkpt lat="47.17438" lon="4.90511">
        <ele>512.6</ele>
        <time>2021-05-23T09:20:07Z</time>
      </trkpt>
      <trkpt lat="47.17433" lon="4.9051">
        <ele>513.6</ele>
        <time>2021-05-23T09:20:13Z</time>
      </trkpt>
      <trkpt lat="47.17428" lon="4.90508">
        <ele>508.4</ele>
        <time>2021-05-23T09:20:19Z</time>
      </trkpt>
      <trkpt lat="47.17423" lon="4.90506">
        <ele>508.5</ele>
        <time>2021-05-23T09:20:23Z</time>
      </trkpt>
      <trkpt lat="47.17418" lon="4.90503">
        <ele>508.4</ele>
        <time>2021-05-23T09:20:29Z</time>
      </trkpt>
      <trkpt lat="47.17413" lon="4.90501">
        <ele>508.2</ele>
        <time>2021-05-23T09:20:32Z</time>
      </trkpt>
      <trkpt lat="47.17409" lon="4.90498">
        <ele>508.3</ele>
        <time>2021-05-23T09:20:40Z</time>
      </trkpt>
      <trkpt lat="47.17403" lon="4.90494">
        <ele>507.2</ele>
        <time>2021-05-23T09:20:48Z</time>
      </trkpt>
      <trkpt lat="47.17397" lon="4.90492">
        <ele>506.8</ele>
        <time>2021-05-23T09:20:52Z</time>
      </trkpt>
      <trkpt lat="47.17392" lon="4.90495">
        <ele>505.6</ele>
        <time>2021-05-23T09:20:55Z</time>
      </trkpt>
      <trkpt lat="47.17387" lon="4.90493">
        <ele>504.1</ele>
        <time>2021-05-23T09:21:01Z</time>
      </trkpt>
      <trkpt lat="47.17382" lon="4.90489">
        <ele>505.3</ele>
        <time>2021-05-23T09:21:05Z</time>
      </trkpt>
      <trkpt lat="47.17378" lon="4.90484">
        <ele>507.3</ele>
        <time>2021-05-23T09:21:09Z</time>
      </trkpt>
      <trkpt lat="47.17375" lon="4.90479">
        <ele>511.8</ele>
        <time>2021-05-23T09:21:17Z</time>
      </trkpt>
      <trkpt lat="47.17371" lon="4.90474">
        <ele>512.7</ele>
        <time>2021-05-23T09:21:20Z</time>
      </trkpt>
      <trkpt lat="47.17366" lon="4.9047">
        <ele>513.4</ele>
        <time>2021-05-23T09:21:22Z</time>
      </trkpt>
      <trkpt lat="47.17362" lon="4.90467">
        <ele>511.3</ele>
        <time>2021-05-23T09:21:27Z</time>
      </trkpt>
      <trkpt lat="47.17356" lon="4.90464">
        <ele>509.9</ele>
        <time>2021-05-23T09:21:33Z</time>
      </trkpt>
      <trkpt lat="47.17351" lon="4.90462">
        <ele>511.5</ele>
        <time>2021-05-23T09:21:37Z</time>
      </trkpt>
      <trkpt lat="47.17347" lon="4.90459">
        <ele>510.6</ele>
        <time>2021-05-23T09:21:40Z</time>
      </trkpt>
      <trkpt lat="47.17342" lon="4.90455">
        <ele>511.1</ele>
        <time>2021-05-23T09:21:44Z</time>
      </trkpt>
      <trkpt lat="47.17329" lon="4.90452">
        <ele>508.7</ele>
        <time>2021-05-23T09:21:54Z</time>
      </trkpt>
      <trkpt lat="47.17325" lon="4.90449">
        <ele>508.2</ele>
        <time>2021-05-23T09:21:58Z</time>
      </trkpt>
      <trkpt lat="47.1732" lon="4.90446">
        <ele>510.3</ele>
        <time>2021-05-23T09:22:02Z</time>
      </trkpt>
      <trkpt lat="47.17316" lon="4.90441">
        <ele>507.2</ele>
        <time>2021-05-23T09:22:06Z</time>
      </trkpt>
      <trkpt lat="47.17311" lon="4.90437">
        <ele>507.5</ele>
        <time>2021-05-23T09:22:10Z</time>
      </trkpt>
      <trkpt lat="47.17308" lon="4.90432">
        <ele>508.1</ele>
        <time>2021-05-23T09:22:13Z</time>
      </trkpt>
      <trkpt lat="47.17303" lon="4.90428">
        <ele>509.4</ele>
        <time>2021-05-23T09:22:20Z</time>
      </trkpt>
      <trkpt lat="47.17288" lon="4.9042">
        <ele>510</ele>
        <time>2021-05-23T09:22:34Z</time>
      </trkpt>
      <trkpt lat="47.17282" lon="4.90417">
        <ele>508.2</ele>
        <time>2021-05-23T09:22:38Z</time>
      </trkpt>
      <trkpt lat="47.17277" lon="4.90413">
        <ele>507.3</ele>
        <time>2021-05-23T09:22:41Z</time>
      </trkpt>
      <trkpt lat="47.17271" lon="4.90405">
        <ele>506.1</ele>
        <time>2021-05-23T09:22:48Z</time>
      </trkpt>
      <trkpt lat="47.17267" lon="4.90403">
        <ele>506.1</ele>
        <time>2021-05-23T09:22:51Z</time>
      </trkpt>
      <trkpt lat="47.17257" lon="4.90396">
        <ele>504.5</ele>
        <time>2021-05-23T09:23:03Z</time>
      </trkpt>
      <trkpt lat="47.17251" lon="4.90394">
        <ele>503.7</ele>
        <time>2021-05-23T09:23:08Z</time>
      </trkpt>
      <trkpt lat="47.17247" lon="4.90392">
        <ele>503.5</ele>
        <time>2021-05-23T09:23:12Z</time>
      </trkpt>
      <trkpt lat="47.17241" lon="4.90388">
        <ele>502.2</ele>
        <time>2021-05-23T09:23:16Z</time>
      </trkpt>
      <trkpt lat="47.17236" lon="4.90384">
        <ele>501.1</ele>
        <time>2021-05-23T09:23:21Z</time>
      </trkpt>
      <trkpt lat="47.17231" lon="4.90381">
        <ele>503.3</ele>
        <time>2021-05-23T09:23:25Z</time>
      </trkpt>
      <trkpt lat="47.17226" lon="4.90376">
        <ele>505.6</ele>
        <time>2021-05-23T09:23:29Z</time>
      </trkpt>
      <trkpt lat="47.17221" lon="4.90374">
        <ele>505.9</ele>
        <time>2021-05-23T09:23:32Z</time>
      </trkpt>
      <trkpt lat="47.17215" lon="4.90371">
        <ele>505.5</ele>
        <time>2021-05-23T09:23:38Z</time>
      </trkpt>
      <trkpt lat="47.17211" lon="4.90368">
        <ele>505.4</ele>
        <time>2021-05-23T09:23:44Z</time>
      </trkpt>
      <trkpt lat="47.17206" lon="4.90366">
        <ele>501</ele>
        <time>2021-05-23T09:23:51Z</time>
      </trkpt>
      <trkpt lat="47.172" lon="4.90365">
        <ele>499.2</ele>
        <time>2021-05-23T09:23:54Z</time>
      </trkpt>
      <trkpt lat="47.17195" lon="4.90364">
        <ele>498</ele>
        <time>2021-05-23T09:23:58Z</time>
      </trkpt>
      <trkpt lat="47.17191" lon="4.90364">
        <ele>498.8</ele>
        <time>2021-05-23T09:24:01Z</time>
      </trkpt>
      <trkpt lat="47.17186" lon="4.90363">
        <ele>499.7</ele>
        <time>2021-05-23T09:24:05Z</time>
      </trkpt>
      <trkpt lat="47.1718" lon="4.90362">
        <ele>498.9</ele>
        <time>2021-05-23T09:24:11Z</time>
      </trkpt>
      <trkpt lat="47.17173" lon="4.90363">
        <ele>497.9</ele>
        <time>2021-05-23T09:24:15Z</time>
      </trkpt>
      <trkpt lat="47.17168" lon="4.90362">
        <ele>499</ele>
        <time>2021-05-23T09:24:18Z</time>
      </trkpt>
      <trkpt lat="47.17162" lon="4.90361">
        <ele>500.1</ele>
        <time>2021-05-23T09:24:23Z</time>
      </trkpt>
      <trkpt lat="47.1716" lon="4.90367">
        <ele>501.8</ele>
        <time>2021-05-23T09:31:29Z</time>
      </trkpt>
      <trkpt lat="47.17161" lon="4.90373">
        <ele>499.3</ele>
        <time>2021-05-23T09:37:09Z</time>
      </trkpt>
      <trkpt lat="47.17165" lon="4.90372">
        <ele>505.4</ele>
        <time>2021-05-23T09:39:45Z</time>
      </trkpt>
      <trkpt lat="47.17161" lon="4.90375">
        <ele>500.6</ele>
        <time>2021-05-23T09:41:46Z</time>
      </trkpt>
      <trkpt lat="47.17156" lon="4.90372">
        <ele>500.7</ele>
        <time>2021-05-23T09:45:58Z</time>
      </trkpt>
      <trkpt lat="47.17151" lon="4.90373">
        <ele>499.9</ele>
        <time>2021-05-23T09:46:01Z</time>
      </trkpt>
      <trkpt lat="47.17146" lon="4.90372">
        <ele>500.7</ele>
        <time>2021-05-23T09:46:05Z</time>
      </trkpt>
      <trkpt lat="47.17142" lon="4.9037">
        <ele>501.4</ele>
        <time>2021-05-23T09:46:08Z</time>
      </trkpt>
      <trkpt lat="47.17137" lon="4.90368">
        <ele>502.1</ele>
        <time>2021-05-23T09:46:11Z</time>
      </trkpt>
      <trkpt lat="47.17132" lon="4.90364">
        <ele>503.5</ele>
        <time>2021-05-23T09:46:15Z</time>
      </trkpt>
      <trkpt lat="47.17127" lon="4.90363">
        <ele>503.1</ele>
        <time>2021-05-23T09:46:21Z</time>
      </trkpt>
      <trkpt lat="47.17121" lon="4.90366">
        <ele>498.6</ele>
        <time>2021-05-23T09:46:27Z</time>
      </trkpt>
      <trkpt lat="47.17115" lon="4.90369">
        <ele>496.4</ele>
        <time>2021-05-23T09:46:32Z</time>
      </trkpt>
      <trkpt lat="47.1711" lon="4.90371">
        <ele>496.2</ele>
        <time>2021-05-23T09:46:36Z</time>
      </trkpt>
      <trkpt lat="47.17104" lon="4.9037">
        <ele>496.3</ele>
        <time>2021-05-23T09:46:42Z</time>
      </trkpt>
      <trkpt lat="47.17099" lon="4.90371">
        <ele>495.6</ele>
        <time>2021-05-23T09:46:46Z</time>
      </trkpt>
      <trkpt lat="47.17093" lon="4.90371">
        <ele>496</ele>
        <time>2021-05-23T09:46:52Z</time>
      </trkpt>
      <trkpt lat="47.17088" lon="4.90372">
        <ele>496.4</ele>
        <time>2021-05-23T09:46:56Z</time>
      </trkpt>
      <trkpt lat="47.17084" lon="4.90372">
        <ele>497.1</ele>
        <time>2021-05-23T09:47:00Z</time>
      </trkpt>
      <trkpt lat="47.17078" lon="4.90374">
        <ele>497.3</ele>
        <time>2021-05-23T09:47:05Z</time>
      </trkpt>
      <trkpt lat="47.17072" lon="4.90375">
        <ele>496.7</ele>
        <time>2021-05-23T09:47:10Z</time>
      </trkpt>
      <trkpt lat="47.17067" lon="4.90376">
        <ele>495.3</ele>
        <time>2021-05-23T09:47:14Z</time>
      </trkpt>
      <trkpt lat="47.17062" lon="4.90378">
        <ele>493.8</ele>
        <time>2021-05-23T09:47:19Z</time>
      </trkpt>
      <trkpt lat="47.17058" lon="4.9038">
        <ele>495.4</ele>
        <time>2021-05-23T09:47:26Z</time>
      </trkpt>
      <trkpt lat="47.1705" lon="4.9038">
        <ele>496.2</ele>
        <time>2021-05-23T09:47:54Z</time>
      </trkpt>
      <trkpt lat="47.17043" lon="4.9038">
        <ele>496.4</ele>
        <time>2021-05-23T09:47:58Z</time>
      </trkpt>
      <trkpt lat="47.17038" lon="4.90384">
        <ele>496</ele>
        <time>2021-05-23T09:48:26Z</time>
      </trkpt>
      <trkpt lat="47.17031" lon="4.90386">
        <ele>492.7</ele>
        <time>2021-05-23T09:48:34Z</time>
      </trkpt>
      <trkpt lat="47.17027" lon="4.90383">
        <ele>494.1</ele>
        <time>2021-05-23T09:48:46Z</time>
      </trkpt>
      <trkpt lat="47.17023" lon="4.90385">
        <ele>494.3</ele>
        <time>2021-05-23T09:48:56Z</time>
      </trkpt>
      <trkpt lat="47.17018" lon="4.90388">
        <ele>494.2</ele>
        <time>2021-05-23T09:49:00Z</time>
      </trkpt>
      <trkpt lat="47.17014" lon="4.9039">
        <ele>493.2</ele>
        <time>2021-05-23T09:49:03Z</time>
      </trkpt>
      <trkpt lat="47.17008" lon="4.90391">
        <ele>494.6</ele>
        <time>2021-05-23T09:49:07Z</time>
      </trkpt>
      <trkpt lat="47.17004" lon="4.90388">
        <ele>496.1</ele>
        <time>2021-05-23T09:49:13Z</time>
      </trkpt>
      <trkpt lat="47.17" lon="4.90391">
        <ele>491.7</ele>
        <time>2021-05-23T09:49:23Z</time>
      </trkpt>
      <trkpt lat="47.16992" lon="4.90395">
        <ele>490.3</ele>
        <time>2021-05-23T09:49:27Z</time>
      </trkpt>
      <trkpt lat="47.16986" lon="4.90398">
        <ele>490.7</ele>
        <time>2021-05-23T09:49:34Z</time>
      </trkpt>
      <trkpt lat="47.16981" lon="4.90396">
        <ele>493.1</ele>
        <time>2021-05-23T09:49:42Z</time>
      </trkpt>
      <trkpt lat="47.16976" lon="4.90399">
        <ele>493</ele>
        <time>2021-05-23T09:49:45Z</time>
      </trkpt>
      <trkpt lat="47.1697" lon="4.90402">
        <ele>491</ele>
        <time>2021-05-23T09:49:49Z</time>
      </trkpt>
      <trkpt lat="47.16965" lon="4.90404">
        <ele>493.1</ele>
        <time>2021-05-23T09:49:53Z</time>
      </trkpt>
      <trkpt lat="47.1696" lon="4.90405">
        <ele>493.6</ele>
        <time>2021-05-23T09:49:57Z</time>
      </trkpt>
      <trkpt lat="47.16954" lon="4.90406">
        <ele>494.4</ele>
        <time>2021-05-23T09:50:02Z</time>
      </trkpt>
      <trkpt lat="47.16949" lon="4.90404">
        <ele>496.5</ele>
        <time>2021-05-23T09:50:06Z</time>
      </trkpt>
      <trkpt lat="47.16943" lon="4.90403">
        <ele>499.2</ele>
        <time>2021-05-23T09:50:12Z</time>
      </trkpt>
      <trkpt lat="47.16937" lon="4.90402">
        <ele>498.4</ele>
        <time>2021-05-23T09:50:17Z</time>
      </trkpt>
      <trkpt lat="47.16932" lon="4.90402">
        <ele>496.2</ele>
        <time>2021-05-23T09:50:22Z</time>
      </trkpt>
      <trkpt lat="47.16928" lon="4.90404">
        <ele>494.7</ele>
        <time>2021-05-23T09:50:25Z</time>
      </trkpt>
      <trkpt lat="47.16923" lon="4.90405">
        <ele>493.5</ele>
        <time>2021-05-23T09:50:30Z</time>
      </trkpt>
      <trkpt lat="47.16919" lon="4.9041">
        <ele>493.2</ele>
        <time>2021-05-23T09:50:35Z</time>
      </trkpt>
      <trkpt lat="47.16916" lon="4.90414">
        <ele>494.7</ele>
        <time>2021-05-23T09:50:42Z</time>
      </trkpt>
      <trkpt lat="47.1691" lon="4.90412">
        <ele>493.6</ele>
        <time>2021-05-23T09:50:51Z</time>
      </trkpt>
      <trkpt lat="47.16905" lon="4.90413">
        <ele>493.2</ele>
        <time>2021-05-23T09:50:56Z</time>
      </trkpt>
      <trkpt lat="47.16898" lon="4.90415">
        <ele>493.3</ele>
        <time>2021-05-23T09:51:00Z</time>
      </trkpt>
      <trkpt lat="47.16893" lon="4.90415">
        <ele>491.9</ele>
        <time>2021-05-23T09:51:03Z</time>
      </trkpt>
      <trkpt lat="47.16887" lon="4.90416">
        <ele>492.4</ele>
        <time>2021-05-23T09:51:06Z</time>
      </trkpt>
      <trkpt lat="47.16883" lon="4.90418">
        <ele>493</ele>
        <time>2021-05-23T09:51:10Z</time>
      </trkpt>
      <trkpt lat="47.16877" lon="4.90421">
        <ele>495.1</ele>
        <time>2021-05-23T09:51:14Z</time>
      </trkpt>
      <trkpt lat="47.16873" lon="4.90422">
        <ele>495.2</ele>
        <time>2021-05-23T09:51:18Z</time>
      </trkpt>
      <trkpt lat="47.16867" lon="4.90422">
        <ele>497</ele>
        <time>2021-05-23T09:51:23Z</time>
      </trkpt>
      <trkpt lat="47.16861" lon="4.90422">
        <ele>495.7</ele>
        <time>2021-05-23T09:51:28Z</time>
      </trkpt>
      <trkpt lat="47.16854" lon="4.90421">
        <ele>495.2</ele>
        <time>2021-05-23T09:51:33Z</time>
      </trkpt>
      <trkpt lat="47.16848" lon="4.90423">
        <ele>495</ele>
        <time>2021-05-23T09:51:37Z</time>
      </trkpt>
      <trkpt lat="47.16843" lon="4.90426">
        <ele>495.5</ele>
        <time>2021-05-23T09:51:41Z</time>
      </trkpt>
      <trkpt lat="47.16839" lon="4.9043">
        <ele>493.5</ele>
        <time>2021-05-23T09:52:10Z</time>
      </trkpt>
      <trkpt lat="47.16834" lon="4.90433">
        <ele>495.4</ele>
        <time>2021-05-23T09:52:17Z</time>
      </trkpt>
      <trkpt lat="47.16829" lon="4.90432">
        <ele>494.5</ele>
        <time>2021-05-23T09:52:21Z</time>
      </trkpt>
      <trkpt lat="47.16825" lon="4.9043">
        <ele>491</ele>
        <time>2021-05-23T09:52:33Z</time>
      </trkpt>
      <trkpt lat="47.16821" lon="4.90431">
        <ele>491.8</ele>
        <time>2021-05-23T09:53:01Z</time>
      </trkpt>
      <trkpt lat="47.16816" lon="4.90432">
        <ele>491.1</ele>
        <time>2021-05-23T09:53:14Z</time>
      </trkpt>
      <trkpt lat="47.16809" lon="4.90434">
        <ele>489.5</ele>
        <time>2021-05-23T09:53:19Z</time>
      </trkpt>
      <trkpt lat="47.16804" lon="4.90435">
        <ele>488.8</ele>
        <time>2021-05-23T09:53:23Z</time>
      </trkpt>
      <trkpt lat="47.16798" lon="4.90435">
        <ele>489</ele>
        <time>2021-05-23T09:53:27Z</time>
      </trkpt>
      <trkpt lat="47.16793" lon="4.90439">
        <ele>486.6</ele>
        <time>2021-05-23T09:53:32Z</time>
      </trkpt>
      <trkpt lat="47.16787" lon="4.90439">
        <ele>487.4</ele>
        <time>2021-05-23T09:53:38Z</time>
      </trkpt>
      <trkpt lat="47.16782" lon="4.9044">
        <ele>488.3</ele>
        <time>2021-05-23T09:53:43Z</time>
      </trkpt>
      <trkpt lat="47.16777" lon="4.90442">
        <ele>488.8</ele>
        <time>2021-05-23T09:53:49Z</time>
      </trkpt>
      <trkpt lat="47.16771" lon="4.90444">
        <ele>489.3</ele>
        <time>2021-05-23T09:53:54Z</time>
      </trkpt>
      <trkpt lat="47.16766" lon="4.90442">
        <ele>490</ele>
        <time>2021-05-23T09:53:59Z</time>
      </trkpt>
      <trkpt lat="47.1676" lon="4.90441">
        <ele>491.5</ele>
        <time>2021-05-23T09:54:04Z</time>
      </trkpt>
      <trkpt lat="47.16754" lon="4.9044">
        <ele>490.3</ele>
        <time>2021-05-23T09:54:11Z</time>
      </trkpt>
      <trkpt lat="47.16749" lon="4.90439">
        <ele>491.4</ele>
        <time>2021-05-23T09:54:15Z</time>
      </trkpt>
      <trkpt lat="47.16744" lon="4.90436">
        <ele>491</ele>
        <time>2021-05-23T09:54:20Z</time>
      </trkpt>
      <trkpt lat="47.16733" lon="4.90431">
        <ele>494</ele>
        <time>2021-05-23T09:54:27Z</time>
      </trkpt>
      <trkpt lat="47.16729" lon="4.90429">
        <ele>492.9</ele>
        <time>2021-05-23T09:54:30Z</time>
      </trkpt>
      <trkpt lat="47.16725" lon="4.90427">
        <ele>490.9</ele>
        <time>2021-05-23T09:54:34Z</time>
      </trkpt>
      <trkpt lat="47.1672" lon="4.90424">
        <ele>493.4</ele>
        <time>2021-05-23T09:54:40Z</time>
      </trkpt>
      <trkpt lat="47.16716" lon="4.9042">
        <ele>491</ele>
        <time>2021-05-23T09:54:46Z</time>
      </trkpt>
      <trkpt lat="47.16712" lon="4.90416">
        <ele>491.7</ele>
        <time>2021-05-23T09:54:52Z</time>
      </trkpt>
      <trkpt lat="47.16707" lon="4.90414">
        <ele>489.8</ele>
        <time>2021-05-23T09:54:57Z</time>
      </trkpt>
      <trkpt lat="47.16702" lon="4.90412">
        <ele>489.3</ele>
        <time>2021-05-23T09:55:01Z</time>
      </trkpt>
      <trkpt lat="47.16697" lon="4.90406">
        <ele>492.2</ele>
        <time>2021-05-23T09:55:06Z</time>
      </trkpt>
      <trkpt lat="47.16693" lon="4.90399">
        <ele>491.8</ele>
        <time>2021-05-23T09:55:11Z</time>
      </trkpt>
      <trkpt lat="47.16691" lon="4.90392">
        <ele>490.6</ele>
        <time>2021-05-23T09:55:15Z</time>
      </trkpt>
      <trkpt lat="47.16688" lon="4.90386">
        <ele>491</ele>
        <time>2021-05-23T09:55:19Z</time>
      </trkpt>
      <trkpt lat="47.16685" lon="4.9038">
        <ele>492.5</ele>
        <time>2021-05-23T09:55:23Z</time>
      </trkpt>
      <trkpt lat="47.16683" lon="4.90374">
        <ele>494</ele>
        <time>2021-05-23T09:55:31Z</time>
      </trkpt>
      <trkpt lat="47.1668" lon="4.90367">
        <ele>492.6</ele>
        <time>2021-05-23T09:55:41Z</time>
      </trkpt>
      <trkpt lat="47.16669" lon="4.90343">
        <ele>491.5</ele>
        <time>2021-05-23T09:55:55Z</time>
      </trkpt>
      <trkpt lat="47.16664" lon="4.90336">
        <ele>492.4</ele>
        <time>2021-05-23T09:55:59Z</time>
      </trkpt>
      <trkpt lat="47.1666" lon="4.90333">
        <ele>491.6</ele>
        <time>2021-05-23T09:56:02Z</time>
      </trkpt>
      <trkpt lat="47.16655" lon="4.90327">
        <ele>491.6</ele>
        <time>2021-05-23T09:56:06Z</time>
      </trkpt>
      <trkpt lat="47.16652" lon="4.90321">
        <ele>491.9</ele>
        <time>2021-05-23T09:56:11Z</time>
      </trkpt>
      <trkpt lat="47.16648" lon="4.90314">
        <ele>490.8</ele>
        <time>2021-05-23T09:56:18Z</time>
      </trkpt>
      <trkpt lat="47.16644" lon="4.90309">
        <ele>492.2</ele>
        <time>2021-05-23T09:56:24Z</time>
      </trkpt>
      <trkpt lat="47.1664" lon="4.90303">
        <ele>492.3</ele>
        <time>2021-05-23T09:56:28Z</time>
      </trkpt>
      <trkpt lat="47.16631" lon="4.9029">
        <ele>488.8</ele>
        <time>2021-05-23T09:56:39Z</time>
      </trkpt>
      <trkpt lat="47.16627" lon="4.90283">
        <ele>489.7</ele>
        <time>2021-05-23T09:56:43Z</time>
      </trkpt>
      <trkpt lat="47.16619" lon="4.90276">
        <ele>486.7</ele>
        <time>2021-05-23T09:56:50Z</time>
      </trkpt>
      <trkpt lat="47.16614" lon="4.90271">
        <ele>484.8</ele>
        <time>2021-05-23T09:56:53Z</time>
      </trkpt>
      <trkpt lat="47.1661" lon="4.90268">
        <ele>484.3</ele>
        <time>2021-05-23T09:56:57Z</time>
      </trkpt>
      <trkpt lat="47.16604" lon="4.90263">
        <ele>487.3</ele>
        <time>2021-05-23T09:57:00Z</time>
      </trkpt>
      <trkpt lat="47.16601" lon="4.90257">
        <ele>485</ele>
        <time>2021-05-23T09:57:06Z</time>
      </trkpt>
      <trkpt lat="47.16596" lon="4.90253">
        <ele>486</ele>
        <time>2021-05-23T09:57:13Z</time>
      </trkpt>
      <trkpt lat="47.16592" lon="4.90246">
        <ele>484.3</ele>
        <time>2021-05-23T09:57:20Z</time>
      </trkpt>
      <trkpt lat="47.16591" lon="4.9024">
        <ele>486.5</ele>
        <time>2021-05-23T09:57:25Z</time>
      </trkpt>
      <trkpt lat="47.16587" lon="4.90244">
        <ele>490.1</ele>
        <time>2021-05-23T09:58:14Z</time>
      </trkpt>
      <trkpt lat="47.16583" lon="4.90239">
        <ele>487.2</ele>
        <time>2021-05-23T09:58:34Z</time>
      </trkpt>
      <trkpt lat="47.1658" lon="4.90234">
        <ele>488.8</ele>
        <time>2021-05-23T09:58:38Z</time>
      </trkpt>
      <trkpt lat="47.16577" lon="4.90239">
        <ele>485.3</ele>
        <time>2021-05-23T09:59:03Z</time>
      </trkpt>
      <trkpt lat="47.16574" lon="4.90231">
        <ele>486.9</ele>
        <time>2021-05-23T09:59:19Z</time>
      </trkpt>
      <trkpt lat="47.16571" lon="4.90225">
        <ele>488.5</ele>
        <time>2021-05-23T09:59:22Z</time>
      </trkpt>
      <trkpt lat="47.16569" lon="4.90219">
        <ele>487.7</ele>
        <time>2021-05-23T09:59:25Z</time>
      </trkpt>
      <trkpt lat="47.16567" lon="4.90213">
        <ele>489</ele>
        <time>2021-05-23T09:59:28Z</time>
      </trkpt>
      <trkpt lat="47.16562" lon="4.90206">
        <ele>488.1</ele>
        <time>2021-05-23T09:59:33Z</time>
      </trkpt>
      <trkpt lat="47.16559" lon="4.90199">
        <ele>487.9</ele>
        <time>2021-05-23T09:59:39Z</time>
      </trkpt>
      <trkpt lat="47.16555" lon="4.90195">
        <ele>484.3</ele>
        <time>2021-05-23T09:59:45Z</time>
      </trkpt>
      <trkpt lat="47.16553" lon="4.90189">
        <ele>487.5</ele>
        <time>2021-05-23T09:59:49Z</time>
      </trkpt>
      <trkpt lat="47.1655" lon="4.90181">
        <ele>487.6</ele>
        <time>2021-05-23T09:59:53Z</time>
      </trkpt>
      <trkpt lat="47.16546" lon="4.90176">
        <ele>486.1</ele>
        <time>2021-05-23T09:59:58Z</time>
      </trkpt>
      <trkpt lat="47.16543" lon="4.90168">
        <ele>484.5</ele>
        <time>2021-05-23T10:00:03Z</time>
      </trkpt>
      <trkpt lat="47.16539" lon="4.90162">
        <ele>482.9</ele>
        <time>2021-05-23T10:00:07Z</time>
      </trkpt>
      <trkpt lat="47.16536" lon="4.90155">
        <ele>480.5</ele>
        <time>2021-05-23T10:00:10Z</time>
      </trkpt>
      <trkpt lat="47.16532" lon="4.90151">
        <ele>480.6</ele>
        <time>2021-05-23T10:00:14Z</time>
      </trkpt>
      <trkpt lat="47.16527" lon="4.90148">
        <ele>480.9</ele>
        <time>2021-05-23T10:00:18Z</time>
      </trkpt>
      <trkpt lat="47.16523" lon="4.90142">
        <ele>482.1</ele>
        <time>2021-05-23T10:00:26Z</time>
      </trkpt>
      <trkpt lat="47.1652" lon="4.90136">
        <ele>485.1</ele>
        <time>2021-05-23T10:00:32Z</time>
      </trkpt>
      <trkpt lat="47.16519" lon="4.90129">
        <ele>488</ele>
        <time>2021-05-23T10:00:37Z</time>
      </trkpt>
      <trkpt lat="47.16515" lon="4.90129">
        <ele>484.3</ele>
        <time>2021-05-23T10:01:09Z</time>
      </trkpt>
      <trkpt lat="47.16511" lon="4.90133">
        <ele>483.7</ele>
        <time>2021-05-23T10:01:24Z</time>
      </trkpt>
      <trkpt lat="47.16508" lon="4.90127">
        <ele>483</ele>
        <time>2021-05-23T10:01:48Z</time>
      </trkpt>
      <trkpt lat="47.16506" lon="4.90118">
        <ele>480.7</ele>
        <time>2021-05-23T10:01:52Z</time>
      </trkpt>
      <trkpt lat="47.16503" lon="4.90112">
        <ele>478.4</ele>
        <time>2021-05-23T10:01:56Z</time>
      </trkpt>
      <trkpt lat="47.16498" lon="4.90108">
        <ele>481.2</ele>
        <time>2021-05-23T10:02:01Z</time>
      </trkpt>
      <trkpt lat="47.16495" lon="4.90102">
        <ele>482.3</ele>
        <time>2021-05-23T10:02:05Z</time>
      </trkpt>
      <trkpt lat="47.16492" lon="4.90095">
        <ele>483.8</ele>
        <time>2021-05-23T10:02:09Z</time>
      </trkpt>
      <trkpt lat="47.1649" lon="4.90086">
        <ele>483.4</ele>
        <time>2021-05-23T10:02:12Z</time>
      </trkpt>
      <trkpt lat="47.16488" lon="4.9008">
        <ele>484.5</ele>
        <time>2021-05-23T10:02:16Z</time>
      </trkpt>
      <trkpt lat="47.16485" lon="4.90073">
        <ele>483.9</ele>
        <time>2021-05-23T10:02:20Z</time>
      </trkpt>
      <trkpt lat="47.16483" lon="4.90066">
        <ele>484.1</ele>
        <time>2021-05-23T10:02:25Z</time>
      </trkpt>
      <trkpt lat="47.16481" lon="4.90059">
        <ele>484.3</ele>
        <time>2021-05-23T10:02:30Z</time>
      </trkpt>
      <trkpt lat="47.16479" lon="4.90052">
        <ele>486</ele>
        <time>2021-05-23T10:02:35Z</time>
      </trkpt>
      <trkpt lat="47.16477" lon="4.90046">
        <ele>485.2</ele>
        <time>2021-05-23T10:02:40Z</time>
      </trkpt>
      <trkpt lat="47.16474" lon="4.90038">
        <ele>483.1</ele>
        <time>2021-05-23T10:02:46Z</time>
      </trkpt>
      <trkpt lat="47.1647" lon="4.90032">
        <ele>480.8</ele>
        <time>2021-05-23T10:02:51Z</time>
      </trkpt>
      <trkpt lat="47.16465" lon="4.90028">
        <ele>482.1</ele>
        <time>2021-05-23T10:02:55Z</time>
      </trkpt>
      <trkpt lat="47.16462" lon="4.90023">
        <ele>482.2</ele>
        <time>2021-05-23T10:02:59Z</time>
      </trkpt>
      <trkpt lat="47.16458" lon="4.90019">
        <ele>481.6</ele>
        <time>2021-05-23T10:03:05Z</time>
      </trkpt>
      <trkpt lat="47.16457" lon="4.90012">
        <ele>483.5</ele>
        <time>2021-05-23T10:03:11Z</time>
      </trkpt>
      <trkpt lat="47.16456" lon="4.90004">
        <ele>482.3</ele>
        <time>2021-05-23T10:03:17Z</time>
      </trkpt>
      <trkpt lat="47.16452" lon="4.89999">
        <ele>480</ele>
        <time>2021-05-23T10:03:21Z</time>
      </trkpt>
      <trkpt lat="47.16448" lon="4.89996">
        <ele>482.2</ele>
        <time>2021-05-23T10:03:25Z</time>
      </trkpt>
      <trkpt lat="47.16444" lon="4.8999">
        <ele>484.8</ele>
        <time>2021-05-23T10:03:30Z</time>
      </trkpt>
      <trkpt lat="47.1644" lon="4.89986">
        <ele>484.3</ele>
        <time>2021-05-23T10:03:35Z</time>
      </trkpt>
      <trkpt lat="47.16435" lon="4.8998">
        <ele>483.1</ele>
        <time>2021-05-23T10:03:41Z</time>
      </trkpt>
      <trkpt lat="47.16431" lon="4.89976">
        <ele>479.7</ele>
        <time>2021-05-23T10:03:45Z</time>
      </trkpt>
      <trkpt lat="47.16427" lon="4.89974">
        <ele>481.2</ele>
        <time>2021-05-23T10:03:49Z</time>
      </trkpt>
      <trkpt lat="47.16421" lon="4.8997">
        <ele>481.8</ele>
        <time>2021-05-23T10:03:55Z</time>
      </trkpt>
      <trkpt lat="47.16417" lon="4.89966">
        <ele>481.9</ele>
        <time>2021-05-23T10:04:03Z</time>
      </trkpt>
      <trkpt lat="47.16412" lon="4.89961">
        <ele>484.1</ele>
        <time>2021-05-23T10:04:09Z</time>
      </trkpt>
      <trkpt lat="47.16407" lon="4.89955">
        <ele>485.1</ele>
        <time>2021-05-23T10:04:13Z</time>
      </trkpt>
      <trkpt lat="47.16403" lon="4.89949">
        <ele>484.4</ele>
        <time>2021-05-23T10:04:19Z</time>
      </trkpt>
      <trkpt lat="47.16399" lon="4.89945">
        <ele>483.5</ele>
        <time>2021-05-23T10:04:24Z</time>
      </trkpt>
      <trkpt lat="47.16393" lon="4.89944">
        <ele>482.4</ele>
        <time>2021-05-23T10:04:39Z</time>
      </trkpt>
      <trkpt lat="47.16388" lon="4.89944">
        <ele>482.6</ele>
        <time>2021-05-23T10:04:44Z</time>
      </trkpt>
      <trkpt lat="47.16382" lon="4.89942">
        <ele>483.7</ele>
        <time>2021-05-23T10:04:49Z</time>
      </trkpt>
      <trkpt lat="47.16376" lon="4.89939">
        <ele>483.6</ele>
        <time>2021-05-23T10:04:52Z</time>
      </trkpt>
      <trkpt lat="47.16371" lon="4.89938">
        <ele>484</ele>
        <time>2021-05-23T10:04:55Z</time>
      </trkpt>
      <trkpt lat="47.16365" lon="4.89935">
        <ele>485.1</ele>
        <time>2021-05-23T10:04:59Z</time>
      </trkpt>
      <trkpt lat="47.1636" lon="4.89932">
        <ele>484.2</ele>
        <time>2021-05-23T10:05:03Z</time>
      </trkpt>
      <trkpt lat="47.16355" lon="4.8993">
        <ele>482.8</ele>
        <time>2021-05-23T10:05:07Z</time>
      </trkpt>
      <trkpt lat="47.1635" lon="4.89926">
        <ele>483</ele>
        <time>2021-05-23T10:05:18Z</time>
      </trkpt>
      <trkpt lat="47.16345" lon="4.89923">
        <ele>483</ele>
        <time>2021-05-23T10:05:22Z</time>
      </trkpt>
      <trkpt lat="47.16338" lon="4.8992">
        <ele>480.9</ele>
        <time>2021-05-23T10:05:31Z</time>
      </trkpt>
      <trkpt lat="47.16333" lon="4.89918">
        <ele>482.6</ele>
        <time>2021-05-23T10:05:34Z</time>
      </trkpt>
      <trkpt lat="47.16328" lon="4.89916">
        <ele>479.6</ele>
        <time>2021-05-23T10:05:40Z</time>
      </trkpt>
      <trkpt lat="47.16322" lon="4.89917">
        <ele>481.2</ele>
        <time>2021-05-23T10:05:45Z</time>
      </trkpt>
      <trkpt lat="47.16315" lon="4.89916">
        <ele>482.4</ele>
        <time>2021-05-23T10:05:50Z</time>
      </trkpt>
      <trkpt lat="47.16311" lon="4.89914">
        <ele>482</ele>
        <time>2021-05-23T10:05:54Z</time>
      </trkpt>
      <trkpt lat="47.16306" lon="4.89909">
        <ele>484.5</ele>
        <time>2021-05-23T10:05:58Z</time>
      </trkpt>
      <trkpt lat="47.16301" lon="4.89904">
        <ele>483</ele>
        <time>2021-05-23T10:06:02Z</time>
      </trkpt>
      <trkpt lat="47.16295" lon="4.89901">
        <ele>481.1</ele>
        <time>2021-05-23T10:06:07Z</time>
      </trkpt>
      <trkpt lat="47.1629" lon="4.89902">
        <ele>483.6</ele>
        <time>2021-05-23T10:06:11Z</time>
      </trkpt>
      <trkpt lat="47.16284" lon="4.89901">
        <ele>484.2</ele>
        <time>2021-05-23T10:06:14Z</time>
      </trkpt>
      <trkpt lat="47.1628" lon="4.89898">
        <ele>486.4</ele>
        <time>2021-05-23T10:06:20Z</time>
      </trkpt>
      <trkpt lat="47.16274" lon="4.89897">
        <ele>483.2</ele>
        <time>2021-05-23T10:06:25Z</time>
      </trkpt>
      <trkpt lat="47.16269" lon="4.89897">
        <ele>483.6</ele>
        <time>2021-05-23T10:06:30Z</time>
      </trkpt>
      <trkpt lat="47.16264" lon="4.89893">
        <ele>484.4</ele>
        <time>2021-05-23T10:06:38Z</time>
      </trkpt>
      <trkpt lat="47.16255" lon="4.89895">
        <ele>482.2</ele>
        <time>2021-05-23T10:06:43Z</time>
      </trkpt>
      <trkpt lat="47.16248" lon="4.89898">
        <ele>482.8</ele>
        <time>2021-05-23T10:06:47Z</time>
      </trkpt>
      <trkpt lat="47.16244" lon="4.89899">
        <ele>483.2</ele>
        <time>2021-05-23T10:06:52Z</time>
      </trkpt>
      <trkpt lat="47.16239" lon="4.899">
        <ele>482.1</ele>
        <time>2021-05-23T10:07:02Z</time>
      </trkpt>
      <trkpt lat="47.16233" lon="4.89895">
        <ele>486</ele>
        <time>2021-05-23T10:07:08Z</time>
      </trkpt>
      <trkpt lat="47.16228" lon="4.89894">
        <ele>488</ele>
        <time>2021-05-23T10:07:11Z</time>
      </trkpt>
      <trkpt lat="47.16223" lon="4.89895">
        <ele>484.9</ele>
        <time>2021-05-23T10:07:14Z</time>
      </trkpt>
      <trkpt lat="47.16217" lon="4.89898">
        <ele>486.2</ele>
        <time>2021-05-23T10:07:17Z</time>
      </trkpt>
      <trkpt lat="47.16212" lon="4.899">
        <ele>486.5</ele>
        <time>2021-05-23T10:07:20Z</time>
      </trkpt>
      <trkpt lat="47.16206" lon="4.899">
        <ele>485.7</ele>
        <time>2021-05-23T10:07:23Z</time>
      </trkpt>
      <trkpt lat="47.16201" lon="4.899">
        <ele>485.5</ele>
        <time>2021-05-23T10:07:26Z</time>
      </trkpt>
      <trkpt lat="47.16194" lon="4.89903">
        <ele>485.4</ele>
        <time>2021-05-23T10:07:31Z</time>
      </trkpt>
      <trkpt lat="47.1619" lon="4.89908">
        <ele>486</ele>
        <time>2021-05-23T10:07:35Z</time>
      </trkpt>
      <trkpt lat="47.16187" lon="4.89917">
        <ele>485.3</ele>
        <time>2021-05-23T10:07:40Z</time>
      </trkpt>
      <trkpt lat="47.16185" lon="4.89925">
        <ele>485.8</ele>
        <time>2021-05-23T10:07:45Z</time>
      </trkpt>
      <trkpt lat="47.16182" lon="4.89931">
        <ele>485.7</ele>
        <time>2021-05-23T10:07:49Z</time>
      </trkpt>
      <trkpt lat="47.1618" lon="4.89938">
        <ele>486.2</ele>
        <time>2021-05-23T10:07:53Z</time>
      </trkpt>
      <trkpt lat="47.16177" lon="4.89943">
        <ele>486.2</ele>
        <time>2021-05-23T10:07:57Z</time>
      </trkpt>
      <trkpt lat="47.16174" lon="4.89951">
        <ele>483.8</ele>
        <time>2021-05-23T10:08:04Z</time>
      </trkpt>
      <trkpt lat="47.16172" lon="4.89959">
        <ele>485.7</ele>
        <time>2021-05-23T10:08:09Z</time>
      </trkpt>
      <trkpt lat="47.1617" lon="4.89966">
        <ele>486.3</ele>
        <time>2021-05-23T10:08:13Z</time>
      </trkpt>
      <trkpt lat="47.16167" lon="4.89974">
        <ele>486.1</ele>
        <time>2021-05-23T10:08:18Z</time>
      </trkpt>
      <trkpt lat="47.16162" lon="4.89986">
        <ele>486.2</ele>
        <time>2021-05-23T10:08:27Z</time>
      </trkpt>
      <trkpt lat="47.1616" lon="4.89993">
        <ele>487</ele>
        <time>2021-05-23T10:08:35Z</time>
      </trkpt>
      <trkpt lat="47.16157" lon="4.90002">
        <ele>491.8</ele>
        <time>2021-05-23T10:08:41Z</time>
      </trkpt>
      <trkpt lat="47.16154" lon="4.90009">
        <ele>490.4</ele>
        <time>2021-05-23T10:08:45Z</time>
      </trkpt>
      <trkpt lat="47.16144" lon="4.90041">
        <ele>488.1</ele>
        <time>2021-05-23T10:09:03Z</time>
      </trkpt>
      <trkpt lat="47.16143" lon="4.90049">
        <ele>489.5</ele>
        <time>2021-05-23T10:09:07Z</time>
      </trkpt>
      <trkpt lat="47.16142" lon="4.90058">
        <ele>489.8</ele>
        <time>2021-05-23T10:09:11Z</time>
      </trkpt>
      <trkpt lat="47.1614" lon="4.90065">
        <ele>492.9</ele>
        <time>2021-05-23T10:09:15Z</time>
      </trkpt>
      <trkpt lat="47.16138" lon="4.90074">
        <ele>493.6</ele>
        <time>2021-05-23T10:09:21Z</time>
      </trkpt>
      <trkpt lat="47.16136" lon="4.90082">
        <ele>494</ele>
        <time>2021-05-23T10:09:26Z</time>
      </trkpt>
      <trkpt lat="47.16133" lon="4.90091">
        <ele>493.4</ele>
        <time>2021-05-23T10:09:33Z</time>
      </trkpt>
      <trkpt lat="47.16136" lon="4.90097">
        <ele>493.1</ele>
        <time>2021-05-23T10:09:42Z</time>
      </trkpt>
      <trkpt lat="47.16137" lon="4.90104">
        <ele>491.2</ele>
        <time>2021-05-23T10:10:13Z</time>
      </trkpt>
      <trkpt lat="47.16134" lon="4.90113">
        <ele>487.2</ele>
        <time>2021-05-23T10:10:24Z</time>
      </trkpt>
      <trkpt lat="47.16134" lon="4.9012">
        <ele>486.9</ele>
        <time>2021-05-23T10:10:33Z</time>
      </trkpt>
      <trkpt lat="47.1613" lon="4.90139">
        <ele>484.9</ele>
        <time>2021-05-23T10:10:38Z</time>
      </trkpt>
      <trkpt lat="47.16128" lon="4.90147">
        <ele>487.4</ele>
        <time>2021-05-23T10:10:41Z</time>
      </trkpt>
      <trkpt lat="47.16129" lon="4.90154">
        <ele>490.2</ele>
        <time>2021-05-23T10:11:05Z</time>
      </trkpt>
      <trkpt lat="47.16128" lon="4.90165">
        <ele>486.9</ele>
        <time>2021-05-23T10:11:12Z</time>
      </trkpt>
      <trkpt lat="47.16127" lon="4.90172">
        <ele>486</ele>
        <time>2021-05-23T10:11:15Z</time>
      </trkpt>
      <trkpt lat="47.16125" lon="4.9018">
        <ele>489.8</ele>
        <time>2021-05-23T10:11:19Z</time>
      </trkpt>
      <trkpt lat="47.1612" lon="4.90203">
        <ele>484.6</ele>
        <time>2021-05-23T10:11:30Z</time>
      </trkpt>
      <trkpt lat="47.1612" lon="4.90211">
        <ele>486.2</ele>
        <time>2021-05-23T10:11:34Z</time>
      </trkpt>
      <trkpt lat="47.1612" lon="4.90219">
        <ele>490.4</ele>
        <time>2021-05-23T10:11:38Z</time>
      </trkpt>
      <trkpt lat="47.16118" lon="4.90226">
        <ele>489.7</ele>
        <time>2021-05-23T10:11:42Z</time>
      </trkpt>
      <trkpt lat="47.16115" lon="4.90233">
        <ele>489.1</ele>
        <time>2021-05-23T10:11:46Z</time>
      </trkpt>
      <trkpt lat="47.16112" lon="4.9024">
        <ele>490.7</ele>
        <time>2021-05-23T10:11:50Z</time>
      </trkpt>
      <trkpt lat="47.16117" lon="4.9025">
        <ele>488.5</ele>
        <time>2021-05-23T10:11:56Z</time>
      </trkpt>
      <trkpt lat="47.16118" lon="4.90257">
        <ele>488.7</ele>
        <time>2021-05-23T10:12:00Z</time>
      </trkpt>
      <trkpt lat="47.16116" lon="4.90267">
        <ele>485</ele>
        <time>2021-05-23T10:12:06Z</time>
      </trkpt>
      <trkpt lat="47.16114" lon="4.90275">
        <ele>482.1</ele>
        <time>2021-05-23T10:12:10Z</time>
      </trkpt>
      <trkpt lat="47.16112" lon="4.90284">
        <ele>480.6</ele>
        <time>2021-05-23T10:12:15Z</time>
      </trkpt>
      <trkpt lat="47.16108" lon="4.90293">
        <ele>484.3</ele>
        <time>2021-05-23T10:12:20Z</time>
      </trkpt>
      <trkpt lat="47.16106" lon="4.903">
        <ele>485.4</ele>
        <time>2021-05-23T10:12:24Z</time>
      </trkpt>
      <trkpt lat="47.16103" lon="4.90307">
        <ele>485.9</ele>
        <time>2021-05-23T10:12:27Z</time>
      </trkpt>
      <trkpt lat="47.16098" lon="4.90325">
        <ele>482.5</ele>
        <time>2021-05-23T10:12:39Z</time>
      </trkpt>
      <trkpt lat="47.16096" lon="4.90332">
        <ele>484.7</ele>
        <time>2021-05-23T10:12:43Z</time>
      </trkpt>
      <trkpt lat="47.16093" lon="4.90338">
        <ele>483.6</ele>
        <time>2021-05-23T10:12:47Z</time>
      </trkpt>
      <trkpt lat="47.1609" lon="4.90343">
        <ele>486.6</ele>
        <time>2021-05-23T10:14:43Z</time>
      </trkpt>
      <trkpt lat="47.16085" lon="4.90347">
        <ele>485.4</ele>
        <time>2021-05-23T10:14:46Z</time>
      </trkpt>
      <trkpt lat="47.16079" lon="4.90349">
        <ele>484.6</ele>
        <time>2021-05-23T10:14:51Z</time>
      </trkpt>
      <trkpt lat="47.16077" lon="4.90342">
        <ele>483.8</ele>
        <time>2021-05-23T10:14:56Z</time>
      </trkpt>
      <trkpt lat="47.16074" lon="4.90346">
        <ele>483.1</ele>
        <time>2021-05-23T10:15:04Z</time>
      </trkpt>
      <trkpt lat="47.16069" lon="4.90347">
        <ele>486.1</ele>
        <time>2021-05-23T10:15:30Z</time>
      </trkpt>
      <trkpt lat="47.16065" lon="4.90348">
        <ele>480.4</ele>
        <time>2021-05-23T10:16:29Z</time>
      </trkpt>
      <trkpt lat="47.1606" lon="4.90346">
        <ele>481.9</ele>
        <time>2021-05-23T10:17:42Z</time>
      </trkpt>
      <trkpt lat="47.16055" lon="4.90349">
        <ele>480.4</ele>
        <time>2021-05-23T10:19:19Z</time>
      </trkpt>
      <trkpt lat="47.1605" lon="4.90352">
        <ele>475.7</ele>
        <time>2021-05-23T10:19:24Z</time>
      </trkpt>
      <trkpt lat="47.16046" lon="4.90352">
        <ele>475.7</ele>
        <time>2021-05-23T10:19:26Z</time>
      </trkpt>
      <trkpt lat="47.1604" lon="4.90353">
        <ele>476.3</ele>
        <time>2021-05-23T10:19:29Z</time>
      </trkpt>
      <trkpt lat="47.16035" lon="4.90355">
        <ele>476.1</ele>
        <time>2021-05-23T10:19:33Z</time>
      </trkpt>
      <trkpt lat="47.16029" lon="4.90358">
        <ele>473.8</ele>
        <time>2021-05-23T10:19:37Z</time>
      </trkpt>
      <trkpt lat="47.16023" lon="4.90362">
        <ele>474.1</ele>
        <time>2021-05-23T10:19:42Z</time>
      </trkpt>
      <trkpt lat="47.16019" lon="4.90366">
        <ele>475.2</ele>
        <time>2021-05-23T10:19:46Z</time>
      </trkpt>
      <trkpt lat="47.16012" lon="4.9037">
        <ele>476.6</ele>
        <time>2021-05-23T10:19:51Z</time>
      </trkpt>
      <trkpt lat="47.16008" lon="4.90373">
        <ele>477.5</ele>
        <time>2021-05-23T10:19:55Z</time>
      </trkpt>
      <trkpt lat="47.16003" lon="4.90375">
        <ele>476.6</ele>
        <time>2021-05-23T10:19:59Z</time>
      </trkpt>
      <trkpt lat="47.16" lon="4.90381">
        <ele>475</ele>
        <time>2021-05-23T10:20:03Z</time>
      </trkpt>
      <trkpt lat="47.15998" lon="4.90387">
        <ele>475.4</ele>
        <time>2021-05-23T10:20:06Z</time>
      </trkpt>
      <trkpt lat="47.15998" lon="4.90452">
        <ele>474.1</ele>
        <time>2021-05-23T10:20:45Z</time>
      </trkpt>
      <trkpt lat="47.15999" lon="4.90459">
        <ele>474.8</ele>
        <time>2021-05-23T10:20:49Z</time>
      </trkpt>
      <trkpt lat="47.16002" lon="4.9048">
        <ele>472.3</ele>
        <time>2021-05-23T10:21:00Z</time>
      </trkpt>
      <trkpt lat="47.16006" lon="4.90485">
        <ele>471.5</ele>
        <time>2021-05-23T10:21:05Z</time>
      </trkpt>
      <trkpt lat="47.16009" lon="4.90492">
        <ele>472.3</ele>
        <time>2021-05-23T10:21:10Z</time>
      </trkpt>
      <trkpt lat="47.16012" lon="4.90499">
        <ele>471.3</ele>
        <time>2021-05-23T10:21:14Z</time>
      </trkpt>
      <trkpt lat="47.16015" lon="4.90508">
        <ele>471.5</ele>
        <time>2021-05-23T10:21:19Z</time>
      </trkpt>
      <trkpt lat="47.16017" lon="4.90515">
        <ele>470.4</ele>
        <time>2021-05-23T10:21:24Z</time>
      </trkpt>
      <trkpt lat="47.16019" lon="4.90523">
        <ele>468.8</ele>
        <time>2021-05-23T10:21:28Z</time>
      </trkpt>
      <trkpt lat="47.16022" lon="4.9053">
        <ele>469.7</ele>
        <time>2021-05-23T10:21:34Z</time>
      </trkpt>
      <trkpt lat="47.16026" lon="4.90535">
        <ele>471.6</ele>
        <time>2021-05-23T10:21:37Z</time>
      </trkpt>
      <trkpt lat="47.16028" lon="4.90541">
        <ele>473</ele>
        <time>2021-05-23T10:21:41Z</time>
      </trkpt>
      <trkpt lat="47.16032" lon="4.90549">
        <ele>471.4</ele>
        <time>2021-05-23T10:21:45Z</time>
      </trkpt>
      <trkpt lat="47.16034" lon="4.90556">
        <ele>469.8</ele>
        <time>2021-05-23T10:21:49Z</time>
      </trkpt>
      <trkpt lat="47.16036" lon="4.90562">
        <ele>468.9</ele>
        <time>2021-05-23T10:21:53Z</time>
      </trkpt>
      <trkpt lat="47.1604" lon="4.90566">
        <ele>467.4</ele>
        <time>2021-05-23T10:21:56Z</time>
      </trkpt>
      <trkpt lat="47.16044" lon="4.90571">
        <ele>470.9</ele>
        <time>2021-05-23T10:22:01Z</time>
      </trkpt>
      <trkpt lat="47.16045" lon="4.90581">
        <ele>473.2</ele>
        <time>2021-05-23T10:22:07Z</time>
      </trkpt>
      <trkpt lat="47.16046" lon="4.90588">
        <ele>471.8</ele>
        <time>2021-05-23T10:22:11Z</time>
      </trkpt>
      <trkpt lat="47.16048" lon="4.90595">
        <ele>471.3</ele>
        <time>2021-05-23T10:22:15Z</time>
      </trkpt>
      <trkpt lat="47.1605" lon="4.90603">
        <ele>473.5</ele>
        <time>2021-05-23T10:22:20Z</time>
      </trkpt>
      <trkpt lat="47.16051" lon="4.90611">
        <ele>471.5</ele>
        <time>2021-05-23T10:22:25Z</time>
      </trkpt>
      <trkpt lat="47.16053" lon="4.90618">
        <ele>469.4</ele>
        <time>2021-05-23T10:22:30Z</time>
      </trkpt>
      <trkpt lat="47.16056" lon="4.90624">
        <ele>469.2</ele>
        <time>2021-05-23T10:22:37Z</time>
      </trkpt>
      <trkpt lat="47.16059" lon="4.90632">
        <ele>467.2</ele>
        <time>2021-05-23T10:22:43Z</time>
      </trkpt>
      <trkpt lat="47.16058" lon="4.90639">
        <ele>466.3</ele>
        <time>2021-05-23T10:22:47Z</time>
      </trkpt>
      <trkpt lat="47.16062" lon="4.90645">
        <ele>465.7</ele>
        <time>2021-05-23T10:22:55Z</time>
      </trkpt>
      <trkpt lat="47.16067" lon="4.90644">
        <ele>463.8</ele>
        <time>2021-05-23T10:23:02Z</time>
      </trkpt>
      <trkpt lat="47.16072" lon="4.90645">
        <ele>458.5</ele>
        <time>2021-05-23T10:23:27Z</time>
      </trkpt>
      <trkpt lat="47.16074" lon="4.90653">
        <ele>457.2</ele>
        <time>2021-05-23T10:23:31Z</time>
      </trkpt>
      <trkpt lat="47.16073" lon="4.9066">
        <ele>456.9</ele>
        <time>2021-05-23T10:23:34Z</time>
      </trkpt>
      <trkpt lat="47.16073" lon="4.90667">
        <ele>457.2</ele>
        <time>2021-05-23T10:23:38Z</time>
      </trkpt>
      <trkpt lat="47.16077" lon="4.90673">
        <ele>454.9</ele>
        <time>2021-05-23T10:23:41Z</time>
      </trkpt>
      <trkpt lat="47.16082" lon="4.90678">
        <ele>454.2</ele>
        <time>2021-05-23T10:23:44Z</time>
      </trkpt>
      <trkpt lat="47.16086" lon="4.90683">
        <ele>452.9</ele>
        <time>2021-05-23T10:23:48Z</time>
      </trkpt>
      <trkpt lat="47.16084" lon="4.90691">
        <ele>452.6</ele>
        <time>2021-05-23T10:23:55Z</time>
      </trkpt>
      <trkpt lat="47.16086" lon="4.90697">
        <ele>455</ele>
        <time>2021-05-23T10:24:02Z</time>
      </trkpt>
      <trkpt lat="47.16088" lon="4.90704">
        <ele>451.6</ele>
        <time>2021-05-23T10:24:08Z</time>
      </trkpt>
      <trkpt lat="47.16091" lon="4.90709">
        <ele>451.3</ele>
        <time>2021-05-23T10:24:15Z</time>
      </trkpt>
      <trkpt lat="47.16092" lon="4.90717">
        <ele>451.8</ele>
        <time>2021-05-23T10:24:21Z</time>
      </trkpt>
      <trkpt lat="47.16091" lon="4.90724">
        <ele>448.5</ele>
        <time>2021-05-23T10:24:26Z</time>
      </trkpt>
      <trkpt lat="47.16087" lon="4.90738">
        <ele>445.5</ele>
        <time>2021-05-23T10:24:33Z</time>
      </trkpt>
      <trkpt lat="47.16085" lon="4.90745">
        <ele>446.6</ele>
        <time>2021-05-23T10:24:36Z</time>
      </trkpt>
      <trkpt lat="47.16084" lon="4.90753">
        <ele>448.3</ele>
        <time>2021-05-23T10:24:40Z</time>
      </trkpt>
      <trkpt lat="47.16081" lon="4.90763">
        <ele>445.3</ele>
        <time>2021-05-23T10:24:45Z</time>
      </trkpt>
      <trkpt lat="47.1608" lon="4.90769">
        <ele>446</ele>
        <time>2021-05-23T10:24:48Z</time>
      </trkpt>
      <trkpt lat="47.16079" lon="4.90776">
        <ele>445.2</ele>
        <time>2021-05-23T10:24:52Z</time>
      </trkpt>
      <trkpt lat="47.16079" lon="4.90785">
        <ele>442.8</ele>
        <time>2021-05-23T10:24:57Z</time>
      </trkpt>
      <trkpt lat="47.16079" lon="4.90795">
        <ele>440.9</ele>
        <time>2021-05-23T10:25:02Z</time>
      </trkpt>
      <trkpt lat="47.16078" lon="4.90804">
        <ele>436.6</ele>
        <time>2021-05-23T10:25:07Z</time>
      </trkpt>
      <trkpt lat="47.16078" lon="4.90811">
        <ele>436.1</ele>
        <time>2021-05-23T10:25:11Z</time>
      </trkpt>
      <trkpt lat="47.16076" lon="4.90821">
        <ele>435.6</ele>
        <time>2021-05-23T10:25:16Z</time>
      </trkpt>
      <trkpt lat="47.16071" lon="4.9083">
        <ele>433.5</ele>
        <time>2021-05-23T10:25:23Z</time>
      </trkpt>
      <trkpt lat="47.1607" lon="4.90838">
        <ele>431.5</ele>
        <time>2021-05-23T10:25:27Z</time>
      </trkpt>
      <trkpt lat="47.1607" lon="4.90846">
        <ele>429.2</ele>
        <time>2021-05-23T10:25:32Z</time>
      </trkpt>
      <trkpt lat="47.1607" lon="4.90853">
        <ele>429</ele>
        <time>2021-05-23T10:25:36Z</time>
      </trkpt>
      <trkpt lat="47.16071" lon="4.90862">
        <ele>434.2</ele>
        <time>2021-05-23T10:25:40Z</time>
      </trkpt>
      <trkpt lat="47.16071" lon="4.90869">
        <ele>432.9</ele>
        <time>2021-05-23T10:25:45Z</time>
      </trkpt>
      <trkpt lat="47.16069" lon="4.90876">
        <ele>434.2</ele>
        <time>2021-05-23T10:25:48Z</time>
      </trkpt>
      <trkpt lat="47.16067" lon="4.90883">
        <ele>431</ele>
        <time>2021-05-23T10:25:52Z</time>
      </trkpt>
      <trkpt lat="47.16066" lon="4.90892">
        <ele>431.2</ele>
        <time>2021-05-23T10:25:56Z</time>
      </trkpt>
      <trkpt lat="47.16065" lon="4.90899">
        <ele>428.8</ele>
        <time>2021-05-23T10:26:00Z</time>
      </trkpt>
      <trkpt lat="47.16062" lon="4.90916">
        <ele>430.2</ele>
        <time>2021-05-23T10:26:11Z</time>
      </trkpt>
      <trkpt lat="47.16061" lon="4.90925">
        <ele>431.4</ele>
        <time>2021-05-23T10:26:15Z</time>
      </trkpt>
      <trkpt lat="47.16061" lon="4.90932">
        <ele>430.4</ele>
        <time>2021-05-23T10:26:18Z</time>
      </trkpt>
      <trkpt lat="47.16063" lon="4.90946">
        <ele>428.4</ele>
        <time>2021-05-23T10:26:25Z</time>
      </trkpt>
      <trkpt lat="47.16064" lon="4.90955">
        <ele>425.5</ele>
        <time>2021-05-23T10:26:29Z</time>
      </trkpt>
      <trkpt lat="47.16065" lon="4.90964">
        <ele>423.3</ele>
        <time>2021-05-23T10:26:33Z</time>
      </trkpt>
      <trkpt lat="47.16067" lon="4.90971">
        <ele>423.9</ele>
        <time>2021-05-23T10:26:36Z</time>
      </trkpt>
      <trkpt lat="47.16069" lon="4.90978">
        <ele>422.6</ele>
        <time>2021-05-23T10:26:40Z</time>
      </trkpt>
      <trkpt lat="47.16064" lon="4.90982">
        <ele>423.8</ele>
        <time>2021-05-23T10:26:47Z</time>
      </trkpt>
      <trkpt lat="47.16061" lon="4.90976">
        <ele>424</ele>
        <time>2021-05-23T10:26:50Z</time>
      </trkpt>
      <trkpt lat="47.16058" lon="4.90968">
        <ele>424.7</ele>
        <time>2021-05-23T10:26:54Z</time>
      </trkpt>
      <trkpt lat="47.1606" lon="4.90961">
        <ele>422.9</ele>
        <time>2021-05-23T10:26:57Z</time>
      </trkpt>
      <trkpt lat="47.16062" lon="4.90955">
        <ele>422.5</ele>
        <time>2021-05-23T10:26:59Z</time>
      </trkpt>
      <trkpt lat="47.16067" lon="4.90949">
        <ele>422.3</ele>
        <time>2021-05-23T10:27:02Z</time>
      </trkpt>
      <trkpt lat="47.16068" lon="4.90942">
        <ele>424.2</ele>
        <time>2021-05-23T10:27:07Z</time>
      </trkpt>
      <trkpt lat="47.16067" lon="4.90935">
        <ele>427.7</ele>
        <time>2021-05-23T10:27:13Z</time>
      </trkpt>
      <trkpt lat="47.16063" lon="4.9093">
        <ele>427.7</ele>
        <time>2021-05-23T10:27:18Z</time>
      </trkpt>
      <trkpt lat="47.16059" lon="4.90935">
        <ele>426.8</ele>
        <time>2021-05-23T10:27:27Z</time>
      </trkpt>
      <trkpt lat="47.16053" lon="4.90935">
        <ele>426.3</ele>
        <time>2021-05-23T10:27:33Z</time>
      </trkpt>
      <trkpt lat="47.16047" lon="4.90934">
        <ele>427.2</ele>
        <time>2021-05-23T10:27:37Z</time>
      </trkpt>
      <trkpt lat="47.1604" lon="4.90931">
        <ele>425.8</ele>
        <time>2021-05-23T10:27:42Z</time>
      </trkpt>
      <trkpt lat="47.16036" lon="4.90929">
        <ele>424.9</ele>
        <time>2021-05-23T10:27:45Z</time>
      </trkpt>
      <trkpt lat="47.1603" lon="4.90928">
        <ele>420.6</ele>
        <time>2021-05-23T10:27:48Z</time>
      </trkpt>
      <trkpt lat="47.16024" lon="4.90928">
        <ele>419.7</ele>
        <time>2021-05-23T10:27:53Z</time>
      </trkpt>
      <trkpt lat="47.16019" lon="4.90929">
        <ele>419.2</ele>
        <time>2021-05-23T10:27:56Z</time>
      </trkpt>
      <trkpt lat="47.16014" lon="4.90929">
        <ele>416.5</ele>
        <time>2021-05-23T10:27:59Z</time>
      </trkpt>
      <trkpt lat="47.16008" lon="4.90932">
        <ele>416.2</ele>
        <time>2021-05-23T10:28:03Z</time>
      </trkpt>
      <trkpt lat="47.15999" lon="4.90945">
        <ele>415</ele>
        <time>2021-05-23T10:28:12Z</time>
      </trkpt>
      <trkpt lat="47.15993" lon="4.90977">
        <ele>408</ele>
        <time>2021-05-23T10:28:25Z</time>
      </trkpt>
      <trkpt lat="47.15991" lon="4.90987">
        <ele>408</ele>
        <time>2021-05-23T10:28:30Z</time>
      </trkpt>
      <trkpt lat="47.15989" lon="4.90993">
        <ele>406.6</ele>
        <time>2021-05-23T10:28:34Z</time>
      </trkpt>
      <trkpt lat="47.15991" lon="4.91">
        <ele>403.8</ele>
        <time>2021-05-23T10:31:12Z</time>
      </trkpt>
      <trkpt lat="47.15988" lon="4.91008">
        <ele>403.9</ele>
        <time>2021-05-23T10:31:17Z</time>
      </trkpt>
      <trkpt lat="47.15986" lon="4.91015">
        <ele>401.8</ele>
        <time>2021-05-23T10:31:19Z</time>
      </trkpt>
      <trkpt lat="47.15985" lon="4.91025">
        <ele>400.6</ele>
        <time>2021-05-23T10:31:24Z</time>
      </trkpt>
      <trkpt lat="47.15985" lon="4.91032">
        <ele>399.3</ele>
        <time>2021-05-23T10:31:27Z</time>
      </trkpt>
      <trkpt lat="47.15985" lon="4.91039">
        <ele>399.7</ele>
        <time>2021-05-23T10:31:30Z</time>
      </trkpt>
      <trkpt lat="47.15984" lon="4.91048">
        <ele>400.7</ele>
        <time>2021-05-23T10:31:34Z</time>
      </trkpt>
      <trkpt lat="47.15984" lon="4.91056">
        <ele>398.2</ele>
        <time>2021-05-23T10:31:38Z</time>
      </trkpt>
      <trkpt lat="47.15983" lon="4.91064">
        <ele>399.1</ele>
        <time>2021-05-23T10:31:42Z</time>
      </trkpt>
      <trkpt lat="47.15982" lon="4.91072">
        <ele>398.3</ele>
        <time>2021-05-23T10:31:46Z</time>
      </trkpt>
      <trkpt lat="47.15976" lon="4.91099">
        <ele>396.6</ele>
        <time>2021-05-23T10:32:01Z</time>
      </trkpt>
      <trkpt lat="47.15975" lon="4.91106">
        <ele>396.9</ele>
        <time>2021-05-23T10:32:05Z</time>
      </trkpt>
      <trkpt lat="47.15975" lon="4.91114">
        <ele>397.1</ele>
        <time>2021-05-23T10:32:11Z</time>
      </trkpt>
      <trkpt lat="47.15976" lon="4.91123">
        <ele>398.6</ele>
        <time>2021-05-23T10:32:17Z</time>
      </trkpt>
      <trkpt lat="47.15979" lon="4.91134">
        <ele>396.3</ele>
        <time>2021-05-23T10:32:26Z</time>
      </trkpt>
      <trkpt lat="47.15981" lon="4.91146">
        <ele>397.9</ele>
        <time>2021-05-23T10:32:33Z</time>
      </trkpt>
      <trkpt lat="47.15983" lon="4.91155">
        <ele>400.6</ele>
        <time>2021-05-23T10:32:38Z</time>
      </trkpt>
      <trkpt lat="47.15981" lon="4.91163">
        <ele>401.8</ele>
        <time>2021-05-23T10:32:42Z</time>
      </trkpt>
      <trkpt lat="47.1598" lon="4.91172">
        <ele>403.2</ele>
        <time>2021-05-23T10:32:47Z</time>
      </trkpt>
      <trkpt lat="47.1598" lon="4.9118">
        <ele>402.4</ele>
        <time>2021-05-23T10:32:51Z</time>
      </trkpt>
      <trkpt lat="47.15981" lon="4.91191">
        <ele>401.6</ele>
        <time>2021-05-23T10:32:56Z</time>
      </trkpt>
      <trkpt lat="47.15981" lon="4.91199">
        <ele>401.5</ele>
        <time>2021-05-23T10:33:00Z</time>
      </trkpt>
      <trkpt lat="47.15981" lon="4.91208">
        <ele>400.8</ele>
        <time>2021-05-23T10:33:05Z</time>
      </trkpt>
      <trkpt lat="47.15981" lon="4.91215">
        <ele>401.9</ele>
        <time>2021-05-23T10:33:09Z</time>
      </trkpt>
      <trkpt lat="47.15982" lon="4.91223">
        <ele>400.3</ele>
        <time>2021-05-23T10:33:14Z</time>
      </trkpt>
      <trkpt lat="47.15983" lon="4.9123">
        <ele>398.2</ele>
        <time>2021-05-23T10:33:18Z</time>
      </trkpt>
      <trkpt lat="47.15985" lon="4.91239">
        <ele>399.4</ele>
        <time>2021-05-23T10:33:23Z</time>
      </trkpt>
      <trkpt lat="47.15986" lon="4.91247">
        <ele>399.2</ele>
        <time>2021-05-23T10:33:27Z</time>
      </trkpt>
      <trkpt lat="47.15986" lon="4.91254">
        <ele>397.3</ele>
        <time>2021-05-23T10:33:31Z</time>
      </trkpt>
      <trkpt lat="47.15987" lon="4.91262">
        <ele>400.5</ele>
        <time>2021-05-23T10:33:35Z</time>
      </trkpt>
      <trkpt lat="47.15988" lon="4.91269">
        <ele>401.7</ele>
        <time>2021-05-23T10:33:39Z</time>
      </trkpt>
      <trkpt lat="47.15989" lon="4.91277">
        <ele>400.6</ele>
        <time>2021-05-23T10:33:43Z</time>
      </trkpt>
      <trkpt lat="47.15989" lon="4.91286">
        <ele>400.9</ele>
        <time>2021-05-23T10:33:48Z</time>
      </trkpt>
      <trkpt lat="47.15989" lon="4.91294">
        <ele>400.4</ele>
        <time>2021-05-23T10:33:53Z</time>
      </trkpt>
      <trkpt lat="47.15994" lon="4.9131">
        <ele>399.7</ele>
        <time>2021-05-23T10:34:05Z</time>
      </trkpt>
      <trkpt lat="47.15997" lon="4.91316">
        <ele>400.9</ele>
        <time>2021-05-23T10:34:09Z</time>
      </trkpt>
      <trkpt lat="47.15998" lon="4.91323">
        <ele>400.7</ele>
        <time>2021-05-23T10:34:13Z</time>
      </trkpt>
      <trkpt lat="47.15999" lon="4.91333">
        <ele>400.2</ele>
        <time>2021-05-23T10:34:18Z</time>
      </trkpt>
      <trkpt lat="47.16002" lon="4.91345">
        <ele>397.2</ele>
        <time>2021-05-23T10:34:25Z</time>
      </trkpt>
      <trkpt lat="47.16004" lon="4.91352">
        <ele>395.2</ele>
        <time>2021-05-23T10:34:29Z</time>
      </trkpt>
      <trkpt lat="47.16006" lon="4.91359">
        <ele>394.2</ele>
        <time>2021-05-23T10:34:33Z</time>
      </trkpt>
      <trkpt lat="47.16007" lon="4.91366">
        <ele>393.7</ele>
        <time>2021-05-23T10:34:37Z</time>
      </trkpt>
      <trkpt lat="47.16008" lon="4.91375">
        <ele>389.8</ele>
        <time>2021-05-23T10:34:42Z</time>
      </trkpt>
      <trkpt lat="47.1601" lon="4.91385">
        <ele>390.1</ele>
        <time>2021-05-23T10:34:47Z</time>
      </trkpt>
      <trkpt lat="47.1601" lon="4.91394">
        <ele>392.4</ele>
        <time>2021-05-23T10:34:50Z</time>
      </trkpt>
      <trkpt lat="47.16012" lon="4.91403">
        <ele>392.2</ele>
        <time>2021-05-23T10:34:55Z</time>
      </trkpt>
      <trkpt lat="47.16007" lon="4.914">
        <ele>388.1</ele>
        <time>2021-05-23T10:35:05Z</time>
      </trkpt>
      <trkpt lat="47.16005" lon="4.91391">
        <ele>388.6</ele>
        <time>2021-05-23T10:35:10Z</time>
      </trkpt>
      <trkpt lat="47.16003" lon="4.91382">
        <ele>386.2</ele>
        <time>2021-05-23T10:35:15Z</time>
      </trkpt>
      <trkpt lat="47.16001" lon="4.91375">
        <ele>386.2</ele>
        <time>2021-05-23T10:35:19Z</time>
      </trkpt>
      <trkpt lat="47.15998" lon="4.91368">
        <ele>386</ele>
        <time>2021-05-23T10:35:24Z</time>
      </trkpt>
      <trkpt lat="47.15995" lon="4.91362">
        <ele>385.8</ele>
        <time>2021-05-23T10:35:29Z</time>
      </trkpt>
      <trkpt lat="47.15991" lon="4.91356">
        <ele>384.9</ele>
        <time>2021-05-23T10:35:34Z</time>
      </trkpt>
      <trkpt lat="47.15987" lon="4.91351">
        <ele>384.6</ele>
        <time>2021-05-23T10:35:40Z</time>
      </trkpt>
      <trkpt lat="47.15985" lon="4.91345">
        <ele>384.5</ele>
        <time>2021-05-23T10:35:45Z</time>
      </trkpt>
      <trkpt lat="47.15983" lon="4.91337">
        <ele>382.1</ele>
        <time>2021-05-23T10:35:50Z</time>
      </trkpt>
      <trkpt lat="47.15981" lon="4.9133">
        <ele>380.3</ele>
        <time>2021-05-23T10:35:55Z</time>
      </trkpt>
      <trkpt lat="47.15978" lon="4.91324">
        <ele>379</ele>
        <time>2021-05-23T10:35:59Z</time>
      </trkpt>
      <trkpt lat="47.15974" lon="4.91317">
        <ele>378.4</ele>
        <time>2021-05-23T10:36:04Z</time>
      </trkpt>
      <trkpt lat="47.15969" lon="4.91312">
        <ele>379.2</ele>
        <time>2021-05-23T10:36:09Z</time>
      </trkpt>
      <trkpt lat="47.15965" lon="4.91307">
        <ele>378.8</ele>
        <time>2021-05-23T10:36:13Z</time>
      </trkpt>
      <trkpt lat="47.1596" lon="4.91305">
        <ele>376.9</ele>
        <time>2021-05-23T10:36:24Z</time>
      </trkpt>
      <trkpt lat="47.15956" lon="4.91302">
        <ele>376.7</ele>
        <time>2021-05-23T10:36:28Z</time>
      </trkpt>
      <trkpt lat="47.15951" lon="4.91296">
        <ele>372</ele>
        <time>2021-05-23T10:36:32Z</time>
      </trkpt>
      <trkpt lat="47.15948" lon="4.91289">
        <ele>370.5</ele>
        <time>2021-05-23T10:36:36Z</time>
      </trkpt>
      <trkpt lat="47.15945" lon="4.91283">
        <ele>367.7</ele>
        <time>2021-05-23T10:36:40Z</time>
      </trkpt>
      <trkpt lat="47.15941" lon="4.91277">
        <ele>367</ele>
        <time>2021-05-23T10:36:44Z</time>
      </trkpt>
      <trkpt lat="47.15936" lon="4.91272">
        <ele>366.4</ele>
        <time>2021-05-23T10:36:48Z</time>
      </trkpt>
      <trkpt lat="47.15931" lon="4.91267">
        <ele>369.5</ele>
        <time>2021-05-23T10:36:52Z</time>
      </trkpt>
      <trkpt lat="47.15926" lon="4.91261">
        <ele>368</ele>
        <time>2021-05-23T10:36:57Z</time>
      </trkpt>
      <trkpt lat="47.15921" lon="4.91256">
        <ele>369.1</ele>
        <time>2021-05-23T10:37:02Z</time>
      </trkpt>
      <trkpt lat="47.15913" lon="4.91247">
        <ele>368.1</ele>
        <time>2021-05-23T10:37:11Z</time>
      </trkpt>
      <trkpt lat="47.15898" lon="4.91233">
        <ele>364.1</ele>
        <time>2021-05-23T10:37:24Z</time>
      </trkpt>
      <trkpt lat="47.15894" lon="4.91229">
        <ele>363.6</ele>
        <time>2021-05-23T10:37:28Z</time>
      </trkpt>
      <trkpt lat="47.15889" lon="4.91228">
        <ele>365.4</ele>
        <time>2021-05-23T10:37:32Z</time>
      </trkpt>
      <trkpt lat="47.15884" lon="4.91233">
        <ele>363</ele>
        <time>2021-05-23T10:37:37Z</time>
      </trkpt>
      <trkpt lat="47.15881" lon="4.91242">
        <ele>363.3</ele>
        <time>2021-05-23T10:37:41Z</time>
      </trkpt>
      <trkpt lat="47.1588" lon="4.91251">
        <ele>362.7</ele>
        <time>2021-05-23T10:37:45Z</time>
      </trkpt>
      <trkpt lat="47.15877" lon="4.91258">
        <ele>362.6</ele>
        <time>2021-05-23T10:37:48Z</time>
      </trkpt>
      <trkpt lat="47.15875" lon="4.91263">
        <ele>363.3</ele>
        <time>2021-05-23T10:37:51Z</time>
      </trkpt>
      <trkpt lat="47.15873" lon="4.91271">
        <ele>363.2</ele>
        <time>2021-05-23T10:37:55Z</time>
      </trkpt>
      <trkpt lat="47.1587" lon="4.9128">
        <ele>363.9</ele>
        <time>2021-05-23T10:38:00Z</time>
      </trkpt>
      <trkpt lat="47.15869" lon="4.91287">
        <ele>363.3</ele>
        <time>2021-05-23T10:38:04Z</time>
      </trkpt>
      <trkpt lat="47.15868" lon="4.91294">
        <ele>362.3</ele>
        <time>2021-05-23T10:38:08Z</time>
      </trkpt>
      <trkpt lat="47.15867" lon="4.91302">
        <ele>362.1</ele>
        <time>2021-05-23T10:38:12Z</time>
      </trkpt>
      <trkpt lat="47.15869" lon="4.91312">
        <ele>360.8</ele>
        <time>2021-05-23T10:38:17Z</time>
      </trkpt>
      <trkpt lat="47.15868" lon="4.9132">
        <ele>359.9</ele>
        <time>2021-05-23T10:38:20Z</time>
      </trkpt>
      <trkpt lat="47.15868" lon="4.91326">
        <ele>360.5</ele>
        <time>2021-05-23T10:38:25Z</time>
      </trkpt>
      <trkpt lat="47.15867" lon="4.91337">
        <ele>359.4</ele>
        <time>2021-05-23T10:38:30Z</time>
      </trkpt>
      <trkpt lat="47.15866" lon="4.91344">
        <ele>358.6</ele>
        <time>2021-05-23T10:38:34Z</time>
      </trkpt>
      <trkpt lat="47.15865" lon="4.91352">
        <ele>357.3</ele>
        <time>2021-05-23T10:38:38Z</time>
      </trkpt>
      <trkpt lat="47.15865" lon="4.9136">
        <ele>359.2</ele>
        <time>2021-05-23T10:38:43Z</time>
      </trkpt>
      <trkpt lat="47.15864" lon="4.9137">
        <ele>360.6</ele>
        <time>2021-05-23T10:38:48Z</time>
      </trkpt>
      <trkpt lat="47.15863" lon="4.91378">
        <ele>358.8</ele>
        <time>2021-05-23T10:38:52Z</time>
      </trkpt>
      <trkpt lat="47.1586" lon="4.91384">
        <ele>358.5</ele>
        <time>2021-05-23T10:38:56Z</time>
      </trkpt>
      <trkpt lat="47.15856" lon="4.91387">
        <ele>357.7</ele>
        <time>2021-05-23T10:39:01Z</time>
      </trkpt>
      <trkpt lat="47.1585" lon="4.91386">
        <ele>357.9</ele>
        <time>2021-05-23T10:39:06Z</time>
      </trkpt>
      <trkpt lat="47.15845" lon="4.91381">
        <ele>358.8</ele>
        <time>2021-05-23T10:39:10Z</time>
      </trkpt>
      <trkpt lat="47.15842" lon="4.91375">
        <ele>359.6</ele>
        <time>2021-05-23T10:39:14Z</time>
      </trkpt>
      <trkpt lat="47.15839" lon="4.91366">
        <ele>360.9</ele>
        <time>2021-05-23T10:39:19Z</time>
      </trkpt>
      <trkpt lat="47.15834" lon="4.91359">
        <ele>360.2</ele>
        <time>2021-05-23T10:39:24Z</time>
      </trkpt>
      <trkpt lat="47.1583" lon="4.91354">
        <ele>358.9</ele>
        <time>2021-05-23T10:39:28Z</time>
      </trkpt>
      <trkpt lat="47.15826" lon="4.9135">
        <ele>357.4</ele>
        <time>2021-05-23T10:39:34Z</time>
      </trkpt>
      <trkpt lat="47.15822" lon="4.91344">
        <ele>359.4</ele>
        <time>2021-05-23T10:39:39Z</time>
      </trkpt>
      <trkpt lat="47.15817" lon="4.91337">
        <ele>360.3</ele>
        <time>2021-05-23T10:39:44Z</time>
      </trkpt>
      <trkpt lat="47.15813" lon="4.91332">
        <ele>361.5</ele>
        <time>2021-05-23T10:39:48Z</time>
      </trkpt>
      <trkpt lat="47.15809" lon="4.91327">
        <ele>361.9</ele>
        <time>2021-05-23T10:39:51Z</time>
      </trkpt>
      <trkpt lat="47.15805" lon="4.91323">
        <ele>363.3</ele>
        <time>2021-05-23T10:39:57Z</time>
      </trkpt>
      <trkpt lat="47.15799" lon="4.91317">
        <ele>365.6</ele>
        <time>2021-05-23T10:40:03Z</time>
      </trkpt>
      <trkpt lat="47.15795" lon="4.91313">
        <ele>368.2</ele>
        <time>2021-05-23T10:40:07Z</time>
      </trkpt>
      <trkpt lat="47.15791" lon="4.91308">
        <ele>369</ele>
        <time>2021-05-23T10:40:12Z</time>
      </trkpt>
      <trkpt lat="47.15787" lon="4.91302">
        <ele>368.4</ele>
        <time>2021-05-23T10:40:18Z</time>
      </trkpt>
      <trkpt lat="47.15783" lon="4.91298">
        <ele>367.6</ele>
        <time>2021-05-23T10:40:24Z</time>
      </trkpt>
      <trkpt lat="47.15779" lon="4.91292">
        <ele>368.7</ele>
        <time>2021-05-23T10:40:30Z</time>
      </trkpt>
      <trkpt lat="47.15776" lon="4.91287">
        <ele>369.3</ele>
        <time>2021-05-23T10:40:35Z</time>
      </trkpt>
      <trkpt lat="47.15773" lon="4.91282">
        <ele>369.9</ele>
        <time>2021-05-23T10:40:40Z</time>
      </trkpt>
      <trkpt lat="47.1577" lon="4.91276">
        <ele>369.8</ele>
        <time>2021-05-23T10:40:46Z</time>
      </trkpt>
      <trkpt lat="47.15766" lon="4.9127">
        <ele>369.4</ele>
        <time>2021-05-23T10:40:51Z</time>
      </trkpt>
      <trkpt lat="47.15762" lon="4.91265">
        <ele>368.6</ele>
        <time>2021-05-23T10:40:56Z</time>
      </trkpt>
      <trkpt lat="47.15759" lon="4.91258">
        <ele>371.4</ele>
        <time>2021-05-23T10:41:02Z</time>
      </trkpt>
      <trkpt lat="47.15757" lon="4.91252">
        <ele>371.5</ele>
        <time>2021-05-23T10:41:07Z</time>
      </trkpt>
      <trkpt lat="47.15751" lon="4.91249">
        <ele>371.2</ele>
        <time>2021-05-23T10:41:13Z</time>
      </trkpt>
      <trkpt lat="47.15748" lon="4.91245">
        <ele>372.3</ele>
        <time>2021-05-23T10:41:17Z</time>
      </trkpt>
      <trkpt lat="47.15745" lon="4.9124">
        <ele>370.5</ele>
        <time>2021-05-23T10:41:22Z</time>
      </trkpt>
      <trkpt lat="47.15741" lon="4.91234">
        <ele>372.1</ele>
        <time>2021-05-23T10:41:28Z</time>
      </trkpt>
      <trkpt lat="47.15736" lon="4.91232">
        <ele>377.3</ele>
        <time>2021-05-23T10:41:38Z</time>
      </trkpt>
      <trkpt lat="47.15731" lon="4.91235">
        <ele>378.7</ele>
        <time>2021-05-23T10:41:45Z</time>
      </trkpt>
      <trkpt lat="47.15727" lon="4.91239">
        <ele>376.9</ele>
        <time>2021-05-23T10:41:50Z</time>
      </trkpt>
      <trkpt lat="47.15723" lon="4.91241">
        <ele>378.1</ele>
        <time>2021-05-23T10:42:10Z</time>
      </trkpt>
      <trkpt lat="47.15717" lon="4.91246">
        <ele>377</ele>
        <time>2021-05-23T10:42:14Z</time>
      </trkpt>
      <trkpt lat="47.15712" lon="4.91252">
        <ele>377.2</ele>
        <time>2021-05-23T10:42:18Z</time>
      </trkpt>
      <trkpt lat="47.15707" lon="4.91258">
        <ele>376.3</ele>
        <time>2021-05-23T10:42:21Z</time>
      </trkpt>
      <trkpt lat="47.15703" lon="4.91263">
        <ele>377.9</ele>
        <time>2021-05-23T10:42:25Z</time>
      </trkpt>
      <trkpt lat="47.15673" lon="4.91312">
        <ele>379.5</ele>
        <time>2021-05-23T10:42:56Z</time>
      </trkpt>
      <trkpt lat="47.15672" lon="4.91318">
        <ele>380.5</ele>
        <time>2021-05-23T10:43:00Z</time>
      </trkpt>
      <trkpt lat="47.15673" lon="4.91325">
        <ele>378.1</ele>
        <time>2021-05-23T10:43:28Z</time>
      </trkpt>
      <trkpt lat="47.15669" lon="4.91329">
        <ele>378.1</ele>
        <time>2021-05-23T10:43:35Z</time>
      </trkpt>
      <trkpt lat="47.15664" lon="4.91333">
        <ele>377.8</ele>
        <time>2021-05-23T10:43:37Z</time>
      </trkpt>
      <trkpt lat="47.1566" lon="4.91338">
        <ele>378.2</ele>
        <time>2021-05-23T10:43:41Z</time>
      </trkpt>
      <trkpt lat="47.15656" lon="4.9134">
        <ele>374.7</ele>
        <time>2021-05-23T10:43:44Z</time>
      </trkpt>
      <trkpt lat="47.15651" lon="4.91341">
        <ele>377.6</ele>
        <time>2021-05-23T10:43:48Z</time>
      </trkpt>
      <trkpt lat="47.15647" lon="4.91344">
        <ele>377</ele>
        <time>2021-05-23T10:43:53Z</time>
      </trkpt>
      <trkpt lat="47.15622" lon="4.91356">
        <ele>374.9</ele>
        <time>2021-05-23T10:44:11Z</time>
      </trkpt>
      <trkpt lat="47.15616" lon="4.91358">
        <ele>375.1</ele>
        <time>2021-05-23T10:44:16Z</time>
      </trkpt>
      <trkpt lat="47.15611" lon="4.91359">
        <ele>371.7</ele>
        <time>2021-05-23T10:44:20Z</time>
      </trkpt>
      <trkpt lat="47.15606" lon="4.91357">
        <ele>372.4</ele>
        <time>2021-05-23T10:44:24Z</time>
      </trkpt>
      <trkpt lat="47.15599" lon="4.91356">
        <ele>371.1</ele>
        <time>2021-05-23T10:44:29Z</time>
      </trkpt>
      <trkpt lat="47.15593" lon="4.91357">
        <ele>367.6</ele>
        <time>2021-05-23T10:44:34Z</time>
      </trkpt>
      <trkpt lat="47.15588" lon="4.91358">
        <ele>366</ele>
        <time>2021-05-23T10:44:38Z</time>
      </trkpt>
      <trkpt lat="47.15582" lon="4.91358">
        <ele>368</ele>
        <time>2021-05-23T10:44:43Z</time>
      </trkpt>
      <trkpt lat="47.15576" lon="4.91356">
        <ele>371.4</ele>
        <time>2021-05-23T10:44:48Z</time>
      </trkpt>
      <trkpt lat="47.15571" lon="4.91354">
        <ele>373.3</ele>
        <time>2021-05-23T10:44:52Z</time>
      </trkpt>
      <trkpt lat="47.15566" lon="4.91353">
        <ele>374.4</ele>
        <time>2021-05-23T10:44:57Z</time>
      </trkpt>
      <trkpt lat="47.15561" lon="4.91353">
        <ele>377.1</ele>
        <time>2021-05-23T10:45:01Z</time>
      </trkpt>
      <trkpt lat="47.15555" lon="4.91354">
        <ele>378.7</ele>
        <time>2021-05-23T10:45:08Z</time>
      </trkpt>
      <trkpt lat="47.15551" lon="4.91353">
        <ele>376.2</ele>
        <time>2021-05-23T10:45:12Z</time>
      </trkpt>
      <trkpt lat="47.15545" lon="4.91353">
        <ele>377.4</ele>
        <time>2021-05-23T10:45:16Z</time>
      </trkpt>
      <trkpt lat="47.15541" lon="4.91352">
        <ele>376.3</ele>
        <time>2021-05-23T10:45:20Z</time>
      </trkpt>
      <trkpt lat="47.15536" lon="4.91351">
        <ele>376</ele>
        <time>2021-05-23T10:45:24Z</time>
      </trkpt>
      <trkpt lat="47.15529" lon="4.91346">
        <ele>375.5</ele>
        <time>2021-05-23T10:45:29Z</time>
      </trkpt>
      <trkpt lat="47.15525" lon="4.91341">
        <ele>374</ele>
        <time>2021-05-23T10:45:33Z</time>
      </trkpt>
      <trkpt lat="47.1552" lon="4.91334">
        <ele>376.5</ele>
        <time>2021-05-23T10:45:38Z</time>
      </trkpt>
      <trkpt lat="47.15516" lon="4.9133">
        <ele>376.5</ele>
        <time>2021-05-23T10:45:42Z</time>
      </trkpt>
      <trkpt lat="47.1551" lon="4.91325">
        <ele>377.1</ele>
        <time>2021-05-23T10:45:49Z</time>
      </trkpt>
      <trkpt lat="47.15499" lon="4.91315">
        <ele>380.7</ele>
        <time>2021-05-23T10:45:59Z</time>
      </trkpt>
      <trkpt lat="47.15495" lon="4.91311">
        <ele>378.6</ele>
        <time>2021-05-23T10:46:03Z</time>
      </trkpt>
      <trkpt lat="47.15479" lon="4.91307">
        <ele>380.5</ele>
        <time>2021-05-23T10:46:15Z</time>
      </trkpt>
      <trkpt lat="47.15473" lon="4.91306">
        <ele>381.9</ele>
        <time>2021-05-23T10:46:19Z</time>
      </trkpt>
      <trkpt lat="47.15469" lon="4.91304">
        <ele>382.8</ele>
        <time>2021-05-23T10:46:23Z</time>
      </trkpt>
      <trkpt lat="47.15463" lon="4.91302">
        <ele>380.7</ele>
        <time>2021-05-23T10:46:27Z</time>
      </trkpt>
      <trkpt lat="47.15455" lon="4.91298">
        <ele>380.4</ele>
        <time>2021-05-23T10:46:35Z</time>
      </trkpt>
      <trkpt lat="47.15435" lon="4.91279">
        <ele>376.3</ele>
        <time>2021-05-23T10:46:53Z</time>
      </trkpt>
      <trkpt lat="47.15431" lon="4.91274">
        <ele>377</ele>
        <time>2021-05-23T10:46:57Z</time>
      </trkpt>
      <trkpt lat="47.15419" lon="4.91264">
        <ele>372.5</ele>
        <time>2021-05-23T10:47:09Z</time>
      </trkpt>
      <trkpt lat="47.15396" lon="4.91248">
        <ele>372.9</ele>
        <time>2021-05-23T10:47:28Z</time>
      </trkpt>
      <trkpt lat="47.15378" lon="4.91242">
        <ele>374.3</ele>
        <time>2021-05-23T10:47:44Z</time>
      </trkpt>
      <trkpt lat="47.15376" lon="4.91249">
        <ele>373.5</ele>
        <time>2021-05-23T10:47:47Z</time>
      </trkpt>
      <trkpt lat="47.15376" lon="4.91258">
        <ele>370</ele>
        <time>2021-05-23T10:47:51Z</time>
      </trkpt>
      <trkpt lat="47.15374" lon="4.91265">
        <ele>370.3</ele>
        <time>2021-05-23T10:47:55Z</time>
      </trkpt>
      <trkpt lat="47.15372" lon="4.91274">
        <ele>367.5</ele>
        <time>2021-05-23T10:48:00Z</time>
      </trkpt>
      <trkpt lat="47.15372" lon="4.91282">
        <ele>366</ele>
        <time>2021-05-23T10:48:05Z</time>
      </trkpt>
      <trkpt lat="47.15371" lon="4.91289">
        <ele>364.1</ele>
        <time>2021-05-23T10:48:09Z</time>
      </trkpt>
      <trkpt lat="47.1537" lon="4.91298">
        <ele>364.6</ele>
        <time>2021-05-23T10:48:14Z</time>
      </trkpt>
      <trkpt lat="47.15369" lon="4.91306">
        <ele>365.2</ele>
        <time>2021-05-23T10:48:19Z</time>
      </trkpt>
      <trkpt lat="47.15366" lon="4.91313">
        <ele>364.3</ele>
        <time>2021-05-23T10:48:23Z</time>
      </trkpt>
      <trkpt lat="47.15363" lon="4.91321">
        <ele>361.9</ele>
        <time>2021-05-23T10:48:27Z</time>
      </trkpt>
      <trkpt lat="47.1536" lon="4.91329">
        <ele>359.9</ele>
        <time>2021-05-23T10:48:31Z</time>
      </trkpt>
      <trkpt lat="47.15358" lon="4.91335">
        <ele>359.5</ele>
        <time>2021-05-23T10:48:34Z</time>
      </trkpt>
      <trkpt lat="47.15357" lon="4.91344">
        <ele>359.2</ele>
        <time>2021-05-23T10:48:39Z</time>
      </trkpt>
      <trkpt lat="47.15355" lon="4.91351">
        <ele>359.4</ele>
        <time>2021-05-23T10:48:43Z</time>
      </trkpt>
      <trkpt lat="47.15352" lon="4.91358">
        <ele>359.2</ele>
        <time>2021-05-23T10:48:49Z</time>
      </trkpt>
      <trkpt lat="47.15351" lon="4.91365">
        <ele>356.6</ele>
        <time>2021-05-23T10:48:54Z</time>
      </trkpt>
      <trkpt lat="47.15349" lon="4.91372">
        <ele>354.2</ele>
        <time>2021-05-23T10:48:59Z</time>
      </trkpt>
      <trkpt lat="47.15348" lon="4.91379">
        <ele>354.2</ele>
        <time>2021-05-23T10:49:03Z</time>
      </trkpt>
      <trkpt lat="47.15346" lon="4.91386">
        <ele>354.4</ele>
        <time>2021-05-23T10:49:07Z</time>
      </trkpt>
      <trkpt lat="47.15343" lon="4.91394">
        <ele>354.1</ele>
        <time>2021-05-23T10:49:11Z</time>
      </trkpt>
      <trkpt lat="47.15341" lon="4.91404">
        <ele>353.4</ele>
        <time>2021-05-23T10:49:16Z</time>
      </trkpt>
      <trkpt lat="47.15338" lon="4.91411">
        <ele>352.5</ele>
        <time>2021-05-23T10:49:20Z</time>
      </trkpt>
      <trkpt lat="47.15337" lon="4.91419">
        <ele>352.2</ele>
        <time>2021-05-23T10:49:24Z</time>
      </trkpt>
      <trkpt lat="47.15336" lon="4.91429">
        <ele>349.8</ele>
        <time>2021-05-23T10:49:29Z</time>
      </trkpt>
      <trkpt lat="47.15335" lon="4.91439">
        <ele>348.8</ele>
        <time>2021-05-23T10:49:34Z</time>
      </trkpt>
      <trkpt lat="47.15334" lon="4.91445">
        <ele>349.4</ele>
        <time>2021-05-23T10:49:37Z</time>
      </trkpt>
      <trkpt lat="47.15333" lon="4.91455">
        <ele>349.2</ele>
        <time>2021-05-23T10:49:43Z</time>
      </trkpt>
      <trkpt lat="47.15331" lon="4.91463">
        <ele>347.2</ele>
        <time>2021-05-23T10:49:47Z</time>
      </trkpt>
      <trkpt lat="47.15328" lon="4.91472">
        <ele>346.9</ele>
        <time>2021-05-23T10:49:52Z</time>
      </trkpt>
      <trkpt lat="47.15325" lon="4.91479">
        <ele>347.1</ele>
        <time>2021-05-23T10:49:57Z</time>
      </trkpt>
      <trkpt lat="47.15323" lon="4.91485">
        <ele>347.1</ele>
        <time>2021-05-23T10:50:01Z</time>
      </trkpt>
      <trkpt lat="47.15321" lon="4.91495">
        <ele>346.7</ele>
        <time>2021-05-23T10:50:06Z</time>
      </trkpt>
      <trkpt lat="47.15318" lon="4.91505">
        <ele>346.5</ele>
        <time>2021-05-23T10:50:11Z</time>
      </trkpt>
      <trkpt lat="47.15316" lon="4.91512">
        <ele>346.4</ele>
        <time>2021-05-23T10:50:16Z</time>
      </trkpt>
      <trkpt lat="47.15315" lon="4.91521">
        <ele>347.1</ele>
        <time>2021-05-23T10:50:21Z</time>
      </trkpt>
      <trkpt lat="47.15313" lon="4.91528">
        <ele>345.7</ele>
        <time>2021-05-23T10:50:24Z</time>
      </trkpt>
      <trkpt lat="47.15311" lon="4.91534">
        <ele>347.2</ele>
        <time>2021-05-23T10:50:28Z</time>
      </trkpt>
      <trkpt lat="47.15308" lon="4.91542">
        <ele>348.2</ele>
        <time>2021-05-23T10:50:32Z</time>
      </trkpt>
      <trkpt lat="47.15305" lon="4.91549">
        <ele>347.8</ele>
        <time>2021-05-23T10:50:36Z</time>
      </trkpt>
      <trkpt lat="47.15301" lon="4.91556">
        <ele>348.6</ele>
        <time>2021-05-23T10:50:42Z</time>
      </trkpt>
      <trkpt lat="47.15299" lon="4.91563">
        <ele>347.6</ele>
        <time>2021-05-23T10:50:46Z</time>
      </trkpt>
      <trkpt lat="47.153" lon="4.91571">
        <ele>346.3</ele>
        <time>2021-05-23T10:50:50Z</time>
      </trkpt>
      <trkpt lat="47.15298" lon="4.91579">
        <ele>344.5</ele>
        <time>2021-05-23T10:50:55Z</time>
      </trkpt>
      <trkpt lat="47.15297" lon="4.91587">
        <ele>345.1</ele>
        <time>2021-05-23T10:51:00Z</time>
      </trkpt>
      <trkpt lat="47.15295" lon="4.91594">
        <ele>344.5</ele>
        <time>2021-05-23T10:51:04Z</time>
      </trkpt>
      <trkpt lat="47.15293" lon="4.916">
        <ele>343.8</ele>
        <time>2021-05-23T10:51:08Z</time>
      </trkpt>
      <trkpt lat="47.15291" lon="4.9161">
        <ele>344.8</ele>
        <time>2021-05-23T10:51:13Z</time>
      </trkpt>
      <trkpt lat="47.15288" lon="4.91618">
        <ele>344.1</ele>
        <time>2021-05-23T10:51:18Z</time>
      </trkpt>
      <trkpt lat="47.15285" lon="4.91627">
        <ele>344.3</ele>
        <time>2021-05-23T10:51:23Z</time>
      </trkpt>
      <trkpt lat="47.15283" lon="4.91633">
        <ele>343.7</ele>
        <time>2021-05-23T10:51:26Z</time>
      </trkpt>
      <trkpt lat="47.15281" lon="4.91641">
        <ele>343.9</ele>
        <time>2021-05-23T10:51:31Z</time>
      </trkpt>
      <trkpt lat="47.15279" lon="4.91651">
        <ele>343.8</ele>
        <time>2021-05-23T10:51:36Z</time>
      </trkpt>
      <trkpt lat="47.1527" lon="4.91667">
        <ele>341.8</ele>
        <time>2021-05-23T10:51:47Z</time>
      </trkpt>
      <trkpt lat="47.15255" lon="4.91658">
        <ele>339.1</ele>
        <time>2021-05-23T10:51:58Z</time>
      </trkpt>
      <trkpt lat="47.15249" lon="4.91654">
        <ele>340.9</ele>
        <time>2021-05-23T10:52:03Z</time>
      </trkpt>
      <trkpt lat="47.15241" lon="4.91664">
        <ele>342.1</ele>
        <time>2021-05-23T10:52:15Z</time>
      </trkpt>
      <trkpt lat="47.1524" lon="4.91672">
        <ele>346.5</ele>
        <time>2021-05-23T10:52:21Z</time>
      </trkpt>
      <trkpt lat="47.1524" lon="4.9168">
        <ele>348.2</ele>
        <time>2021-05-23T10:52:25Z</time>
      </trkpt>
      <trkpt lat="47.15239" lon="4.9169">
        <ele>347.9</ele>
        <time>2021-05-23T10:52:30Z</time>
      </trkpt>
      <trkpt lat="47.15236" lon="4.91709">
        <ele>344.4</ele>
        <time>2021-05-23T10:52:41Z</time>
      </trkpt>
      <trkpt lat="47.15233" lon="4.91718">
        <ele>347.1</ele>
        <time>2021-05-23T10:52:47Z</time>
      </trkpt>
      <trkpt lat="47.15232" lon="4.91725">
        <ele>347.9</ele>
        <time>2021-05-23T10:52:51Z</time>
      </trkpt>
      <trkpt lat="47.1523" lon="4.91736">
        <ele>350.1</ele>
        <time>2021-05-23T10:52:57Z</time>
      </trkpt>
      <trkpt lat="47.15227" lon="4.9175">
        <ele>351.5</ele>
        <time>2021-05-23T10:53:04Z</time>
      </trkpt>
      <trkpt lat="47.15225" lon="4.91757">
        <ele>348</ele>
        <time>2021-05-23T10:53:08Z</time>
      </trkpt>
      <trkpt lat="47.15224" lon="4.91763">
        <ele>348.2</ele>
        <time>2021-05-23T10:53:12Z</time>
      </trkpt>
      <trkpt lat="47.15221" lon="4.91769">
        <ele>350.8</ele>
        <time>2021-05-23T10:53:17Z</time>
      </trkpt>
      <trkpt lat="47.15213" lon="4.91785">
        <ele>350.7</ele>
        <time>2021-05-23T10:53:26Z</time>
      </trkpt>
      <trkpt lat="47.15211" lon="4.91791">
        <ele>351.4</ele>
        <time>2021-05-23T10:53:30Z</time>
      </trkpt>
      <trkpt lat="47.15207" lon="4.91795">
        <ele>351.1</ele>
        <time>2021-05-23T10:53:33Z</time>
      </trkpt>
      <trkpt lat="47.15203" lon="4.91799">
        <ele>352.1</ele>
        <time>2021-05-23T10:53:37Z</time>
      </trkpt>
      <trkpt lat="47.15198" lon="4.91802">
        <ele>349.1</ele>
        <time>2021-05-23T10:53:42Z</time>
      </trkpt>
      <trkpt lat="47.15197" lon="4.9181">
        <ele>349.2</ele>
        <time>2021-05-23T10:53:47Z</time>
      </trkpt>
      <trkpt lat="47.15199" lon="4.91817">
        <ele>348.3</ele>
        <time>2021-05-23T10:53:51Z</time>
      </trkpt>
      <trkpt lat="47.15202" lon="4.91823">
        <ele>348.5</ele>
        <time>2021-05-23T10:53:55Z</time>
      </trkpt>
      <trkpt lat="47.15205" lon="4.91832">
        <ele>349.4</ele>
        <time>2021-05-23T10:54:00Z</time>
      </trkpt>
      <trkpt lat="47.15205" lon="4.9184">
        <ele>348.1</ele>
        <time>2021-05-23T10:54:03Z</time>
      </trkpt>
      <trkpt lat="47.15208" lon="4.91846">
        <ele>346.2</ele>
        <time>2021-05-23T10:54:08Z</time>
      </trkpt>
      <trkpt lat="47.15211" lon="4.91852">
        <ele>347.4</ele>
        <time>2021-05-23T10:54:13Z</time>
      </trkpt>
      <trkpt lat="47.15213" lon="4.91858">
        <ele>349.8</ele>
        <time>2021-05-23T10:54:20Z</time>
      </trkpt>
      <trkpt lat="47.15214" lon="4.91865">
        <ele>346.4</ele>
        <time>2021-05-23T10:54:25Z</time>
      </trkpt>
      <trkpt lat="47.15216" lon="4.91873">
        <ele>345.8</ele>
        <time>2021-05-23T10:54:30Z</time>
      </trkpt>
      <trkpt lat="47.15219" lon="4.91879">
        <ele>343.6</ele>
        <time>2021-05-23T10:54:36Z</time>
      </trkpt>
      <trkpt lat="47.15221" lon="4.91885">
        <ele>342.1</ele>
        <time>2021-05-23T10:54:42Z</time>
      </trkpt>
      <trkpt lat="47.15226" lon="4.91893">
        <ele>341.1</ele>
        <time>2021-05-23T10:54:47Z</time>
      </trkpt>
      <trkpt lat="47.1523" lon="4.91896">
        <ele>340.3</ele>
        <time>2021-05-23T10:54:51Z</time>
      </trkpt>
      <trkpt lat="47.15234" lon="4.919">
        <ele>340.2</ele>
        <time>2021-05-23T10:55:01Z</time>
      </trkpt>
      <trkpt lat="47.15237" lon="4.91905">
        <ele>339</ele>
        <time>2021-05-23T10:55:06Z</time>
      </trkpt>
      <trkpt lat="47.15239" lon="4.91912">
        <ele>334.5</ele>
        <time>2021-05-23T10:55:17Z</time>
      </trkpt>
      <trkpt lat="47.15243" lon="4.91915">
        <ele>334.1</ele>
        <time>2021-05-23T10:55:23Z</time>
      </trkpt>
      <trkpt lat="47.15247" lon="4.91917">
        <ele>333.2</ele>
        <time>2021-05-23T10:55:28Z</time>
      </trkpt>
      <trkpt lat="47.15251" lon="4.91922">
        <ele>332.2</ele>
        <time>2021-05-23T10:55:33Z</time>
      </trkpt>
      <trkpt lat="47.15256" lon="4.91924">
        <ele>331.1</ele>
        <time>2021-05-23T10:55:40Z</time>
      </trkpt>
      <trkpt lat="47.15259" lon="4.91933">
        <ele>333.2</ele>
        <time>2021-05-23T10:55:48Z</time>
      </trkpt>
      <trkpt lat="47.15262" lon="4.91939">
        <ele>333</ele>
        <time>2021-05-23T10:55:58Z</time>
      </trkpt>
      <trkpt lat="47.15265" lon="4.91944">
        <ele>330.4</ele>
        <time>2021-05-23T10:56:04Z</time>
      </trkpt>
      <trkpt lat="47.1527" lon="4.91946">
        <ele>334.3</ele>
        <time>2021-05-23T10:56:09Z</time>
      </trkpt>
      <trkpt lat="47.15275" lon="4.91948">
        <ele>332.4</ele>
        <time>2021-05-23T10:56:13Z</time>
      </trkpt>
      <trkpt lat="47.15279" lon="4.91952">
        <ele>332.2</ele>
        <time>2021-05-23T10:56:20Z</time>
      </trkpt>
      <trkpt lat="47.15284" lon="4.91953">
        <ele>331.2</ele>
        <time>2021-05-23T10:56:27Z</time>
      </trkpt>
      <trkpt lat="47.15281" lon="4.91959">
        <ele>329.8</ele>
        <time>2021-05-23T10:56:37Z</time>
      </trkpt>
      <trkpt lat="47.1528" lon="4.91966">
        <ele>328.1</ele>
        <time>2021-05-23T10:57:08Z</time>
      </trkpt>
      <trkpt lat="47.15277" lon="4.91972">
        <ele>330.4</ele>
        <time>2021-05-23T10:57:14Z</time>
      </trkpt>
      <trkpt lat="47.15274" lon="4.91978">
        <ele>328.6</ele>
        <time>2021-05-23T10:57:21Z</time>
      </trkpt>
      <trkpt lat="47.15271" lon="4.91983">
        <ele>330.1</ele>
        <time>2021-05-23T10:57:36Z</time>
      </trkpt>
      <trkpt lat="47.15271" lon="4.9199">
        <ele>329.2</ele>
        <time>2021-05-23T10:57:50Z</time>
      </trkpt>
      <trkpt lat="47.15267" lon="4.91996">
        <ele>334.1</ele>
        <time>2021-05-23T10:58:04Z</time>
      </trkpt>
      <trkpt lat="47.15264" lon="4.92002">
        <ele>335.8</ele>
        <time>2021-05-23T10:58:14Z</time>
      </trkpt>
      <trkpt lat="47.15262" lon="4.92009">
        <ele>335.3</ele>
        <time>2021-05-23T10:58:20Z</time>
      </trkpt>
      <trkpt lat="47.15261" lon="4.92017">
        <ele>335.7</ele>
        <time>2021-05-23T10:58:27Z</time>
      </trkpt>
      <trkpt lat="47.15261" lon="4.92024">
        <ele>340.3</ele>
        <time>2021-05-23T10:58:44Z</time>
      </trkpt>
      <trkpt lat="47.15264" lon="4.92029">
        <ele>344.4</ele>
        <time>2021-05-23T10:58:55Z</time>
      </trkpt>
      <trkpt lat="47.15267" lon="4.92034">
        <ele>346.8</ele>
        <time>2021-05-23T10:59:07Z</time>
      </trkpt>
      <trkpt lat="47.15271" lon="4.9204">
        <ele>347.9</ele>
        <time>2021-05-23T10:59:17Z</time>
      </trkpt>
      <trkpt lat="47.15277" lon="4.9204">
        <ele>349.2</ele>
        <time>2021-05-23T10:59:24Z</time>
      </trkpt>
      <trkpt lat="47.15282" lon="4.92038">
        <ele>348.5</ele>
        <time>2021-05-23T10:59:27Z</time>
      </trkpt>
      <trkpt lat="47.15288" lon="4.92032">
        <ele>344.7</ele>
        <time>2021-05-23T10:59:33Z</time>
      </trkpt>
      <trkpt lat="47.15293" lon="4.92028">
        <ele>347.5</ele>
        <time>2021-05-23T10:59:37Z</time>
      </trkpt>
      <trkpt lat="47.15298" lon="4.92027">
        <ele>348.1</ele>
        <time>2021-05-23T10:59:41Z</time>
      </trkpt>
      <trkpt lat="47.15302" lon="4.92029">
        <ele>346.2</ele>
        <time>2021-05-23T10:59:45Z</time>
      </trkpt>
      <trkpt lat="47.15307" lon="4.92031">
        <ele>347.6</ele>
        <time>2021-05-23T10:59:50Z</time>
      </trkpt>
      <trkpt lat="47.15312" lon="4.92032">
        <ele>346.8</ele>
        <time>2021-05-23T10:59:56Z</time>
      </trkpt>
      <trkpt lat="47.15317" lon="4.92034">
        <ele>347.2</ele>
        <time>2021-05-23T11:00:02Z</time>
      </trkpt>
      <trkpt lat="47.15321" lon="4.92036">
        <ele>347.8</ele>
        <time>2021-05-23T11:00:08Z</time>
      </trkpt>
      <trkpt lat="47.15326" lon="4.92036">
        <ele>348.8</ele>
        <time>2021-05-23T11:00:14Z</time>
      </trkpt>
      <trkpt lat="47.15333" lon="4.92035">
        <ele>349.2</ele>
        <time>2021-05-23T11:00:21Z</time>
      </trkpt>
      <trkpt lat="47.15339" lon="4.92035">
        <ele>349.5</ele>
        <time>2021-05-23T11:00:26Z</time>
      </trkpt>
      <trkpt lat="47.15345" lon="4.92035">
        <ele>350.2</ele>
        <time>2021-05-23T11:00:31Z</time>
      </trkpt>
      <trkpt lat="47.1535" lon="4.92035">
        <ele>349.5</ele>
        <time>2021-05-23T11:00:35Z</time>
      </trkpt>
      <trkpt lat="47.15371" lon="4.92028">
        <ele>351.2</ele>
        <time>2021-05-23T11:00:54Z</time>
      </trkpt>
      <trkpt lat="47.15376" lon="4.92027">
        <ele>348.5</ele>
        <time>2021-05-23T11:00:59Z</time>
      </trkpt>
      <trkpt lat="47.15382" lon="4.92025">
        <ele>349.5</ele>
        <time>2021-05-23T11:01:05Z</time>
      </trkpt>
      <trkpt lat="47.15386" lon="4.92021">
        <ele>348.4</ele>
        <time>2021-05-23T11:01:09Z</time>
      </trkpt>
      <trkpt lat="47.15391" lon="4.92016">
        <ele>349.3</ele>
        <time>2021-05-23T11:01:13Z</time>
      </trkpt>
      <trkpt lat="47.15395" lon="4.92013">
        <ele>349.2</ele>
        <time>2021-05-23T11:01:17Z</time>
      </trkpt>
      <trkpt lat="47.15401" lon="4.92011">
        <ele>351.8</ele>
        <time>2021-05-23T11:01:22Z</time>
      </trkpt>
      <trkpt lat="47.15406" lon="4.92011">
        <ele>352.6</ele>
        <time>2021-05-23T11:01:26Z</time>
      </trkpt>
      <trkpt lat="47.15411" lon="4.92013">
        <ele>352.1</ele>
        <time>2021-05-23T11:01:30Z</time>
      </trkpt>
      <trkpt lat="47.15416" lon="4.92013">
        <ele>351.9</ele>
        <time>2021-05-23T11:01:35Z</time>
      </trkpt>
      <trkpt lat="47.15421" lon="4.92012">
        <ele>353.9</ele>
        <time>2021-05-23T11:01:41Z</time>
      </trkpt>
      <trkpt lat="47.15426" lon="4.92011">
        <ele>352.8</ele>
        <time>2021-05-23T11:01:46Z</time>
      </trkpt>
      <trkpt lat="47.1543" lon="4.92009">
        <ele>354.6</ele>
        <time>2021-05-23T11:01:52Z</time>
      </trkpt>
      <trkpt lat="47.15435" lon="4.92007">
        <ele>354.4</ele>
        <time>2021-05-23T11:01:57Z</time>
      </trkpt>
      <trkpt lat="47.15441" lon="4.92004">
        <ele>357.1</ele>
        <time>2021-05-23T11:02:02Z</time>
      </trkpt>
      <trkpt lat="47.15445" lon="4.92003">
        <ele>355.6</ele>
        <time>2021-05-23T11:02:06Z</time>
      </trkpt>
      <trkpt lat="47.1545" lon="4.92003">
        <ele>355.8</ele>
        <time>2021-05-23T11:02:10Z</time>
      </trkpt>
      <trkpt lat="47.15455" lon="4.92004">
        <ele>354.3</ele>
        <time>2021-05-23T11:02:15Z</time>
      </trkpt>
      <trkpt lat="47.15461" lon="4.92004">
        <ele>353.3</ele>
        <time>2021-05-23T11:02:20Z</time>
      </trkpt>
      <trkpt lat="47.15467" lon="4.92004">
        <ele>353.6</ele>
        <time>2021-05-23T11:02:26Z</time>
      </trkpt>
      <trkpt lat="47.15462" lon="4.92008">
        <ele>353.2</ele>
        <time>2021-05-23T11:03:36Z</time>
      </trkpt>
      <trkpt lat="47.15459" lon="4.92015">
        <ele>351.1</ele>
        <time>2021-05-23T11:03:42Z</time>
      </trkpt>
      <trkpt lat="47.15457" lon="4.92021">
        <ele>349.5</ele>
        <time>2021-05-23T11:03:46Z</time>
      </trkpt>
      <trkpt lat="47.15453" lon="4.92028">
        <ele>345.8</ele>
        <time>2021-05-23T11:03:51Z</time>
      </trkpt>
      <trkpt lat="47.15449" lon="4.92033">
        <ele>347</ele>
        <time>2021-05-23T11:03:57Z</time>
      </trkpt>
      <trkpt lat="47.15446" lon="4.9204">
        <ele>345.6</ele>
        <time>2021-05-23T11:04:05Z</time>
      </trkpt>
      <trkpt lat="47.15448" lon="4.92048">
        <ele>345.3</ele>
        <time>2021-05-23T11:04:11Z</time>
      </trkpt>
      <trkpt lat="47.15444" lon="4.92053">
        <ele>348.1</ele>
        <time>2021-05-23T11:04:18Z</time>
      </trkpt>
      <trkpt lat="47.15437" lon="4.92056">
        <ele>351.4</ele>
        <time>2021-05-23T11:04:24Z</time>
      </trkpt>
      <trkpt lat="47.15432" lon="4.92058">
        <ele>355.3</ele>
        <time>2021-05-23T11:04:30Z</time>
      </trkpt>
      <trkpt lat="47.1543" lon="4.92063">
        <ele>353.6</ele>
        <time>2021-05-23T11:04:36Z</time>
      </trkpt>
      <trkpt lat="47.15426" lon="4.92068">
        <ele>357.3</ele>
        <time>2021-05-23T11:04:42Z</time>
      </trkpt>
      <trkpt lat="47.15422" lon="4.92072">
        <ele>356.9</ele>
        <time>2021-05-23T11:04:47Z</time>
      </trkpt>
      <trkpt lat="47.1542" lon="4.92078">
        <ele>358.4</ele>
        <time>2021-05-23T11:04:52Z</time>
      </trkpt>
      <trkpt lat="47.15415" lon="4.92084">
        <ele>358.6</ele>
        <time>2021-05-23T11:04:58Z</time>
      </trkpt>
      <trkpt lat="47.15413" lon="4.9209">
        <ele>358.5</ele>
        <time>2021-05-23T11:05:04Z</time>
      </trkpt>
      <trkpt lat="47.15407" lon="4.92091">
        <ele>359.5</ele>
        <time>2021-05-23T11:05:12Z</time>
      </trkpt>
      <trkpt lat="47.15401" lon="4.9209">
        <ele>359.6</ele>
        <time>2021-05-23T11:05:16Z</time>
      </trkpt>
      <trkpt lat="47.15396" lon="4.92089">
        <ele>363.8</ele>
        <time>2021-05-23T11:05:20Z</time>
      </trkpt>
      <trkpt lat="47.15391" lon="4.92087">
        <ele>362.7</ele>
        <time>2021-05-23T11:05:24Z</time>
      </trkpt>
      <trkpt lat="47.15387" lon="4.92085">
        <ele>363.7</ele>
        <time>2021-05-23T11:05:28Z</time>
      </trkpt>
      <trkpt lat="47.15381" lon="4.92094">
        <ele>365.9</ele>
        <time>2021-05-23T11:05:36Z</time>
      </trkpt>
      <trkpt lat="47.15377" lon="4.92098">
        <ele>364.5</ele>
        <time>2021-05-23T11:05:40Z</time>
      </trkpt>
      <trkpt lat="47.15373" lon="4.92101">
        <ele>364.1</ele>
        <time>2021-05-23T11:05:44Z</time>
      </trkpt>
      <trkpt lat="47.15368" lon="4.92102">
        <ele>362.3</ele>
        <time>2021-05-23T11:05:48Z</time>
      </trkpt>
      <trkpt lat="47.15362" lon="4.92102">
        <ele>361</ele>
        <time>2021-05-23T11:05:53Z</time>
      </trkpt>
      <trkpt lat="47.15356" lon="4.92101">
        <ele>364.6</ele>
        <time>2021-05-23T11:05:58Z</time>
      </trkpt>
      <trkpt lat="47.15351" lon="4.921">
        <ele>366.1</ele>
        <time>2021-05-23T11:06:02Z</time>
      </trkpt>
      <trkpt lat="47.15343" lon="4.92097">
        <ele>364.6</ele>
        <time>2021-05-23T11:06:09Z</time>
      </trkpt>
      <trkpt lat="47.15339" lon="4.92098">
        <ele>364.7</ele>
        <time>2021-05-23T11:06:13Z</time>
      </trkpt>
      <trkpt lat="47.1533" lon="4.92101">
        <ele>363.5</ele>
        <time>2021-05-23T11:06:21Z</time>
      </trkpt>
      <trkpt lat="47.15318" lon="4.92103">
        <ele>360.4</ele>
        <time>2021-05-23T11:06:29Z</time>
      </trkpt>
      <trkpt lat="47.15313" lon="4.92105">
        <ele>359.7</ele>
        <time>2021-05-23T11:06:34Z</time>
      </trkpt>
      <trkpt lat="47.15309" lon="4.92108">
        <ele>357.8</ele>
        <time>2021-05-23T11:06:38Z</time>
      </trkpt>
      <trkpt lat="47.15303" lon="4.92113">
        <ele>359.5</ele>
        <time>2021-05-23T11:06:43Z</time>
      </trkpt>
      <trkpt lat="47.15299" lon="4.92117">
        <ele>359.8</ele>
        <time>2021-05-23T11:06:48Z</time>
      </trkpt>
      <trkpt lat="47.15293" lon="4.92122">
        <ele>361.8</ele>
        <time>2021-05-23T11:06:54Z</time>
      </trkpt>
      <trkpt lat="47.15289" lon="4.92122">
        <ele>364.7</ele>
        <time>2021-05-23T11:06:58Z</time>
      </trkpt>
      <trkpt lat="47.15284" lon="4.92124">
        <ele>363.9</ele>
        <time>2021-05-23T11:07:02Z</time>
      </trkpt>
      <trkpt lat="47.1528" lon="4.92125">
        <ele>362.6</ele>
        <time>2021-05-23T11:07:06Z</time>
      </trkpt>
      <trkpt lat="47.15274" lon="4.92125">
        <ele>366.2</ele>
        <time>2021-05-23T11:07:12Z</time>
      </trkpt>
      <trkpt lat="47.15268" lon="4.92126">
        <ele>364.1</ele>
        <time>2021-05-23T11:07:17Z</time>
      </trkpt>
      <trkpt lat="47.15263" lon="4.92128">
        <ele>365.9</ele>
        <time>2021-05-23T11:07:21Z</time>
      </trkpt>
      <trkpt lat="47.15257" lon="4.92129">
        <ele>365.3</ele>
        <time>2021-05-23T11:07:26Z</time>
      </trkpt>
      <trkpt lat="47.15251" lon="4.92128">
        <ele>364.3</ele>
        <time>2021-05-23T11:07:30Z</time>
      </trkpt>
      <trkpt lat="47.15244" lon="4.92129">
        <ele>364.9</ele>
        <time>2021-05-23T11:07:36Z</time>
      </trkpt>
      <trkpt lat="47.15238" lon="4.92131">
        <ele>368.9</ele>
        <time>2021-05-23T11:07:42Z</time>
      </trkpt>
      <trkpt lat="47.15232" lon="4.92134">
        <ele>365.1</ele>
        <time>2021-05-23T11:07:48Z</time>
      </trkpt>
      <trkpt lat="47.15227" lon="4.92135">
        <ele>363</ele>
        <time>2021-05-23T11:07:53Z</time>
      </trkpt>
      <trkpt lat="47.15221" lon="4.92136">
        <ele>365</ele>
        <time>2021-05-23T11:07:58Z</time>
      </trkpt>
      <trkpt lat="47.15215" lon="4.92137">
        <ele>363</ele>
        <time>2021-05-23T11:08:03Z</time>
      </trkpt>
      <trkpt lat="47.1521" lon="4.92138">
        <ele>363.8</ele>
        <time>2021-05-23T11:08:07Z</time>
      </trkpt>
      <trkpt lat="47.15205" lon="4.92145">
        <ele>359.6</ele>
        <time>2021-05-23T11:08:14Z</time>
      </trkpt>
      <trkpt lat="47.15202" lon="4.92151">
        <ele>360.1</ele>
        <time>2021-05-23T11:08:18Z</time>
      </trkpt>
      <trkpt lat="47.15197" lon="4.92155">
        <ele>360.8</ele>
        <time>2021-05-23T11:08:22Z</time>
      </trkpt>
      <trkpt lat="47.15191" lon="4.92157">
        <ele>360.6</ele>
        <time>2021-05-23T11:08:26Z</time>
      </trkpt>
      <trkpt lat="47.15186" lon="4.92159">
        <ele>361.6</ele>
        <time>2021-05-23T11:08:30Z</time>
      </trkpt>
      <trkpt lat="47.15178" lon="4.92148">
        <ele>360.5</ele>
        <time>2021-05-23T11:08:35Z</time>
      </trkpt>
      <trkpt lat="47.15171" lon="4.92147">
        <ele>363.4</ele>
        <time>2021-05-23T11:08:40Z</time>
      </trkpt>
      <trkpt lat="47.15166" lon="4.92151">
        <ele>362.6</ele>
        <time>2021-05-23T11:08:45Z</time>
      </trkpt>
      <trkpt lat="47.15162" lon="4.92154">
        <ele>365.5</ele>
        <time>2021-05-23T11:08:50Z</time>
      </trkpt>
      <trkpt lat="47.15157" lon="4.92157">
        <ele>365.6</ele>
        <time>2021-05-23T11:08:55Z</time>
      </trkpt>
      <trkpt lat="47.1515" lon="4.9216">
        <ele>366.3</ele>
        <time>2021-05-23T11:09:00Z</time>
      </trkpt>
      <trkpt lat="47.15145" lon="4.92161">
        <ele>363.7</ele>
        <time>2021-05-23T11:09:05Z</time>
      </trkpt>
      <trkpt lat="47.15139" lon="4.92164">
        <ele>364.2</ele>
        <time>2021-05-23T11:09:10Z</time>
      </trkpt>
      <trkpt lat="47.15133" lon="4.92165">
        <ele>366.4</ele>
        <time>2021-05-23T11:09:14Z</time>
      </trkpt>
      <trkpt lat="47.15127" lon="4.92166">
        <ele>365.9</ele>
        <time>2021-05-23T11:09:19Z</time>
      </trkpt>
      <trkpt lat="47.1512" lon="4.92167">
        <ele>368.3</ele>
        <time>2021-05-23T11:09:24Z</time>
      </trkpt>
      <trkpt lat="47.15114" lon="4.92168">
        <ele>367.9</ele>
        <time>2021-05-23T11:09:29Z</time>
      </trkpt>
      <trkpt lat="47.15107" lon="4.92166">
        <ele>367.7</ele>
        <time>2021-05-23T11:09:34Z</time>
      </trkpt>
      <trkpt lat="47.15101" lon="4.92167">
        <ele>369.4</ele>
        <time>2021-05-23T11:09:38Z</time>
      </trkpt>
      <trkpt lat="47.15095" lon="4.9217">
        <ele>366</ele>
        <time>2021-05-23T11:09:44Z</time>
      </trkpt>
      <trkpt lat="47.1509" lon="4.92175">
        <ele>364.1</ele>
        <time>2021-05-23T11:09:50Z</time>
      </trkpt>
      <trkpt lat="47.15086" lon="4.92179">
        <ele>364.4</ele>
        <time>2021-05-23T11:09:54Z</time>
      </trkpt>
      <trkpt lat="47.15081" lon="4.92185">
        <ele>360.8</ele>
        <time>2021-05-23T11:09:59Z</time>
      </trkpt>
      <trkpt lat="47.15077" lon="4.92191">
        <ele>362.4</ele>
        <time>2021-05-23T11:10:02Z</time>
      </trkpt>
      <trkpt lat="47.15074" lon="4.92195">
        <ele>363.8</ele>
        <time>2021-05-23T11:10:06Z</time>
      </trkpt>
      <trkpt lat="47.15067" lon="4.92199">
        <ele>362.3</ele>
        <time>2021-05-23T11:10:11Z</time>
      </trkpt>
      <trkpt lat="47.15061" lon="4.92201">
        <ele>359.4</ele>
        <time>2021-05-23T11:10:15Z</time>
      </trkpt>
      <trkpt lat="47.15057" lon="4.92204">
        <ele>357.5</ele>
        <time>2021-05-23T11:10:19Z</time>
      </trkpt>
      <trkpt lat="47.15053" lon="4.92209">
        <ele>356.3</ele>
        <time>2021-05-23T11:10:23Z</time>
      </trkpt>
      <trkpt lat="47.15051" lon="4.92215">
        <ele>359.3</ele>
        <time>2021-05-23T11:10:28Z</time>
      </trkpt>
      <trkpt lat="47.15049" lon="4.92223">
        <ele>360.3</ele>
        <time>2021-05-23T11:10:33Z</time>
      </trkpt>
      <trkpt lat="47.15046" lon="4.9223">
        <ele>359.9</ele>
        <time>2021-05-23T11:10:39Z</time>
      </trkpt>
      <trkpt lat="47.15045" lon="4.92238">
        <ele>360.1</ele>
        <time>2021-05-23T11:10:45Z</time>
      </trkpt>
      <trkpt lat="47.15044" lon="4.92246">
        <ele>363.5</ele>
        <time>2021-05-23T11:10:50Z</time>
      </trkpt>
      <trkpt lat="47.15044" lon="4.92254">
        <ele>362.6</ele>
        <time>2021-05-23T11:10:55Z</time>
      </trkpt>
      <trkpt lat="47.15042" lon="4.92262">
        <ele>360</ele>
        <time>2021-05-23T11:11:00Z</time>
      </trkpt>
      <trkpt lat="47.15041" lon="4.9227">
        <ele>360.4</ele>
        <time>2021-05-23T11:11:04Z</time>
      </trkpt>
      <trkpt lat="47.15038" lon="4.92286">
        <ele>358.3</ele>
        <time>2021-05-23T11:11:13Z</time>
      </trkpt>
      <trkpt lat="47.15036" lon="4.92293">
        <ele>359.9</ele>
        <time>2021-05-23T11:11:18Z</time>
      </trkpt>
      <trkpt lat="47.15035" lon="4.92299">
        <ele>362</ele>
        <time>2021-05-23T11:11:23Z</time>
      </trkpt>
      <trkpt lat="47.15033" lon="4.92306">
        <ele>360.8</ele>
        <time>2021-05-23T11:11:28Z</time>
      </trkpt>
      <trkpt lat="47.15034" lon="4.92314">
        <ele>359.8</ele>
        <time>2021-05-23T11:11:34Z</time>
      </trkpt>
      <trkpt lat="47.1503" lon="4.92323">
        <ele>361.4</ele>
        <time>2021-05-23T11:11:40Z</time>
      </trkpt>
      <trkpt lat="47.15027" lon="4.92329">
        <ele>360.6</ele>
        <time>2021-05-23T11:11:44Z</time>
      </trkpt>
      <trkpt lat="47.15024" lon="4.92336">
        <ele>358.6</ele>
        <time>2021-05-23T11:11:48Z</time>
      </trkpt>
      <trkpt lat="47.15022" lon="4.92344">
        <ele>358.7</ele>
        <time>2021-05-23T11:11:52Z</time>
      </trkpt>
      <trkpt lat="47.15021" lon="4.92352">
        <ele>358.6</ele>
        <time>2021-05-23T11:11:56Z</time>
      </trkpt>
      <trkpt lat="47.15021" lon="4.92361">
        <ele>360.5</ele>
        <time>2021-05-23T11:12:01Z</time>
      </trkpt>
      <trkpt lat="47.15021" lon="4.92371">
        <ele>361.5</ele>
        <time>2021-05-23T11:12:06Z</time>
      </trkpt>
      <trkpt lat="47.15021" lon="4.92377">
        <ele>363.8</ele>
        <time>2021-05-23T11:12:10Z</time>
      </trkpt>
      <trkpt lat="47.15018" lon="4.92401">
        <ele>365.9</ele>
        <time>2021-05-23T11:12:24Z</time>
      </trkpt>
      <trkpt lat="47.15017" lon="4.92408">
        <ele>368.3</ele>
        <time>2021-05-23T11:12:28Z</time>
      </trkpt>
      <trkpt lat="47.15017" lon="4.92427">
        <ele>364.2</ele>
        <time>2021-05-23T11:12:39Z</time>
      </trkpt>
      <trkpt lat="47.15017" lon="4.92434">
        <ele>362.9</ele>
        <time>2021-05-23T11:12:43Z</time>
      </trkpt>
      <trkpt lat="47.15015" lon="4.92441">
        <ele>362</ele>
        <time>2021-05-23T11:12:48Z</time>
      </trkpt>
      <trkpt lat="47.15013" lon="4.92448">
        <ele>364.6</ele>
        <time>2021-05-23T11:12:53Z</time>
      </trkpt>
      <trkpt lat="47.15011" lon="4.92454">
        <ele>363</ele>
        <time>2021-05-23T11:12:58Z</time>
      </trkpt>
      <trkpt lat="47.15009" lon="4.92463">
        <ele>365.3</ele>
        <time>2021-05-23T11:13:06Z</time>
      </trkpt>
      <trkpt lat="47.15009" lon="4.92473">
        <ele>364.8</ele>
        <time>2021-05-23T11:13:11Z</time>
      </trkpt>
      <trkpt lat="47.1501" lon="4.92483">
        <ele>366.5</ele>
        <time>2021-05-23T11:13:16Z</time>
      </trkpt>
      <trkpt lat="47.15011" lon="4.9249">
        <ele>366.7</ele>
        <time>2021-05-23T11:13:20Z</time>
      </trkpt>
      <trkpt lat="47.15013" lon="4.92497">
        <ele>368.1</ele>
        <time>2021-05-23T11:13:24Z</time>
      </trkpt>
      <trkpt lat="47.15015" lon="4.92505">
        <ele>369</ele>
        <time>2021-05-23T11:13:29Z</time>
      </trkpt>
      <trkpt lat="47.15018" lon="4.9251">
        <ele>367.6</ele>
        <time>2021-05-23T11:13:33Z</time>
      </trkpt>
      <trkpt lat="47.15021" lon="4.92517">
        <ele>368.7</ele>
        <time>2021-05-23T11:13:38Z</time>
      </trkpt>
      <trkpt lat="47.15021" lon="4.92524">
        <ele>364.7</ele>
        <time>2021-05-23T11:13:45Z</time>
      </trkpt>
      <trkpt lat="47.15021" lon="4.92531">
        <ele>364.6</ele>
        <time>2021-05-23T11:13:52Z</time>
      </trkpt>
      <trkpt lat="47.15022" lon="4.92537">
        <ele>362</ele>
        <time>2021-05-23T11:13:59Z</time>
      </trkpt>
      <trkpt lat="47.15022" lon="4.92545">
        <ele>365.1</ele>
        <time>2021-05-23T11:14:05Z</time>
      </trkpt>
      <trkpt lat="47.15021" lon="4.92553">
        <ele>364.9</ele>
        <time>2021-05-23T11:14:10Z</time>
      </trkpt>
      <trkpt lat="47.15019" lon="4.92562">
        <ele>362.7</ele>
        <time>2021-05-23T11:14:15Z</time>
      </trkpt>
      <trkpt lat="47.15018" lon="4.92568">
        <ele>363.3</ele>
        <time>2021-05-23T11:14:19Z</time>
      </trkpt>
      <trkpt lat="47.15018" lon="4.92575">
        <ele>364</ele>
        <time>2021-05-23T11:14:23Z</time>
      </trkpt>
      <trkpt lat="47.15017" lon="4.92584">
        <ele>364.8</ele>
        <time>2021-05-23T11:14:29Z</time>
      </trkpt>
      <trkpt lat="47.15014" lon="4.9259">
        <ele>367.6</ele>
        <time>2021-05-23T11:14:34Z</time>
      </trkpt>
      <trkpt lat="47.15009" lon="4.92602">
        <ele>368.9</ele>
        <time>2021-05-23T11:14:43Z</time>
      </trkpt>
      <trkpt lat="47.15007" lon="4.92612">
        <ele>365.4</ele>
        <time>2021-05-23T11:14:48Z</time>
      </trkpt>
      <trkpt lat="47.15009" lon="4.92619">
        <ele>365.8</ele>
        <time>2021-05-23T11:14:52Z</time>
      </trkpt>
      <trkpt lat="47.15011" lon="4.92625">
        <ele>367</ele>
        <time>2021-05-23T11:14:56Z</time>
      </trkpt>
      <trkpt lat="47.15013" lon="4.92631">
        <ele>368.8</ele>
        <time>2021-05-23T11:15:00Z</time>
      </trkpt>
      <trkpt lat="47.15015" lon="4.92637">
        <ele>369.6</ele>
        <time>2021-05-23T11:15:04Z</time>
      </trkpt>
      <trkpt lat="47.15017" lon="4.92644">
        <ele>368.1</ele>
        <time>2021-05-23T11:15:08Z</time>
      </trkpt>
      <trkpt lat="47.15019" lon="4.9265">
        <ele>368.3</ele>
        <time>2021-05-23T11:15:12Z</time>
      </trkpt>
      <trkpt lat="47.15019" lon="4.92658">
        <ele>367.5</ele>
        <time>2021-05-23T11:15:17Z</time>
      </trkpt>
      <trkpt lat="47.15018" lon="4.92666">
        <ele>370.1</ele>
        <time>2021-05-23T11:15:22Z</time>
      </trkpt>
      <trkpt lat="47.15017" lon="4.92674">
        <ele>371.5</ele>
        <time>2021-05-23T11:15:27Z</time>
      </trkpt>
      <trkpt lat="47.15014" lon="4.92686">
        <ele>371.7</ele>
        <time>2021-05-23T11:15:35Z</time>
      </trkpt>
      <trkpt lat="47.15013" lon="4.92694">
        <ele>372.5</ele>
        <time>2021-05-23T11:15:39Z</time>
      </trkpt>
      <trkpt lat="47.15013" lon="4.92703">
        <ele>371.8</ele>
        <time>2021-05-23T11:15:44Z</time>
      </trkpt>
      <trkpt lat="47.15014" lon="4.9271">
        <ele>371.3</ele>
        <time>2021-05-23T11:15:48Z</time>
      </trkpt>
      <trkpt lat="47.15021" lon="4.92711">
        <ele>370.5</ele>
        <time>2021-05-23T11:15:52Z</time>
      </trkpt>
      <trkpt lat="47.15027" lon="4.92714">
        <ele>369.6</ele>
        <time>2021-05-23T11:15:56Z</time>
      </trkpt>
      <trkpt lat="47.15028" lon="4.92723">
        <ele>368.7</ele>
        <time>2021-05-23T11:16:01Z</time>
      </trkpt>
      <trkpt lat="47.15027" lon="4.9273">
        <ele>368.4</ele>
        <time>2021-05-23T11:16:06Z</time>
      </trkpt>
      <trkpt lat="47.15026" lon="4.92737">
        <ele>365.6</ele>
        <time>2021-05-23T11:16:10Z</time>
      </trkpt>
      <trkpt lat="47.15025" lon="4.92745">
        <ele>366.4</ele>
        <time>2021-05-23T11:16:18Z</time>
      </trkpt>
      <trkpt lat="47.15027" lon="4.92754">
        <ele>366.6</ele>
        <time>2021-05-23T11:16:24Z</time>
      </trkpt>
      <trkpt lat="47.15031" lon="4.92761">
        <ele>368.3</ele>
        <time>2021-05-23T11:16:29Z</time>
      </trkpt>
      <trkpt lat="47.15035" lon="4.92765">
        <ele>366.8</ele>
        <time>2021-05-23T11:16:32Z</time>
      </trkpt>
      <trkpt lat="47.15039" lon="4.9277">
        <ele>365.7</ele>
        <time>2021-05-23T11:16:38Z</time>
      </trkpt>
      <trkpt lat="47.15042" lon="4.92776">
        <ele>366.5</ele>
        <time>2021-05-23T11:16:46Z</time>
      </trkpt>
      <trkpt lat="47.15043" lon="4.92782">
        <ele>365.4</ele>
        <time>2021-05-23T11:16:51Z</time>
      </trkpt>
      <trkpt lat="47.15046" lon="4.92791">
        <ele>364.7</ele>
        <time>2021-05-23T11:16:57Z</time>
      </trkpt>
      <trkpt lat="47.15048" lon="4.92799">
        <ele>366.7</ele>
        <time>2021-05-23T11:17:01Z</time>
      </trkpt>
      <trkpt lat="47.15049" lon="4.92807">
        <ele>366.3</ele>
        <time>2021-05-23T11:17:05Z</time>
      </trkpt>
      <trkpt lat="47.15052" lon="4.92813">
        <ele>366.9</ele>
        <time>2021-05-23T11:17:08Z</time>
      </trkpt>
      <trkpt lat="47.15055" lon="4.92822">
        <ele>368.6</ele>
        <time>2021-05-23T11:17:14Z</time>
      </trkpt>
      <trkpt lat="47.15057" lon="4.92831">
        <ele>369.3</ele>
        <time>2021-05-23T11:17:20Z</time>
      </trkpt>
      <trkpt lat="47.15058" lon="4.9284">
        <ele>368.9</ele>
        <time>2021-05-23T11:17:26Z</time>
      </trkpt>
      <trkpt lat="47.15062" lon="4.92846">
        <ele>368.8</ele>
        <time>2021-05-23T11:17:32Z</time>
      </trkpt>
      <trkpt lat="47.15066" lon="4.9285">
        <ele>367.7</ele>
        <time>2021-05-23T11:17:37Z</time>
      </trkpt>
      <trkpt lat="47.15071" lon="4.92853">
        <ele>367.1</ele>
        <time>2021-05-23T11:17:42Z</time>
      </trkpt>
      <trkpt lat="47.15074" lon="4.92858">
        <ele>367.1</ele>
        <time>2021-05-23T11:17:49Z</time>
      </trkpt>
      <trkpt lat="47.15076" lon="4.92865">
        <ele>367.6</ele>
        <time>2021-05-23T11:17:54Z</time>
      </trkpt>
      <trkpt lat="47.15077" lon="4.92872">
        <ele>367.3</ele>
        <time>2021-05-23T11:17:58Z</time>
      </trkpt>
      <trkpt lat="47.15077" lon="4.92879">
        <ele>367.2</ele>
        <time>2021-05-23T11:18:02Z</time>
      </trkpt>
      <trkpt lat="47.15077" lon="4.92886">
        <ele>368.3</ele>
        <time>2021-05-23T11:18:06Z</time>
      </trkpt>
      <trkpt lat="47.15079" lon="4.92896">
        <ele>366.9</ele>
        <time>2021-05-23T11:18:14Z</time>
      </trkpt>
      <trkpt lat="47.15081" lon="4.92902">
        <ele>367.7</ele>
        <time>2021-05-23T11:18:19Z</time>
      </trkpt>
      <trkpt lat="47.15084" lon="4.92909">
        <ele>369</ele>
        <time>2021-05-23T11:18:25Z</time>
      </trkpt>
      <trkpt lat="47.15084" lon="4.92917">
        <ele>368.2</ele>
        <time>2021-05-23T11:18:30Z</time>
      </trkpt>
      <trkpt lat="47.15087" lon="4.92922">
        <ele>368.3</ele>
        <time>2021-05-23T11:18:36Z</time>
      </trkpt>
      <trkpt lat="47.1509" lon="4.92929">
        <ele>369</ele>
        <time>2021-05-23T11:18:43Z</time>
      </trkpt>
      <trkpt lat="47.15093" lon="4.92933">
        <ele>372.3</ele>
        <time>2021-05-23T11:18:50Z</time>
      </trkpt>
      <trkpt lat="47.15097" lon="4.92938">
        <ele>372.5</ele>
        <time>2021-05-23T11:18:55Z</time>
      </trkpt>
      <trkpt lat="47.15101" lon="4.92944">
        <ele>374.7</ele>
        <time>2021-05-23T11:19:02Z</time>
      </trkpt>
      <trkpt lat="47.15099" lon="4.92951">
        <ele>372.8</ele>
        <time>2021-05-23T11:19:08Z</time>
      </trkpt>
      <trkpt lat="47.15098" lon="4.92958">
        <ele>376.2</ele>
        <time>2021-05-23T11:19:14Z</time>
      </trkpt>
      <trkpt lat="47.15103" lon="4.92963">
        <ele>375.3</ele>
        <time>2021-05-23T11:19:19Z</time>
      </trkpt>
      <trkpt lat="47.15107" lon="4.92969">
        <ele>376.2</ele>
        <time>2021-05-23T11:19:25Z</time>
      </trkpt>
      <trkpt lat="47.15109" lon="4.92977">
        <ele>375.8</ele>
        <time>2021-05-23T11:19:31Z</time>
      </trkpt>
      <trkpt lat="47.15108" lon="4.92984">
        <ele>373.8</ele>
        <time>2021-05-23T11:19:35Z</time>
      </trkpt>
      <trkpt lat="47.15109" lon="4.92993">
        <ele>374.8</ele>
        <time>2021-05-23T11:19:40Z</time>
      </trkpt>
      <trkpt lat="47.15109" lon="4.93002">
        <ele>373.1</ele>
        <time>2021-05-23T11:19:46Z</time>
      </trkpt>
      <trkpt lat="47.15112" lon="4.9301">
        <ele>374.4</ele>
        <time>2021-05-23T11:19:53Z</time>
      </trkpt>
      <trkpt lat="47.15113" lon="4.93019">
        <ele>376.8</ele>
        <time>2021-05-23T11:20:01Z</time>
      </trkpt>
      <trkpt lat="47.15116" lon="4.93027">
        <ele>375.6</ele>
        <time>2021-05-23T11:20:07Z</time>
      </trkpt>
      <trkpt lat="47.1512" lon="4.93032">
        <ele>377.6</ele>
        <time>2021-05-23T11:20:11Z</time>
      </trkpt>
      <trkpt lat="47.15124" lon="4.93037">
        <ele>378</ele>
        <time>2021-05-23T11:20:15Z</time>
      </trkpt>
      <trkpt lat="47.15129" lon="4.9304">
        <ele>379.9</ele>
        <time>2021-05-23T11:20:19Z</time>
      </trkpt>
      <trkpt lat="47.15133" lon="4.93046">
        <ele>378</ele>
        <time>2021-05-23T11:20:26Z</time>
      </trkpt>
      <trkpt lat="47.15136" lon="4.93053">
        <ele>378.5</ele>
        <time>2021-05-23T11:20:33Z</time>
      </trkpt>
      <trkpt lat="47.15138" lon="4.9306">
        <ele>378.4</ele>
        <time>2021-05-23T11:20:38Z</time>
      </trkpt>
      <trkpt lat="47.1514" lon="4.93067">
        <ele>377.2</ele>
        <time>2021-05-23T11:20:43Z</time>
      </trkpt>
      <trkpt lat="47.15141" lon="4.93075">
        <ele>377</ele>
        <time>2021-05-23T11:20:48Z</time>
      </trkpt>
      <trkpt lat="47.15142" lon="4.93082">
        <ele>375.2</ele>
        <time>2021-05-23T11:20:53Z</time>
      </trkpt>
      <trkpt lat="47.15143" lon="4.93089">
        <ele>373.5</ele>
        <time>2021-05-23T11:20:57Z</time>
      </trkpt>
      <trkpt lat="47.15145" lon="4.93096">
        <ele>373.9</ele>
        <time>2021-05-23T11:21:02Z</time>
      </trkpt>
      <trkpt lat="47.1515" lon="4.931">
        <ele>373.1</ele>
        <time>2021-05-23T11:21:11Z</time>
      </trkpt>
      <trkpt lat="47.15151" lon="4.93108">
        <ele>374.4</ele>
        <time>2021-05-23T11:21:18Z</time>
      </trkpt>
      <trkpt lat="47.15152" lon="4.93115">
        <ele>375.5</ele>
        <time>2021-05-23T11:21:23Z</time>
      </trkpt>
      <trkpt lat="47.15154" lon="4.93123">
        <ele>375.7</ele>
        <time>2021-05-23T11:21:28Z</time>
      </trkpt>
      <trkpt lat="47.15156" lon="4.93131">
        <ele>375.9</ele>
        <time>2021-05-23T11:21:33Z</time>
      </trkpt>
      <trkpt lat="47.15158" lon="4.93139">
        <ele>376.6</ele>
        <time>2021-05-23T11:21:39Z</time>
      </trkpt>
      <trkpt lat="47.1516" lon="4.93147">
        <ele>375.4</ele>
        <time>2021-05-23T11:21:45Z</time>
      </trkpt>
      <trkpt lat="47.15161" lon="4.93154">
        <ele>375.4</ele>
        <time>2021-05-23T11:21:50Z</time>
      </trkpt>
      <trkpt lat="47.15165" lon="4.93157">
        <ele>374.4</ele>
        <time>2021-05-23T11:21:56Z</time>
      </trkpt>
      <trkpt lat="47.1517" lon="4.93161">
        <ele>376.6</ele>
        <time>2021-05-23T11:22:02Z</time>
      </trkpt>
      <trkpt lat="47.15172" lon="4.93169">
        <ele>379</ele>
        <time>2021-05-23T11:22:06Z</time>
      </trkpt>
      <trkpt lat="47.15175" lon="4.93177">
        <ele>375.4</ele>
        <time>2021-05-23T11:22:12Z</time>
      </trkpt>
      <trkpt lat="47.15178" lon="4.93196">
        <ele>377.5</ele>
        <time>2021-05-23T11:22:24Z</time>
      </trkpt>
      <trkpt lat="47.15178" lon="4.93203">
        <ele>376.8</ele>
        <time>2021-05-23T11:22:28Z</time>
      </trkpt>
      <trkpt lat="47.15178" lon="4.9321">
        <ele>373</ele>
        <time>2021-05-23T11:22:32Z</time>
      </trkpt>
      <trkpt lat="47.15179" lon="4.93216">
        <ele>371.7</ele>
        <time>2021-05-23T11:22:36Z</time>
      </trkpt>
      <trkpt lat="47.15182" lon="4.93222">
        <ele>371</ele>
        <time>2021-05-23T11:22:40Z</time>
      </trkpt>
      <trkpt lat="47.15187" lon="4.93225">
        <ele>370.5</ele>
        <time>2021-05-23T11:22:45Z</time>
      </trkpt>
      <trkpt lat="47.1519" lon="4.93229">
        <ele>371.3</ele>
        <time>2021-05-23T11:22:50Z</time>
      </trkpt>
      <trkpt lat="47.15194" lon="4.93237">
        <ele>370.3</ele>
        <time>2021-05-23T11:22:56Z</time>
      </trkpt>
      <trkpt lat="47.15198" lon="4.93243">
        <ele>373</ele>
        <time>2021-05-23T11:23:01Z</time>
      </trkpt>
      <trkpt lat="47.15201" lon="4.93249">
        <ele>374.2</ele>
        <time>2021-05-23T11:23:06Z</time>
      </trkpt>
      <trkpt lat="47.15204" lon="4.93255">
        <ele>374.4</ele>
        <time>2021-05-23T11:23:11Z</time>
      </trkpt>
      <trkpt lat="47.15206" lon="4.93263">
        <ele>374.5</ele>
        <time>2021-05-23T11:23:17Z</time>
      </trkpt>
      <trkpt lat="47.15203" lon="4.93269">
        <ele>374.3</ele>
        <time>2021-05-23T11:23:21Z</time>
      </trkpt>
      <trkpt lat="47.15204" lon="4.93276">
        <ele>374.3</ele>
        <time>2021-05-23T11:23:25Z</time>
      </trkpt>
      <trkpt lat="47.15209" lon="4.93282">
        <ele>374.3</ele>
        <time>2021-05-23T11:23:31Z</time>
      </trkpt>
      <trkpt lat="47.15213" lon="4.93287">
        <ele>375</ele>
        <time>2021-05-23T11:23:36Z</time>
      </trkpt>
      <trkpt lat="47.15214" lon="4.93295">
        <ele>374.4</ele>
        <time>2021-05-23T11:23:41Z</time>
      </trkpt>
      <trkpt lat="47.15216" lon="4.93302">
        <ele>375.6</ele>
        <time>2021-05-23T11:23:45Z</time>
      </trkpt>
      <trkpt lat="47.15218" lon="4.93308">
        <ele>374.2</ele>
        <time>2021-05-23T11:23:49Z</time>
      </trkpt>
      <trkpt lat="47.1522" lon="4.93315">
        <ele>375.1</ele>
        <time>2021-05-23T11:23:54Z</time>
      </trkpt>
      <trkpt lat="47.15224" lon="4.9332">
        <ele>376.1</ele>
        <time>2021-05-23T11:23:59Z</time>
      </trkpt>
      <trkpt lat="47.15229" lon="4.93324">
        <ele>375.1</ele>
        <time>2021-05-23T11:24:04Z</time>
      </trkpt>
      <trkpt lat="47.15233" lon="4.93328">
        <ele>375.6</ele>
        <time>2021-05-23T11:24:10Z</time>
      </trkpt>
      <trkpt lat="47.15237" lon="4.93333">
        <ele>376.9</ele>
        <time>2021-05-23T11:24:16Z</time>
      </trkpt>
      <trkpt lat="47.1524" lon="4.93339">
        <ele>376.9</ele>
        <time>2021-05-23T11:24:20Z</time>
      </trkpt>
      <trkpt lat="47.15242" lon="4.93345">
        <ele>377.3</ele>
        <time>2021-05-23T11:24:24Z</time>
      </trkpt>
      <trkpt lat="47.15245" lon="4.93353">
        <ele>378.3</ele>
        <time>2021-05-23T11:24:30Z</time>
      </trkpt>
      <trkpt lat="47.1525" lon="4.9336">
        <ele>380.3</ele>
        <time>2021-05-23T11:24:36Z</time>
      </trkpt>
      <trkpt lat="47.15254" lon="4.93365">
        <ele>381</ele>
        <time>2021-05-23T11:24:41Z</time>
      </trkpt>
      <trkpt lat="47.15258" lon="4.93373">
        <ele>381.3</ele>
        <time>2021-05-23T11:24:49Z</time>
      </trkpt>
      <trkpt lat="47.15262" lon="4.93378">
        <ele>381.2</ele>
        <time>2021-05-23T11:24:53Z</time>
      </trkpt>
      <trkpt lat="47.15262" lon="4.93385">
        <ele>382.9</ele>
        <time>2021-05-23T11:24:57Z</time>
      </trkpt>
      <trkpt lat="47.15258" lon="4.93392">
        <ele>381.8</ele>
        <time>2021-05-23T11:25:01Z</time>
      </trkpt>
      <trkpt lat="47.15253" lon="4.93395">
        <ele>382.5</ele>
        <time>2021-05-23T11:25:04Z</time>
      </trkpt>
      <trkpt lat="47.15249" lon="4.93399">
        <ele>380.6</ele>
        <time>2021-05-23T11:25:08Z</time>
      </trkpt>
      <trkpt lat="47.15249" lon="4.93408">
        <ele>379.3</ele>
        <time>2021-05-23T11:25:15Z</time>
      </trkpt>
      <trkpt lat="47.1525" lon="4.93415">
        <ele>378.9</ele>
        <time>2021-05-23T11:25:19Z</time>
      </trkpt>
      <trkpt lat="47.15254" lon="4.93421">
        <ele>380</ele>
        <time>2021-05-23T11:25:23Z</time>
      </trkpt>
      <trkpt lat="47.15259" lon="4.93427">
        <ele>382</ele>
        <time>2021-05-23T11:25:27Z</time>
      </trkpt>
      <trkpt lat="47.15262" lon="4.93435">
        <ele>382</ele>
        <time>2021-05-23T11:25:33Z</time>
      </trkpt>
      <trkpt lat="47.15268" lon="4.93442">
        <ele>381.4</ele>
        <time>2021-05-23T11:25:39Z</time>
      </trkpt>
      <trkpt lat="47.15268" lon="4.93461">
        <ele>375.6</ele>
        <time>2021-05-23T11:25:53Z</time>
      </trkpt>
      <trkpt lat="47.15262" lon="4.93463">
        <ele>375.5</ele>
        <time>2021-05-23T11:25:58Z</time>
      </trkpt>
      <trkpt lat="47.15257" lon="4.93463">
        <ele>376.5</ele>
        <time>2021-05-23T11:26:02Z</time>
      </trkpt>
      <trkpt lat="47.15253" lon="4.93462">
        <ele>375.2</ele>
        <time>2021-05-23T11:26:06Z</time>
      </trkpt>
      <trkpt lat="47.15249" lon="4.93467">
        <ele>376.4</ele>
        <time>2021-05-23T11:26:10Z</time>
      </trkpt>
      <trkpt lat="47.15247" lon="4.93474">
        <ele>376.1</ele>
        <time>2021-05-23T11:26:15Z</time>
      </trkpt>
      <trkpt lat="47.15243" lon="4.93479">
        <ele>374.1</ele>
        <time>2021-05-23T11:26:22Z</time>
      </trkpt>
      <trkpt lat="47.15237" lon="4.93482">
        <ele>374.3</ele>
        <time>2021-05-23T11:26:27Z</time>
      </trkpt>
      <trkpt lat="47.15232" lon="4.93489">
        <ele>370.7</ele>
        <time>2021-05-23T11:26:34Z</time>
      </trkpt>
      <trkpt lat="47.15227" lon="4.93493">
        <ele>371.4</ele>
        <time>2021-05-23T11:26:38Z</time>
      </trkpt>
      <trkpt lat="47.15223" lon="4.93498">
        <ele>370.8</ele>
        <time>2021-05-23T11:26:43Z</time>
      </trkpt>
      <trkpt lat="47.15219" lon="4.93503">
        <ele>370.7</ele>
        <time>2021-05-23T11:26:48Z</time>
      </trkpt>
      <trkpt lat="47.15217" lon="4.93511">
        <ele>369.6</ele>
        <time>2021-05-23T11:26:52Z</time>
      </trkpt>
      <trkpt lat="47.15213" lon="4.93516">
        <ele>369.3</ele>
        <time>2021-05-23T11:26:56Z</time>
      </trkpt>
      <trkpt lat="47.1521" lon="4.93521">
        <ele>368.2</ele>
        <time>2021-05-23T11:27:01Z</time>
      </trkpt>
      <trkpt lat="47.15206" lon="4.93527">
        <ele>367.2</ele>
        <time>2021-05-23T11:27:06Z</time>
      </trkpt>
      <trkpt lat="47.15203" lon="4.93532">
        <ele>366.6</ele>
        <time>2021-05-23T11:27:10Z</time>
      </trkpt>
      <trkpt lat="47.15198" lon="4.93537">
        <ele>365.5</ele>
        <time>2021-05-23T11:27:14Z</time>
      </trkpt>
      <trkpt lat="47.15194" lon="4.93542">
        <ele>365.2</ele>
        <time>2021-05-23T11:27:19Z</time>
      </trkpt>
      <trkpt lat="47.1519" lon="4.93546">
        <ele>365.2</ele>
        <time>2021-05-23T11:27:23Z</time>
      </trkpt>
      <trkpt lat="47.15186" lon="4.9355">
        <ele>365.1</ele>
        <time>2021-05-23T11:27:27Z</time>
      </trkpt>
      <trkpt lat="47.15182" lon="4.93555">
        <ele>365.1</ele>
        <time>2021-05-23T11:27:32Z</time>
      </trkpt>
      <trkpt lat="47.15176" lon="4.93559">
        <ele>364</ele>
        <time>2021-05-23T11:27:37Z</time>
      </trkpt>
      <trkpt lat="47.15172" lon="4.93564">
        <ele>364</ele>
        <time>2021-05-23T11:27:41Z</time>
      </trkpt>
      <trkpt lat="47.15169" lon="4.9357">
        <ele>361.6</ele>
        <time>2021-05-23T11:27:45Z</time>
      </trkpt>
      <trkpt lat="47.15165" lon="4.93575">
        <ele>361.8</ele>
        <time>2021-05-23T11:27:50Z</time>
      </trkpt>
      <trkpt lat="47.1516" lon="4.93578">
        <ele>359.6</ele>
        <time>2021-05-23T11:27:54Z</time>
      </trkpt>
      <trkpt lat="47.15156" lon="4.93583">
        <ele>360</ele>
        <time>2021-05-23T11:27:59Z</time>
      </trkpt>
      <trkpt lat="47.15152" lon="4.93589">
        <ele>359.2</ele>
        <time>2021-05-23T11:28:03Z</time>
      </trkpt>
      <trkpt lat="47.15148" lon="4.93593">
        <ele>356.8</ele>
        <time>2021-05-23T11:28:07Z</time>
      </trkpt>
      <trkpt lat="47.15143" lon="4.93596">
        <ele>357.9</ele>
        <time>2021-05-23T11:28:11Z</time>
      </trkpt>
      <trkpt lat="47.15139" lon="4.936">
        <ele>356.6</ele>
        <time>2021-05-23T11:28:16Z</time>
      </trkpt>
      <trkpt lat="47.15135" lon="4.93603">
        <ele>355.7</ele>
        <time>2021-05-23T11:28:20Z</time>
      </trkpt>
      <trkpt lat="47.15131" lon="4.93608">
        <ele>356.5</ele>
        <time>2021-05-23T11:28:29Z</time>
      </trkpt>
      <trkpt lat="47.15127" lon="4.93611">
        <ele>356.5</ele>
        <time>2021-05-23T11:28:33Z</time>
      </trkpt>
      <trkpt lat="47.15122" lon="4.9362">
        <ele>355.6</ele>
        <time>2021-05-23T11:28:37Z</time>
      </trkpt>
      <trkpt lat="47.15118" lon="4.93625">
        <ele>354.3</ele>
        <time>2021-05-23T11:28:40Z</time>
      </trkpt>
      <trkpt lat="47.15115" lon="4.93631">
        <ele>353.7</ele>
        <time>2021-05-23T11:28:46Z</time>
      </trkpt>
      <trkpt lat="47.1511" lon="4.93636">
        <ele>356</ele>
        <time>2021-05-23T11:28:50Z</time>
      </trkpt>
      <trkpt lat="47.15106" lon="4.9364">
        <ele>355.5</ele>
        <time>2021-05-23T11:28:55Z</time>
      </trkpt>
      <trkpt lat="47.15102" lon="4.93645">
        <ele>355.7</ele>
        <time>2021-05-23T11:28:58Z</time>
      </trkpt>
      <trkpt lat="47.151" lon="4.93654">
        <ele>348.7</ele>
        <time>2021-05-23T11:29:06Z</time>
      </trkpt>
      <trkpt lat="47.151" lon="4.93665">
        <ele>346.5</ele>
        <time>2021-05-23T11:29:10Z</time>
      </trkpt>
      <trkpt lat="47.15101" lon="4.93673">
        <ele>347.4</ele>
        <time>2021-05-23T11:29:14Z</time>
      </trkpt>
      <trkpt lat="47.15104" lon="4.93678">
        <ele>344.9</ele>
        <time>2021-05-23T11:29:20Z</time>
      </trkpt>
      <trkpt lat="47.15102" lon="4.93684">
        <ele>346.1</ele>
        <time>2021-05-23T11:29:26Z</time>
      </trkpt>
      <trkpt lat="47.151" lon="4.93691">
        <ele>346.2</ele>
        <time>2021-05-23T11:29:30Z</time>
      </trkpt>
      <trkpt lat="47.15098" lon="4.93699">
        <ele>345.4</ele>
        <time>2021-05-23T11:29:33Z</time>
      </trkpt>
      <trkpt lat="47.15096" lon="4.93706">
        <ele>344.5</ele>
        <time>2021-05-23T11:29:37Z</time>
      </trkpt>
      <trkpt lat="47.15094" lon="4.93713">
        <ele>342.5</ele>
        <time>2021-05-23T11:29:42Z</time>
      </trkpt>
      <trkpt lat="47.15094" lon="4.9372">
        <ele>342.3</ele>
        <time>2021-05-23T11:29:48Z</time>
      </trkpt>
      <trkpt lat="47.15096" lon="4.9373">
        <ele>340.3</ele>
        <time>2021-05-23T11:29:53Z</time>
      </trkpt>
      <trkpt lat="47.15096" lon="4.93737">
        <ele>337.4</ele>
        <time>2021-05-23T11:29:58Z</time>
      </trkpt>
      <trkpt lat="47.15093" lon="4.93743">
        <ele>337.4</ele>
        <time>2021-05-23T11:30:02Z</time>
      </trkpt>
      <trkpt lat="47.1509" lon="4.93749">
        <ele>336.1</ele>
        <time>2021-05-23T11:30:05Z</time>
      </trkpt>
      <trkpt lat="47.15089" lon="4.9376">
        <ele>336.8</ele>
        <time>2021-05-23T11:30:17Z</time>
      </trkpt>
      <trkpt lat="47.15087" lon="4.93767">
        <ele>334.2</ele>
        <time>2021-05-23T11:30:20Z</time>
      </trkpt>
      <trkpt lat="47.15086" lon="4.93776">
        <ele>335.1</ele>
        <time>2021-05-23T11:30:23Z</time>
      </trkpt>
      <trkpt lat="47.15084" lon="4.93783">
        <ele>334.3</ele>
        <time>2021-05-23T11:30:27Z</time>
      </trkpt>
      <trkpt lat="47.15081" lon="4.93792">
        <ele>335.8</ele>
        <time>2021-05-23T11:30:31Z</time>
      </trkpt>
      <trkpt lat="47.1508" lon="4.938">
        <ele>334.1</ele>
        <time>2021-05-23T11:30:39Z</time>
      </trkpt>
      <trkpt lat="47.15079" lon="4.93809">
        <ele>333</ele>
        <time>2021-05-23T11:30:44Z</time>
      </trkpt>
      <trkpt lat="47.15079" lon="4.93822">
        <ele>332.4</ele>
        <time>2021-05-23T11:30:47Z</time>
      </trkpt>
      <trkpt lat="47.15078" lon="4.93832">
        <ele>333.1</ele>
        <time>2021-05-23T11:30:51Z</time>
      </trkpt>
      <trkpt lat="47.15081" lon="4.9384">
        <ele>335.2</ele>
        <time>2021-05-23T11:30:55Z</time>
      </trkpt>
      <trkpt lat="47.15082" lon="4.93847">
        <ele>333.2</ele>
        <time>2021-05-23T11:31:01Z</time>
      </trkpt>
      <trkpt lat="47.15083" lon="4.93856">
        <ele>330.9</ele>
        <time>2021-05-23T11:31:07Z</time>
      </trkpt>
      <trkpt lat="47.15085" lon="4.93866">
        <ele>332.4</ele>
        <time>2021-05-23T11:31:12Z</time>
      </trkpt>
      <trkpt lat="47.15085" lon="4.93872">
        <ele>332</ele>
        <time>2021-05-23T11:31:19Z</time>
      </trkpt>
      <trkpt lat="47.15083" lon="4.93879">
        <ele>333.6</ele>
        <time>2021-05-23T11:31:23Z</time>
      </trkpt>
      <trkpt lat="47.15079" lon="4.93883">
        <ele>332.4</ele>
        <time>2021-05-23T11:31:25Z</time>
      </trkpt>
      <trkpt lat="47.15075" lon="4.9389">
        <ele>329.9</ele>
        <time>2021-05-23T11:31:29Z</time>
      </trkpt>
      <trkpt lat="47.15074" lon="4.93898">
        <ele>328.5</ele>
        <time>2021-05-23T11:31:32Z</time>
      </trkpt>
      <trkpt lat="47.15073" lon="4.93907">
        <ele>327.3</ele>
        <time>2021-05-23T11:31:37Z</time>
      </trkpt>
      <trkpt lat="47.15073" lon="4.93914">
        <ele>328.4</ele>
        <time>2021-05-23T11:31:40Z</time>
      </trkpt>
      <trkpt lat="47.15069" lon="4.93923">
        <ele>327.6</ele>
        <time>2021-05-23T11:31:53Z</time>
      </trkpt>
      <trkpt lat="47.15066" lon="4.93928">
        <ele>325.1</ele>
        <time>2021-05-23T11:31:56Z</time>
      </trkpt>
      <trkpt lat="47.15061" lon="4.93935">
        <ele>325.3</ele>
        <time>2021-05-23T11:32:00Z</time>
      </trkpt>
      <trkpt lat="47.15057" lon="4.93942">
        <ele>321.1</ele>
        <time>2021-05-23T11:32:04Z</time>
      </trkpt>
      <trkpt lat="47.15053" lon="4.93947">
        <ele>323.3</ele>
        <time>2021-05-23T11:32:08Z</time>
      </trkpt>
      <trkpt lat="47.15049" lon="4.93951">
        <ele>320.3</ele>
        <time>2021-05-23T11:32:12Z</time>
      </trkpt>
      <trkpt lat="47.15043" lon="4.93953">
        <ele>320.5</ele>
        <time>2021-05-23T11:32:16Z</time>
      </trkpt>
      <trkpt lat="47.15039" lon="4.93953">
        <ele>318.4</ele>
        <time>2021-05-23T11:32:19Z</time>
      </trkpt>
      <trkpt lat="47.15033" lon="4.93952">
        <ele>317.2</ele>
        <time>2021-05-23T11:32:29Z</time>
      </trkpt>
      <trkpt lat="47.15027" lon="4.9395">
        <ele>316.7</ele>
        <time>2021-05-23T11:32:33Z</time>
      </trkpt>
      <trkpt lat="47.15021" lon="4.93953">
        <ele>316.4</ele>
        <time>2021-05-23T11:32:37Z</time>
      </trkpt>
      <trkpt lat="47.15019" lon="4.93961">
        <ele>317</ele>
        <time>2021-05-23T11:32:41Z</time>
      </trkpt>
      <trkpt lat="47.15021" lon="4.9397">
        <ele>313.8</ele>
        <time>2021-05-23T11:32:45Z</time>
      </trkpt>
      <trkpt lat="47.15023" lon="4.93977">
        <ele>312.4</ele>
        <time>2021-05-23T11:32:49Z</time>
      </trkpt>
      <trkpt lat="47.15022" lon="4.93984">
        <ele>312.1</ele>
        <time>2021-05-23T11:32:53Z</time>
      </trkpt>
      <trkpt lat="47.15022" lon="4.93994">
        <ele>312.4</ele>
        <time>2021-05-23T11:32:57Z</time>
      </trkpt>
      <trkpt lat="47.15023" lon="4.94003">
        <ele>311.2</ele>
        <time>2021-05-23T11:33:00Z</time>
      </trkpt>
      <trkpt lat="47.15025" lon="4.94011">
        <ele>310.6</ele>
        <time>2021-05-23T11:33:03Z</time>
      </trkpt>
      <trkpt lat="47.15024" lon="4.94021">
        <ele>309.1</ele>
        <time>2021-05-23T11:33:22Z</time>
      </trkpt>
      <trkpt lat="47.15022" lon="4.9403">
        <ele>306.7</ele>
        <time>2021-05-23T11:33:27Z</time>
      </trkpt>
      <trkpt lat="47.15021" lon="4.94037">
        <ele>307.4</ele>
        <time>2021-05-23T11:33:29Z</time>
      </trkpt>
      <trkpt lat="47.15018" lon="4.94044">
        <ele>306.7</ele>
        <time>2021-05-23T11:33:33Z</time>
      </trkpt>
      <trkpt lat="47.15017" lon="4.94052">
        <ele>305.1</ele>
        <time>2021-05-23T11:33:37Z</time>
      </trkpt>
      <trkpt lat="47.15016" lon="4.94059">
        <ele>307.3</ele>
        <time>2021-05-23T11:33:40Z</time>
      </trkpt>
      <trkpt lat="47.15016" lon="4.94067">
        <ele>302.8</ele>
        <time>2021-05-23T11:33:44Z</time>
      </trkpt>
      <trkpt lat="47.15019" lon="4.94076">
        <ele>301.7</ele>
        <time>2021-05-23T11:33:48Z</time>
      </trkpt>
      <trkpt lat="47.15023" lon="4.94081">
        <ele>301.2</ele>
        <time>2021-05-23T11:33:53Z</time>
      </trkpt>
      <trkpt lat="47.15025" lon="4.94087">
        <ele>305</ele>
        <time>2021-05-23T11:34:00Z</time>
      </trkpt>
      <trkpt lat="47.15025" lon="4.94097">
        <ele>300.9</ele>
        <time>2021-05-23T11:34:05Z</time>
      </trkpt>
      <trkpt lat="47.1503" lon="4.94101">
        <ele>301.2</ele>
        <time>2021-05-23T11:34:09Z</time>
      </trkpt>
      <trkpt lat="47.15034" lon="4.94106">
        <ele>298.4</ele>
        <time>2021-05-23T11:34:12Z</time>
      </trkpt>
      <trkpt lat="47.15039" lon="4.94112">
        <ele>300.7</ele>
        <time>2021-05-23T11:34:16Z</time>
      </trkpt>
      <trkpt lat="47.15039" lon="4.94121">
        <ele>300.8</ele>
        <time>2021-05-23T11:34:25Z</time>
      </trkpt>
      <trkpt lat="47.15042" lon="4.94126">
        <ele>299.9</ele>
        <time>2021-05-23T11:34:28Z</time>
      </trkpt>
      <trkpt lat="47.15046" lon="4.9413">
        <ele>302.5</ele>
        <time>2021-05-23T11:34:31Z</time>
      </trkpt>
      <trkpt lat="47.1505" lon="4.94133">
        <ele>301.3</ele>
        <time>2021-05-23T11:34:37Z</time>
      </trkpt>
      <trkpt lat="47.15057" lon="4.94139">
        <ele>302.8</ele>
        <time>2021-05-23T11:34:42Z</time>
      </trkpt>
      <trkpt lat="47.15061" lon="4.94145">
        <ele>304.8</ele>
        <time>2021-05-23T11:34:49Z</time>
      </trkpt>
      <trkpt lat="47.15065" lon="4.9415">
        <ele>307.4</ele>
        <time>2021-05-23T11:34:53Z</time>
      </trkpt>
      <trkpt lat="47.15069" lon="4.94154">
        <ele>307.4</ele>
        <time>2021-05-23T11:34:56Z</time>
      </trkpt>
      <trkpt lat="47.15072" lon="4.9416">
        <ele>306.4</ele>
        <time>2021-05-23T11:35:02Z</time>
      </trkpt>
      <trkpt lat="47.15076" lon="4.94166">
        <ele>302.6</ele>
        <time>2021-05-23T11:35:07Z</time>
      </trkpt>
      <trkpt lat="47.15082" lon="4.94169">
        <ele>298</ele>
        <time>2021-05-23T11:35:16Z</time>
      </trkpt>
      <trkpt lat="47.15089" lon="4.94174">
        <ele>301.3</ele>
        <time>2021-05-23T11:35:20Z</time>
      </trkpt>
      <trkpt lat="47.15096" lon="4.94177">
        <ele>301.8</ele>
        <time>2021-05-23T11:35:23Z</time>
      </trkpt>
      <trkpt lat="47.15101" lon="4.94181">
        <ele>298</ele>
        <time>2021-05-23T11:35:28Z</time>
      </trkpt>
      <trkpt lat="47.15105" lon="4.94183">
        <ele>294.9</ele>
        <time>2021-05-23T11:35:30Z</time>
      </trkpt>
      <trkpt lat="47.1511" lon="4.94187">
        <ele>293.4</ele>
        <time>2021-05-23T11:35:34Z</time>
      </trkpt>
      <trkpt lat="47.15113" lon="4.94193">
        <ele>297.2</ele>
        <time>2021-05-23T11:35:41Z</time>
      </trkpt>
      <trkpt lat="47.15118" lon="4.94199">
        <ele>297.7</ele>
        <time>2021-05-23T11:35:46Z</time>
      </trkpt>
      <trkpt lat="47.15123" lon="4.942">
        <ele>300.6</ele>
        <time>2021-05-23T11:35:52Z</time>
      </trkpt>
      <trkpt lat="47.15127" lon="4.94206">
        <ele>303.7</ele>
        <time>2021-05-23T11:35:56Z</time>
      </trkpt>
      <trkpt lat="47.15132" lon="4.94211">
        <ele>303.3</ele>
        <time>2021-05-23T11:36:01Z</time>
      </trkpt>
      <trkpt lat="47.15135" lon="4.94217">
        <ele>304.9</ele>
        <time>2021-05-23T11:36:07Z</time>
      </trkpt>
      <trkpt lat="47.15137" lon="4.94223">
        <ele>304.6</ele>
        <time>2021-05-23T11:36:09Z</time>
      </trkpt>
      <trkpt lat="47.1514" lon="4.9423">
        <ele>304.4</ele>
        <time>2021-05-23T11:36:13Z</time>
      </trkpt>
      <trkpt lat="47.15144" lon="4.94235">
        <ele>305.6</ele>
        <time>2021-05-23T11:36:19Z</time>
      </trkpt>
      <trkpt lat="47.15149" lon="4.9424">
        <ele>309.1</ele>
        <time>2021-05-23T11:36:24Z</time>
      </trkpt>
      <trkpt lat="47.15153" lon="4.94244">
        <ele>309.4</ele>
        <time>2021-05-23T11:36:30Z</time>
      </trkpt>
      <trkpt lat="47.15159" lon="4.94247">
        <ele>310.3</ele>
        <time>2021-05-23T11:36:34Z</time>
      </trkpt>
      <trkpt lat="47.15166" lon="4.94248">
        <ele>308.5</ele>
        <time>2021-05-23T11:36:41Z</time>
      </trkpt>
      <trkpt lat="47.15172" lon="4.94251">
        <ele>310.6</ele>
        <time>2021-05-23T11:36:47Z</time>
      </trkpt>
      <trkpt lat="47.15177" lon="4.94253">
        <ele>308.7</ele>
        <time>2021-05-23T11:36:51Z</time>
      </trkpt>
      <trkpt lat="47.15182" lon="4.94255">
        <ele>309.9</ele>
        <time>2021-05-23T11:36:55Z</time>
      </trkpt>
      <trkpt lat="47.15187" lon="4.94261">
        <ele>309.3</ele>
        <time>2021-05-23T11:37:01Z</time>
      </trkpt>
      <trkpt lat="47.15193" lon="4.94265">
        <ele>308.4</ele>
        <time>2021-05-23T11:37:07Z</time>
      </trkpt>
      <trkpt lat="47.152" lon="4.94269">
        <ele>305.9</ele>
        <time>2021-05-23T11:37:13Z</time>
      </trkpt>
      <trkpt lat="47.15205" lon="4.94273">
        <ele>303.9</ele>
        <time>2021-05-23T11:37:17Z</time>
      </trkpt>
      <trkpt lat="47.15208" lon="4.94277">
        <ele>304.2</ele>
        <time>2021-05-23T11:37:20Z</time>
      </trkpt>
      <trkpt lat="47.15213" lon="4.9428">
        <ele>305.4</ele>
        <time>2021-05-23T11:37:23Z</time>
      </trkpt>
      <trkpt lat="47.15217" lon="4.94284">
        <ele>304</ele>
        <time>2021-05-23T11:37:28Z</time>
      </trkpt>
      <trkpt lat="47.15222" lon="4.94288">
        <ele>308.2</ele>
        <time>2021-05-23T11:37:33Z</time>
      </trkpt>
      <trkpt lat="47.15227" lon="4.94287">
        <ele>310.8</ele>
        <time>2021-05-23T11:37:37Z</time>
      </trkpt>
      <trkpt lat="47.15232" lon="4.94291">
        <ele>310.5</ele>
        <time>2021-05-23T11:37:43Z</time>
      </trkpt>
      <trkpt lat="47.15235" lon="4.94297">
        <ele>311.5</ele>
        <time>2021-05-23T11:37:46Z</time>
      </trkpt>
      <trkpt lat="47.15239" lon="4.94303">
        <ele>311.4</ele>
        <time>2021-05-23T11:37:52Z</time>
      </trkpt>
      <trkpt lat="47.15246" lon="4.94307">
        <ele>303.9</ele>
        <time>2021-05-23T11:37:57Z</time>
      </trkpt>
      <trkpt lat="47.15251" lon="4.9431">
        <ele>306.4</ele>
        <time>2021-05-23T11:38:01Z</time>
      </trkpt>
      <trkpt lat="47.15255" lon="4.94313">
        <ele>306.6</ele>
        <time>2021-05-23T11:38:05Z</time>
      </trkpt>
      <trkpt lat="47.1526" lon="4.94317">
        <ele>305.5</ele>
        <time>2021-05-23T11:38:10Z</time>
      </trkpt>
      <trkpt lat="47.15265" lon="4.94317">
        <ele>306.7</ele>
        <time>2021-05-23T11:38:14Z</time>
      </trkpt>
      <trkpt lat="47.15269" lon="4.94321">
        <ele>308.9</ele>
        <time>2021-05-23T11:38:18Z</time>
      </trkpt>
      <trkpt lat="47.15272" lon="4.94327">
        <ele>310.7</ele>
        <time>2021-05-23T11:38:21Z</time>
      </trkpt>
      <trkpt lat="47.15276" lon="4.94331">
        <ele>310.8</ele>
        <time>2021-05-23T11:38:25Z</time>
      </trkpt>
      <trkpt lat="47.15281" lon="4.94333">
        <ele>313.2</ele>
        <time>2021-05-23T11:38:31Z</time>
      </trkpt>
      <trkpt lat="47.15285" lon="4.94337">
        <ele>311.9</ele>
        <time>2021-05-23T11:38:35Z</time>
      </trkpt>
      <trkpt lat="47.15291" lon="4.94341">
        <ele>309.5</ele>
        <time>2021-05-23T11:38:39Z</time>
      </trkpt>
      <trkpt lat="47.15295" lon="4.94345">
        <ele>310.4</ele>
        <time>2021-05-23T11:38:42Z</time>
      </trkpt>
      <trkpt lat="47.15299" lon="4.94349">
        <ele>312.1</ele>
        <time>2021-05-23T11:38:47Z</time>
      </trkpt>
      <trkpt lat="47.15304" lon="4.94354">
        <ele>313.5</ele>
        <time>2021-05-23T11:38:52Z</time>
      </trkpt>
      <trkpt lat="47.15309" lon="4.94357">
        <ele>315.2</ele>
        <time>2021-05-23T11:38:55Z</time>
      </trkpt>
      <trkpt lat="47.15314" lon="4.94362">
        <ele>317.4</ele>
        <time>2021-05-23T11:39:01Z</time>
      </trkpt>
      <trkpt lat="47.15318" lon="4.94365">
        <ele>318.3</ele>
        <time>2021-05-23T11:39:06Z</time>
      </trkpt>
      <trkpt lat="47.15323" lon="4.94367">
        <ele>320.4</ele>
        <time>2021-05-23T11:39:12Z</time>
      </trkpt>
      <trkpt lat="47.15328" lon="4.94367">
        <ele>315.1</ele>
        <time>2021-05-23T11:39:17Z</time>
      </trkpt>
      <trkpt lat="47.15333" lon="4.94368">
        <ele>317</ele>
        <time>2021-05-23T11:39:21Z</time>
      </trkpt>
      <trkpt lat="47.1534" lon="4.9437">
        <ele>317.1</ele>
        <time>2021-05-23T11:39:27Z</time>
      </trkpt>
      <trkpt lat="47.15346" lon="4.94373">
        <ele>318.7</ele>
        <time>2021-05-23T11:39:33Z</time>
      </trkpt>
      <trkpt lat="47.15352" lon="4.94374">
        <ele>317</ele>
        <time>2021-05-23T11:39:39Z</time>
      </trkpt>
      <trkpt lat="47.15357" lon="4.94374">
        <ele>317.9</ele>
        <time>2021-05-23T11:39:45Z</time>
      </trkpt>
      <trkpt lat="47.15362" lon="4.94375">
        <ele>319.7</ele>
        <time>2021-05-23T11:39:50Z</time>
      </trkpt>
      <trkpt lat="47.15366" lon="4.94378">
        <ele>321.2</ele>
        <time>2021-05-23T11:39:55Z</time>
      </trkpt>
      <trkpt lat="47.15372" lon="4.94379">
        <ele>321.4</ele>
        <time>2021-05-23T11:40:00Z</time>
      </trkpt>
      <trkpt lat="47.15379" lon="4.94379">
        <ele>321.9</ele>
        <time>2021-05-23T11:40:06Z</time>
      </trkpt>
      <trkpt lat="47.15384" lon="4.94378">
        <ele>320.6</ele>
        <time>2021-05-23T11:40:12Z</time>
      </trkpt>
      <trkpt lat="47.1539" lon="4.94377">
        <ele>320.5</ele>
        <time>2021-05-23T11:42:09Z</time>
      </trkpt>
      <trkpt lat="47.15395" lon="4.94379">
        <ele>321.2</ele>
        <time>2021-05-23T11:42:15Z</time>
      </trkpt>
      <trkpt lat="47.15401" lon="4.94381">
        <ele>320.3</ele>
        <time>2021-05-23T11:42:19Z</time>
      </trkpt>
      <trkpt lat="47.15406" lon="4.9438">
        <ele>320.8</ele>
        <time>2021-05-23T11:42:23Z</time>
      </trkpt>
      <trkpt lat="47.15413" lon="4.94379">
        <ele>323.6</ele>
        <time>2021-05-23T11:42:29Z</time>
      </trkpt>
      <trkpt lat="47.15418" lon="4.94377">
        <ele>326.5</ele>
        <time>2021-05-23T11:42:35Z</time>
      </trkpt>
      <trkpt lat="47.15424" lon="4.94375">
        <ele>326.4</ele>
        <time>2021-05-23T11:42:41Z</time>
      </trkpt>
      <trkpt lat="47.15429" lon="4.94374">
        <ele>326.3</ele>
        <time>2021-05-23T11:42:47Z</time>
      </trkpt>
      <trkpt lat="47.15434" lon="4.94374">
        <ele>325.6</ele>
        <time>2021-05-23T11:42:53Z</time>
      </trkpt>
      <trkpt lat="47.1544" lon="4.94376">
        <ele>327.3</ele>
        <time>2021-05-23T11:43:00Z</time>
      </trkpt>
      <trkpt lat="47.15445" lon="4.94377">
        <ele>327.4</ele>
        <time>2021-05-23T11:43:05Z</time>
      </trkpt>
      <trkpt lat="47.1545" lon="4.94374">
        <ele>327.3</ele>
        <time>2021-05-23T11:43:10Z</time>
      </trkpt>
      <trkpt lat="47.15455" lon="4.94374">
        <ele>327.8</ele>
        <time>2021-05-23T11:43:15Z</time>
      </trkpt>
      <trkpt lat="47.15461" lon="4.94373">
        <ele>326.4</ele>
        <time>2021-05-23T11:43:21Z</time>
      </trkpt>
      <trkpt lat="47.15467" lon="4.94373">
        <ele>327.5</ele>
        <time>2021-05-23T11:43:28Z</time>
      </trkpt>
      <trkpt lat="47.15473" lon="4.94369">
        <ele>326.4</ele>
        <time>2021-05-23T11:43:34Z</time>
      </trkpt>
      <trkpt lat="47.15477" lon="4.94365">
        <ele>326.1</ele>
        <time>2021-05-23T11:43:39Z</time>
      </trkpt>
      <trkpt lat="47.15483" lon="4.94362">
        <ele>326.6</ele>
        <time>2021-05-23T11:43:45Z</time>
      </trkpt>
      <trkpt lat="47.15488" lon="4.94362">
        <ele>330.2</ele>
        <time>2021-05-23T11:43:51Z</time>
      </trkpt>
      <trkpt lat="47.15493" lon="4.94363">
        <ele>330</ele>
        <time>2021-05-23T11:43:56Z</time>
      </trkpt>
      <trkpt lat="47.15498" lon="4.94363">
        <ele>331.5</ele>
        <time>2021-05-23T11:44:01Z</time>
      </trkpt>
      <trkpt lat="47.15503" lon="4.94361">
        <ele>331.8</ele>
        <time>2021-05-23T11:44:06Z</time>
      </trkpt>
      <trkpt lat="47.15508" lon="4.94359">
        <ele>333.6</ele>
        <time>2021-05-23T11:44:12Z</time>
      </trkpt>
      <trkpt lat="47.15513" lon="4.9436">
        <ele>334.3</ele>
        <time>2021-05-23T11:44:19Z</time>
      </trkpt>
      <trkpt lat="47.15519" lon="4.9436">
        <ele>337.8</ele>
        <time>2021-05-23T11:44:25Z</time>
      </trkpt>
      <trkpt lat="47.15524" lon="4.9436">
        <ele>338</ele>
        <time>2021-05-23T11:44:30Z</time>
      </trkpt>
      <trkpt lat="47.15529" lon="4.94361">
        <ele>337.2</ele>
        <time>2021-05-23T11:44:35Z</time>
      </trkpt>
      <trkpt lat="47.15534" lon="4.94361">
        <ele>337</ele>
        <time>2021-05-23T11:44:39Z</time>
      </trkpt>
      <trkpt lat="47.15539" lon="4.9436">
        <ele>337.6</ele>
        <time>2021-05-23T11:44:43Z</time>
      </trkpt>
      <trkpt lat="47.15544" lon="4.9436">
        <ele>337.1</ele>
        <time>2021-05-23T11:44:47Z</time>
      </trkpt>
      <trkpt lat="47.15551" lon="4.94361">
        <ele>337.3</ele>
        <time>2021-05-23T11:44:53Z</time>
      </trkpt>
      <trkpt lat="47.15557" lon="4.94362">
        <ele>337.5</ele>
        <time>2021-05-23T11:44:59Z</time>
      </trkpt>
      <trkpt lat="47.15561" lon="4.94364">
        <ele>337.5</ele>
        <time>2021-05-23T11:45:04Z</time>
      </trkpt>
      <trkpt lat="47.15566" lon="4.94365">
        <ele>337.4</ele>
        <time>2021-05-23T11:45:08Z</time>
      </trkpt>
      <trkpt lat="47.15572" lon="4.94365">
        <ele>338.3</ele>
        <time>2021-05-23T11:45:13Z</time>
      </trkpt>
      <trkpt lat="47.15576" lon="4.94366">
        <ele>339.6</ele>
        <time>2021-05-23T11:45:17Z</time>
      </trkpt>
      <trkpt lat="47.15581" lon="4.94366">
        <ele>337.3</ele>
        <time>2021-05-23T11:45:21Z</time>
      </trkpt>
      <trkpt lat="47.15587" lon="4.94368">
        <ele>338.6</ele>
        <time>2021-05-23T11:45:27Z</time>
      </trkpt>
      <trkpt lat="47.1559" lon="4.94372">
        <ele>338.8</ele>
        <time>2021-05-23T11:45:32Z</time>
      </trkpt>
      <trkpt lat="47.15595" lon="4.94374">
        <ele>338.9</ele>
        <time>2021-05-23T11:45:38Z</time>
      </trkpt>
      <trkpt lat="47.156" lon="4.94374">
        <ele>339.6</ele>
        <time>2021-05-23T11:45:42Z</time>
      </trkpt>
      <trkpt lat="47.15606" lon="4.94374">
        <ele>340.2</ele>
        <time>2021-05-23T11:45:47Z</time>
      </trkpt>
      <trkpt lat="47.15611" lon="4.94373">
        <ele>340.6</ele>
        <time>2021-05-23T11:45:51Z</time>
      </trkpt>
      <trkpt lat="47.15616" lon="4.94372">
        <ele>341.6</ele>
        <time>2021-05-23T11:45:55Z</time>
      </trkpt>
      <trkpt lat="47.15622" lon="4.94372">
        <ele>342.1</ele>
        <time>2021-05-23T11:46:00Z</time>
      </trkpt>
      <trkpt lat="47.15627" lon="4.94372">
        <ele>339.9</ele>
        <time>2021-05-23T11:46:05Z</time>
      </trkpt>
      <trkpt lat="47.15631" lon="4.94372">
        <ele>341.6</ele>
        <time>2021-05-23T11:46:09Z</time>
      </trkpt>
      <trkpt lat="47.15636" lon="4.94371">
        <ele>341.9</ele>
        <time>2021-05-23T11:46:13Z</time>
      </trkpt>
      <trkpt lat="47.15641" lon="4.9437">
        <ele>340.5</ele>
        <time>2021-05-23T11:46:17Z</time>
      </trkpt>
      <trkpt lat="47.15647" lon="4.94366">
        <ele>340.7</ele>
        <time>2021-05-23T11:46:22Z</time>
      </trkpt>
      <trkpt lat="47.15651" lon="4.94362">
        <ele>339.8</ele>
        <time>2021-05-23T11:46:26Z</time>
      </trkpt>
      <trkpt lat="47.15657" lon="4.94358">
        <ele>340.2</ele>
        <time>2021-05-23T11:46:31Z</time>
      </trkpt>
      <trkpt lat="47.15662" lon="4.94358">
        <ele>340.2</ele>
        <time>2021-05-23T11:46:37Z</time>
      </trkpt>
      <trkpt lat="47.15668" lon="4.94358">
        <ele>341</ele>
        <time>2021-05-23T11:46:43Z</time>
      </trkpt>
      <trkpt lat="47.15673" lon="4.94358">
        <ele>340.7</ele>
        <time>2021-05-23T11:46:48Z</time>
      </trkpt>
      <trkpt lat="47.15678" lon="4.94355">
        <ele>340.8</ele>
        <time>2021-05-23T11:47:11Z</time>
      </trkpt>
      <trkpt lat="47.15683" lon="4.94352">
        <ele>340.4</ele>
        <time>2021-05-23T11:47:14Z</time>
      </trkpt>
      <trkpt lat="47.15686" lon="4.94347">
        <ele>343</ele>
        <time>2021-05-23T11:47:17Z</time>
      </trkpt>
      <trkpt lat="47.15691" lon="4.94342">
        <ele>342.4</ele>
        <time>2021-05-23T11:47:22Z</time>
      </trkpt>
      <trkpt lat="47.15695" lon="4.94338">
        <ele>342.7</ele>
        <time>2021-05-23T11:47:28Z</time>
      </trkpt>
      <trkpt lat="47.15701" lon="4.94336">
        <ele>342.7</ele>
        <time>2021-05-23T11:47:35Z</time>
      </trkpt>
      <trkpt lat="47.15706" lon="4.94336">
        <ele>343.2</ele>
        <time>2021-05-23T11:47:40Z</time>
      </trkpt>
      <trkpt lat="47.1571" lon="4.94334">
        <ele>342.6</ele>
        <time>2021-05-23T11:47:45Z</time>
      </trkpt>
      <trkpt lat="47.15716" lon="4.94331">
        <ele>344.2</ele>
        <time>2021-05-23T11:47:51Z</time>
      </trkpt>
      <trkpt lat="47.15722" lon="4.94328">
        <ele>344.2</ele>
        <time>2021-05-23T11:47:57Z</time>
      </trkpt>
      <trkpt lat="47.15726" lon="4.94326">
        <ele>345.4</ele>
        <time>2021-05-23T11:48:02Z</time>
      </trkpt>
      <trkpt lat="47.15731" lon="4.94325">
        <ele>345.7</ele>
        <time>2021-05-23T11:48:06Z</time>
      </trkpt>
      <trkpt lat="47.15735" lon="4.94323">
        <ele>346.8</ele>
        <time>2021-05-23T11:48:10Z</time>
      </trkpt>
      <trkpt lat="47.15742" lon="4.94322">
        <ele>347.1</ele>
        <time>2021-05-23T11:48:16Z</time>
      </trkpt>
      <trkpt lat="47.15746" lon="4.94318">
        <ele>347.2</ele>
        <time>2021-05-23T11:48:20Z</time>
      </trkpt>
      <trkpt lat="47.15752" lon="4.94314">
        <ele>348.3</ele>
        <time>2021-05-23T11:48:26Z</time>
      </trkpt>
      <trkpt lat="47.15757" lon="4.94315">
        <ele>347.2</ele>
        <time>2021-05-23T11:48:31Z</time>
      </trkpt>
      <trkpt lat="47.15762" lon="4.94315">
        <ele>344.6</ele>
        <time>2021-05-23T11:48:35Z</time>
      </trkpt>
      <trkpt lat="47.15767" lon="4.94314">
        <ele>345.9</ele>
        <time>2021-05-23T11:48:39Z</time>
      </trkpt>
      <trkpt lat="47.15773" lon="4.94314">
        <ele>347</ele>
        <time>2021-05-23T11:48:45Z</time>
      </trkpt>
      <trkpt lat="47.15779" lon="4.94313">
        <ele>347.5</ele>
        <time>2021-05-23T11:48:50Z</time>
      </trkpt>
      <trkpt lat="47.15784" lon="4.9431">
        <ele>346.3</ele>
        <time>2021-05-23T11:48:56Z</time>
      </trkpt>
      <trkpt lat="47.15789" lon="4.94305">
        <ele>347.6</ele>
        <time>2021-05-23T11:49:01Z</time>
      </trkpt>
      <trkpt lat="47.15793" lon="4.943">
        <ele>346.6</ele>
        <time>2021-05-23T11:49:07Z</time>
      </trkpt>
      <trkpt lat="47.15798" lon="4.94297">
        <ele>347</ele>
        <time>2021-05-23T11:49:12Z</time>
      </trkpt>
      <trkpt lat="47.15804" lon="4.94296">
        <ele>347.7</ele>
        <time>2021-05-23T11:49:20Z</time>
      </trkpt>
      <trkpt lat="47.15809" lon="4.94295">
        <ele>347.2</ele>
        <time>2021-05-23T11:49:24Z</time>
      </trkpt>
      <trkpt lat="47.15815" lon="4.94291">
        <ele>347</ele>
        <time>2021-05-23T11:49:30Z</time>
      </trkpt>
      <trkpt lat="47.15819" lon="4.94288">
        <ele>349.1</ele>
        <time>2021-05-23T11:49:37Z</time>
      </trkpt>
      <trkpt lat="47.15824" lon="4.94286">
        <ele>348.6</ele>
        <time>2021-05-23T11:49:42Z</time>
      </trkpt>
      <trkpt lat="47.1583" lon="4.94284">
        <ele>350.5</ele>
        <time>2021-05-23T11:49:48Z</time>
      </trkpt>
      <trkpt lat="47.15835" lon="4.94283">
        <ele>351.8</ele>
        <time>2021-05-23T11:49:53Z</time>
      </trkpt>
      <trkpt lat="47.1584" lon="4.94279">
        <ele>351.3</ele>
        <time>2021-05-23T11:49:59Z</time>
      </trkpt>
      <trkpt lat="47.15844" lon="4.94274">
        <ele>354.4</ele>
        <time>2021-05-23T11:50:05Z</time>
      </trkpt>
      <trkpt lat="47.1585" lon="4.94271">
        <ele>354.9</ele>
        <time>2021-05-23T11:50:41Z</time>
      </trkpt>
      <trkpt lat="47.15854" lon="4.94268">
        <ele>354.5</ele>
        <time>2021-05-23T11:50:44Z</time>
      </trkpt>
      <trkpt lat="47.15854" lon="4.94275">
        <ele>356.2</ele>
        <time>2021-05-23T11:50:51Z</time>
      </trkpt>
      <trkpt lat="47.1585" lon="4.94282">
        <ele>354.6</ele>
        <time>2021-05-23T11:50:57Z</time>
      </trkpt>
      <trkpt lat="47.15845" lon="4.9429">
        <ele>357.6</ele>
        <time>2021-05-23T11:51:02Z</time>
      </trkpt>
      <trkpt lat="47.15841" lon="4.94295">
        <ele>356.3</ele>
        <time>2021-05-23T11:51:05Z</time>
      </trkpt>
      <trkpt lat="47.15837" lon="4.94303">
        <ele>353.7</ele>
        <time>2021-05-23T11:51:11Z</time>
      </trkpt>
      <trkpt lat="47.15836" lon="4.94311">
        <ele>352.6</ele>
        <time>2021-05-23T11:51:15Z</time>
      </trkpt>
      <trkpt lat="47.15832" lon="4.94317">
        <ele>350.4</ele>
        <time>2021-05-23T11:51:20Z</time>
      </trkpt>
      <trkpt lat="47.1583" lon="4.94324">
        <ele>351.7</ele>
        <time>2021-05-23T11:51:27Z</time>
      </trkpt>
      <trkpt lat="47.15828" lon="4.9433">
        <ele>352.2</ele>
        <time>2021-05-23T11:51:33Z</time>
      </trkpt>
      <trkpt lat="47.15828" lon="4.94339">
        <ele>346.9</ele>
        <time>2021-05-23T11:51:41Z</time>
      </trkpt>
      <trkpt lat="47.15827" lon="4.94346">
        <ele>342.9</ele>
        <time>2021-05-23T11:51:45Z</time>
      </trkpt>
      <trkpt lat="47.15832" lon="4.94349">
        <ele>343.1</ele>
        <time>2021-05-23T11:51:51Z</time>
      </trkpt>
      <trkpt lat="47.15838" lon="4.94347">
        <ele>342.6</ele>
        <time>2021-05-23T11:51:56Z</time>
      </trkpt>
      <trkpt lat="47.15844" lon="4.94347">
        <ele>344.7</ele>
        <time>2021-05-23T11:52:00Z</time>
      </trkpt>
      <trkpt lat="47.15849" lon="4.94348">
        <ele>343.1</ele>
        <time>2021-05-23T11:52:05Z</time>
      </trkpt>
      <trkpt lat="47.15854" lon="4.94345">
        <ele>341.8</ele>
        <time>2021-05-23T11:52:10Z</time>
      </trkpt>
      <trkpt lat="47.15858" lon="4.94341">
        <ele>343.9</ele>
        <time>2021-05-23T11:52:14Z</time>
      </trkpt>
      <trkpt lat="47.15863" lon="4.9434">
        <ele>343.8</ele>
        <time>2021-05-23T11:52:18Z</time>
      </trkpt>
      <trkpt lat="47.15868" lon="4.94338">
        <ele>344.4</ele>
        <time>2021-05-23T11:52:22Z</time>
      </trkpt>
      <trkpt lat="47.15874" lon="4.94338">
        <ele>345.3</ele>
        <time>2021-05-23T11:52:27Z</time>
      </trkpt>
      <trkpt lat="47.15877" lon="4.94345">
        <ele>345.9</ele>
        <time>2021-05-23T11:52:31Z</time>
      </trkpt>
      <trkpt lat="47.15879" lon="4.94351">
        <ele>349.7</ele>
        <time>2021-05-23T11:53:55Z</time>
      </trkpt>
      <trkpt lat="47.15884" lon="4.94353">
        <ele>348.3</ele>
        <time>2021-05-23T11:54:00Z</time>
      </trkpt>
      <trkpt lat="47.15891" lon="4.94358">
        <ele>348.4</ele>
        <time>2021-05-23T11:54:05Z</time>
      </trkpt>
      <trkpt lat="47.15896" lon="4.94361">
        <ele>343.3</ele>
        <time>2021-05-23T11:54:10Z</time>
      </trkpt>
      <trkpt lat="47.15901" lon="4.94361">
        <ele>344.3</ele>
        <time>2021-05-23T11:54:13Z</time>
      </trkpt>
      <trkpt lat="47.15907" lon="4.94364">
        <ele>344</ele>
        <time>2021-05-23T11:54:19Z</time>
      </trkpt>
      <trkpt lat="47.15912" lon="4.94364">
        <ele>342.1</ele>
        <time>2021-05-23T11:54:23Z</time>
      </trkpt>
      <trkpt lat="47.15917" lon="4.94367">
        <ele>340.9</ele>
        <time>2021-05-23T11:54:28Z</time>
      </trkpt>
      <trkpt lat="47.15923" lon="4.9437">
        <ele>341.1</ele>
        <time>2021-05-23T11:54:34Z</time>
      </trkpt>
      <trkpt lat="47.15928" lon="4.94373">
        <ele>340.8</ele>
        <time>2021-05-23T11:54:38Z</time>
      </trkpt>
      <trkpt lat="47.15934" lon="4.94378">
        <ele>339.6</ele>
        <time>2021-05-23T11:54:43Z</time>
      </trkpt>
      <trkpt lat="47.15939" lon="4.94381">
        <ele>340.5</ele>
        <time>2021-05-23T11:54:48Z</time>
      </trkpt>
      <trkpt lat="47.15944" lon="4.94384">
        <ele>340.3</ele>
        <time>2021-05-23T11:54:53Z</time>
      </trkpt>
      <trkpt lat="47.1595" lon="4.94387">
        <ele>340.1</ele>
        <time>2021-05-23T11:54:58Z</time>
      </trkpt>
      <trkpt lat="47.15955" lon="4.94388">
        <ele>341.3</ele>
        <time>2021-05-23T11:55:03Z</time>
      </trkpt>
      <trkpt lat="47.1596" lon="4.94392">
        <ele>341.5</ele>
        <time>2021-05-23T11:55:08Z</time>
      </trkpt>
      <trkpt lat="47.15964" lon="4.94399">
        <ele>341.9</ele>
        <time>2021-05-23T11:55:12Z</time>
      </trkpt>
      <trkpt lat="47.15966" lon="4.94404">
        <ele>340</ele>
        <time>2021-05-23T11:55:16Z</time>
      </trkpt>
      <trkpt lat="47.1597" lon="4.94409">
        <ele>339.1</ele>
        <time>2021-05-23T11:55:20Z</time>
      </trkpt>
      <trkpt lat="47.15976" lon="4.94413">
        <ele>337.6</ele>
        <time>2021-05-23T11:55:26Z</time>
      </trkpt>
      <trkpt lat="47.1598" lon="4.94418">
        <ele>337.9</ele>
        <time>2021-05-23T11:55:30Z</time>
      </trkpt>
      <trkpt lat="47.15984" lon="4.94422">
        <ele>338.8</ele>
        <time>2021-05-23T11:55:35Z</time>
      </trkpt>
      <trkpt lat="47.1599" lon="4.94426">
        <ele>338.3</ele>
        <time>2021-05-23T11:55:40Z</time>
      </trkpt>
      <trkpt lat="47.15996" lon="4.94424">
        <ele>338.3</ele>
        <time>2021-05-23T11:55:45Z</time>
      </trkpt>
      <trkpt lat="47.16002" lon="4.94426">
        <ele>339.3</ele>
        <time>2021-05-23T11:55:49Z</time>
      </trkpt>
      <trkpt lat="47.16008" lon="4.9443">
        <ele>338.6</ele>
        <time>2021-05-23T11:55:53Z</time>
      </trkpt>
      <trkpt lat="47.16012" lon="4.94435">
        <ele>340</ele>
        <time>2021-05-23T11:55:58Z</time>
      </trkpt>
      <trkpt lat="47.16015" lon="4.94441">
        <ele>340.5</ele>
        <time>2021-05-23T11:56:03Z</time>
      </trkpt>
      <trkpt lat="47.16018" lon="4.94447">
        <ele>339.5</ele>
        <time>2021-05-23T11:56:07Z</time>
      </trkpt>
      <trkpt lat="47.16021" lon="4.94456">
        <ele>336.8</ele>
        <time>2021-05-23T11:56:13Z</time>
      </trkpt>
      <trkpt lat="47.16022" lon="4.94463">
        <ele>336.9</ele>
        <time>2021-05-23T11:56:19Z</time>
      </trkpt>
      <trkpt lat="47.1602" lon="4.9447">
        <ele>335.3</ele>
        <time>2021-05-23T11:56:24Z</time>
      </trkpt>
      <trkpt lat="47.16017" lon="4.94477">
        <ele>335.3</ele>
        <time>2021-05-23T11:56:30Z</time>
      </trkpt>
      <trkpt lat="47.16012" lon="4.94479">
        <ele>334.3</ele>
        <time>2021-05-23T11:56:35Z</time>
      </trkpt>
      <trkpt lat="47.16007" lon="4.94481">
        <ele>332.5</ele>
        <time>2021-05-23T11:56:39Z</time>
      </trkpt>
      <trkpt lat="47.16001" lon="4.94483">
        <ele>329</ele>
        <time>2021-05-23T11:56:44Z</time>
      </trkpt>
      <trkpt lat="47.15997" lon="4.94485">
        <ele>327.3</ele>
        <time>2021-05-23T11:56:48Z</time>
      </trkpt>
      <trkpt lat="47.15992" lon="4.94483">
        <ele>327</ele>
        <time>2021-05-23T11:56:53Z</time>
      </trkpt>
      <trkpt lat="47.15986" lon="4.94484">
        <ele>323.7</ele>
        <time>2021-05-23T11:56:59Z</time>
      </trkpt>
      <trkpt lat="47.1598" lon="4.94488">
        <ele>322.3</ele>
        <time>2021-05-23T11:57:04Z</time>
      </trkpt>
      <trkpt lat="47.15975" lon="4.9449">
        <ele>321.2</ele>
        <time>2021-05-23T11:57:08Z</time>
      </trkpt>
      <trkpt lat="47.15968" lon="4.94492">
        <ele>320.5</ele>
        <time>2021-05-23T11:57:15Z</time>
      </trkpt>
      <trkpt lat="47.15963" lon="4.94491">
        <ele>320.7</ele>
        <time>2021-05-23T11:57:20Z</time>
      </trkpt>
      <trkpt lat="47.15957" lon="4.94495">
        <ele>320.4</ele>
        <time>2021-05-23T11:57:26Z</time>
      </trkpt>
      <trkpt lat="47.15952" lon="4.94497">
        <ele>321.9</ele>
        <time>2021-05-23T11:57:31Z</time>
      </trkpt>
      <trkpt lat="47.15947" lon="4.945">
        <ele>322.9</ele>
        <time>2021-05-23T11:57:35Z</time>
      </trkpt>
      <trkpt lat="47.15942" lon="4.94507">
        <ele>323.1</ele>
        <time>2021-05-23T11:57:40Z</time>
      </trkpt>
      <trkpt lat="47.15938" lon="4.94513">
        <ele>322.4</ele>
        <time>2021-05-23T11:57:45Z</time>
      </trkpt>
      <trkpt lat="47.15935" lon="4.9452">
        <ele>322.9</ele>
        <time>2021-05-23T11:57:51Z</time>
      </trkpt>
      <trkpt lat="47.1593" lon="4.94525">
        <ele>319</ele>
        <time>2021-05-23T11:57:56Z</time>
      </trkpt>
      <trkpt lat="47.15927" lon="4.94531">
        <ele>318</ele>
        <time>2021-05-23T11:58:00Z</time>
      </trkpt>
      <trkpt lat="47.15925" lon="4.94539">
        <ele>317.2</ele>
        <time>2021-05-23T11:58:05Z</time>
      </trkpt>
      <trkpt lat="47.15929" lon="4.94542">
        <ele>316.2</ele>
        <time>2021-05-23T11:58:19Z</time>
      </trkpt>
      <trkpt lat="47.15926" lon="4.94547">
        <ele>312.8</ele>
        <time>2021-05-23T11:59:00Z</time>
      </trkpt>
      <trkpt lat="47.15922" lon="4.94551">
        <ele>313</ele>
        <time>2021-05-23T11:59:04Z</time>
      </trkpt>
      <trkpt lat="47.15918" lon="4.94557">
        <ele>312.4</ele>
        <time>2021-05-23T11:59:08Z</time>
      </trkpt>
      <trkpt lat="47.15914" lon="4.94562">
        <ele>312</ele>
        <time>2021-05-23T11:59:12Z</time>
      </trkpt>
      <trkpt lat="47.15911" lon="4.94569">
        <ele>312.5</ele>
        <time>2021-05-23T11:59:16Z</time>
      </trkpt>
      <trkpt lat="47.15912" lon="4.94577">
        <ele>308.9</ele>
        <time>2021-05-23T11:59:21Z</time>
      </trkpt>
      <trkpt lat="47.15919" lon="4.94583">
        <ele>305.7</ele>
        <time>2021-05-23T11:59:26Z</time>
      </trkpt>
      <trkpt lat="47.15923" lon="4.94587">
        <ele>304.3</ele>
        <time>2021-05-23T11:59:30Z</time>
      </trkpt>
      <trkpt lat="47.15928" lon="4.94585">
        <ele>304.4</ele>
        <time>2021-05-23T11:59:36Z</time>
      </trkpt>
      <trkpt lat="47.15931" lon="4.9459">
        <ele>305.9</ele>
        <time>2021-05-23T12:01:24Z</time>
      </trkpt>
      <trkpt lat="47.15935" lon="4.94591">
        <ele>304.8</ele>
        <time>2021-05-23T12:01:29Z</time>
      </trkpt>
      <trkpt lat="47.1594" lon="4.94595">
        <ele>304.2</ele>
        <time>2021-05-23T12:01:34Z</time>
      </trkpt>
      <trkpt lat="47.15946" lon="4.94599">
        <ele>302.8</ele>
        <time>2021-05-23T12:01:39Z</time>
      </trkpt>
      <trkpt lat="47.15951" lon="4.94603">
        <ele>302.2</ele>
        <time>2021-05-23T12:01:43Z</time>
      </trkpt>
      <trkpt lat="47.15954" lon="4.94608">
        <ele>300.1</ele>
        <time>2021-05-23T12:01:47Z</time>
      </trkpt>
      <trkpt lat="47.15958" lon="4.94615">
        <ele>298.4</ele>
        <time>2021-05-23T12:01:53Z</time>
      </trkpt>
      <trkpt lat="47.15962" lon="4.94621">
        <ele>298.6</ele>
        <time>2021-05-23T12:01:58Z</time>
      </trkpt>
      <trkpt lat="47.15965" lon="4.94628">
        <ele>299.1</ele>
        <time>2021-05-23T12:02:02Z</time>
      </trkpt>
      <trkpt lat="47.15968" lon="4.94634">
        <ele>299.2</ele>
        <time>2021-05-23T12:02:06Z</time>
      </trkpt>
      <trkpt lat="47.15972" lon="4.9464">
        <ele>297.3</ele>
        <time>2021-05-23T12:02:12Z</time>
      </trkpt>
      <trkpt lat="47.15976" lon="4.94645">
        <ele>296.2</ele>
        <time>2021-05-23T12:02:17Z</time>
      </trkpt>
      <trkpt lat="47.1598" lon="4.94649">
        <ele>294.1</ele>
        <time>2021-05-23T12:02:22Z</time>
      </trkpt>
      <trkpt lat="47.15985" lon="4.94655">
        <ele>294.6</ele>
        <time>2021-05-23T12:02:26Z</time>
      </trkpt>
      <trkpt lat="47.15988" lon="4.94662">
        <ele>293.8</ele>
        <time>2021-05-23T12:02:30Z</time>
      </trkpt>
      <trkpt lat="47.1599" lon="4.94669">
        <ele>291.7</ele>
        <time>2021-05-23T12:02:36Z</time>
      </trkpt>
      <trkpt lat="47.15993" lon="4.94675">
        <ele>290.7</ele>
        <time>2021-05-23T12:02:40Z</time>
      </trkpt>
      <trkpt lat="47.15996" lon="4.94683">
        <ele>291</ele>
        <time>2021-05-23T12:02:45Z</time>
      </trkpt>
      <trkpt lat="47.15998" lon="4.94689">
        <ele>291.2</ele>
        <time>2021-05-23T12:02:48Z</time>
      </trkpt>
      <trkpt lat="47.16" lon="4.94696">
        <ele>289</ele>
        <time>2021-05-23T12:02:52Z</time>
      </trkpt>
      <trkpt lat="47.16001" lon="4.94704">
        <ele>287.8</ele>
        <time>2021-05-23T12:03:00Z</time>
      </trkpt>
      <trkpt lat="47.16005" lon="4.94702">
        <ele>285.4</ele>
        <time>2021-05-23T12:03:08Z</time>
      </trkpt>
      <trkpt lat="47.1601" lon="4.94703">
        <ele>285.4</ele>
        <time>2021-05-23T12:03:11Z</time>
      </trkpt>
      <trkpt lat="47.16015" lon="4.94704">
        <ele>284.5</ele>
        <time>2021-05-23T12:03:14Z</time>
      </trkpt>
      <trkpt lat="47.1602" lon="4.94706">
        <ele>283.9</ele>
        <time>2021-05-23T12:03:18Z</time>
      </trkpt>
      <trkpt lat="47.16026" lon="4.94708">
        <ele>281.6</ele>
        <time>2021-05-23T12:03:22Z</time>
      </trkpt>
      <trkpt lat="47.1603" lon="4.94711">
        <ele>280.4</ele>
        <time>2021-05-23T12:03:27Z</time>
      </trkpt>
      <trkpt lat="47.16035" lon="4.94712">
        <ele>279.6</ele>
        <time>2021-05-23T12:03:31Z</time>
      </trkpt>
      <trkpt lat="47.16041" lon="4.94714">
        <ele>278.8</ele>
        <time>2021-05-23T12:03:36Z</time>
      </trkpt>
      <trkpt lat="47.16045" lon="4.94717">
        <ele>278.9</ele>
        <time>2021-05-23T12:03:40Z</time>
      </trkpt>
      <trkpt lat="47.1605" lon="4.94719">
        <ele>278.8</ele>
        <time>2021-05-23T12:03:43Z</time>
      </trkpt>
      <trkpt lat="47.16054" lon="4.94723">
        <ele>278.8</ele>
        <time>2021-05-23T12:03:48Z</time>
      </trkpt>
      <trkpt lat="47.16059" lon="4.94725">
        <ele>277.5</ele>
        <time>2021-05-23T12:03:52Z</time>
      </trkpt>
      <trkpt lat="47.16065" lon="4.94727">
        <ele>277.5</ele>
        <time>2021-05-23T12:03:57Z</time>
      </trkpt>
      <trkpt lat="47.1607" lon="4.94728">
        <ele>277.9</ele>
        <time>2021-05-23T12:04:00Z</time>
      </trkpt>
      <trkpt lat="47.16074" lon="4.94731">
        <ele>276.7</ele>
        <time>2021-05-23T12:04:04Z</time>
      </trkpt>
      <trkpt lat="47.16079" lon="4.94733">
        <ele>276.2</ele>
        <time>2021-05-23T12:04:10Z</time>
      </trkpt>
      <trkpt lat="47.16083" lon="4.94738">
        <ele>277.6</ele>
        <time>2021-05-23T12:04:14Z</time>
      </trkpt>
      <trkpt lat="47.16086" lon="4.94745">
        <ele>276.5</ele>
        <time>2021-05-23T12:04:18Z</time>
      </trkpt>
      <trkpt lat="47.1609" lon="4.94753">
        <ele>275.9</ele>
        <time>2021-05-23T12:04:22Z</time>
      </trkpt>
      <trkpt lat="47.16094" lon="4.94757">
        <ele>276.3</ele>
        <time>2021-05-23T12:04:25Z</time>
      </trkpt>
      <trkpt lat="47.16099" lon="4.9476">
        <ele>277.4</ele>
        <time>2021-05-23T12:04:30Z</time>
      </trkpt>
      <trkpt lat="47.16103" lon="4.94762">
        <ele>277.7</ele>
        <time>2021-05-23T12:04:34Z</time>
      </trkpt>
      <trkpt lat="47.16107" lon="4.94767">
        <ele>279</ele>
        <time>2021-05-23T12:04:39Z</time>
      </trkpt>
      <trkpt lat="47.16109" lon="4.94775">
        <ele>278.1</ele>
        <time>2021-05-23T12:04:43Z</time>
      </trkpt>
      <trkpt lat="47.16108" lon="4.94782">
        <ele>276.4</ele>
        <time>2021-05-23T12:04:46Z</time>
      </trkpt>
      <trkpt lat="47.16106" lon="4.9479">
        <ele>275.3</ele>
        <time>2021-05-23T12:04:51Z</time>
      </trkpt>
      <trkpt lat="47.16104" lon="4.94797">
        <ele>276.1</ele>
        <time>2021-05-23T12:04:55Z</time>
      </trkpt>
      <trkpt lat="47.16103" lon="4.94805">
        <ele>273.6</ele>
        <time>2021-05-23T12:05:00Z</time>
      </trkpt>
      <trkpt lat="47.16098" lon="4.9483">
        <ele>274.1</ele>
        <time>2021-05-23T12:05:15Z</time>
      </trkpt>
      <trkpt lat="47.16096" lon="4.94838">
        <ele>271.9</ele>
        <time>2021-05-23T12:05:19Z</time>
      </trkpt>
      <trkpt lat="47.16096" lon="4.94846">
        <ele>270.3</ele>
        <time>2021-05-23T12:05:24Z</time>
      </trkpt>
      <trkpt lat="47.16096" lon="4.94853">
        <ele>268.2</ele>
        <time>2021-05-23T12:05:28Z</time>
      </trkpt>
      <trkpt lat="47.16097" lon="4.9486">
        <ele>268.1</ele>
        <time>2021-05-23T12:05:32Z</time>
      </trkpt>
      <trkpt lat="47.16097" lon="4.94868">
        <ele>263.3</ele>
        <time>2021-05-23T12:05:37Z</time>
      </trkpt>
      <trkpt lat="47.16098" lon="4.94875">
        <ele>262.8</ele>
        <time>2021-05-23T12:05:41Z</time>
      </trkpt>
      <trkpt lat="47.16099" lon="4.94883">
        <ele>263.9</ele>
        <time>2021-05-23T12:05:45Z</time>
      </trkpt>
      <trkpt lat="47.161" lon="4.94891">
        <ele>260.9</ele>
        <time>2021-05-23T12:05:50Z</time>
      </trkpt>
      <trkpt lat="47.16101" lon="4.949">
        <ele>260.7</ele>
        <time>2021-05-23T12:05:54Z</time>
      </trkpt>
      <trkpt lat="47.161" lon="4.94907">
        <ele>260.4</ele>
        <time>2021-05-23T12:05:58Z</time>
      </trkpt>
      <trkpt lat="47.161" lon="4.94915">
        <ele>260.7</ele>
        <time>2021-05-23T12:06:02Z</time>
      </trkpt>
      <trkpt lat="47.16099" lon="4.94922">
        <ele>256.7</ele>
        <time>2021-05-23T12:06:06Z</time>
      </trkpt>
      <trkpt lat="47.161" lon="4.94929">
        <ele>256.6</ele>
        <time>2021-05-23T12:06:10Z</time>
      </trkpt>
      <trkpt lat="47.16101" lon="4.94937">
        <ele>257.4</ele>
        <time>2021-05-23T12:06:15Z</time>
      </trkpt>
      <trkpt lat="47.16101" lon="4.94945">
        <ele>258.1</ele>
        <time>2021-05-23T12:06:19Z</time>
      </trkpt>
      <trkpt lat="47.161" lon="4.94953">
        <ele>259.3</ele>
        <time>2021-05-23T12:06:23Z</time>
      </trkpt>
      <trkpt lat="47.161" lon="4.94961">
        <ele>258.4</ele>
        <time>2021-05-23T12:06:26Z</time>
      </trkpt>
      <trkpt lat="47.16099" lon="4.94968">
        <ele>260.2</ele>
        <time>2021-05-23T12:06:30Z</time>
      </trkpt>
      <trkpt lat="47.16099" lon="4.94975">
        <ele>257.9</ele>
        <time>2021-05-23T12:06:33Z</time>
      </trkpt>
      <trkpt lat="47.161" lon="4.94982">
        <ele>256.1</ele>
        <time>2021-05-23T12:06:37Z</time>
      </trkpt>
      <trkpt lat="47.161" lon="4.94989">
        <ele>253.3</ele>
        <time>2021-05-23T12:06:42Z</time>
      </trkpt>
      <trkpt lat="47.16101" lon="4.94996">
        <ele>253.6</ele>
        <time>2021-05-23T12:06:47Z</time>
      </trkpt>
      <trkpt lat="47.16099" lon="4.95016">
        <ele>253.3</ele>
        <time>2021-05-23T12:06:58Z</time>
      </trkpt>
      <trkpt lat="47.16099" lon="4.95026">
        <ele>254.3</ele>
        <time>2021-05-23T12:07:03Z</time>
      </trkpt>
      <trkpt lat="47.16097" lon="4.95055">
        <ele>253.1</ele>
        <time>2021-05-23T12:07:18Z</time>
      </trkpt>
      <trkpt lat="47.16098" lon="4.95064">
        <ele>251.7</ele>
        <time>2021-05-23T12:07:23Z</time>
      </trkpt>
      <trkpt lat="47.16099" lon="4.95071">
        <ele>251.2</ele>
        <time>2021-05-23T12:07:28Z</time>
      </trkpt>
      <trkpt lat="47.16092" lon="4.95088">
        <ele>250</ele>
        <time>2021-05-23T12:07:38Z</time>
      </trkpt>
      <trkpt lat="47.1609" lon="4.95095">
        <ele>252.1</ele>
        <time>2021-05-23T12:07:42Z</time>
      </trkpt>
      <trkpt lat="47.1609" lon="4.95106">
        <ele>249.7</ele>
        <time>2021-05-23T12:07:48Z</time>
      </trkpt>
      <trkpt lat="47.16089" lon="4.95115">
        <ele>249</ele>
        <time>2021-05-23T12:07:52Z</time>
      </trkpt>
      <trkpt lat="47.16077" lon="4.95147">
        <ele>250</ele>
        <time>2021-05-23T12:08:09Z</time>
      </trkpt>
      <trkpt lat="47.16069" lon="4.95159">
        <ele>251.3</ele>
        <time>2021-05-23T12:08:19Z</time>
      </trkpt>
      <trkpt lat="47.16066" lon="4.95164">
        <ele>250</ele>
        <time>2021-05-23T12:08:23Z</time>
      </trkpt>
      <trkpt lat="47.16063" lon="4.9517">
        <ele>249.9</ele>
        <time>2021-05-23T12:08:28Z</time>
      </trkpt>
      <trkpt lat="47.16059" lon="4.95175">
        <ele>249.4</ele>
        <time>2021-05-23T12:08:32Z</time>
      </trkpt>
      <trkpt lat="47.16054" lon="4.95182">
        <ele>248.8</ele>
        <time>2021-05-23T12:08:37Z</time>
      </trkpt>
      <trkpt lat="47.16052" lon="4.95189">
        <ele>249.7</ele>
        <time>2021-05-23T12:08:41Z</time>
      </trkpt>
      <trkpt lat="47.16049" lon="4.95198">
        <ele>251.8</ele>
        <time>2021-05-23T12:08:46Z</time>
      </trkpt>
      <trkpt lat="47.16046" lon="4.95206">
        <ele>253</ele>
        <time>2021-05-23T12:08:51Z</time>
      </trkpt>
      <trkpt lat="47.1604" lon="4.95252">
        <ele>249.1</ele>
        <time>2021-05-23T12:09:18Z</time>
      </trkpt>
      <trkpt lat="47.16036" lon="4.95257">
        <ele>249.3</ele>
        <time>2021-05-23T12:09:23Z</time>
      </trkpt>
      <trkpt lat="47.16029" lon="4.95254">
        <ele>248.3</ele>
        <time>2021-05-23T12:09:27Z</time>
      </trkpt>
      <trkpt lat="47.16023" lon="4.9525">
        <ele>244.9</ele>
        <time>2021-05-23T12:09:31Z</time>
      </trkpt>
      <trkpt lat="47.16019" lon="4.95247">
        <ele>245.1</ele>
        <time>2021-05-23T12:09:34Z</time>
      </trkpt>
      <trkpt lat="47.16014" lon="4.95242">
        <ele>248.7</ele>
        <time>2021-05-23T12:09:38Z</time>
      </trkpt>
      <trkpt lat="47.16009" lon="4.95239">
        <ele>247.3</ele>
        <time>2021-05-23T12:09:42Z</time>
      </trkpt>
      <trkpt lat="47.16004" lon="4.95237">
        <ele>247.3</ele>
        <time>2021-05-23T12:09:46Z</time>
      </trkpt>
      <trkpt lat="47.15998" lon="4.95235">
        <ele>247.3</ele>
        <time>2021-05-23T12:09:51Z</time>
      </trkpt>
      <trkpt lat="47.15993" lon="4.95234">
        <ele>244.3</ele>
        <time>2021-05-23T12:09:56Z</time>
      </trkpt>
      <trkpt lat="47.15987" lon="4.95234">
        <ele>242.9</ele>
        <time>2021-05-23T12:10:01Z</time>
      </trkpt>
      <trkpt lat="47.15981" lon="4.95232">
        <ele>243.6</ele>
        <time>2021-05-23T12:10:06Z</time>
      </trkpt>
      <trkpt lat="47.15976" lon="4.95231">
        <ele>241.8</ele>
        <time>2021-05-23T12:10:09Z</time>
      </trkpt>
      <trkpt lat="47.15955" lon="4.95226">
        <ele>242.3</ele>
        <time>2021-05-23T12:10:26Z</time>
      </trkpt>
      <trkpt lat="47.15948" lon="4.95229">
        <ele>243</ele>
        <time>2021-05-23T12:10:34Z</time>
      </trkpt>
      <trkpt lat="47.15922" lon="4.95249">
        <ele>245.2</ele>
        <time>2021-05-23T12:11:07Z</time>
      </trkpt>
      <trkpt lat="47.15922" lon="4.95256">
        <ele>245.1</ele>
        <time>2021-05-23T12:11:10Z</time>
      </trkpt>
      <trkpt lat="47.15921" lon="4.95266">
        <ele>246.7</ele>
        <time>2021-05-23T12:11:15Z</time>
      </trkpt>
      <trkpt lat="47.15918" lon="4.95272">
        <ele>245.9</ele>
        <time>2021-05-23T12:11:19Z</time>
      </trkpt>
      <trkpt lat="47.15913" lon="4.95296">
        <ele>245.3</ele>
        <time>2021-05-23T12:11:32Z</time>
      </trkpt>
      <trkpt lat="47.15913" lon="4.95306">
        <ele>245.9</ele>
        <time>2021-05-23T12:11:37Z</time>
      </trkpt>
      <trkpt lat="47.15911" lon="4.95315">
        <ele>246.1</ele>
        <time>2021-05-23T12:11:42Z</time>
      </trkpt>
      <trkpt lat="47.15909" lon="4.95322">
        <ele>243.3</ele>
        <time>2021-05-23T12:11:46Z</time>
      </trkpt>
      <trkpt lat="47.15907" lon="4.95331">
        <ele>243.8</ele>
        <time>2021-05-23T12:11:52Z</time>
      </trkpt>
      <trkpt lat="47.15906" lon="4.95341">
        <ele>244.7</ele>
        <time>2021-05-23T12:11:57Z</time>
      </trkpt>
      <trkpt lat="47.15905" lon="4.95348">
        <ele>245.2</ele>
        <time>2021-05-23T12:12:01Z</time>
      </trkpt>
      <trkpt lat="47.15904" lon="4.95356">
        <ele>243.9</ele>
        <time>2021-05-23T12:12:05Z</time>
      </trkpt>
      <trkpt lat="47.15903" lon="4.95362">
        <ele>246.2</ele>
        <time>2021-05-23T12:12:09Z</time>
      </trkpt>
      <trkpt lat="47.15893" lon="4.95379">
        <ele>246</ele>
        <time>2021-05-23T12:12:24Z</time>
      </trkpt>
      <trkpt lat="47.15889" lon="4.95385">
        <ele>243.5</ele>
        <time>2021-05-23T12:12:29Z</time>
      </trkpt>
      <trkpt lat="47.15887" lon="4.95391">
        <ele>241.6</ele>
        <time>2021-05-23T12:12:33Z</time>
      </trkpt>
      <trkpt lat="47.15886" lon="4.95398">
        <ele>244</ele>
        <time>2021-05-23T12:12:37Z</time>
      </trkpt>
      <trkpt lat="47.15883" lon="4.95405">
        <ele>243.7</ele>
        <time>2021-05-23T12:12:41Z</time>
      </trkpt>
      <trkpt lat="47.15877" lon="4.95415">
        <ele>243.8</ele>
        <time>2021-05-23T12:12:47Z</time>
      </trkpt>
      <trkpt lat="47.15874" lon="4.95423">
        <ele>245</ele>
        <time>2021-05-23T12:12:52Z</time>
      </trkpt>
      <trkpt lat="47.15872" lon="4.9543">
        <ele>245.3</ele>
        <time>2021-05-23T12:12:56Z</time>
      </trkpt>
      <trkpt lat="47.15868" lon="4.95437">
        <ele>245.9</ele>
        <time>2021-05-23T12:13:01Z</time>
      </trkpt>
      <trkpt lat="47.15863" lon="4.95441">
        <ele>245.6</ele>
        <time>2021-05-23T12:13:05Z</time>
      </trkpt>
      <trkpt lat="47.15849" lon="4.95448">
        <ele>244.5</ele>
        <time>2021-05-23T12:13:16Z</time>
      </trkpt>
      <trkpt lat="47.15842" lon="4.9545">
        <ele>245.6</ele>
        <time>2021-05-23T12:13:21Z</time>
      </trkpt>
      <trkpt lat="47.15837" lon="4.95454">
        <ele>247.6</ele>
        <time>2021-05-23T12:13:25Z</time>
      </trkpt>
      <trkpt lat="47.15832" lon="4.95457">
        <ele>246</ele>
        <time>2021-05-23T12:13:30Z</time>
      </trkpt>
      <trkpt lat="47.15827" lon="4.95461">
        <ele>244.4</ele>
        <time>2021-05-23T12:13:34Z</time>
      </trkpt>
      <trkpt lat="47.15823" lon="4.95467">
        <ele>243.4</ele>
        <time>2021-05-23T12:13:39Z</time>
      </trkpt>
      <trkpt lat="47.1582" lon="4.95472">
        <ele>242.2</ele>
        <time>2021-05-23T12:13:44Z</time>
      </trkpt>
      <trkpt lat="47.15816" lon="4.95476">
        <ele>242.3</ele>
        <time>2021-05-23T12:13:52Z</time>
      </trkpt>
      <trkpt lat="47.15811" lon="4.95477">
        <ele>240.3</ele>
        <time>2021-05-23T12:13:56Z</time>
      </trkpt>
      <trkpt lat="47.15804" lon="4.95479">
        <ele>239.9</ele>
        <time>2021-05-23T12:14:01Z</time>
      </trkpt>
      <trkpt lat="47.15799" lon="4.95485">
        <ele>242.7</ele>
        <time>2021-05-23T12:14:06Z</time>
      </trkpt>
      <trkpt lat="47.158" lon="4.95492">
        <ele>245.8</ele>
        <time>2021-05-23T12:14:40Z</time>
      </trkpt>
    </trkseg>
  </trk>
</gpx>